<?xml version="1.0" encoding="UTF-8" standalone="no" ?>
<gpx xmlns="http://www.topografix.com/GPX/1/1" xmlns:xsi="http://www.w3.org/2001/XMLSchema-instance" xsi:schemaLocation="http://www.topografix.com/GPX/1/1 http://www.topografix.com/GPX/1/1/gpx.xsd" version="1.1" creator="VisuGPX - https://www.visugpx.com">
  <metadata>
    <name>Gambaiseuil par le GR 22 - Etang Neuf</name>
  </metadata>
  <trk>
    <name><![CDATA[Gambaiseuil par le GR 22 - Etang Neuf_1]]></name>
    <extensions>
      <line xmlns="http://www.topografix.com/GPX/gpx_style/0/2">
        <color>0000FF</color>
        <width>4</width>
      </line>
    </extensions>
    <trkseg>
      <trkpt lat="48.75094" lon="1.77782">
        <ele>181.3</ele>
        <time>2022-03-24T07:55:16Z</time>
      </trkpt>
      <trkpt lat="48.75091" lon="1.77788">
        <ele>178.4</ele>
        <time>2022-03-24T07:55:48Z</time>
      </trkpt>
      <trkpt lat="48.75094" lon="1.77794">
        <ele>174</ele>
        <time>2022-03-24T07:56:07Z</time>
      </trkpt>
      <trkpt lat="48.75096" lon="1.77801">
        <ele>174.6</ele>
        <time>2022-03-24T07:56:16Z</time>
      </trkpt>
      <trkpt lat="48.75097" lon="1.77807">
        <ele>178</ele>
        <time>2022-03-24T07:56:26Z</time>
      </trkpt>
      <trkpt lat="48.75102" lon="1.77807">
        <ele>178</ele>
        <time>2022-03-24T07:56:34Z</time>
      </trkpt>
      <trkpt lat="48.75107" lon="1.77806">
        <ele>179.5</ele>
        <time>2022-03-24T07:56:39Z</time>
      </trkpt>
      <trkpt lat="48.75111" lon="1.77806">
        <ele>183.2</ele>
        <time>2022-03-24T07:56:45Z</time>
      </trkpt>
      <trkpt lat="48.75114" lon="1.77812">
        <ele>180.1</ele>
        <time>2022-03-24T07:56:57Z</time>
      </trkpt>
      <trkpt lat="48.75117" lon="1.77818">
        <ele>180.7</ele>
        <time>2022-03-24T07:57:04Z</time>
      </trkpt>
      <trkpt lat="48.75121" lon="1.7782">
        <ele>181.5</ele>
        <time>2022-03-24T07:57:12Z</time>
      </trkpt>
      <trkpt lat="48.75126" lon="1.7782">
        <ele>180.4</ele>
        <time>2022-03-24T07:57:18Z</time>
      </trkpt>
      <trkpt lat="48.75129" lon="1.77814">
        <ele>180.3</ele>
        <time>2022-03-24T07:57:23Z</time>
      </trkpt>
      <trkpt lat="48.7513" lon="1.77805">
        <ele>180.5</ele>
        <time>2022-03-24T07:57:28Z</time>
      </trkpt>
      <trkpt lat="48.75131" lon="1.77798">
        <ele>180.7</ele>
        <time>2022-03-24T07:57:32Z</time>
      </trkpt>
      <trkpt lat="48.75133" lon="1.77792">
        <ele>182.6</ele>
        <time>2022-03-24T07:57:38Z</time>
      </trkpt>
      <trkpt lat="48.75136" lon="1.77788">
        <ele>185</ele>
        <time>2022-03-24T07:57:44Z</time>
      </trkpt>
      <trkpt lat="48.75131" lon="1.77788">
        <ele>184.5</ele>
        <time>2022-03-24T07:57:56Z</time>
      </trkpt>
      <trkpt lat="48.75126" lon="1.77786">
        <ele>181.7</ele>
        <time>2022-03-24T07:58:00Z</time>
      </trkpt>
      <trkpt lat="48.75121" lon="1.77785">
        <ele>179.6</ele>
        <time>2022-03-24T07:58:07Z</time>
      </trkpt>
      <trkpt lat="48.75116" lon="1.77783">
        <ele>179.1</ele>
        <time>2022-03-24T07:58:13Z</time>
      </trkpt>
      <trkpt lat="48.75112" lon="1.77779">
        <ele>180.2</ele>
        <time>2022-03-24T07:58:19Z</time>
      </trkpt>
      <trkpt lat="48.75107" lon="1.77776">
        <ele>181.9</ele>
        <time>2022-03-24T07:58:30Z</time>
      </trkpt>
      <trkpt lat="48.75102" lon="1.77773">
        <ele>183.1</ele>
        <time>2022-03-24T07:58:36Z</time>
      </trkpt>
      <trkpt lat="48.75098" lon="1.77777">
        <ele>181.9</ele>
        <time>2022-03-24T07:58:44Z</time>
      </trkpt>
      <trkpt lat="48.75094" lon="1.77781">
        <ele>179.3</ele>
        <time>2022-03-24T07:58:50Z</time>
      </trkpt>
      <trkpt lat="48.7509" lon="1.77781">
        <ele>179.8</ele>
        <time>2022-03-24T07:58:59Z</time>
      </trkpt>
      <trkpt lat="48.75089" lon="1.77774">
        <ele>180.2</ele>
        <time>2022-03-24T08:02:39Z</time>
      </trkpt>
      <trkpt lat="48.75088" lon="1.77781">
        <ele>173.8</ele>
        <time>2022-03-24T08:03:48Z</time>
      </trkpt>
      <trkpt lat="48.7509" lon="1.77787">
        <ele>173.5</ele>
        <time>2022-03-24T08:04:31Z</time>
      </trkpt>
      <trkpt lat="48.75086" lon="1.77789">
        <ele>174.1</ele>
        <time>2022-03-24T08:06:02Z</time>
      </trkpt>
      <trkpt lat="48.7509" lon="1.77793">
        <ele>175.3</ele>
        <time>2022-03-24T08:06:53Z</time>
      </trkpt>
      <trkpt lat="48.75088" lon="1.77799">
        <ele>179.3</ele>
        <time>2022-03-24T08:07:42Z</time>
      </trkpt>
      <trkpt lat="48.75094" lon="1.778">
        <ele>180.9</ele>
        <time>2022-03-24T08:08:32Z</time>
      </trkpt>
      <trkpt lat="48.75099" lon="1.77802">
        <ele>180.5</ele>
        <time>2022-03-24T08:08:36Z</time>
      </trkpt>
      <trkpt lat="48.75104" lon="1.77804">
        <ele>179.7</ele>
        <time>2022-03-24T08:08:41Z</time>
      </trkpt>
      <trkpt lat="48.75108" lon="1.77809">
        <ele>179.1</ele>
        <time>2022-03-24T08:08:46Z</time>
      </trkpt>
      <trkpt lat="48.75113" lon="1.7781">
        <ele>178.8</ele>
        <time>2022-03-24T08:08:51Z</time>
      </trkpt>
      <trkpt lat="48.75119" lon="1.77809">
        <ele>178.2</ele>
        <time>2022-03-24T08:08:56Z</time>
      </trkpt>
      <trkpt lat="48.75124" lon="1.77809">
        <ele>177.6</ele>
        <time>2022-03-24T08:09:01Z</time>
      </trkpt>
      <trkpt lat="48.7513" lon="1.7781">
        <ele>177.3</ele>
        <time>2022-03-24T08:09:07Z</time>
      </trkpt>
      <trkpt lat="48.75133" lon="1.77805">
        <ele>177.4</ele>
        <time>2022-03-24T08:09:12Z</time>
      </trkpt>
      <trkpt lat="48.75132" lon="1.77797">
        <ele>178.5</ele>
        <time>2022-03-24T08:09:16Z</time>
      </trkpt>
      <trkpt lat="48.7513" lon="1.77791">
        <ele>179.6</ele>
        <time>2022-03-24T08:09:19Z</time>
      </trkpt>
      <trkpt lat="48.75129" lon="1.77784">
        <ele>180.9</ele>
        <time>2022-03-24T08:09:24Z</time>
      </trkpt>
      <trkpt lat="48.75129" lon="1.77775">
        <ele>181.6</ele>
        <time>2022-03-24T08:09:28Z</time>
      </trkpt>
      <trkpt lat="48.75128" lon="1.77767">
        <ele>183.1</ele>
        <time>2022-03-24T08:09:33Z</time>
      </trkpt>
      <trkpt lat="48.75127" lon="1.77761">
        <ele>184.4</ele>
        <time>2022-03-24T08:09:36Z</time>
      </trkpt>
      <trkpt lat="48.75126" lon="1.77751">
        <ele>184.7</ele>
        <time>2022-03-24T08:09:40Z</time>
      </trkpt>
      <trkpt lat="48.75125" lon="1.77744">
        <ele>184.4</ele>
        <time>2022-03-24T08:09:43Z</time>
      </trkpt>
      <trkpt lat="48.75124" lon="1.77737">
        <ele>184</ele>
        <time>2022-03-24T08:09:47Z</time>
      </trkpt>
      <trkpt lat="48.75125" lon="1.77728">
        <ele>182.6</ele>
        <time>2022-03-24T08:09:51Z</time>
      </trkpt>
      <trkpt lat="48.75126" lon="1.7772">
        <ele>180.6</ele>
        <time>2022-03-24T08:09:55Z</time>
      </trkpt>
      <trkpt lat="48.75127" lon="1.77711">
        <ele>180.9</ele>
        <time>2022-03-24T08:09:59Z</time>
      </trkpt>
      <trkpt lat="48.75126" lon="1.77703">
        <ele>182.7</ele>
        <time>2022-03-24T08:10:04Z</time>
      </trkpt>
      <trkpt lat="48.75126" lon="1.77695">
        <ele>184.6</ele>
        <time>2022-03-24T08:10:08Z</time>
      </trkpt>
      <trkpt lat="48.75125" lon="1.77687">
        <ele>185.3</ele>
        <time>2022-03-24T08:10:11Z</time>
      </trkpt>
      <trkpt lat="48.75125" lon="1.7768">
        <ele>185.6</ele>
        <time>2022-03-24T08:10:14Z</time>
      </trkpt>
      <trkpt lat="48.75125" lon="1.77672">
        <ele>185.4</ele>
        <time>2022-03-24T08:10:18Z</time>
      </trkpt>
      <trkpt lat="48.75125" lon="1.77665">
        <ele>185.2</ele>
        <time>2022-03-24T08:10:21Z</time>
      </trkpt>
      <trkpt lat="48.75124" lon="1.77658">
        <ele>184.7</ele>
        <time>2022-03-24T08:10:24Z</time>
      </trkpt>
      <trkpt lat="48.75123" lon="1.77649">
        <ele>184.2</ele>
        <time>2022-03-24T08:10:29Z</time>
      </trkpt>
      <trkpt lat="48.75122" lon="1.7764">
        <ele>183.7</ele>
        <time>2022-03-24T08:10:33Z</time>
      </trkpt>
      <trkpt lat="48.75123" lon="1.77631">
        <ele>184.5</ele>
        <time>2022-03-24T08:10:37Z</time>
      </trkpt>
      <trkpt lat="48.75123" lon="1.77623">
        <ele>185.2</ele>
        <time>2022-03-24T08:10:41Z</time>
      </trkpt>
      <trkpt lat="48.75123" lon="1.77615">
        <ele>186.1</ele>
        <time>2022-03-24T08:10:44Z</time>
      </trkpt>
      <trkpt lat="48.75123" lon="1.77606">
        <ele>187.1</ele>
        <time>2022-03-24T08:10:48Z</time>
      </trkpt>
      <trkpt lat="48.75123" lon="1.77599">
        <ele>186.7</ele>
        <time>2022-03-24T08:10:53Z</time>
      </trkpt>
      <trkpt lat="48.75121" lon="1.77593">
        <ele>184.7</ele>
        <time>2022-03-24T08:10:57Z</time>
      </trkpt>
      <trkpt lat="48.75119" lon="1.77586">
        <ele>183.9</ele>
        <time>2022-03-24T08:11:01Z</time>
      </trkpt>
      <trkpt lat="48.75117" lon="1.77579">
        <ele>184.8</ele>
        <time>2022-03-24T08:11:05Z</time>
      </trkpt>
      <trkpt lat="48.75118" lon="1.77571">
        <ele>185.1</ele>
        <time>2022-03-24T08:11:10Z</time>
      </trkpt>
      <trkpt lat="48.7512" lon="1.77565">
        <ele>182.4</ele>
        <time>2022-03-24T08:11:14Z</time>
      </trkpt>
      <trkpt lat="48.75119" lon="1.77558">
        <ele>180.3</ele>
        <time>2022-03-24T08:11:19Z</time>
      </trkpt>
      <trkpt lat="48.75118" lon="1.7755">
        <ele>180.7</ele>
        <time>2022-03-24T08:11:24Z</time>
      </trkpt>
      <trkpt lat="48.75118" lon="1.77543">
        <ele>181.6</ele>
        <time>2022-03-24T08:11:28Z</time>
      </trkpt>
      <trkpt lat="48.75118" lon="1.77535">
        <ele>182.9</ele>
        <time>2022-03-24T08:11:32Z</time>
      </trkpt>
      <trkpt lat="48.75117" lon="1.77528">
        <ele>184</ele>
        <time>2022-03-24T08:11:36Z</time>
      </trkpt>
      <trkpt lat="48.75118" lon="1.77521">
        <ele>183.8</ele>
        <time>2022-03-24T08:11:42Z</time>
      </trkpt>
      <trkpt lat="48.75119" lon="1.77512">
        <ele>182.9</ele>
        <time>2022-03-24T08:11:47Z</time>
      </trkpt>
      <trkpt lat="48.75119" lon="1.77505">
        <ele>183.3</ele>
        <time>2022-03-24T08:11:50Z</time>
      </trkpt>
      <trkpt lat="48.7512" lon="1.77498">
        <ele>184.5</ele>
        <time>2022-03-24T08:11:55Z</time>
      </trkpt>
      <trkpt lat="48.7512" lon="1.77489">
        <ele>184.9</ele>
        <time>2022-03-24T08:12:00Z</time>
      </trkpt>
      <trkpt lat="48.75118" lon="1.77482">
        <ele>185.2</ele>
        <time>2022-03-24T08:12:03Z</time>
      </trkpt>
      <trkpt lat="48.75117" lon="1.77475">
        <ele>185.2</ele>
        <time>2022-03-24T08:12:08Z</time>
      </trkpt>
      <trkpt lat="48.75114" lon="1.77467">
        <ele>185.6</ele>
        <time>2022-03-24T08:12:12Z</time>
      </trkpt>
      <trkpt lat="48.75112" lon="1.77459">
        <ele>186.2</ele>
        <time>2022-03-24T08:12:16Z</time>
      </trkpt>
      <trkpt lat="48.75111" lon="1.77452">
        <ele>186.1</ele>
        <time>2022-03-24T08:12:21Z</time>
      </trkpt>
      <trkpt lat="48.7511" lon="1.77445">
        <ele>185.3</ele>
        <time>2022-03-24T08:12:25Z</time>
      </trkpt>
      <trkpt lat="48.7511" lon="1.77436">
        <ele>186.2</ele>
        <time>2022-03-24T08:12:29Z</time>
      </trkpt>
      <trkpt lat="48.7511" lon="1.77427">
        <ele>187.8</ele>
        <time>2022-03-24T08:12:33Z</time>
      </trkpt>
      <trkpt lat="48.7511" lon="1.77419">
        <ele>188.2</ele>
        <time>2022-03-24T08:12:38Z</time>
      </trkpt>
      <trkpt lat="48.7511" lon="1.77411">
        <ele>188.7</ele>
        <time>2022-03-24T08:12:43Z</time>
      </trkpt>
      <trkpt lat="48.7511" lon="1.77402">
        <ele>190</ele>
        <time>2022-03-24T08:12:47Z</time>
      </trkpt>
      <trkpt lat="48.75109" lon="1.77396">
        <ele>191.6</ele>
        <time>2022-03-24T08:12:51Z</time>
      </trkpt>
      <trkpt lat="48.75108" lon="1.77388">
        <ele>192.1</ele>
        <time>2022-03-24T08:12:56Z</time>
      </trkpt>
      <trkpt lat="48.75107" lon="1.77381">
        <ele>192.9</ele>
        <time>2022-03-24T08:13:00Z</time>
      </trkpt>
      <trkpt lat="48.75108" lon="1.77373">
        <ele>194</ele>
        <time>2022-03-24T08:13:04Z</time>
      </trkpt>
      <trkpt lat="48.75108" lon="1.77366">
        <ele>194.8</ele>
        <time>2022-03-24T08:13:08Z</time>
      </trkpt>
      <trkpt lat="48.75107" lon="1.77359">
        <ele>195.1</ele>
        <time>2022-03-24T08:13:12Z</time>
      </trkpt>
      <trkpt lat="48.75105" lon="1.77352">
        <ele>194.5</ele>
        <time>2022-03-24T08:13:16Z</time>
      </trkpt>
      <trkpt lat="48.75102" lon="1.77344">
        <ele>193.2</ele>
        <time>2022-03-24T08:13:21Z</time>
      </trkpt>
      <trkpt lat="48.751" lon="1.77337">
        <ele>192.4</ele>
        <time>2022-03-24T08:13:25Z</time>
      </trkpt>
      <trkpt lat="48.75099" lon="1.77329">
        <ele>192</ele>
        <time>2022-03-24T08:13:30Z</time>
      </trkpt>
      <trkpt lat="48.751" lon="1.77321">
        <ele>191.3</ele>
        <time>2022-03-24T08:13:34Z</time>
      </trkpt>
      <trkpt lat="48.75102" lon="1.77314">
        <ele>190.1</ele>
        <time>2022-03-24T08:13:38Z</time>
      </trkpt>
      <trkpt lat="48.75102" lon="1.77307">
        <ele>189.8</ele>
        <time>2022-03-24T08:13:43Z</time>
      </trkpt>
      <trkpt lat="48.75102" lon="1.77299">
        <ele>190.1</ele>
        <time>2022-03-24T08:13:47Z</time>
      </trkpt>
      <trkpt lat="48.751" lon="1.77292">
        <ele>190.4</ele>
        <time>2022-03-24T08:13:51Z</time>
      </trkpt>
      <trkpt lat="48.751" lon="1.77284">
        <ele>190.5</ele>
        <time>2022-03-24T08:13:56Z</time>
      </trkpt>
      <trkpt lat="48.75101" lon="1.77277">
        <ele>190.6</ele>
        <time>2022-03-24T08:14:00Z</time>
      </trkpt>
      <trkpt lat="48.75101" lon="1.77269">
        <ele>190.4</ele>
        <time>2022-03-24T08:14:04Z</time>
      </trkpt>
      <trkpt lat="48.75101" lon="1.77262">
        <ele>190.5</ele>
        <time>2022-03-24T08:14:08Z</time>
      </trkpt>
      <trkpt lat="48.751" lon="1.77254">
        <ele>190.2</ele>
        <time>2022-03-24T08:14:13Z</time>
      </trkpt>
      <trkpt lat="48.751" lon="1.77247">
        <ele>190.1</ele>
        <time>2022-03-24T08:14:17Z</time>
      </trkpt>
      <trkpt lat="48.75099" lon="1.77239">
        <ele>189.9</ele>
        <time>2022-03-24T08:14:22Z</time>
      </trkpt>
      <trkpt lat="48.75099" lon="1.77231">
        <ele>189.7</ele>
        <time>2022-03-24T08:14:26Z</time>
      </trkpt>
      <trkpt lat="48.751" lon="1.77224">
        <ele>189.6</ele>
        <time>2022-03-24T08:14:30Z</time>
      </trkpt>
      <trkpt lat="48.751" lon="1.77216">
        <ele>189.7</ele>
        <time>2022-03-24T08:14:34Z</time>
      </trkpt>
      <trkpt lat="48.751" lon="1.77209">
        <ele>189.7</ele>
        <time>2022-03-24T08:14:38Z</time>
      </trkpt>
      <trkpt lat="48.751" lon="1.77201">
        <ele>189.6</ele>
        <time>2022-03-24T08:14:42Z</time>
      </trkpt>
      <trkpt lat="48.751" lon="1.77194">
        <ele>188.6</ele>
        <time>2022-03-24T08:14:46Z</time>
      </trkpt>
      <trkpt lat="48.75101" lon="1.77187">
        <ele>187.5</ele>
        <time>2022-03-24T08:14:51Z</time>
      </trkpt>
      <trkpt lat="48.75101" lon="1.7718">
        <ele>187.4</ele>
        <time>2022-03-24T08:14:56Z</time>
      </trkpt>
      <trkpt lat="48.75102" lon="1.77173">
        <ele>188</ele>
        <time>2022-03-24T08:15:01Z</time>
      </trkpt>
      <trkpt lat="48.75101" lon="1.77166">
        <ele>188.5</ele>
        <time>2022-03-24T08:15:05Z</time>
      </trkpt>
      <trkpt lat="48.75101" lon="1.77157">
        <ele>187.6</ele>
        <time>2022-03-24T08:15:09Z</time>
      </trkpt>
      <trkpt lat="48.75101" lon="1.7715">
        <ele>186</ele>
        <time>2022-03-24T08:15:14Z</time>
      </trkpt>
      <trkpt lat="48.75101" lon="1.77143">
        <ele>185.3</ele>
        <time>2022-03-24T08:15:18Z</time>
      </trkpt>
      <trkpt lat="48.75099" lon="1.77136">
        <ele>184.4</ele>
        <time>2022-03-24T08:15:22Z</time>
      </trkpt>
      <trkpt lat="48.75098" lon="1.77127">
        <ele>183.9</ele>
        <time>2022-03-24T08:15:26Z</time>
      </trkpt>
      <trkpt lat="48.75097" lon="1.77119">
        <ele>184.3</ele>
        <time>2022-03-24T08:15:31Z</time>
      </trkpt>
      <trkpt lat="48.75096" lon="1.77112">
        <ele>185.6</ele>
        <time>2022-03-24T08:15:35Z</time>
      </trkpt>
      <trkpt lat="48.75095" lon="1.77104">
        <ele>186.5</ele>
        <time>2022-03-24T08:15:40Z</time>
      </trkpt>
      <trkpt lat="48.75094" lon="1.77095">
        <ele>185.1</ele>
        <time>2022-03-24T08:15:44Z</time>
      </trkpt>
      <trkpt lat="48.75094" lon="1.77088">
        <ele>183.5</ele>
        <time>2022-03-24T08:15:48Z</time>
      </trkpt>
      <trkpt lat="48.75094" lon="1.7708">
        <ele>182.8</ele>
        <time>2022-03-24T08:15:53Z</time>
      </trkpt>
      <trkpt lat="48.75094" lon="1.77072">
        <ele>183</ele>
        <time>2022-03-24T08:15:57Z</time>
      </trkpt>
      <trkpt lat="48.75093" lon="1.77064">
        <ele>183.4</ele>
        <time>2022-03-24T08:16:01Z</time>
      </trkpt>
      <trkpt lat="48.75093" lon="1.77056">
        <ele>183.7</ele>
        <time>2022-03-24T08:16:05Z</time>
      </trkpt>
      <trkpt lat="48.75094" lon="1.77048">
        <ele>183.7</ele>
        <time>2022-03-24T08:16:09Z</time>
      </trkpt>
      <trkpt lat="48.75094" lon="1.77042">
        <ele>183.8</ele>
        <time>2022-03-24T08:16:13Z</time>
      </trkpt>
      <trkpt lat="48.75094" lon="1.77033">
        <ele>184.6</ele>
        <time>2022-03-24T08:16:17Z</time>
      </trkpt>
      <trkpt lat="48.75094" lon="1.77025">
        <ele>185.3</ele>
        <time>2022-03-24T08:16:21Z</time>
      </trkpt>
      <trkpt lat="48.75094" lon="1.77017">
        <ele>186.1</ele>
        <time>2022-03-24T08:16:26Z</time>
      </trkpt>
      <trkpt lat="48.75093" lon="1.77008">
        <ele>186.4</ele>
        <time>2022-03-24T08:16:30Z</time>
      </trkpt>
      <trkpt lat="48.75094" lon="1.77001">
        <ele>186.2</ele>
        <time>2022-03-24T08:16:34Z</time>
      </trkpt>
      <trkpt lat="48.75094" lon="1.76993">
        <ele>185.5</ele>
        <time>2022-03-24T08:16:39Z</time>
      </trkpt>
      <trkpt lat="48.75094" lon="1.76985">
        <ele>184.7</ele>
        <time>2022-03-24T08:16:44Z</time>
      </trkpt>
      <trkpt lat="48.75093" lon="1.76976">
        <ele>184.8</ele>
        <time>2022-03-24T08:16:48Z</time>
      </trkpt>
      <trkpt lat="48.75093" lon="1.76969">
        <ele>185.2</ele>
        <time>2022-03-24T08:16:52Z</time>
      </trkpt>
      <trkpt lat="48.75094" lon="1.76962">
        <ele>186.2</ele>
        <time>2022-03-24T08:16:55Z</time>
      </trkpt>
      <trkpt lat="48.75094" lon="1.76954">
        <ele>187.5</ele>
        <time>2022-03-24T08:17:00Z</time>
      </trkpt>
      <trkpt lat="48.75093" lon="1.76946">
        <ele>188.2</ele>
        <time>2022-03-24T08:17:04Z</time>
      </trkpt>
      <trkpt lat="48.75092" lon="1.76938">
        <ele>188.2</ele>
        <time>2022-03-24T08:17:08Z</time>
      </trkpt>
      <trkpt lat="48.75092" lon="1.76931">
        <ele>187.1</ele>
        <time>2022-03-24T08:17:12Z</time>
      </trkpt>
      <trkpt lat="48.75092" lon="1.76922">
        <ele>186.3</ele>
        <time>2022-03-24T08:17:16Z</time>
      </trkpt>
      <trkpt lat="48.75092" lon="1.76914">
        <ele>186.9</ele>
        <time>2022-03-24T08:17:20Z</time>
      </trkpt>
      <trkpt lat="48.75092" lon="1.76907">
        <ele>187.7</ele>
        <time>2022-03-24T08:17:23Z</time>
      </trkpt>
      <trkpt lat="48.75091" lon="1.76898">
        <ele>188.1</ele>
        <time>2022-03-24T08:17:28Z</time>
      </trkpt>
      <trkpt lat="48.7509" lon="1.76889">
        <ele>187.9</ele>
        <time>2022-03-24T08:17:33Z</time>
      </trkpt>
      <trkpt lat="48.75089" lon="1.76882">
        <ele>187.4</ele>
        <time>2022-03-24T08:17:36Z</time>
      </trkpt>
      <trkpt lat="48.75089" lon="1.76874">
        <ele>187.3</ele>
        <time>2022-03-24T08:17:41Z</time>
      </trkpt>
      <trkpt lat="48.75088" lon="1.76864">
        <ele>189.3</ele>
        <time>2022-03-24T08:17:46Z</time>
      </trkpt>
      <trkpt lat="48.75087" lon="1.76855">
        <ele>190.5</ele>
        <time>2022-03-24T08:17:51Z</time>
      </trkpt>
      <trkpt lat="48.75087" lon="1.76848">
        <ele>189.5</ele>
        <time>2022-03-24T08:17:55Z</time>
      </trkpt>
      <trkpt lat="48.75087" lon="1.7684">
        <ele>187.6</ele>
        <time>2022-03-24T08:18:01Z</time>
      </trkpt>
      <trkpt lat="48.75088" lon="1.76833">
        <ele>185.9</ele>
        <time>2022-03-24T08:18:06Z</time>
      </trkpt>
      <trkpt lat="48.75089" lon="1.76825">
        <ele>185.6</ele>
        <time>2022-03-24T08:18:10Z</time>
      </trkpt>
      <trkpt lat="48.75089" lon="1.76817">
        <ele>186.5</ele>
        <time>2022-03-24T08:18:14Z</time>
      </trkpt>
      <trkpt lat="48.75089" lon="1.7681">
        <ele>188</ele>
        <time>2022-03-24T08:18:18Z</time>
      </trkpt>
      <trkpt lat="48.7509" lon="1.76801">
        <ele>189.7</ele>
        <time>2022-03-24T08:18:22Z</time>
      </trkpt>
      <trkpt lat="48.7509" lon="1.76793">
        <ele>190.8</ele>
        <time>2022-03-24T08:18:26Z</time>
      </trkpt>
      <trkpt lat="48.7509" lon="1.76785">
        <ele>190.8</ele>
        <time>2022-03-24T08:18:31Z</time>
      </trkpt>
      <trkpt lat="48.7509" lon="1.76777">
        <ele>189.5</ele>
        <time>2022-03-24T08:18:35Z</time>
      </trkpt>
      <trkpt lat="48.7509" lon="1.76769">
        <ele>188</ele>
        <time>2022-03-24T08:18:39Z</time>
      </trkpt>
      <trkpt lat="48.7509" lon="1.76762">
        <ele>186.9</ele>
        <time>2022-03-24T08:18:43Z</time>
      </trkpt>
      <trkpt lat="48.75088" lon="1.76755">
        <ele>185.8</ele>
        <time>2022-03-24T08:18:48Z</time>
      </trkpt>
      <trkpt lat="48.75086" lon="1.76747">
        <ele>185</ele>
        <time>2022-03-24T08:18:52Z</time>
      </trkpt>
      <trkpt lat="48.75086" lon="1.76738">
        <ele>182.9</ele>
        <time>2022-03-24T08:18:57Z</time>
      </trkpt>
      <trkpt lat="48.75086" lon="1.7673">
        <ele>182.5</ele>
        <time>2022-03-24T08:19:01Z</time>
      </trkpt>
      <trkpt lat="48.75085" lon="1.76722">
        <ele>183.5</ele>
        <time>2022-03-24T08:19:06Z</time>
      </trkpt>
      <trkpt lat="48.75084" lon="1.76714">
        <ele>184.3</ele>
        <time>2022-03-24T08:19:10Z</time>
      </trkpt>
      <trkpt lat="48.75085" lon="1.76706">
        <ele>184.1</ele>
        <time>2022-03-24T08:19:14Z</time>
      </trkpt>
      <trkpt lat="48.75086" lon="1.76697">
        <ele>184.2</ele>
        <time>2022-03-24T08:19:19Z</time>
      </trkpt>
      <trkpt lat="48.75085" lon="1.7669">
        <ele>184.1</ele>
        <time>2022-03-24T08:19:23Z</time>
      </trkpt>
      <trkpt lat="48.75085" lon="1.76683">
        <ele>184.5</ele>
        <time>2022-03-24T08:19:27Z</time>
      </trkpt>
      <trkpt lat="48.75085" lon="1.76675">
        <ele>184.8</ele>
        <time>2022-03-24T08:19:31Z</time>
      </trkpt>
      <trkpt lat="48.75085" lon="1.76668">
        <ele>185.4</ele>
        <time>2022-03-24T08:19:35Z</time>
      </trkpt>
      <trkpt lat="48.75086" lon="1.7666">
        <ele>187</ele>
        <time>2022-03-24T08:19:40Z</time>
      </trkpt>
      <trkpt lat="48.75085" lon="1.76652">
        <ele>190.2</ele>
        <time>2022-03-24T08:19:44Z</time>
      </trkpt>
      <trkpt lat="48.75085" lon="1.76644">
        <ele>190.9</ele>
        <time>2022-03-24T08:19:48Z</time>
      </trkpt>
      <trkpt lat="48.75086" lon="1.76636">
        <ele>190.4</ele>
        <time>2022-03-24T08:19:52Z</time>
      </trkpt>
      <trkpt lat="48.75087" lon="1.76628">
        <ele>190.7</ele>
        <time>2022-03-24T08:19:57Z</time>
      </trkpt>
      <trkpt lat="48.75086" lon="1.7662">
        <ele>190.2</ele>
        <time>2022-03-24T08:20:01Z</time>
      </trkpt>
      <trkpt lat="48.75085" lon="1.76613">
        <ele>186.4</ele>
        <time>2022-03-24T08:20:05Z</time>
      </trkpt>
      <trkpt lat="48.75083" lon="1.76606">
        <ele>183.1</ele>
        <time>2022-03-24T08:20:09Z</time>
      </trkpt>
      <trkpt lat="48.75083" lon="1.76598">
        <ele>182.2</ele>
        <time>2022-03-24T08:20:13Z</time>
      </trkpt>
      <trkpt lat="48.75084" lon="1.7659">
        <ele>182.6</ele>
        <time>2022-03-24T08:20:17Z</time>
      </trkpt>
      <trkpt lat="48.75085" lon="1.76582">
        <ele>185.1</ele>
        <time>2022-03-24T08:20:22Z</time>
      </trkpt>
      <trkpt lat="48.75085" lon="1.76573">
        <ele>188.4</ele>
        <time>2022-03-24T08:20:27Z</time>
      </trkpt>
      <trkpt lat="48.75085" lon="1.76564">
        <ele>188.8</ele>
        <time>2022-03-24T08:20:31Z</time>
      </trkpt>
      <trkpt lat="48.75084" lon="1.76557">
        <ele>187.7</ele>
        <time>2022-03-24T08:20:35Z</time>
      </trkpt>
      <trkpt lat="48.75083" lon="1.76549">
        <ele>187.3</ele>
        <time>2022-03-24T08:20:39Z</time>
      </trkpt>
      <trkpt lat="48.75083" lon="1.76541">
        <ele>188.7</ele>
        <time>2022-03-24T08:20:45Z</time>
      </trkpt>
      <trkpt lat="48.75082" lon="1.76534">
        <ele>190.5</ele>
        <time>2022-03-24T08:20:49Z</time>
      </trkpt>
      <trkpt lat="48.75082" lon="1.76525">
        <ele>191.6</ele>
        <time>2022-03-24T08:20:53Z</time>
      </trkpt>
      <trkpt lat="48.75081" lon="1.76517">
        <ele>192.1</ele>
        <time>2022-03-24T08:20:57Z</time>
      </trkpt>
      <trkpt lat="48.7508" lon="1.7651">
        <ele>192.1</ele>
        <time>2022-03-24T08:21:02Z</time>
      </trkpt>
      <trkpt lat="48.75079" lon="1.76503">
        <ele>192.2</ele>
        <time>2022-03-24T08:21:06Z</time>
      </trkpt>
      <trkpt lat="48.75079" lon="1.76496">
        <ele>192.7</ele>
        <time>2022-03-24T08:21:09Z</time>
      </trkpt>
      <trkpt lat="48.75079" lon="1.76487">
        <ele>191.5</ele>
        <time>2022-03-24T08:21:14Z</time>
      </trkpt>
      <trkpt lat="48.75079" lon="1.76481">
        <ele>189.2</ele>
        <time>2022-03-24T08:21:18Z</time>
      </trkpt>
      <trkpt lat="48.75078" lon="1.76474">
        <ele>187.4</ele>
        <time>2022-03-24T08:21:22Z</time>
      </trkpt>
      <trkpt lat="48.75078" lon="1.76467">
        <ele>187.3</ele>
        <time>2022-03-24T08:21:26Z</time>
      </trkpt>
      <trkpt lat="48.75077" lon="1.76459">
        <ele>187</ele>
        <time>2022-03-24T08:21:31Z</time>
      </trkpt>
      <trkpt lat="48.75078" lon="1.76451">
        <ele>186.7</ele>
        <time>2022-03-24T08:21:35Z</time>
      </trkpt>
      <trkpt lat="48.75077" lon="1.76442">
        <ele>186.9</ele>
        <time>2022-03-24T08:21:40Z</time>
      </trkpt>
      <trkpt lat="48.75077" lon="1.76435">
        <ele>187.1</ele>
        <time>2022-03-24T08:21:43Z</time>
      </trkpt>
      <trkpt lat="48.75077" lon="1.76426">
        <ele>186</ele>
        <time>2022-03-24T08:21:48Z</time>
      </trkpt>
      <trkpt lat="48.75076" lon="1.7642">
        <ele>185.2</ele>
        <time>2022-03-24T08:21:52Z</time>
      </trkpt>
      <trkpt lat="48.75076" lon="1.76412">
        <ele>185.8</ele>
        <time>2022-03-24T08:21:56Z</time>
      </trkpt>
      <trkpt lat="48.75076" lon="1.76403">
        <ele>187.2</ele>
        <time>2022-03-24T08:22:01Z</time>
      </trkpt>
      <trkpt lat="48.75076" lon="1.76395">
        <ele>187.6</ele>
        <time>2022-03-24T08:22:05Z</time>
      </trkpt>
      <trkpt lat="48.75075" lon="1.76386">
        <ele>187.2</ele>
        <time>2022-03-24T08:22:09Z</time>
      </trkpt>
      <trkpt lat="48.75075" lon="1.76378">
        <ele>187.2</ele>
        <time>2022-03-24T08:22:14Z</time>
      </trkpt>
      <trkpt lat="48.75076" lon="1.76371">
        <ele>188</ele>
        <time>2022-03-24T08:22:18Z</time>
      </trkpt>
      <trkpt lat="48.75076" lon="1.76364">
        <ele>188.8</ele>
        <time>2022-03-24T08:22:21Z</time>
      </trkpt>
      <trkpt lat="48.75076" lon="1.76356">
        <ele>189.6</ele>
        <time>2022-03-24T08:22:26Z</time>
      </trkpt>
      <trkpt lat="48.75074" lon="1.76348">
        <ele>190.4</ele>
        <time>2022-03-24T08:22:30Z</time>
      </trkpt>
      <trkpt lat="48.75072" lon="1.7634">
        <ele>191</ele>
        <time>2022-03-24T08:22:34Z</time>
      </trkpt>
      <trkpt lat="48.75069" lon="1.76333">
        <ele>191.2</ele>
        <time>2022-03-24T08:22:39Z</time>
      </trkpt>
      <trkpt lat="48.75067" lon="1.76327">
        <ele>191.2</ele>
        <time>2022-03-24T08:22:43Z</time>
      </trkpt>
      <trkpt lat="48.75068" lon="1.76319">
        <ele>190.8</ele>
        <time>2022-03-24T08:22:47Z</time>
      </trkpt>
      <trkpt lat="48.7507" lon="1.76311">
        <ele>189.4</ele>
        <time>2022-03-24T08:22:52Z</time>
      </trkpt>
      <trkpt lat="48.7507" lon="1.76303">
        <ele>187.2</ele>
        <time>2022-03-24T08:22:56Z</time>
      </trkpt>
      <trkpt lat="48.7507" lon="1.76295">
        <ele>185</ele>
        <time>2022-03-24T08:23:01Z</time>
      </trkpt>
      <trkpt lat="48.75069" lon="1.76287">
        <ele>183.8</ele>
        <time>2022-03-24T08:23:05Z</time>
      </trkpt>
      <trkpt lat="48.75068" lon="1.76279">
        <ele>182.6</ele>
        <time>2022-03-24T08:23:09Z</time>
      </trkpt>
      <trkpt lat="48.75067" lon="1.76272">
        <ele>182.3</ele>
        <time>2022-03-24T08:23:14Z</time>
      </trkpt>
      <trkpt lat="48.75067" lon="1.76265">
        <ele>183.4</ele>
        <time>2022-03-24T08:23:18Z</time>
      </trkpt>
      <trkpt lat="48.75067" lon="1.76257">
        <ele>183.5</ele>
        <time>2022-03-24T08:23:22Z</time>
      </trkpt>
      <trkpt lat="48.75068" lon="1.76249">
        <ele>183.5</ele>
        <time>2022-03-24T08:23:26Z</time>
      </trkpt>
      <trkpt lat="48.75068" lon="1.76241">
        <ele>183.9</ele>
        <time>2022-03-24T08:23:29Z</time>
      </trkpt>
      <trkpt lat="48.75068" lon="1.76234">
        <ele>185.5</ele>
        <time>2022-03-24T08:23:33Z</time>
      </trkpt>
      <trkpt lat="48.75069" lon="1.76226">
        <ele>187.1</ele>
        <time>2022-03-24T08:23:37Z</time>
      </trkpt>
      <trkpt lat="48.75069" lon="1.76219">
        <ele>187.3</ele>
        <time>2022-03-24T08:23:41Z</time>
      </trkpt>
      <trkpt lat="48.75069" lon="1.7621">
        <ele>186.3</ele>
        <time>2022-03-24T08:23:45Z</time>
      </trkpt>
      <trkpt lat="48.75069" lon="1.76202">
        <ele>185.6</ele>
        <time>2022-03-24T08:23:49Z</time>
      </trkpt>
      <trkpt lat="48.75069" lon="1.76195">
        <ele>185.7</ele>
        <time>2022-03-24T08:23:54Z</time>
      </trkpt>
      <trkpt lat="48.75069" lon="1.76186">
        <ele>186.1</ele>
        <time>2022-03-24T08:23:58Z</time>
      </trkpt>
      <trkpt lat="48.75069" lon="1.76179">
        <ele>186.9</ele>
        <time>2022-03-24T08:24:02Z</time>
      </trkpt>
      <trkpt lat="48.75068" lon="1.76172">
        <ele>187.3</ele>
        <time>2022-03-24T08:24:06Z</time>
      </trkpt>
      <trkpt lat="48.75067" lon="1.76163">
        <ele>187.3</ele>
        <time>2022-03-24T08:24:10Z</time>
      </trkpt>
      <trkpt lat="48.75067" lon="1.76154">
        <ele>187.3</ele>
        <time>2022-03-24T08:24:15Z</time>
      </trkpt>
      <trkpt lat="48.75068" lon="1.76146">
        <ele>188.1</ele>
        <time>2022-03-24T08:24:19Z</time>
      </trkpt>
      <trkpt lat="48.75067" lon="1.76138">
        <ele>188.4</ele>
        <time>2022-03-24T08:24:23Z</time>
      </trkpt>
      <trkpt lat="48.75066" lon="1.7613">
        <ele>188.4</ele>
        <time>2022-03-24T08:24:27Z</time>
      </trkpt>
      <trkpt lat="48.75065" lon="1.76121">
        <ele>187.7</ele>
        <time>2022-03-24T08:24:31Z</time>
      </trkpt>
      <trkpt lat="48.75064" lon="1.76113">
        <ele>188.2</ele>
        <time>2022-03-24T08:24:35Z</time>
      </trkpt>
      <trkpt lat="48.75064" lon="1.76105">
        <ele>188.4</ele>
        <time>2022-03-24T08:24:40Z</time>
      </trkpt>
      <trkpt lat="48.75064" lon="1.76098">
        <ele>187</ele>
        <time>2022-03-24T08:24:44Z</time>
      </trkpt>
      <trkpt lat="48.75063" lon="1.76089">
        <ele>185.4</ele>
        <time>2022-03-24T08:24:48Z</time>
      </trkpt>
      <trkpt lat="48.75063" lon="1.7608">
        <ele>185.1</ele>
        <time>2022-03-24T08:24:53Z</time>
      </trkpt>
      <trkpt lat="48.75062" lon="1.76072">
        <ele>185.6</ele>
        <time>2022-03-24T08:24:58Z</time>
      </trkpt>
      <trkpt lat="48.75062" lon="1.76066">
        <ele>186</ele>
        <time>2022-03-24T08:25:01Z</time>
      </trkpt>
      <trkpt lat="48.75063" lon="1.76059">
        <ele>186.2</ele>
        <time>2022-03-24T08:25:04Z</time>
      </trkpt>
      <trkpt lat="48.75064" lon="1.76051">
        <ele>184.8</ele>
        <time>2022-03-24T08:25:09Z</time>
      </trkpt>
      <trkpt lat="48.75063" lon="1.76043">
        <ele>183.2</ele>
        <time>2022-03-24T08:25:13Z</time>
      </trkpt>
      <trkpt lat="48.75063" lon="1.76036">
        <ele>183.3</ele>
        <time>2022-03-24T08:25:17Z</time>
      </trkpt>
      <trkpt lat="48.75062" lon="1.76029">
        <ele>183.6</ele>
        <time>2022-03-24T08:25:22Z</time>
      </trkpt>
      <trkpt lat="48.75061" lon="1.76021">
        <ele>183.7</ele>
        <time>2022-03-24T08:25:26Z</time>
      </trkpt>
      <trkpt lat="48.7506" lon="1.76014">
        <ele>183.6</ele>
        <time>2022-03-24T08:25:30Z</time>
      </trkpt>
      <trkpt lat="48.75059" lon="1.76006">
        <ele>183.6</ele>
        <time>2022-03-24T08:25:34Z</time>
      </trkpt>
      <trkpt lat="48.75059" lon="1.75997">
        <ele>184.1</ele>
        <time>2022-03-24T08:25:38Z</time>
      </trkpt>
      <trkpt lat="48.75059" lon="1.75988">
        <ele>185.1</ele>
        <time>2022-03-24T08:25:43Z</time>
      </trkpt>
      <trkpt lat="48.7506" lon="1.7598">
        <ele>186.4</ele>
        <time>2022-03-24T08:25:47Z</time>
      </trkpt>
      <trkpt lat="48.75059" lon="1.75973">
        <ele>187.4</ele>
        <time>2022-03-24T08:25:52Z</time>
      </trkpt>
      <trkpt lat="48.75058" lon="1.75965">
        <ele>189</ele>
        <time>2022-03-24T08:25:56Z</time>
      </trkpt>
      <trkpt lat="48.75058" lon="1.75957">
        <ele>190</ele>
        <time>2022-03-24T08:26:01Z</time>
      </trkpt>
      <trkpt lat="48.75057" lon="1.7595">
        <ele>189.8</ele>
        <time>2022-03-24T08:26:04Z</time>
      </trkpt>
      <trkpt lat="48.75057" lon="1.75942">
        <ele>188.3</ele>
        <time>2022-03-24T08:26:08Z</time>
      </trkpt>
      <trkpt lat="48.75056" lon="1.75935">
        <ele>188.4</ele>
        <time>2022-03-24T08:26:13Z</time>
      </trkpt>
      <trkpt lat="48.75055" lon="1.75926">
        <ele>188.8</ele>
        <time>2022-03-24T08:26:17Z</time>
      </trkpt>
      <trkpt lat="48.75055" lon="1.75918">
        <ele>188.1</ele>
        <time>2022-03-24T08:26:21Z</time>
      </trkpt>
      <trkpt lat="48.75055" lon="1.7591">
        <ele>187.5</ele>
        <time>2022-03-24T08:26:26Z</time>
      </trkpt>
      <trkpt lat="48.75055" lon="1.75903">
        <ele>187.3</ele>
        <time>2022-03-24T08:26:29Z</time>
      </trkpt>
      <trkpt lat="48.75056" lon="1.75896">
        <ele>187.9</ele>
        <time>2022-03-24T08:26:34Z</time>
      </trkpt>
      <trkpt lat="48.75055" lon="1.75888">
        <ele>187.7</ele>
        <time>2022-03-24T08:26:38Z</time>
      </trkpt>
      <trkpt lat="48.75055" lon="1.75881">
        <ele>187.4</ele>
        <time>2022-03-24T08:26:42Z</time>
      </trkpt>
      <trkpt lat="48.75056" lon="1.75872">
        <ele>186.5</ele>
        <time>2022-03-24T08:26:46Z</time>
      </trkpt>
      <trkpt lat="48.75056" lon="1.75865">
        <ele>185.9</ele>
        <time>2022-03-24T08:26:51Z</time>
      </trkpt>
      <trkpt lat="48.75056" lon="1.75858">
        <ele>184.7</ele>
        <time>2022-03-24T08:26:54Z</time>
      </trkpt>
      <trkpt lat="48.75055" lon="1.7585">
        <ele>184.1</ele>
        <time>2022-03-24T08:26:59Z</time>
      </trkpt>
      <trkpt lat="48.75053" lon="1.75842">
        <ele>184.8</ele>
        <time>2022-03-24T08:27:04Z</time>
      </trkpt>
      <trkpt lat="48.75053" lon="1.75834">
        <ele>185.5</ele>
        <time>2022-03-24T08:27:08Z</time>
      </trkpt>
      <trkpt lat="48.75053" lon="1.75826">
        <ele>184.1</ele>
        <time>2022-03-24T08:27:13Z</time>
      </trkpt>
      <trkpt lat="48.75053" lon="1.75818">
        <ele>183.1</ele>
        <time>2022-03-24T08:27:17Z</time>
      </trkpt>
      <trkpt lat="48.75052" lon="1.7581">
        <ele>183.1</ele>
        <time>2022-03-24T08:27:22Z</time>
      </trkpt>
      <trkpt lat="48.75052" lon="1.75803">
        <ele>184.2</ele>
        <time>2022-03-24T08:27:26Z</time>
      </trkpt>
      <trkpt lat="48.75049" lon="1.75795">
        <ele>185.2</ele>
        <time>2022-03-24T08:27:30Z</time>
      </trkpt>
      <trkpt lat="48.75047" lon="1.75786">
        <ele>187.2</ele>
        <time>2022-03-24T08:27:34Z</time>
      </trkpt>
      <trkpt lat="48.75047" lon="1.75778">
        <ele>187</ele>
        <time>2022-03-24T08:27:39Z</time>
      </trkpt>
      <trkpt lat="48.75047" lon="1.7577">
        <ele>186.1</ele>
        <time>2022-03-24T08:27:44Z</time>
      </trkpt>
      <trkpt lat="48.75046" lon="1.75763">
        <ele>187.9</ele>
        <time>2022-03-24T08:27:49Z</time>
      </trkpt>
      <trkpt lat="48.75046" lon="1.75755">
        <ele>191.1</ele>
        <time>2022-03-24T08:27:56Z</time>
      </trkpt>
      <trkpt lat="48.75044" lon="1.75763">
        <ele>191</ele>
        <time>2022-03-24T08:28:06Z</time>
      </trkpt>
      <trkpt lat="48.7504" lon="1.7576">
        <ele>190.6</ele>
        <time>2022-03-24T08:28:17Z</time>
      </trkpt>
      <trkpt lat="48.75037" lon="1.75753">
        <ele>191.1</ele>
        <time>2022-03-24T08:28:22Z</time>
      </trkpt>
      <trkpt lat="48.75034" lon="1.75746">
        <ele>189.4</ele>
        <time>2022-03-24T08:28:28Z</time>
      </trkpt>
      <trkpt lat="48.75031" lon="1.75739">
        <ele>189.6</ele>
        <time>2022-03-24T08:28:34Z</time>
      </trkpt>
      <trkpt lat="48.75028" lon="1.75734">
        <ele>190.9</ele>
        <time>2022-03-24T08:28:39Z</time>
      </trkpt>
      <trkpt lat="48.75024" lon="1.75728">
        <ele>191.4</ele>
        <time>2022-03-24T08:28:45Z</time>
      </trkpt>
      <trkpt lat="48.7502" lon="1.75721">
        <ele>191</ele>
        <time>2022-03-24T08:28:50Z</time>
      </trkpt>
      <trkpt lat="48.75017" lon="1.75714">
        <ele>191.8</ele>
        <time>2022-03-24T08:28:55Z</time>
      </trkpt>
      <trkpt lat="48.75014" lon="1.75708">
        <ele>193.5</ele>
        <time>2022-03-24T08:29:00Z</time>
      </trkpt>
      <trkpt lat="48.75011" lon="1.75703">
        <ele>194.1</ele>
        <time>2022-03-24T08:29:03Z</time>
      </trkpt>
      <trkpt lat="48.75007" lon="1.75698">
        <ele>194</ele>
        <time>2022-03-24T08:29:08Z</time>
      </trkpt>
      <trkpt lat="48.75003" lon="1.75692">
        <ele>193.5</ele>
        <time>2022-03-24T08:29:13Z</time>
      </trkpt>
      <trkpt lat="48.75001" lon="1.75685">
        <ele>193</ele>
        <time>2022-03-24T08:29:17Z</time>
      </trkpt>
      <trkpt lat="48.74999" lon="1.75678">
        <ele>191.8</ele>
        <time>2022-03-24T08:29:23Z</time>
      </trkpt>
      <trkpt lat="48.74996" lon="1.75671">
        <ele>190.9</ele>
        <time>2022-03-24T08:29:27Z</time>
      </trkpt>
      <trkpt lat="48.74993" lon="1.75665">
        <ele>191.5</ele>
        <time>2022-03-24T08:29:32Z</time>
      </trkpt>
      <trkpt lat="48.74988" lon="1.75661">
        <ele>192.3</ele>
        <time>2022-03-24T08:29:36Z</time>
      </trkpt>
      <trkpt lat="48.74984" lon="1.75657">
        <ele>191.6</ele>
        <time>2022-03-24T08:29:40Z</time>
      </trkpt>
      <trkpt lat="48.74979" lon="1.75652">
        <ele>189.7</ele>
        <time>2022-03-24T08:29:45Z</time>
      </trkpt>
      <trkpt lat="48.74976" lon="1.75645">
        <ele>189.3</ele>
        <time>2022-03-24T08:29:49Z</time>
      </trkpt>
      <trkpt lat="48.74974" lon="1.75637">
        <ele>189.9</ele>
        <time>2022-03-24T08:29:53Z</time>
      </trkpt>
      <trkpt lat="48.74971" lon="1.75629">
        <ele>191.5</ele>
        <time>2022-03-24T08:29:58Z</time>
      </trkpt>
      <trkpt lat="48.74968" lon="1.75622">
        <ele>193.5</ele>
        <time>2022-03-24T08:30:02Z</time>
      </trkpt>
      <trkpt lat="48.74965" lon="1.75617">
        <ele>195.2</ele>
        <time>2022-03-24T08:30:05Z</time>
      </trkpt>
      <trkpt lat="48.74961" lon="1.75612">
        <ele>195.5</ele>
        <time>2022-03-24T08:30:09Z</time>
      </trkpt>
      <trkpt lat="48.74956" lon="1.75608">
        <ele>194.3</ele>
        <time>2022-03-24T08:30:13Z</time>
      </trkpt>
      <trkpt lat="48.74951" lon="1.75603">
        <ele>192.6</ele>
        <time>2022-03-24T08:30:18Z</time>
      </trkpt>
      <trkpt lat="48.74947" lon="1.75599">
        <ele>192.3</ele>
        <time>2022-03-24T08:30:22Z</time>
      </trkpt>
      <trkpt lat="48.74943" lon="1.75593">
        <ele>192.3</ele>
        <time>2022-03-24T08:30:26Z</time>
      </trkpt>
      <trkpt lat="48.74939" lon="1.75589">
        <ele>192.3</ele>
        <time>2022-03-24T08:30:30Z</time>
      </trkpt>
      <trkpt lat="48.74935" lon="1.75585">
        <ele>192.2</ele>
        <time>2022-03-24T08:30:34Z</time>
      </trkpt>
      <trkpt lat="48.74931" lon="1.7558">
        <ele>191.9</ele>
        <time>2022-03-24T08:30:38Z</time>
      </trkpt>
      <trkpt lat="48.74926" lon="1.75575">
        <ele>190.6</ele>
        <time>2022-03-24T08:30:43Z</time>
      </trkpt>
      <trkpt lat="48.74921" lon="1.75573">
        <ele>188.6</ele>
        <time>2022-03-24T08:30:47Z</time>
      </trkpt>
      <trkpt lat="48.74916" lon="1.75572">
        <ele>186.2</ele>
        <time>2022-03-24T08:30:52Z</time>
      </trkpt>
      <trkpt lat="48.74912" lon="1.75574">
        <ele>184.2</ele>
        <time>2022-03-24T08:30:56Z</time>
      </trkpt>
      <trkpt lat="48.74907" lon="1.75577">
        <ele>183.1</ele>
        <time>2022-03-24T08:31:00Z</time>
      </trkpt>
      <trkpt lat="48.74902" lon="1.75577">
        <ele>182.4</ele>
        <time>2022-03-24T08:31:05Z</time>
      </trkpt>
      <trkpt lat="48.74897" lon="1.7558">
        <ele>181.3</ele>
        <time>2022-03-24T08:31:09Z</time>
      </trkpt>
      <trkpt lat="48.74892" lon="1.75582">
        <ele>179.8</ele>
        <time>2022-03-24T08:31:13Z</time>
      </trkpt>
      <trkpt lat="48.74889" lon="1.75589">
        <ele>178</ele>
        <time>2022-03-24T08:31:17Z</time>
      </trkpt>
      <trkpt lat="48.74885" lon="1.75591">
        <ele>176.6</ele>
        <time>2022-03-24T08:31:21Z</time>
      </trkpt>
      <trkpt lat="48.74881" lon="1.75595">
        <ele>175.4</ele>
        <time>2022-03-24T08:31:26Z</time>
      </trkpt>
      <trkpt lat="48.74877" lon="1.75598">
        <ele>173.3</ele>
        <time>2022-03-24T08:31:31Z</time>
      </trkpt>
      <trkpt lat="48.74873" lon="1.75593">
        <ele>171.7</ele>
        <time>2022-03-24T08:31:36Z</time>
      </trkpt>
      <trkpt lat="48.74873" lon="1.75585">
        <ele>171.6</ele>
        <time>2022-03-24T08:31:41Z</time>
      </trkpt>
      <trkpt lat="48.74876" lon="1.75579">
        <ele>171.7</ele>
        <time>2022-03-24T08:31:44Z</time>
      </trkpt>
      <trkpt lat="48.74878" lon="1.75573">
        <ele>173.6</ele>
        <time>2022-03-24T08:31:49Z</time>
      </trkpt>
      <trkpt lat="48.74881" lon="1.75568">
        <ele>175.3</ele>
        <time>2022-03-24T08:31:53Z</time>
      </trkpt>
      <trkpt lat="48.74885" lon="1.75561">
        <ele>175.8</ele>
        <time>2022-03-24T08:31:59Z</time>
      </trkpt>
      <trkpt lat="48.74884" lon="1.75553">
        <ele>176.2</ele>
        <time>2022-03-24T08:32:05Z</time>
      </trkpt>
      <trkpt lat="48.74883" lon="1.75545">
        <ele>176.6</ele>
        <time>2022-03-24T08:32:10Z</time>
      </trkpt>
      <trkpt lat="48.74883" lon="1.75538">
        <ele>176.6</ele>
        <time>2022-03-24T08:32:14Z</time>
      </trkpt>
      <trkpt lat="48.74883" lon="1.75531">
        <ele>176.3</ele>
        <time>2022-03-24T08:32:19Z</time>
      </trkpt>
      <trkpt lat="48.7488" lon="1.75523">
        <ele>176.7</ele>
        <time>2022-03-24T08:32:24Z</time>
      </trkpt>
      <trkpt lat="48.74875" lon="1.75523">
        <ele>176</ele>
        <time>2022-03-24T08:32:29Z</time>
      </trkpt>
      <trkpt lat="48.74869" lon="1.75524">
        <ele>175.1</ele>
        <time>2022-03-24T08:32:33Z</time>
      </trkpt>
      <trkpt lat="48.74863" lon="1.75526">
        <ele>173.4</ele>
        <time>2022-03-24T08:32:38Z</time>
      </trkpt>
      <trkpt lat="48.74859" lon="1.75524">
        <ele>171.5</ele>
        <time>2022-03-24T08:32:43Z</time>
      </trkpt>
      <trkpt lat="48.74853" lon="1.75523">
        <ele>168.6</ele>
        <time>2022-03-24T08:32:50Z</time>
      </trkpt>
      <trkpt lat="48.74849" lon="1.75526">
        <ele>164.8</ele>
        <time>2022-03-24T08:32:54Z</time>
      </trkpt>
      <trkpt lat="48.74844" lon="1.75524">
        <ele>162</ele>
        <time>2022-03-24T08:33:00Z</time>
      </trkpt>
      <trkpt lat="48.74839" lon="1.75521">
        <ele>161.1</ele>
        <time>2022-03-24T08:33:06Z</time>
      </trkpt>
      <trkpt lat="48.74835" lon="1.75516">
        <ele>161.1</ele>
        <time>2022-03-24T08:33:11Z</time>
      </trkpt>
      <trkpt lat="48.74831" lon="1.75512">
        <ele>161.6</ele>
        <time>2022-03-24T08:33:17Z</time>
      </trkpt>
      <trkpt lat="48.74826" lon="1.7551">
        <ele>161.4</ele>
        <time>2022-03-24T08:33:22Z</time>
      </trkpt>
      <trkpt lat="48.74823" lon="1.75503">
        <ele>160.9</ele>
        <time>2022-03-24T08:33:28Z</time>
      </trkpt>
      <trkpt lat="48.74821" lon="1.75497">
        <ele>161</ele>
        <time>2022-03-24T08:33:33Z</time>
      </trkpt>
      <trkpt lat="48.74819" lon="1.75489">
        <ele>162.8</ele>
        <time>2022-03-24T08:33:39Z</time>
      </trkpt>
      <trkpt lat="48.74819" lon="1.75482">
        <ele>164.8</ele>
        <time>2022-03-24T08:33:44Z</time>
      </trkpt>
      <trkpt lat="48.7482" lon="1.75476">
        <ele>165.2</ele>
        <time>2022-03-24T08:33:50Z</time>
      </trkpt>
      <trkpt lat="48.74815" lon="1.75471">
        <ele>164.2</ele>
        <time>2022-03-24T08:33:55Z</time>
      </trkpt>
      <trkpt lat="48.74816" lon="1.75464">
        <ele>161.8</ele>
        <time>2022-03-24T08:34:04Z</time>
      </trkpt>
      <trkpt lat="48.7482" lon="1.7546">
        <ele>161</ele>
        <time>2022-03-24T08:34:10Z</time>
      </trkpt>
      <trkpt lat="48.74825" lon="1.75462">
        <ele>158.2</ele>
        <time>2022-03-24T08:34:17Z</time>
      </trkpt>
      <trkpt lat="48.74823" lon="1.75468">
        <ele>154.7</ele>
        <time>2022-03-24T08:36:18Z</time>
      </trkpt>
      <trkpt lat="48.74826" lon="1.75461">
        <ele>156</ele>
        <time>2022-03-24T08:36:55Z</time>
      </trkpt>
      <trkpt lat="48.74824" lon="1.75454">
        <ele>155</ele>
        <time>2022-03-24T08:36:59Z</time>
      </trkpt>
      <trkpt lat="48.74824" lon="1.75447">
        <ele>153.7</ele>
        <time>2022-03-24T08:37:02Z</time>
      </trkpt>
      <trkpt lat="48.74825" lon="1.7544">
        <ele>153.3</ele>
        <time>2022-03-24T08:37:05Z</time>
      </trkpt>
      <trkpt lat="48.74827" lon="1.75431">
        <ele>151.6</ele>
        <time>2022-03-24T08:37:10Z</time>
      </trkpt>
      <trkpt lat="48.74828" lon="1.75424">
        <ele>150.5</ele>
        <time>2022-03-24T08:37:13Z</time>
      </trkpt>
      <trkpt lat="48.74829" lon="1.75417">
        <ele>149.8</ele>
        <time>2022-03-24T08:37:16Z</time>
      </trkpt>
      <trkpt lat="48.74829" lon="1.75409">
        <ele>151.9</ele>
        <time>2022-03-24T08:37:20Z</time>
      </trkpt>
      <trkpt lat="48.74828" lon="1.75401">
        <ele>153.8</ele>
        <time>2022-03-24T08:37:25Z</time>
      </trkpt>
      <trkpt lat="48.74828" lon="1.75392">
        <ele>153.5</ele>
        <time>2022-03-24T08:37:29Z</time>
      </trkpt>
      <trkpt lat="48.74828" lon="1.75384">
        <ele>151</ele>
        <time>2022-03-24T08:37:34Z</time>
      </trkpt>
      <trkpt lat="48.74828" lon="1.75375">
        <ele>146.8</ele>
        <time>2022-03-24T08:37:39Z</time>
      </trkpt>
      <trkpt lat="48.74826" lon="1.75367">
        <ele>145.3</ele>
        <time>2022-03-24T08:37:43Z</time>
      </trkpt>
      <trkpt lat="48.74824" lon="1.7536">
        <ele>145</ele>
        <time>2022-03-24T08:37:47Z</time>
      </trkpt>
      <trkpt lat="48.74822" lon="1.75353">
        <ele>144.4</ele>
        <time>2022-03-24T08:37:51Z</time>
      </trkpt>
      <trkpt lat="48.7482" lon="1.75346">
        <ele>143.2</ele>
        <time>2022-03-24T08:37:56Z</time>
      </trkpt>
      <trkpt lat="48.74818" lon="1.75338">
        <ele>143.5</ele>
        <time>2022-03-24T08:38:00Z</time>
      </trkpt>
      <trkpt lat="48.74817" lon="1.75331">
        <ele>146.4</ele>
        <time>2022-03-24T08:38:05Z</time>
      </trkpt>
      <trkpt lat="48.74818" lon="1.75323">
        <ele>148.7</ele>
        <time>2022-03-24T08:38:10Z</time>
      </trkpt>
      <trkpt lat="48.74821" lon="1.75317">
        <ele>148.1</ele>
        <time>2022-03-24T08:38:15Z</time>
      </trkpt>
      <trkpt lat="48.74819" lon="1.75312">
        <ele>147.8</ele>
        <time>2022-03-24T08:38:19Z</time>
      </trkpt>
      <trkpt lat="48.74815" lon="1.75306">
        <ele>148</ele>
        <time>2022-03-24T08:38:23Z</time>
      </trkpt>
      <trkpt lat="48.74813" lon="1.75298">
        <ele>148.1</ele>
        <time>2022-03-24T08:38:27Z</time>
      </trkpt>
      <trkpt lat="48.74811" lon="1.7529">
        <ele>148.3</ele>
        <time>2022-03-24T08:38:32Z</time>
      </trkpt>
      <trkpt lat="48.7481" lon="1.75283">
        <ele>148.6</ele>
        <time>2022-03-24T08:38:37Z</time>
      </trkpt>
      <trkpt lat="48.74808" lon="1.75276">
        <ele>148.9</ele>
        <time>2022-03-24T08:38:41Z</time>
      </trkpt>
      <trkpt lat="48.74806" lon="1.7527">
        <ele>149.8</ele>
        <time>2022-03-24T08:38:46Z</time>
      </trkpt>
      <trkpt lat="48.74804" lon="1.75263">
        <ele>150.7</ele>
        <time>2022-03-24T08:38:50Z</time>
      </trkpt>
      <trkpt lat="48.74802" lon="1.75256">
        <ele>151</ele>
        <time>2022-03-24T08:38:53Z</time>
      </trkpt>
      <trkpt lat="48.748" lon="1.75249">
        <ele>152.1</ele>
        <time>2022-03-24T08:38:58Z</time>
      </trkpt>
      <trkpt lat="48.74798" lon="1.75241">
        <ele>153.2</ele>
        <time>2022-03-24T08:39:02Z</time>
      </trkpt>
      <trkpt lat="48.74795" lon="1.75235">
        <ele>153.3</ele>
        <time>2022-03-24T08:39:06Z</time>
      </trkpt>
      <trkpt lat="48.74792" lon="1.75228">
        <ele>153.3</ele>
        <time>2022-03-24T08:39:11Z</time>
      </trkpt>
      <trkpt lat="48.74789" lon="1.75221">
        <ele>153.3</ele>
        <time>2022-03-24T08:39:16Z</time>
      </trkpt>
      <trkpt lat="48.74787" lon="1.75214">
        <ele>154.1</ele>
        <time>2022-03-24T08:39:21Z</time>
      </trkpt>
      <trkpt lat="48.74785" lon="1.75206">
        <ele>154.3</ele>
        <time>2022-03-24T08:39:26Z</time>
      </trkpt>
      <trkpt lat="48.74782" lon="1.75201">
        <ele>153.3</ele>
        <time>2022-03-24T08:39:31Z</time>
      </trkpt>
      <trkpt lat="48.74777" lon="1.75195">
        <ele>152.2</ele>
        <time>2022-03-24T08:39:35Z</time>
      </trkpt>
      <trkpt lat="48.74774" lon="1.7519">
        <ele>150.4</ele>
        <time>2022-03-24T08:39:40Z</time>
      </trkpt>
      <trkpt lat="48.74772" lon="1.75183">
        <ele>148.3</ele>
        <time>2022-03-24T08:39:44Z</time>
      </trkpt>
      <trkpt lat="48.74768" lon="1.75177">
        <ele>147.8</ele>
        <time>2022-03-24T08:39:50Z</time>
      </trkpt>
      <trkpt lat="48.74765" lon="1.75172">
        <ele>148.4</ele>
        <time>2022-03-24T08:39:53Z</time>
      </trkpt>
      <trkpt lat="48.74762" lon="1.75166">
        <ele>148.5</ele>
        <time>2022-03-24T08:39:57Z</time>
      </trkpt>
      <trkpt lat="48.74759" lon="1.7516">
        <ele>147.1</ele>
        <time>2022-03-24T08:40:02Z</time>
      </trkpt>
      <trkpt lat="48.74755" lon="1.75153">
        <ele>146.8</ele>
        <time>2022-03-24T08:40:06Z</time>
      </trkpt>
      <trkpt lat="48.74753" lon="1.75147">
        <ele>147</ele>
        <time>2022-03-24T08:40:09Z</time>
      </trkpt>
      <trkpt lat="48.7475" lon="1.7514">
        <ele>147.2</ele>
        <time>2022-03-24T08:40:14Z</time>
      </trkpt>
      <trkpt lat="48.74749" lon="1.75133">
        <ele>146.6</ele>
        <time>2022-03-24T08:40:18Z</time>
      </trkpt>
      <trkpt lat="48.74747" lon="1.75125">
        <ele>145.9</ele>
        <time>2022-03-24T08:40:22Z</time>
      </trkpt>
      <trkpt lat="48.74745" lon="1.75117">
        <ele>145.1</ele>
        <time>2022-03-24T08:40:26Z</time>
      </trkpt>
      <trkpt lat="48.74743" lon="1.7511">
        <ele>144.6</ele>
        <time>2022-03-24T08:40:31Z</time>
      </trkpt>
      <trkpt lat="48.74742" lon="1.75103">
        <ele>143.9</ele>
        <time>2022-03-24T08:40:35Z</time>
      </trkpt>
      <trkpt lat="48.74742" lon="1.75094">
        <ele>143.4</ele>
        <time>2022-03-24T08:40:39Z</time>
      </trkpt>
      <trkpt lat="48.74742" lon="1.75087">
        <ele>143.6</ele>
        <time>2022-03-24T08:40:42Z</time>
      </trkpt>
      <trkpt lat="48.74743" lon="1.75079">
        <ele>142.7</ele>
        <time>2022-03-24T08:40:46Z</time>
      </trkpt>
      <trkpt lat="48.74745" lon="1.75072">
        <ele>141.7</ele>
        <time>2022-03-24T08:40:51Z</time>
      </trkpt>
      <trkpt lat="48.74747" lon="1.75065">
        <ele>141.6</ele>
        <time>2022-03-24T08:40:55Z</time>
      </trkpt>
      <trkpt lat="48.74751" lon="1.75058">
        <ele>142</ele>
        <time>2022-03-24T08:40:59Z</time>
      </trkpt>
      <trkpt lat="48.74754" lon="1.75053">
        <ele>142.9</ele>
        <time>2022-03-24T08:41:03Z</time>
      </trkpt>
      <trkpt lat="48.74759" lon="1.75049">
        <ele>143.7</ele>
        <time>2022-03-24T08:41:07Z</time>
      </trkpt>
      <trkpt lat="48.74762" lon="1.75041">
        <ele>144.2</ele>
        <time>2022-03-24T08:41:12Z</time>
      </trkpt>
      <trkpt lat="48.74764" lon="1.75034">
        <ele>145.4</ele>
        <time>2022-03-24T08:41:17Z</time>
      </trkpt>
      <trkpt lat="48.74766" lon="1.75028">
        <ele>146.3</ele>
        <time>2022-03-24T08:41:21Z</time>
      </trkpt>
      <trkpt lat="48.74769" lon="1.75022">
        <ele>146.8</ele>
        <time>2022-03-24T08:41:25Z</time>
      </trkpt>
      <trkpt lat="48.74773" lon="1.75015">
        <ele>148.3</ele>
        <time>2022-03-24T08:41:29Z</time>
      </trkpt>
      <trkpt lat="48.74775" lon="1.75009">
        <ele>150</ele>
        <time>2022-03-24T08:41:33Z</time>
      </trkpt>
      <trkpt lat="48.74778" lon="1.75002">
        <ele>150.6</ele>
        <time>2022-03-24T08:41:38Z</time>
      </trkpt>
      <trkpt lat="48.74781" lon="1.74995">
        <ele>148.5</ele>
        <time>2022-03-24T08:41:42Z</time>
      </trkpt>
      <trkpt lat="48.74784" lon="1.74989">
        <ele>145.5</ele>
        <time>2022-03-24T08:41:46Z</time>
      </trkpt>
      <trkpt lat="48.74786" lon="1.74982">
        <ele>144.3</ele>
        <time>2022-03-24T08:41:50Z</time>
      </trkpt>
      <trkpt lat="48.74788" lon="1.74976">
        <ele>144.2</ele>
        <time>2022-03-24T08:41:55Z</time>
      </trkpt>
      <trkpt lat="48.74792" lon="1.7497">
        <ele>145.5</ele>
        <time>2022-03-24T08:42:00Z</time>
      </trkpt>
      <trkpt lat="48.74795" lon="1.74964">
        <ele>147.3</ele>
        <time>2022-03-24T08:42:04Z</time>
      </trkpt>
      <trkpt lat="48.74799" lon="1.74958">
        <ele>147.2</ele>
        <time>2022-03-24T08:42:09Z</time>
      </trkpt>
      <trkpt lat="48.74802" lon="1.74951">
        <ele>146</ele>
        <time>2022-03-24T08:42:14Z</time>
      </trkpt>
      <trkpt lat="48.74804" lon="1.74944">
        <ele>145.7</ele>
        <time>2022-03-24T08:42:18Z</time>
      </trkpt>
      <trkpt lat="48.74808" lon="1.74937">
        <ele>145.6</ele>
        <time>2022-03-24T08:42:22Z</time>
      </trkpt>
      <trkpt lat="48.74811" lon="1.74931">
        <ele>144.8</ele>
        <time>2022-03-24T08:42:27Z</time>
      </trkpt>
      <trkpt lat="48.74814" lon="1.74924">
        <ele>144.5</ele>
        <time>2022-03-24T08:42:31Z</time>
      </trkpt>
      <trkpt lat="48.74816" lon="1.74917">
        <ele>144.7</ele>
        <time>2022-03-24T08:42:35Z</time>
      </trkpt>
      <trkpt lat="48.74818" lon="1.7491">
        <ele>144.7</ele>
        <time>2022-03-24T08:42:39Z</time>
      </trkpt>
      <trkpt lat="48.74819" lon="1.74903">
        <ele>144.3</ele>
        <time>2022-03-24T08:42:45Z</time>
      </trkpt>
      <trkpt lat="48.74823" lon="1.74897">
        <ele>144.3</ele>
        <time>2022-03-24T08:42:49Z</time>
      </trkpt>
      <trkpt lat="48.74826" lon="1.7489">
        <ele>144.8</ele>
        <time>2022-03-24T08:42:55Z</time>
      </trkpt>
      <trkpt lat="48.74829" lon="1.74885">
        <ele>145.7</ele>
        <time>2022-03-24T08:42:59Z</time>
      </trkpt>
      <trkpt lat="48.74833" lon="1.74878">
        <ele>146.5</ele>
        <time>2022-03-24T08:43:04Z</time>
      </trkpt>
      <trkpt lat="48.74836" lon="1.74872">
        <ele>145.9</ele>
        <time>2022-03-24T08:43:08Z</time>
      </trkpt>
      <trkpt lat="48.74839" lon="1.74865">
        <ele>143.7</ele>
        <time>2022-03-24T08:43:13Z</time>
      </trkpt>
      <trkpt lat="48.74841" lon="1.74859">
        <ele>143.4</ele>
        <time>2022-03-24T08:43:17Z</time>
      </trkpt>
      <trkpt lat="48.74844" lon="1.74852">
        <ele>144.8</ele>
        <time>2022-03-24T08:43:21Z</time>
      </trkpt>
      <trkpt lat="48.74846" lon="1.74845">
        <ele>145.4</ele>
        <time>2022-03-24T08:43:26Z</time>
      </trkpt>
      <trkpt lat="48.74848" lon="1.74837">
        <ele>145.8</ele>
        <time>2022-03-24T08:43:32Z</time>
      </trkpt>
      <trkpt lat="48.7485" lon="1.7483">
        <ele>146.1</ele>
        <time>2022-03-24T08:43:36Z</time>
      </trkpt>
      <trkpt lat="48.74852" lon="1.74822">
        <ele>146</ele>
        <time>2022-03-24T08:43:41Z</time>
      </trkpt>
      <trkpt lat="48.74854" lon="1.74815">
        <ele>145.9</ele>
        <time>2022-03-24T08:43:46Z</time>
      </trkpt>
      <trkpt lat="48.74856" lon="1.74808">
        <ele>143.7</ele>
        <time>2022-03-24T08:43:52Z</time>
      </trkpt>
      <trkpt lat="48.74856" lon="1.748">
        <ele>140.1</ele>
        <time>2022-03-24T08:43:58Z</time>
      </trkpt>
      <trkpt lat="48.74857" lon="1.74792">
        <ele>137.1</ele>
        <time>2022-03-24T08:44:02Z</time>
      </trkpt>
      <trkpt lat="48.74859" lon="1.74785">
        <ele>134.2</ele>
        <time>2022-03-24T08:44:06Z</time>
      </trkpt>
      <trkpt lat="48.74862" lon="1.7478">
        <ele>133.2</ele>
        <time>2022-03-24T08:44:10Z</time>
      </trkpt>
      <trkpt lat="48.74865" lon="1.74775">
        <ele>133.2</ele>
        <time>2022-03-24T08:44:13Z</time>
      </trkpt>
      <trkpt lat="48.74868" lon="1.74769">
        <ele>135.2</ele>
        <time>2022-03-24T08:44:16Z</time>
      </trkpt>
      <trkpt lat="48.7487" lon="1.74761">
        <ele>138.5</ele>
        <time>2022-03-24T08:44:20Z</time>
      </trkpt>
      <trkpt lat="48.74872" lon="1.74754">
        <ele>140.1</ele>
        <time>2022-03-24T08:44:25Z</time>
      </trkpt>
      <trkpt lat="48.74875" lon="1.74748">
        <ele>140.4</ele>
        <time>2022-03-24T08:44:28Z</time>
      </trkpt>
      <trkpt lat="48.74877" lon="1.74742">
        <ele>140.4</ele>
        <time>2022-03-24T08:44:31Z</time>
      </trkpt>
      <trkpt lat="48.74879" lon="1.74735">
        <ele>141</ele>
        <time>2022-03-24T08:44:35Z</time>
      </trkpt>
      <trkpt lat="48.7488" lon="1.74727">
        <ele>142.5</ele>
        <time>2022-03-24T08:44:40Z</time>
      </trkpt>
      <trkpt lat="48.74882" lon="1.74721">
        <ele>144.5</ele>
        <time>2022-03-24T08:44:44Z</time>
      </trkpt>
      <trkpt lat="48.74885" lon="1.74714">
        <ele>145.5</ele>
        <time>2022-03-24T08:44:48Z</time>
      </trkpt>
      <trkpt lat="48.74888" lon="1.74707">
        <ele>145.8</ele>
        <time>2022-03-24T08:44:51Z</time>
      </trkpt>
      <trkpt lat="48.74891" lon="1.74701">
        <ele>147</ele>
        <time>2022-03-24T08:44:56Z</time>
      </trkpt>
      <trkpt lat="48.74893" lon="1.74694">
        <ele>147.7</ele>
        <time>2022-03-24T08:45:00Z</time>
      </trkpt>
      <trkpt lat="48.74896" lon="1.74687">
        <ele>147.3</ele>
        <time>2022-03-24T08:45:05Z</time>
      </trkpt>
      <trkpt lat="48.74898" lon="1.74681">
        <ele>145.7</ele>
        <time>2022-03-24T08:45:09Z</time>
      </trkpt>
      <trkpt lat="48.74902" lon="1.74676">
        <ele>144.3</ele>
        <time>2022-03-24T08:45:13Z</time>
      </trkpt>
      <trkpt lat="48.74905" lon="1.7467">
        <ele>143.9</ele>
        <time>2022-03-24T08:45:18Z</time>
      </trkpt>
      <trkpt lat="48.74909" lon="1.74664">
        <ele>144.1</ele>
        <time>2022-03-24T08:45:22Z</time>
      </trkpt>
      <trkpt lat="48.74912" lon="1.74658">
        <ele>144.6</ele>
        <time>2022-03-24T08:45:25Z</time>
      </trkpt>
      <trkpt lat="48.74915" lon="1.74651">
        <ele>146</ele>
        <time>2022-03-24T08:45:29Z</time>
      </trkpt>
      <trkpt lat="48.74919" lon="1.74646">
        <ele>147.5</ele>
        <time>2022-03-24T08:45:34Z</time>
      </trkpt>
      <trkpt lat="48.74923" lon="1.74639">
        <ele>147.5</ele>
        <time>2022-03-24T08:45:38Z</time>
      </trkpt>
      <trkpt lat="48.74926" lon="1.74633">
        <ele>147.1</ele>
        <time>2022-03-24T08:45:42Z</time>
      </trkpt>
      <trkpt lat="48.74929" lon="1.74627">
        <ele>147.3</ele>
        <time>2022-03-24T08:45:46Z</time>
      </trkpt>
      <trkpt lat="48.74933" lon="1.74622">
        <ele>147.4</ele>
        <time>2022-03-24T08:45:51Z</time>
      </trkpt>
      <trkpt lat="48.74936" lon="1.74617">
        <ele>147.6</ele>
        <time>2022-03-24T08:45:55Z</time>
      </trkpt>
      <trkpt lat="48.74939" lon="1.74609">
        <ele>147.3</ele>
        <time>2022-03-24T08:45:59Z</time>
      </trkpt>
      <trkpt lat="48.74942" lon="1.74604">
        <ele>147.2</ele>
        <time>2022-03-24T08:46:03Z</time>
      </trkpt>
      <trkpt lat="48.74946" lon="1.74598">
        <ele>148</ele>
        <time>2022-03-24T08:46:08Z</time>
      </trkpt>
      <trkpt lat="48.7495" lon="1.74593">
        <ele>149.5</ele>
        <time>2022-03-24T08:46:13Z</time>
      </trkpt>
      <trkpt lat="48.74954" lon="1.74589">
        <ele>149.4</ele>
        <time>2022-03-24T08:46:17Z</time>
      </trkpt>
      <trkpt lat="48.74958" lon="1.74584">
        <ele>149</ele>
        <time>2022-03-24T08:46:23Z</time>
      </trkpt>
      <trkpt lat="48.74959" lon="1.74575">
        <ele>149.6</ele>
        <time>2022-03-24T08:46:28Z</time>
      </trkpt>
      <trkpt lat="48.74961" lon="1.74568">
        <ele>149.8</ele>
        <time>2022-03-24T08:46:33Z</time>
      </trkpt>
      <trkpt lat="48.74963" lon="1.7456">
        <ele>150.3</ele>
        <time>2022-03-24T08:46:37Z</time>
      </trkpt>
      <trkpt lat="48.74964" lon="1.74552">
        <ele>149.4</ele>
        <time>2022-03-24T08:46:42Z</time>
      </trkpt>
      <trkpt lat="48.74965" lon="1.74544">
        <ele>147.2</ele>
        <time>2022-03-24T08:46:46Z</time>
      </trkpt>
      <trkpt lat="48.74967" lon="1.74536">
        <ele>146.1</ele>
        <time>2022-03-24T08:46:50Z</time>
      </trkpt>
      <trkpt lat="48.74969" lon="1.7453">
        <ele>147.1</ele>
        <time>2022-03-24T08:46:54Z</time>
      </trkpt>
      <trkpt lat="48.74971" lon="1.74522">
        <ele>147.5</ele>
        <time>2022-03-24T08:47:00Z</time>
      </trkpt>
      <trkpt lat="48.74972" lon="1.74514">
        <ele>145.4</ele>
        <time>2022-03-24T08:47:04Z</time>
      </trkpt>
      <trkpt lat="48.74973" lon="1.74507">
        <ele>143</ele>
        <time>2022-03-24T08:47:09Z</time>
      </trkpt>
      <trkpt lat="48.74975" lon="1.74499">
        <ele>141.4</ele>
        <time>2022-03-24T08:47:13Z</time>
      </trkpt>
      <trkpt lat="48.74976" lon="1.74491">
        <ele>140.4</ele>
        <time>2022-03-24T08:47:18Z</time>
      </trkpt>
      <trkpt lat="48.74978" lon="1.74485">
        <ele>140.1</ele>
        <time>2022-03-24T08:47:22Z</time>
      </trkpt>
      <trkpt lat="48.74979" lon="1.74478">
        <ele>142.1</ele>
        <time>2022-03-24T08:47:25Z</time>
      </trkpt>
      <trkpt lat="48.7498" lon="1.74471">
        <ele>143.1</ele>
        <time>2022-03-24T08:47:30Z</time>
      </trkpt>
      <trkpt lat="48.74983" lon="1.74463">
        <ele>141.5</ele>
        <time>2022-03-24T08:47:34Z</time>
      </trkpt>
      <trkpt lat="48.74984" lon="1.74456">
        <ele>139.6</ele>
        <time>2022-03-24T08:47:38Z</time>
      </trkpt>
      <trkpt lat="48.74984" lon="1.74447">
        <ele>139.1</ele>
        <time>2022-03-24T08:47:43Z</time>
      </trkpt>
      <trkpt lat="48.74985" lon="1.7444">
        <ele>138.5</ele>
        <time>2022-03-24T08:47:47Z</time>
      </trkpt>
      <trkpt lat="48.74987" lon="1.74432">
        <ele>137.1</ele>
        <time>2022-03-24T08:47:51Z</time>
      </trkpt>
      <trkpt lat="48.74988" lon="1.74424">
        <ele>136.6</ele>
        <time>2022-03-24T08:47:56Z</time>
      </trkpt>
      <trkpt lat="48.7499" lon="1.74417">
        <ele>136</ele>
        <time>2022-03-24T08:48:00Z</time>
      </trkpt>
      <trkpt lat="48.74992" lon="1.74411">
        <ele>134.6</ele>
        <time>2022-03-24T08:48:04Z</time>
      </trkpt>
      <trkpt lat="48.74996" lon="1.74404">
        <ele>134.3</ele>
        <time>2022-03-24T08:48:09Z</time>
      </trkpt>
      <trkpt lat="48.74998" lon="1.74396">
        <ele>134.8</ele>
        <time>2022-03-24T08:48:13Z</time>
      </trkpt>
      <trkpt lat="48.75" lon="1.74388">
        <ele>135.6</ele>
        <time>2022-03-24T08:48:17Z</time>
      </trkpt>
      <trkpt lat="48.75001" lon="1.7438">
        <ele>136.8</ele>
        <time>2022-03-24T08:48:22Z</time>
      </trkpt>
      <trkpt lat="48.75002" lon="1.74372">
        <ele>139.7</ele>
        <time>2022-03-24T08:48:26Z</time>
      </trkpt>
      <trkpt lat="48.75004" lon="1.74366">
        <ele>142.1</ele>
        <time>2022-03-24T08:48:29Z</time>
      </trkpt>
      <trkpt lat="48.75008" lon="1.74361">
        <ele>143.1</ele>
        <time>2022-03-24T08:48:34Z</time>
      </trkpt>
      <trkpt lat="48.75012" lon="1.74357">
        <ele>143.4</ele>
        <time>2022-03-24T08:48:38Z</time>
      </trkpt>
      <trkpt lat="48.75014" lon="1.74351">
        <ele>143.6</ele>
        <time>2022-03-24T08:48:41Z</time>
      </trkpt>
      <trkpt lat="48.75017" lon="1.74344">
        <ele>144.8</ele>
        <time>2022-03-24T08:48:46Z</time>
      </trkpt>
      <trkpt lat="48.75019" lon="1.74338">
        <ele>145.5</ele>
        <time>2022-03-24T08:48:49Z</time>
      </trkpt>
      <trkpt lat="48.75022" lon="1.74332">
        <ele>145.5</ele>
        <time>2022-03-24T08:48:53Z</time>
      </trkpt>
      <trkpt lat="48.75026" lon="1.74327">
        <ele>145</ele>
        <time>2022-03-24T08:48:57Z</time>
      </trkpt>
      <trkpt lat="48.75028" lon="1.7432">
        <ele>144.6</ele>
        <time>2022-03-24T08:49:01Z</time>
      </trkpt>
      <trkpt lat="48.75031" lon="1.74312">
        <ele>144.1</ele>
        <time>2022-03-24T08:49:05Z</time>
      </trkpt>
      <trkpt lat="48.75033" lon="1.74305">
        <ele>143.7</ele>
        <time>2022-03-24T08:49:09Z</time>
      </trkpt>
      <trkpt lat="48.75034" lon="1.74297">
        <ele>143.6</ele>
        <time>2022-03-24T08:49:13Z</time>
      </trkpt>
      <trkpt lat="48.75035" lon="1.74289">
        <ele>145.5</ele>
        <time>2022-03-24T08:49:17Z</time>
      </trkpt>
      <trkpt lat="48.75037" lon="1.74282">
        <ele>148</ele>
        <time>2022-03-24T08:49:22Z</time>
      </trkpt>
      <trkpt lat="48.75038" lon="1.74273">
        <ele>149.5</ele>
        <time>2022-03-24T08:49:27Z</time>
      </trkpt>
      <trkpt lat="48.75038" lon="1.74266">
        <ele>150.4</ele>
        <time>2022-03-24T08:49:31Z</time>
      </trkpt>
      <trkpt lat="48.75041" lon="1.74258">
        <ele>149.3</ele>
        <time>2022-03-24T08:49:35Z</time>
      </trkpt>
      <trkpt lat="48.75042" lon="1.7425">
        <ele>148.6</ele>
        <time>2022-03-24T08:49:39Z</time>
      </trkpt>
      <trkpt lat="48.75043" lon="1.74242">
        <ele>148</ele>
        <time>2022-03-24T08:49:44Z</time>
      </trkpt>
      <trkpt lat="48.75046" lon="1.74237">
        <ele>146.5</ele>
        <time>2022-03-24T08:49:49Z</time>
      </trkpt>
      <trkpt lat="48.75049" lon="1.7423">
        <ele>142.1</ele>
        <time>2022-03-24T08:49:54Z</time>
      </trkpt>
      <trkpt lat="48.75051" lon="1.74224">
        <ele>140.3</ele>
        <time>2022-03-24T08:49:58Z</time>
      </trkpt>
      <trkpt lat="48.75054" lon="1.74219">
        <ele>139.8</ele>
        <time>2022-03-24T08:50:03Z</time>
      </trkpt>
      <trkpt lat="48.75059" lon="1.74213">
        <ele>139.4</ele>
        <time>2022-03-24T08:50:07Z</time>
      </trkpt>
      <trkpt lat="48.75063" lon="1.74209">
        <ele>139.2</ele>
        <time>2022-03-24T08:50:12Z</time>
      </trkpt>
      <trkpt lat="48.75067" lon="1.74203">
        <ele>139.2</ele>
        <time>2022-03-24T08:50:16Z</time>
      </trkpt>
      <trkpt lat="48.75071" lon="1.74198">
        <ele>139.6</ele>
        <time>2022-03-24T08:50:20Z</time>
      </trkpt>
      <trkpt lat="48.75073" lon="1.74191">
        <ele>140.8</ele>
        <time>2022-03-24T08:50:25Z</time>
      </trkpt>
      <trkpt lat="48.75073" lon="1.74183">
        <ele>141.9</ele>
        <time>2022-03-24T08:50:29Z</time>
      </trkpt>
      <trkpt lat="48.75072" lon="1.74174">
        <ele>141.1</ele>
        <time>2022-03-24T08:50:33Z</time>
      </trkpt>
      <trkpt lat="48.75073" lon="1.74165">
        <ele>138.9</ele>
        <time>2022-03-24T08:50:38Z</time>
      </trkpt>
      <trkpt lat="48.75077" lon="1.74159">
        <ele>137.6</ele>
        <time>2022-03-24T08:50:42Z</time>
      </trkpt>
      <trkpt lat="48.75081" lon="1.74154">
        <ele>137.6</ele>
        <time>2022-03-24T08:50:46Z</time>
      </trkpt>
      <trkpt lat="48.75085" lon="1.74148">
        <ele>136.7</ele>
        <time>2022-03-24T08:50:52Z</time>
      </trkpt>
      <trkpt lat="48.75086" lon="1.74141">
        <ele>135.9</ele>
        <time>2022-03-24T08:50:56Z</time>
      </trkpt>
      <trkpt lat="48.75088" lon="1.74134">
        <ele>135.5</ele>
        <time>2022-03-24T08:51:01Z</time>
      </trkpt>
      <trkpt lat="48.7509" lon="1.74126">
        <ele>134.7</ele>
        <time>2022-03-24T08:51:05Z</time>
      </trkpt>
      <trkpt lat="48.75091" lon="1.7412">
        <ele>134.2</ele>
        <time>2022-03-24T08:51:09Z</time>
      </trkpt>
      <trkpt lat="48.75092" lon="1.74112">
        <ele>134.4</ele>
        <time>2022-03-24T08:51:13Z</time>
      </trkpt>
      <trkpt lat="48.75092" lon="1.74105">
        <ele>134.7</ele>
        <time>2022-03-24T08:51:18Z</time>
      </trkpt>
      <trkpt lat="48.7509" lon="1.74098">
        <ele>134.8</ele>
        <time>2022-03-24T08:51:23Z</time>
      </trkpt>
      <trkpt lat="48.75088" lon="1.74091">
        <ele>135</ele>
        <time>2022-03-24T08:51:27Z</time>
      </trkpt>
      <trkpt lat="48.75087" lon="1.74083">
        <ele>135.2</ele>
        <time>2022-03-24T08:51:32Z</time>
      </trkpt>
      <trkpt lat="48.75087" lon="1.74075">
        <ele>134.8</ele>
        <time>2022-03-24T08:51:37Z</time>
      </trkpt>
      <trkpt lat="48.75089" lon="1.74065">
        <ele>134.5</ele>
        <time>2022-03-24T08:51:41Z</time>
      </trkpt>
      <trkpt lat="48.75089" lon="1.74057">
        <ele>134.7</ele>
        <time>2022-03-24T08:51:46Z</time>
      </trkpt>
      <trkpt lat="48.75089" lon="1.7405">
        <ele>136.3</ele>
        <time>2022-03-24T08:51:50Z</time>
      </trkpt>
      <trkpt lat="48.7509" lon="1.74042">
        <ele>137.5</ele>
        <time>2022-03-24T08:51:55Z</time>
      </trkpt>
      <trkpt lat="48.7509" lon="1.74034">
        <ele>138.9</ele>
        <time>2022-03-24T08:52:01Z</time>
      </trkpt>
      <trkpt lat="48.75093" lon="1.74028">
        <ele>138.9</ele>
        <time>2022-03-24T08:52:07Z</time>
      </trkpt>
      <trkpt lat="48.75097" lon="1.74022">
        <ele>138.2</ele>
        <time>2022-03-24T08:52:12Z</time>
      </trkpt>
      <trkpt lat="48.75099" lon="1.74016">
        <ele>138.1</ele>
        <time>2022-03-24T08:52:17Z</time>
      </trkpt>
      <trkpt lat="48.75101" lon="1.74009">
        <ele>139.1</ele>
        <time>2022-03-24T08:52:22Z</time>
      </trkpt>
      <trkpt lat="48.75105" lon="1.74005">
        <ele>140.7</ele>
        <time>2022-03-24T08:52:26Z</time>
      </trkpt>
      <trkpt lat="48.7511" lon="1.74">
        <ele>142.2</ele>
        <time>2022-03-24T08:52:31Z</time>
      </trkpt>
      <trkpt lat="48.75113" lon="1.73995">
        <ele>143.1</ele>
        <time>2022-03-24T08:52:35Z</time>
      </trkpt>
      <trkpt lat="48.75115" lon="1.73989">
        <ele>143.3</ele>
        <time>2022-03-24T08:52:39Z</time>
      </trkpt>
      <trkpt lat="48.75119" lon="1.73981">
        <ele>144.5</ele>
        <time>2022-03-24T08:52:44Z</time>
      </trkpt>
      <trkpt lat="48.75122" lon="1.73975">
        <ele>146.2</ele>
        <time>2022-03-24T08:52:49Z</time>
      </trkpt>
      <trkpt lat="48.75127" lon="1.73971">
        <ele>146.9</ele>
        <time>2022-03-24T08:52:54Z</time>
      </trkpt>
      <trkpt lat="48.75131" lon="1.73967">
        <ele>146.6</ele>
        <time>2022-03-24T08:52:59Z</time>
      </trkpt>
      <trkpt lat="48.75135" lon="1.73963">
        <ele>146.5</ele>
        <time>2022-03-24T08:53:03Z</time>
      </trkpt>
      <trkpt lat="48.7514" lon="1.73959">
        <ele>146.7</ele>
        <time>2022-03-24T08:53:07Z</time>
      </trkpt>
      <trkpt lat="48.75144" lon="1.73956">
        <ele>147.2</ele>
        <time>2022-03-24T08:53:12Z</time>
      </trkpt>
      <trkpt lat="48.75149" lon="1.73953">
        <ele>147.5</ele>
        <time>2022-03-24T08:53:16Z</time>
      </trkpt>
      <trkpt lat="48.75155" lon="1.7395">
        <ele>148.2</ele>
        <time>2022-03-24T08:53:20Z</time>
      </trkpt>
      <trkpt lat="48.7516" lon="1.73946">
        <ele>148.1</ele>
        <time>2022-03-24T08:53:24Z</time>
      </trkpt>
      <trkpt lat="48.75164" lon="1.73942">
        <ele>148</ele>
        <time>2022-03-24T08:53:27Z</time>
      </trkpt>
      <trkpt lat="48.75169" lon="1.73938">
        <ele>147.9</ele>
        <time>2022-03-24T08:53:31Z</time>
      </trkpt>
      <trkpt lat="48.75174" lon="1.73934">
        <ele>148.2</ele>
        <time>2022-03-24T08:53:35Z</time>
      </trkpt>
      <trkpt lat="48.75179" lon="1.73929">
        <ele>147.7</ele>
        <time>2022-03-24T08:53:40Z</time>
      </trkpt>
      <trkpt lat="48.75184" lon="1.73927">
        <ele>147.1</ele>
        <time>2022-03-24T08:53:44Z</time>
      </trkpt>
      <trkpt lat="48.75188" lon="1.73925">
        <ele>146.8</ele>
        <time>2022-03-24T08:53:47Z</time>
      </trkpt>
      <trkpt lat="48.75192" lon="1.7392">
        <ele>146.1</ele>
        <time>2022-03-24T08:53:52Z</time>
      </trkpt>
      <trkpt lat="48.75198" lon="1.73917">
        <ele>145.2</ele>
        <time>2022-03-24T08:53:58Z</time>
      </trkpt>
      <trkpt lat="48.75202" lon="1.73913">
        <ele>143.6</ele>
        <time>2022-03-24T08:54:02Z</time>
      </trkpt>
      <trkpt lat="48.75207" lon="1.7391">
        <ele>142.8</ele>
        <time>2022-03-24T08:54:06Z</time>
      </trkpt>
      <trkpt lat="48.75211" lon="1.73906">
        <ele>142.4</ele>
        <time>2022-03-24T08:54:11Z</time>
      </trkpt>
      <trkpt lat="48.75216" lon="1.73903">
        <ele>142</ele>
        <time>2022-03-24T08:54:15Z</time>
      </trkpt>
      <trkpt lat="48.75222" lon="1.73901">
        <ele>141.1</ele>
        <time>2022-03-24T08:54:19Z</time>
      </trkpt>
      <trkpt lat="48.75226" lon="1.73898">
        <ele>140.9</ele>
        <time>2022-03-24T08:54:23Z</time>
      </trkpt>
      <trkpt lat="48.75231" lon="1.73894">
        <ele>141.1</ele>
        <time>2022-03-24T08:54:28Z</time>
      </trkpt>
      <trkpt lat="48.75236" lon="1.73891">
        <ele>140.8</ele>
        <time>2022-03-24T08:54:32Z</time>
      </trkpt>
      <trkpt lat="48.75242" lon="1.73888">
        <ele>140.9</ele>
        <time>2022-03-24T08:54:36Z</time>
      </trkpt>
      <trkpt lat="48.75246" lon="1.73885">
        <ele>141.8</ele>
        <time>2022-03-24T08:54:40Z</time>
      </trkpt>
      <trkpt lat="48.75252" lon="1.73882">
        <ele>143.2</ele>
        <time>2022-03-24T08:54:44Z</time>
      </trkpt>
      <trkpt lat="48.75257" lon="1.73879">
        <ele>142.9</ele>
        <time>2022-03-24T08:54:49Z</time>
      </trkpt>
      <trkpt lat="48.75261" lon="1.73878">
        <ele>142</ele>
        <time>2022-03-24T08:54:52Z</time>
      </trkpt>
      <trkpt lat="48.75266" lon="1.73879">
        <ele>141.3</ele>
        <time>2022-03-24T08:54:56Z</time>
      </trkpt>
      <trkpt lat="48.75272" lon="1.73876">
        <ele>143.8</ele>
        <time>2022-03-24T08:55:01Z</time>
      </trkpt>
      <trkpt lat="48.75277" lon="1.73877">
        <ele>145.7</ele>
        <time>2022-03-24T08:55:05Z</time>
      </trkpt>
      <trkpt lat="48.75282" lon="1.73877">
        <ele>144.4</ele>
        <time>2022-03-24T08:55:09Z</time>
      </trkpt>
      <trkpt lat="48.75288" lon="1.73878">
        <ele>141.6</ele>
        <time>2022-03-24T08:55:15Z</time>
      </trkpt>
      <trkpt lat="48.75293" lon="1.73878">
        <ele>139.8</ele>
        <time>2022-03-24T08:55:19Z</time>
      </trkpt>
      <trkpt lat="48.75291" lon="1.73871">
        <ele>132.9</ele>
        <time>2022-03-24T08:55:55Z</time>
      </trkpt>
      <trkpt lat="48.75286" lon="1.73872">
        <ele>130.3</ele>
        <time>2022-03-24T08:56:03Z</time>
      </trkpt>
      <trkpt lat="48.75285" lon="1.73865">
        <ele>135.1</ele>
        <time>2022-03-24T08:56:33Z</time>
      </trkpt>
      <trkpt lat="48.75283" lon="1.73858">
        <ele>134.9</ele>
        <time>2022-03-24T08:56:36Z</time>
      </trkpt>
      <trkpt lat="48.75281" lon="1.73851">
        <ele>134.5</ele>
        <time>2022-03-24T08:56:39Z</time>
      </trkpt>
      <trkpt lat="48.75279" lon="1.73844">
        <ele>134.6</ele>
        <time>2022-03-24T08:56:43Z</time>
      </trkpt>
      <trkpt lat="48.75275" lon="1.7384">
        <ele>134.6</ele>
        <time>2022-03-24T08:56:45Z</time>
      </trkpt>
      <trkpt lat="48.7527" lon="1.73834">
        <ele>134.9</ele>
        <time>2022-03-24T08:56:47Z</time>
      </trkpt>
      <trkpt lat="48.75268" lon="1.73828">
        <ele>135</ele>
        <time>2022-03-24T08:56:49Z</time>
      </trkpt>
      <trkpt lat="48.75266" lon="1.7382">
        <ele>134.8</ele>
        <time>2022-03-24T08:56:53Z</time>
      </trkpt>
      <trkpt lat="48.75262" lon="1.73814">
        <ele>134.8</ele>
        <time>2022-03-24T08:57:00Z</time>
      </trkpt>
      <trkpt lat="48.75263" lon="1.73807">
        <ele>134.5</ele>
        <time>2022-03-24T08:57:10Z</time>
      </trkpt>
      <trkpt lat="48.75262" lon="1.738">
        <ele>134.5</ele>
        <time>2022-03-24T08:57:16Z</time>
      </trkpt>
      <trkpt lat="48.7526" lon="1.73793">
        <ele>136</ele>
        <time>2022-03-24T08:57:21Z</time>
      </trkpt>
      <trkpt lat="48.75257" lon="1.73786">
        <ele>136.2</ele>
        <time>2022-03-24T08:57:27Z</time>
      </trkpt>
      <trkpt lat="48.75254" lon="1.7378">
        <ele>135.6</ele>
        <time>2022-03-24T08:57:33Z</time>
      </trkpt>
      <trkpt lat="48.75249" lon="1.73777">
        <ele>135.3</ele>
        <time>2022-03-24T08:57:38Z</time>
      </trkpt>
      <trkpt lat="48.75246" lon="1.73773">
        <ele>134.8</ele>
        <time>2022-03-24T08:57:44Z</time>
      </trkpt>
      <trkpt lat="48.75242" lon="1.73768">
        <ele>134</ele>
        <time>2022-03-24T08:57:49Z</time>
      </trkpt>
      <trkpt lat="48.75239" lon="1.73761">
        <ele>134.1</ele>
        <time>2022-03-24T08:57:54Z</time>
      </trkpt>
      <trkpt lat="48.75236" lon="1.73755">
        <ele>134.5</ele>
        <time>2022-03-24T08:57:59Z</time>
      </trkpt>
      <trkpt lat="48.75233" lon="1.73749">
        <ele>134.3</ele>
        <time>2022-03-24T08:58:04Z</time>
      </trkpt>
      <trkpt lat="48.75231" lon="1.73743">
        <ele>134.9</ele>
        <time>2022-03-24T08:58:08Z</time>
      </trkpt>
      <trkpt lat="48.75229" lon="1.73736">
        <ele>137.6</ele>
        <time>2022-03-24T08:58:13Z</time>
      </trkpt>
      <trkpt lat="48.75227" lon="1.73729">
        <ele>139.6</ele>
        <time>2022-03-24T08:58:16Z</time>
      </trkpt>
      <trkpt lat="48.75226" lon="1.73721">
        <ele>138.4</ele>
        <time>2022-03-24T08:58:22Z</time>
      </trkpt>
      <trkpt lat="48.75222" lon="1.73716">
        <ele>136.5</ele>
        <time>2022-03-24T08:58:26Z</time>
      </trkpt>
      <trkpt lat="48.7522" lon="1.73709">
        <ele>136.4</ele>
        <time>2022-03-24T08:58:31Z</time>
      </trkpt>
      <trkpt lat="48.75218" lon="1.73701">
        <ele>136.3</ele>
        <time>2022-03-24T08:58:35Z</time>
      </trkpt>
      <trkpt lat="48.75217" lon="1.73694">
        <ele>135.5</ele>
        <time>2022-03-24T08:58:40Z</time>
      </trkpt>
      <trkpt lat="48.75216" lon="1.73686">
        <ele>134.4</ele>
        <time>2022-03-24T08:58:44Z</time>
      </trkpt>
      <trkpt lat="48.75213" lon="1.7368">
        <ele>134.7</ele>
        <time>2022-03-24T08:58:49Z</time>
      </trkpt>
      <trkpt lat="48.75211" lon="1.73673">
        <ele>137.3</ele>
        <time>2022-03-24T08:58:55Z</time>
      </trkpt>
      <trkpt lat="48.75217" lon="1.73672">
        <ele>137.4</ele>
        <time>2022-03-24T08:59:00Z</time>
      </trkpt>
      <trkpt lat="48.75221" lon="1.73676">
        <ele>134.6</ele>
        <time>2022-03-24T08:59:05Z</time>
      </trkpt>
      <trkpt lat="48.75226" lon="1.73675">
        <ele>132.2</ele>
        <time>2022-03-24T08:59:10Z</time>
      </trkpt>
      <trkpt lat="48.75231" lon="1.73677">
        <ele>131.8</ele>
        <time>2022-03-24T08:59:16Z</time>
      </trkpt>
      <trkpt lat="48.75235" lon="1.73681">
        <ele>131.5</ele>
        <time>2022-03-24T08:59:21Z</time>
      </trkpt>
      <trkpt lat="48.7524" lon="1.73682">
        <ele>132</ele>
        <time>2022-03-24T08:59:25Z</time>
      </trkpt>
      <trkpt lat="48.75246" lon="1.73682">
        <ele>133.8</ele>
        <time>2022-03-24T08:59:30Z</time>
      </trkpt>
      <trkpt lat="48.75251" lon="1.73681">
        <ele>135.8</ele>
        <time>2022-03-24T08:59:35Z</time>
      </trkpt>
      <trkpt lat="48.75255" lon="1.73678">
        <ele>135.7</ele>
        <time>2022-03-24T08:59:40Z</time>
      </trkpt>
      <trkpt lat="48.7526" lon="1.73675">
        <ele>132.7</ele>
        <time>2022-03-24T08:59:45Z</time>
      </trkpt>
      <trkpt lat="48.75265" lon="1.73672">
        <ele>131.4</ele>
        <time>2022-03-24T08:59:50Z</time>
      </trkpt>
      <trkpt lat="48.75269" lon="1.73669">
        <ele>130.8</ele>
        <time>2022-03-24T08:59:54Z</time>
      </trkpt>
      <trkpt lat="48.75274" lon="1.73668">
        <ele>131.5</ele>
        <time>2022-03-24T08:59:59Z</time>
      </trkpt>
      <trkpt lat="48.75278" lon="1.73671">
        <ele>132.2</ele>
        <time>2022-03-24T09:00:03Z</time>
      </trkpt>
      <trkpt lat="48.75284" lon="1.73671">
        <ele>132.9</ele>
        <time>2022-03-24T09:00:08Z</time>
      </trkpt>
      <trkpt lat="48.7529" lon="1.73668">
        <ele>133.3</ele>
        <time>2022-03-24T09:00:14Z</time>
      </trkpt>
      <trkpt lat="48.75294" lon="1.73665">
        <ele>135.2</ele>
        <time>2022-03-24T09:00:18Z</time>
      </trkpt>
      <trkpt lat="48.75298" lon="1.73663">
        <ele>136.7</ele>
        <time>2022-03-24T09:00:21Z</time>
      </trkpt>
      <trkpt lat="48.75303" lon="1.73661">
        <ele>137.5</ele>
        <time>2022-03-24T09:00:25Z</time>
      </trkpt>
      <trkpt lat="48.75308" lon="1.73658">
        <ele>136.1</ele>
        <time>2022-03-24T09:00:30Z</time>
      </trkpt>
      <trkpt lat="48.75311" lon="1.73654">
        <ele>134.7</ele>
        <time>2022-03-24T09:00:35Z</time>
      </trkpt>
      <trkpt lat="48.75315" lon="1.73649">
        <ele>134.2</ele>
        <time>2022-03-24T09:00:39Z</time>
      </trkpt>
      <trkpt lat="48.7532" lon="1.73646">
        <ele>133.9</ele>
        <time>2022-03-24T09:00:43Z</time>
      </trkpt>
      <trkpt lat="48.75326" lon="1.73644">
        <ele>133.2</ele>
        <time>2022-03-24T09:00:47Z</time>
      </trkpt>
      <trkpt lat="48.75331" lon="1.73643">
        <ele>132.6</ele>
        <time>2022-03-24T09:00:52Z</time>
      </trkpt>
      <trkpt lat="48.75336" lon="1.73641">
        <ele>132.3</ele>
        <time>2022-03-24T09:00:57Z</time>
      </trkpt>
      <trkpt lat="48.7534" lon="1.73635">
        <ele>132.7</ele>
        <time>2022-03-24T09:01:02Z</time>
      </trkpt>
      <trkpt lat="48.75344" lon="1.73633">
        <ele>132.4</ele>
        <time>2022-03-24T09:01:06Z</time>
      </trkpt>
      <trkpt lat="48.75349" lon="1.7363">
        <ele>131.4</ele>
        <time>2022-03-24T09:01:09Z</time>
      </trkpt>
      <trkpt lat="48.75355" lon="1.73628">
        <ele>131.3</ele>
        <time>2022-03-24T09:01:12Z</time>
      </trkpt>
      <trkpt lat="48.7536" lon="1.73626">
        <ele>131.5</ele>
        <time>2022-03-24T09:01:15Z</time>
      </trkpt>
      <trkpt lat="48.75365" lon="1.73624">
        <ele>132.2</ele>
        <time>2022-03-24T09:01:18Z</time>
      </trkpt>
      <trkpt lat="48.7537" lon="1.73622">
        <ele>132.6</ele>
        <time>2022-03-24T09:01:21Z</time>
      </trkpt>
      <trkpt lat="48.75375" lon="1.7362">
        <ele>132.6</ele>
        <time>2022-03-24T09:01:26Z</time>
      </trkpt>
      <trkpt lat="48.7538" lon="1.73616">
        <ele>133.1</ele>
        <time>2022-03-24T09:01:31Z</time>
      </trkpt>
      <trkpt lat="48.75384" lon="1.73611">
        <ele>133.2</ele>
        <time>2022-03-24T09:01:37Z</time>
      </trkpt>
      <trkpt lat="48.75387" lon="1.73605">
        <ele>132.5</ele>
        <time>2022-03-24T09:01:41Z</time>
      </trkpt>
      <trkpt lat="48.75391" lon="1.73601">
        <ele>131.9</ele>
        <time>2022-03-24T09:01:46Z</time>
      </trkpt>
      <trkpt lat="48.75394" lon="1.73593">
        <ele>130.6</ele>
        <time>2022-03-24T09:01:51Z</time>
      </trkpt>
      <trkpt lat="48.75391" lon="1.73586">
        <ele>129.9</ele>
        <time>2022-03-24T09:01:55Z</time>
      </trkpt>
      <trkpt lat="48.75388" lon="1.73582">
        <ele>129.7</ele>
        <time>2022-03-24T09:01:59Z</time>
      </trkpt>
      <trkpt lat="48.75384" lon="1.73577">
        <ele>129.8</ele>
        <time>2022-03-24T09:02:03Z</time>
      </trkpt>
      <trkpt lat="48.75384" lon="1.73569">
        <ele>129.8</ele>
        <time>2022-03-24T09:02:08Z</time>
      </trkpt>
      <trkpt lat="48.75389" lon="1.73571">
        <ele>132</ele>
        <time>2022-03-24T09:02:41Z</time>
      </trkpt>
      <trkpt lat="48.75392" lon="1.73576">
        <ele>131.6</ele>
        <time>2022-03-24T09:02:46Z</time>
      </trkpt>
      <trkpt lat="48.75395" lon="1.73582">
        <ele>131.8</ele>
        <time>2022-03-24T09:02:52Z</time>
      </trkpt>
      <trkpt lat="48.754" lon="1.73585">
        <ele>132.9</ele>
        <time>2022-03-24T09:02:57Z</time>
      </trkpt>
      <trkpt lat="48.75401" lon="1.73578">
        <ele>133.5</ele>
        <time>2022-03-24T09:03:09Z</time>
      </trkpt>
      <trkpt lat="48.75403" lon="1.73571">
        <ele>132.9</ele>
        <time>2022-03-24T09:03:13Z</time>
      </trkpt>
      <trkpt lat="48.75407" lon="1.73567">
        <ele>132.5</ele>
        <time>2022-03-24T09:03:17Z</time>
      </trkpt>
      <trkpt lat="48.7541" lon="1.73562">
        <ele>132</ele>
        <time>2022-03-24T09:03:22Z</time>
      </trkpt>
      <trkpt lat="48.75406" lon="1.7356">
        <ele>132.5</ele>
        <time>2022-03-24T09:03:37Z</time>
      </trkpt>
      <trkpt lat="48.75404" lon="1.73568">
        <ele>132.2</ele>
        <time>2022-03-24T09:03:53Z</time>
      </trkpt>
      <trkpt lat="48.75408" lon="1.73563">
        <ele>131</ele>
        <time>2022-03-24T09:04:16Z</time>
      </trkpt>
      <trkpt lat="48.75411" lon="1.73557">
        <ele>130.6</ele>
        <time>2022-03-24T09:04:22Z</time>
      </trkpt>
      <trkpt lat="48.75414" lon="1.7355">
        <ele>132.1</ele>
        <time>2022-03-24T09:04:38Z</time>
      </trkpt>
      <trkpt lat="48.75419" lon="1.73547">
        <ele>132.9</ele>
        <time>2022-03-24T09:04:41Z</time>
      </trkpt>
      <trkpt lat="48.75423" lon="1.73543">
        <ele>133.3</ele>
        <time>2022-03-24T09:04:44Z</time>
      </trkpt>
      <trkpt lat="48.75425" lon="1.73536">
        <ele>133.2</ele>
        <time>2022-03-24T09:04:49Z</time>
      </trkpt>
      <trkpt lat="48.75427" lon="1.73529">
        <ele>132.1</ele>
        <time>2022-03-24T09:04:53Z</time>
      </trkpt>
      <trkpt lat="48.7543" lon="1.73522">
        <ele>131.1</ele>
        <time>2022-03-24T09:04:58Z</time>
      </trkpt>
      <trkpt lat="48.75433" lon="1.73516">
        <ele>130.9</ele>
        <time>2022-03-24T09:05:03Z</time>
      </trkpt>
      <trkpt lat="48.75436" lon="1.7351">
        <ele>131.2</ele>
        <time>2022-03-24T09:05:07Z</time>
      </trkpt>
      <trkpt lat="48.75439" lon="1.73504">
        <ele>131.7</ele>
        <time>2022-03-24T09:05:12Z</time>
      </trkpt>
      <trkpt lat="48.75443" lon="1.73497">
        <ele>132.5</ele>
        <time>2022-03-24T09:05:17Z</time>
      </trkpt>
      <trkpt lat="48.75447" lon="1.73492">
        <ele>133.2</ele>
        <time>2022-03-24T09:05:22Z</time>
      </trkpt>
      <trkpt lat="48.7545" lon="1.73485">
        <ele>133.4</ele>
        <time>2022-03-24T09:05:28Z</time>
      </trkpt>
      <trkpt lat="48.75453" lon="1.7348">
        <ele>133.3</ele>
        <time>2022-03-24T09:05:32Z</time>
      </trkpt>
      <trkpt lat="48.75456" lon="1.73474">
        <ele>134.3</ele>
        <time>2022-03-24T09:05:37Z</time>
      </trkpt>
      <trkpt lat="48.75459" lon="1.73468">
        <ele>134.4</ele>
        <time>2022-03-24T09:05:41Z</time>
      </trkpt>
      <trkpt lat="48.75461" lon="1.73461">
        <ele>133.9</ele>
        <time>2022-03-24T09:05:45Z</time>
      </trkpt>
      <trkpt lat="48.75464" lon="1.73454">
        <ele>133.5</ele>
        <time>2022-03-24T09:05:49Z</time>
      </trkpt>
      <trkpt lat="48.75466" lon="1.73448">
        <ele>133.8</ele>
        <time>2022-03-24T09:05:53Z</time>
      </trkpt>
      <trkpt lat="48.75468" lon="1.7344">
        <ele>134.5</ele>
        <time>2022-03-24T09:05:58Z</time>
      </trkpt>
      <trkpt lat="48.75471" lon="1.73434">
        <ele>135.5</ele>
        <time>2022-03-24T09:06:02Z</time>
      </trkpt>
      <trkpt lat="48.75467" lon="1.73428">
        <ele>134.5</ele>
        <time>2022-03-24T09:06:13Z</time>
      </trkpt>
      <trkpt lat="48.75467" lon="1.73421">
        <ele>134.8</ele>
        <time>2022-03-24T09:06:18Z</time>
      </trkpt>
      <trkpt lat="48.75469" lon="1.73415">
        <ele>135.4</ele>
        <time>2022-03-24T09:06:21Z</time>
      </trkpt>
      <trkpt lat="48.75471" lon="1.73407">
        <ele>135.6</ele>
        <time>2022-03-24T09:06:26Z</time>
      </trkpt>
      <trkpt lat="48.75471" lon="1.73399">
        <ele>135.3</ele>
        <time>2022-03-24T09:06:31Z</time>
      </trkpt>
      <trkpt lat="48.75474" lon="1.73393">
        <ele>135.1</ele>
        <time>2022-03-24T09:06:34Z</time>
      </trkpt>
      <trkpt lat="48.75477" lon="1.73387">
        <ele>134.8</ele>
        <time>2022-03-24T09:06:36Z</time>
      </trkpt>
      <trkpt lat="48.75481" lon="1.73381">
        <ele>134.5</ele>
        <time>2022-03-24T09:06:40Z</time>
      </trkpt>
      <trkpt lat="48.75486" lon="1.73379">
        <ele>134.1</ele>
        <time>2022-03-24T09:06:43Z</time>
      </trkpt>
      <trkpt lat="48.75491" lon="1.73377">
        <ele>133.7</ele>
        <time>2022-03-24T09:06:46Z</time>
      </trkpt>
      <trkpt lat="48.75496" lon="1.73371">
        <ele>133.4</ele>
        <time>2022-03-24T09:06:52Z</time>
      </trkpt>
      <trkpt lat="48.755" lon="1.73373">
        <ele>133</ele>
        <time>2022-03-24T09:06:57Z</time>
      </trkpt>
      <trkpt lat="48.75505" lon="1.73375">
        <ele>132.7</ele>
        <time>2022-03-24T09:07:01Z</time>
      </trkpt>
      <trkpt lat="48.7551" lon="1.73376">
        <ele>132.7</ele>
        <time>2022-03-24T09:07:05Z</time>
      </trkpt>
      <trkpt lat="48.75515" lon="1.73377">
        <ele>133.1</ele>
        <time>2022-03-24T09:07:09Z</time>
      </trkpt>
      <trkpt lat="48.7552" lon="1.73376">
        <ele>133.5</ele>
        <time>2022-03-24T09:07:13Z</time>
      </trkpt>
      <trkpt lat="48.75524" lon="1.73376">
        <ele>133.5</ele>
        <time>2022-03-24T09:07:17Z</time>
      </trkpt>
      <trkpt lat="48.75528" lon="1.7338">
        <ele>133</ele>
        <time>2022-03-24T09:07:21Z</time>
      </trkpt>
      <trkpt lat="48.75532" lon="1.73387">
        <ele>132.5</ele>
        <time>2022-03-24T09:07:25Z</time>
      </trkpt>
      <trkpt lat="48.75537" lon="1.7339">
        <ele>132.2</ele>
        <time>2022-03-24T09:07:28Z</time>
      </trkpt>
      <trkpt lat="48.7554" lon="1.73394">
        <ele>132</ele>
        <time>2022-03-24T09:07:32Z</time>
      </trkpt>
      <trkpt lat="48.75545" lon="1.73399">
        <ele>131.4</ele>
        <time>2022-03-24T09:07:36Z</time>
      </trkpt>
      <trkpt lat="48.75549" lon="1.73404">
        <ele>130.9</ele>
        <time>2022-03-24T09:07:40Z</time>
      </trkpt>
      <trkpt lat="48.75552" lon="1.73409">
        <ele>130.4</ele>
        <time>2022-03-24T09:07:45Z</time>
      </trkpt>
      <trkpt lat="48.75554" lon="1.73416">
        <ele>129.3</ele>
        <time>2022-03-24T09:07:51Z</time>
      </trkpt>
      <trkpt lat="48.75555" lon="1.73424">
        <ele>129.8</ele>
        <time>2022-03-24T09:07:55Z</time>
      </trkpt>
      <trkpt lat="48.75557" lon="1.73432">
        <ele>130.8</ele>
        <time>2022-03-24T09:08:00Z</time>
      </trkpt>
      <trkpt lat="48.7556" lon="1.73437">
        <ele>130.5</ele>
        <time>2022-03-24T09:08:04Z</time>
      </trkpt>
      <trkpt lat="48.75564" lon="1.73441">
        <ele>128.8</ele>
        <time>2022-03-24T09:08:09Z</time>
      </trkpt>
      <trkpt lat="48.75569" lon="1.73445">
        <ele>127.3</ele>
        <time>2022-03-24T09:08:13Z</time>
      </trkpt>
      <trkpt lat="48.75573" lon="1.73448">
        <ele>126.8</ele>
        <time>2022-03-24T09:08:18Z</time>
      </trkpt>
      <trkpt lat="48.75578" lon="1.73451">
        <ele>125.9</ele>
        <time>2022-03-24T09:08:22Z</time>
      </trkpt>
      <trkpt lat="48.75582" lon="1.73455">
        <ele>124.8</ele>
        <time>2022-03-24T09:08:27Z</time>
      </trkpt>
      <trkpt lat="48.75585" lon="1.7346">
        <ele>123.7</ele>
        <time>2022-03-24T09:08:31Z</time>
      </trkpt>
      <trkpt lat="48.75589" lon="1.73465">
        <ele>122.9</ele>
        <time>2022-03-24T09:08:36Z</time>
      </trkpt>
      <trkpt lat="48.75593" lon="1.7347">
        <ele>122.6</ele>
        <time>2022-03-24T09:08:41Z</time>
      </trkpt>
      <trkpt lat="48.75598" lon="1.73473">
        <ele>123.5</ele>
        <time>2022-03-24T09:08:45Z</time>
      </trkpt>
      <trkpt lat="48.75597" lon="1.73467">
        <ele>122</ele>
        <time>2022-03-24T09:09:00Z</time>
      </trkpt>
      <trkpt lat="48.75601" lon="1.7347">
        <ele>121.2</ele>
        <time>2022-03-24T09:09:51Z</time>
      </trkpt>
      <trkpt lat="48.75606" lon="1.73469">
        <ele>121.8</ele>
        <time>2022-03-24T09:09:55Z</time>
      </trkpt>
      <trkpt lat="48.7561" lon="1.73469">
        <ele>122.8</ele>
        <time>2022-03-24T09:10:01Z</time>
      </trkpt>
      <trkpt lat="48.75614" lon="1.73463">
        <ele>124.3</ele>
        <time>2022-03-24T09:10:08Z</time>
      </trkpt>
      <trkpt lat="48.75619" lon="1.73461">
        <ele>124.8</ele>
        <time>2022-03-24T09:10:14Z</time>
      </trkpt>
      <trkpt lat="48.75623" lon="1.73456">
        <ele>124.8</ele>
        <time>2022-03-24T09:10:22Z</time>
      </trkpt>
      <trkpt lat="48.75625" lon="1.73448">
        <ele>124</ele>
        <time>2022-03-24T09:10:28Z</time>
      </trkpt>
      <trkpt lat="48.75627" lon="1.73441">
        <ele>123.6</ele>
        <time>2022-03-24T09:10:35Z</time>
      </trkpt>
      <trkpt lat="48.75627" lon="1.73435">
        <ele>122</ele>
        <time>2022-03-24T09:10:46Z</time>
      </trkpt>
      <trkpt lat="48.75628" lon="1.73427">
        <ele>120.6</ele>
        <time>2022-03-24T09:11:15Z</time>
      </trkpt>
      <trkpt lat="48.75632" lon="1.73422">
        <ele>121.3</ele>
        <time>2022-03-24T09:11:26Z</time>
      </trkpt>
      <trkpt lat="48.75636" lon="1.73418">
        <ele>120.9</ele>
        <time>2022-03-24T09:11:34Z</time>
      </trkpt>
      <trkpt lat="48.75639" lon="1.73412">
        <ele>120.1</ele>
        <time>2022-03-24T09:11:42Z</time>
      </trkpt>
      <trkpt lat="48.7564" lon="1.73406">
        <ele>119.2</ele>
        <time>2022-03-24T09:11:51Z</time>
      </trkpt>
      <trkpt lat="48.75642" lon="1.73399">
        <ele>119.5</ele>
        <time>2022-03-24T09:11:58Z</time>
      </trkpt>
      <trkpt lat="48.75645" lon="1.73393">
        <ele>122.5</ele>
        <time>2022-03-24T09:13:01Z</time>
      </trkpt>
      <trkpt lat="48.75648" lon="1.73386">
        <ele>122.7</ele>
        <time>2022-03-24T09:13:07Z</time>
      </trkpt>
      <trkpt lat="48.75651" lon="1.73381">
        <ele>123.3</ele>
        <time>2022-03-24T09:13:13Z</time>
      </trkpt>
      <trkpt lat="48.75654" lon="1.73375">
        <ele>123.1</ele>
        <time>2022-03-24T09:13:20Z</time>
      </trkpt>
      <trkpt lat="48.75658" lon="1.73371">
        <ele>122</ele>
        <time>2022-03-24T09:13:27Z</time>
      </trkpt>
      <trkpt lat="48.75662" lon="1.73367">
        <ele>120.7</ele>
        <time>2022-03-24T09:13:34Z</time>
      </trkpt>
      <trkpt lat="48.75666" lon="1.73362">
        <ele>118.8</ele>
        <time>2022-03-24T09:13:40Z</time>
      </trkpt>
      <trkpt lat="48.75669" lon="1.73357">
        <ele>117.6</ele>
        <time>2022-03-24T09:13:45Z</time>
      </trkpt>
      <trkpt lat="48.75673" lon="1.73352">
        <ele>116.8</ele>
        <time>2022-03-24T09:13:51Z</time>
      </trkpt>
      <trkpt lat="48.75674" lon="1.73344">
        <ele>116.9</ele>
        <time>2022-03-24T09:13:57Z</time>
      </trkpt>
      <trkpt lat="48.75671" lon="1.73339">
        <ele>117.7</ele>
        <time>2022-03-24T09:14:02Z</time>
      </trkpt>
      <trkpt lat="48.75666" lon="1.73336">
        <ele>118.8</ele>
        <time>2022-03-24T09:14:08Z</time>
      </trkpt>
      <trkpt lat="48.7567" lon="1.73333">
        <ele>122.8</ele>
        <time>2022-03-24T09:14:19Z</time>
      </trkpt>
      <trkpt lat="48.75672" lon="1.73327">
        <ele>128.7</ele>
        <time>2022-03-24T09:14:28Z</time>
      </trkpt>
      <trkpt lat="48.75668" lon="1.73324">
        <ele>127.9</ele>
        <time>2022-03-24T09:14:30Z</time>
      </trkpt>
      <trkpt lat="48.75662" lon="1.7332">
        <ele>126</ele>
        <time>2022-03-24T09:14:32Z</time>
      </trkpt>
      <trkpt lat="48.75657" lon="1.73316">
        <ele>122.5</ele>
        <time>2022-03-24T09:14:36Z</time>
      </trkpt>
      <trkpt lat="48.75653" lon="1.73308">
        <ele>120.6</ele>
        <time>2022-03-24T09:14:39Z</time>
      </trkpt>
      <trkpt lat="48.7565" lon="1.733">
        <ele>120.8</ele>
        <time>2022-03-24T09:14:42Z</time>
      </trkpt>
      <trkpt lat="48.75648" lon="1.73291">
        <ele>121.7</ele>
        <time>2022-03-24T09:14:46Z</time>
      </trkpt>
      <trkpt lat="48.75645" lon="1.73284">
        <ele>123.8</ele>
        <time>2022-03-24T09:14:49Z</time>
      </trkpt>
      <trkpt lat="48.75643" lon="1.73276">
        <ele>125.9</ele>
        <time>2022-03-24T09:14:53Z</time>
      </trkpt>
      <trkpt lat="48.75639" lon="1.7327">
        <ele>127.5</ele>
        <time>2022-03-24T09:14:56Z</time>
      </trkpt>
      <trkpt lat="48.75636" lon="1.73264">
        <ele>128.7</ele>
        <time>2022-03-24T09:15:00Z</time>
      </trkpt>
      <trkpt lat="48.75632" lon="1.73259">
        <ele>130.5</ele>
        <time>2022-03-24T09:15:03Z</time>
      </trkpt>
      <trkpt lat="48.75628" lon="1.73254">
        <ele>131.5</ele>
        <time>2022-03-24T09:15:07Z</time>
      </trkpt>
      <trkpt lat="48.75625" lon="1.73249">
        <ele>130.4</ele>
        <time>2022-03-24T09:15:13Z</time>
      </trkpt>
      <trkpt lat="48.75621" lon="1.73242">
        <ele>130</ele>
        <time>2022-03-24T09:15:17Z</time>
      </trkpt>
      <trkpt lat="48.75617" lon="1.73235">
        <ele>130</ele>
        <time>2022-03-24T09:15:21Z</time>
      </trkpt>
      <trkpt lat="48.75615" lon="1.7323">
        <ele>130</ele>
        <time>2022-03-24T09:15:25Z</time>
      </trkpt>
      <trkpt lat="48.75611" lon="1.73224">
        <ele>129.3</ele>
        <time>2022-03-24T09:15:30Z</time>
      </trkpt>
      <trkpt lat="48.75609" lon="1.73218">
        <ele>129</ele>
        <time>2022-03-24T09:15:34Z</time>
      </trkpt>
      <trkpt lat="48.75606" lon="1.73211">
        <ele>129.3</ele>
        <time>2022-03-24T09:15:38Z</time>
      </trkpt>
      <trkpt lat="48.75602" lon="1.73205">
        <ele>130.2</ele>
        <time>2022-03-24T09:15:44Z</time>
      </trkpt>
      <trkpt lat="48.75599" lon="1.73198">
        <ele>131.7</ele>
        <time>2022-03-24T09:15:48Z</time>
      </trkpt>
      <trkpt lat="48.75595" lon="1.73193">
        <ele>132.7</ele>
        <time>2022-03-24T09:15:51Z</time>
      </trkpt>
      <trkpt lat="48.75591" lon="1.73189">
        <ele>133.2</ele>
        <time>2022-03-24T09:15:54Z</time>
      </trkpt>
      <trkpt lat="48.75586" lon="1.73185">
        <ele>134</ele>
        <time>2022-03-24T09:15:58Z</time>
      </trkpt>
      <trkpt lat="48.75582" lon="1.73181">
        <ele>134.8</ele>
        <time>2022-03-24T09:16:02Z</time>
      </trkpt>
      <trkpt lat="48.75583" lon="1.73174">
        <ele>133.7</ele>
        <time>2022-03-24T09:16:07Z</time>
      </trkpt>
      <trkpt lat="48.75589" lon="1.73172">
        <ele>131.4</ele>
        <time>2022-03-24T09:16:10Z</time>
      </trkpt>
      <trkpt lat="48.75593" lon="1.7317">
        <ele>129.2</ele>
        <time>2022-03-24T09:16:13Z</time>
      </trkpt>
      <trkpt lat="48.75598" lon="1.73167">
        <ele>128.3</ele>
        <time>2022-03-24T09:16:17Z</time>
      </trkpt>
      <trkpt lat="48.75602" lon="1.73162">
        <ele>127.9</ele>
        <time>2022-03-24T09:16:22Z</time>
      </trkpt>
      <trkpt lat="48.75606" lon="1.73156">
        <ele>127.1</ele>
        <time>2022-03-24T09:16:26Z</time>
      </trkpt>
      <trkpt lat="48.7561" lon="1.7315">
        <ele>126.7</ele>
        <time>2022-03-24T09:16:30Z</time>
      </trkpt>
      <trkpt lat="48.75614" lon="1.73145">
        <ele>127.2</ele>
        <time>2022-03-24T09:16:34Z</time>
      </trkpt>
      <trkpt lat="48.75618" lon="1.73139">
        <ele>127.9</ele>
        <time>2022-03-24T09:16:39Z</time>
      </trkpt>
      <trkpt lat="48.75621" lon="1.73132">
        <ele>128.1</ele>
        <time>2022-03-24T09:16:43Z</time>
      </trkpt>
      <trkpt lat="48.75624" lon="1.73125">
        <ele>128.2</ele>
        <time>2022-03-24T09:16:47Z</time>
      </trkpt>
      <trkpt lat="48.75627" lon="1.73119">
        <ele>128.4</ele>
        <time>2022-03-24T09:16:51Z</time>
      </trkpt>
      <trkpt lat="48.75631" lon="1.73112">
        <ele>128.5</ele>
        <time>2022-03-24T09:16:56Z</time>
      </trkpt>
      <trkpt lat="48.75635" lon="1.73106">
        <ele>128.8</ele>
        <time>2022-03-24T09:17:00Z</time>
      </trkpt>
      <trkpt lat="48.75638" lon="1.731">
        <ele>128.8</ele>
        <time>2022-03-24T09:17:04Z</time>
      </trkpt>
      <trkpt lat="48.75642" lon="1.73096">
        <ele>129.3</ele>
        <time>2022-03-24T09:17:07Z</time>
      </trkpt>
      <trkpt lat="48.75647" lon="1.73091">
        <ele>130.1</ele>
        <time>2022-03-24T09:17:11Z</time>
      </trkpt>
      <trkpt lat="48.7565" lon="1.73085">
        <ele>129.9</ele>
        <time>2022-03-24T09:17:15Z</time>
      </trkpt>
      <trkpt lat="48.75653" lon="1.73079">
        <ele>129</ele>
        <time>2022-03-24T09:17:19Z</time>
      </trkpt>
      <trkpt lat="48.75656" lon="1.73072">
        <ele>127.6</ele>
        <time>2022-03-24T09:17:24Z</time>
      </trkpt>
      <trkpt lat="48.7566" lon="1.73067">
        <ele>127.2</ele>
        <time>2022-03-24T09:17:28Z</time>
      </trkpt>
      <trkpt lat="48.75663" lon="1.73061">
        <ele>127.5</ele>
        <time>2022-03-24T09:17:31Z</time>
      </trkpt>
      <trkpt lat="48.75665" lon="1.73056">
        <ele>128</ele>
        <time>2022-03-24T09:17:35Z</time>
      </trkpt>
      <trkpt lat="48.75668" lon="1.73048">
        <ele>128.2</ele>
        <time>2022-03-24T09:17:39Z</time>
      </trkpt>
      <trkpt lat="48.75673" lon="1.73042">
        <ele>129.5</ele>
        <time>2022-03-24T09:17:43Z</time>
      </trkpt>
      <trkpt lat="48.75677" lon="1.73036">
        <ele>131</ele>
        <time>2022-03-24T09:17:47Z</time>
      </trkpt>
      <trkpt lat="48.75681" lon="1.7303">
        <ele>131.3</ele>
        <time>2022-03-24T09:17:51Z</time>
      </trkpt>
      <trkpt lat="48.75683" lon="1.73023">
        <ele>130.9</ele>
        <time>2022-03-24T09:17:55Z</time>
      </trkpt>
      <trkpt lat="48.75688" lon="1.73016">
        <ele>130.5</ele>
        <time>2022-03-24T09:18:00Z</time>
      </trkpt>
      <trkpt lat="48.75693" lon="1.73012">
        <ele>128.4</ele>
        <time>2022-03-24T09:18:07Z</time>
      </trkpt>
      <trkpt lat="48.75697" lon="1.73007">
        <ele>128.1</ele>
        <time>2022-03-24T09:18:10Z</time>
      </trkpt>
      <trkpt lat="48.75699" lon="1.73">
        <ele>129.1</ele>
        <time>2022-03-24T09:18:14Z</time>
      </trkpt>
      <trkpt lat="48.75702" lon="1.72994">
        <ele>130.5</ele>
        <time>2022-03-24T09:18:18Z</time>
      </trkpt>
      <trkpt lat="48.75706" lon="1.72988">
        <ele>131.5</ele>
        <time>2022-03-24T09:18:22Z</time>
      </trkpt>
      <trkpt lat="48.75709" lon="1.72982">
        <ele>131.7</ele>
        <time>2022-03-24T09:18:26Z</time>
      </trkpt>
      <trkpt lat="48.75713" lon="1.72977">
        <ele>131</ele>
        <time>2022-03-24T09:18:30Z</time>
      </trkpt>
      <trkpt lat="48.75717" lon="1.72972">
        <ele>129.5</ele>
        <time>2022-03-24T09:18:34Z</time>
      </trkpt>
      <trkpt lat="48.7572" lon="1.72965">
        <ele>129</ele>
        <time>2022-03-24T09:18:38Z</time>
      </trkpt>
      <trkpt lat="48.75723" lon="1.72958">
        <ele>129.7</ele>
        <time>2022-03-24T09:18:42Z</time>
      </trkpt>
      <trkpt lat="48.75725" lon="1.7295">
        <ele>130</ele>
        <time>2022-03-24T09:18:47Z</time>
      </trkpt>
      <trkpt lat="48.75728" lon="1.72943">
        <ele>128.4</ele>
        <time>2022-03-24T09:18:51Z</time>
      </trkpt>
      <trkpt lat="48.75731" lon="1.72937">
        <ele>127.1</ele>
        <time>2022-03-24T09:18:55Z</time>
      </trkpt>
      <trkpt lat="48.75735" lon="1.72932">
        <ele>126.5</ele>
        <time>2022-03-24T09:18:59Z</time>
      </trkpt>
      <trkpt lat="48.75739" lon="1.72928">
        <ele>126.8</ele>
        <time>2022-03-24T09:19:02Z</time>
      </trkpt>
      <trkpt lat="48.75743" lon="1.72923">
        <ele>126.8</ele>
        <time>2022-03-24T09:19:05Z</time>
      </trkpt>
      <trkpt lat="48.75746" lon="1.72916">
        <ele>127.2</ele>
        <time>2022-03-24T09:19:10Z</time>
      </trkpt>
      <trkpt lat="48.75749" lon="1.7291">
        <ele>127.8</ele>
        <time>2022-03-24T09:19:14Z</time>
      </trkpt>
      <trkpt lat="48.75753" lon="1.72905">
        <ele>127.9</ele>
        <time>2022-03-24T09:19:17Z</time>
      </trkpt>
      <trkpt lat="48.75756" lon="1.729">
        <ele>127.6</ele>
        <time>2022-03-24T09:19:21Z</time>
      </trkpt>
      <trkpt lat="48.75759" lon="1.72894">
        <ele>127.6</ele>
        <time>2022-03-24T09:19:25Z</time>
      </trkpt>
      <trkpt lat="48.75762" lon="1.72888">
        <ele>127.8</ele>
        <time>2022-03-24T09:19:29Z</time>
      </trkpt>
      <trkpt lat="48.75764" lon="1.72881">
        <ele>128.4</ele>
        <time>2022-03-24T09:19:33Z</time>
      </trkpt>
      <trkpt lat="48.75766" lon="1.72876">
        <ele>130</ele>
        <time>2022-03-24T09:19:37Z</time>
      </trkpt>
      <trkpt lat="48.7577" lon="1.72871">
        <ele>131.8</ele>
        <time>2022-03-24T09:19:41Z</time>
      </trkpt>
      <trkpt lat="48.75775" lon="1.72865">
        <ele>131.4</ele>
        <time>2022-03-24T09:19:45Z</time>
      </trkpt>
      <trkpt lat="48.75778" lon="1.72859">
        <ele>130.4</ele>
        <time>2022-03-24T09:19:49Z</time>
      </trkpt>
      <trkpt lat="48.75781" lon="1.72854">
        <ele>129.4</ele>
        <time>2022-03-24T09:19:52Z</time>
      </trkpt>
      <trkpt lat="48.75784" lon="1.72848">
        <ele>128.8</ele>
        <time>2022-03-24T09:19:56Z</time>
      </trkpt>
      <trkpt lat="48.75788" lon="1.72842">
        <ele>128.7</ele>
        <time>2022-03-24T09:20:00Z</time>
      </trkpt>
      <trkpt lat="48.75793" lon="1.72838">
        <ele>128.2</ele>
        <time>2022-03-24T09:20:04Z</time>
      </trkpt>
      <trkpt lat="48.75797" lon="1.72834">
        <ele>127.8</ele>
        <time>2022-03-24T09:20:08Z</time>
      </trkpt>
      <trkpt lat="48.75802" lon="1.7283">
        <ele>127.6</ele>
        <time>2022-03-24T09:20:12Z</time>
      </trkpt>
      <trkpt lat="48.75806" lon="1.72826">
        <ele>127.4</ele>
        <time>2022-03-24T09:20:16Z</time>
      </trkpt>
      <trkpt lat="48.75812" lon="1.72825">
        <ele>127</ele>
        <time>2022-03-24T09:20:20Z</time>
      </trkpt>
      <trkpt lat="48.75817" lon="1.72822">
        <ele>127.3</ele>
        <time>2022-03-24T09:20:24Z</time>
      </trkpt>
      <trkpt lat="48.75821" lon="1.72816">
        <ele>128.2</ele>
        <time>2022-03-24T09:20:28Z</time>
      </trkpt>
      <trkpt lat="48.75824" lon="1.7281">
        <ele>128.8</ele>
        <time>2022-03-24T09:20:33Z</time>
      </trkpt>
      <trkpt lat="48.75828" lon="1.72805">
        <ele>129.7</ele>
        <time>2022-03-24T09:20:37Z</time>
      </trkpt>
      <trkpt lat="48.75833" lon="1.728">
        <ele>130.2</ele>
        <time>2022-03-24T09:20:41Z</time>
      </trkpt>
      <trkpt lat="48.75836" lon="1.72795">
        <ele>129.9</ele>
        <time>2022-03-24T09:20:45Z</time>
      </trkpt>
      <trkpt lat="48.75842" lon="1.72791">
        <ele>129.8</ele>
        <time>2022-03-24T09:20:50Z</time>
      </trkpt>
      <trkpt lat="48.75847" lon="1.7279">
        <ele>130.4</ele>
        <time>2022-03-24T09:20:54Z</time>
      </trkpt>
      <trkpt lat="48.75851" lon="1.72785">
        <ele>130.7</ele>
        <time>2022-03-24T09:20:58Z</time>
      </trkpt>
      <trkpt lat="48.75855" lon="1.72781">
        <ele>130.9</ele>
        <time>2022-03-24T09:21:03Z</time>
      </trkpt>
      <trkpt lat="48.7586" lon="1.72778">
        <ele>131.3</ele>
        <time>2022-03-24T09:21:07Z</time>
      </trkpt>
      <trkpt lat="48.75864" lon="1.72772">
        <ele>132.2</ele>
        <time>2022-03-24T09:21:11Z</time>
      </trkpt>
      <trkpt lat="48.75867" lon="1.72768">
        <ele>131.9</ele>
        <time>2022-03-24T09:21:15Z</time>
      </trkpt>
      <trkpt lat="48.75872" lon="1.72765">
        <ele>131.9</ele>
        <time>2022-03-24T09:21:18Z</time>
      </trkpt>
      <trkpt lat="48.75878" lon="1.72763">
        <ele>131.1</ele>
        <time>2022-03-24T09:21:23Z</time>
      </trkpt>
      <trkpt lat="48.75883" lon="1.72763">
        <ele>131.4</ele>
        <time>2022-03-24T09:21:27Z</time>
      </trkpt>
      <trkpt lat="48.75888" lon="1.72761">
        <ele>131.3</ele>
        <time>2022-03-24T09:21:38Z</time>
      </trkpt>
      <trkpt lat="48.75892" lon="1.72757">
        <ele>131.2</ele>
        <time>2022-03-24T09:21:43Z</time>
      </trkpt>
      <trkpt lat="48.75896" lon="1.72751">
        <ele>129.7</ele>
        <time>2022-03-24T09:21:46Z</time>
      </trkpt>
      <trkpt lat="48.759" lon="1.72746">
        <ele>127.4</ele>
        <time>2022-03-24T09:21:50Z</time>
      </trkpt>
      <trkpt lat="48.75904" lon="1.72742">
        <ele>127.1</ele>
        <time>2022-03-24T09:21:53Z</time>
      </trkpt>
      <trkpt lat="48.75908" lon="1.72738">
        <ele>127.4</ele>
        <time>2022-03-24T09:21:57Z</time>
      </trkpt>
      <trkpt lat="48.75912" lon="1.72733">
        <ele>127.1</ele>
        <time>2022-03-24T09:22:02Z</time>
      </trkpt>
      <trkpt lat="48.75916" lon="1.72729">
        <ele>126.8</ele>
        <time>2022-03-24T09:22:06Z</time>
      </trkpt>
      <trkpt lat="48.7592" lon="1.72726">
        <ele>127.4</ele>
        <time>2022-03-24T09:22:10Z</time>
      </trkpt>
      <trkpt lat="48.75924" lon="1.72722">
        <ele>128.4</ele>
        <time>2022-03-24T09:22:13Z</time>
      </trkpt>
      <trkpt lat="48.75929" lon="1.72718">
        <ele>129.6</ele>
        <time>2022-03-24T09:22:18Z</time>
      </trkpt>
      <trkpt lat="48.75932" lon="1.72713">
        <ele>130.1</ele>
        <time>2022-03-24T09:22:21Z</time>
      </trkpt>
      <trkpt lat="48.75936" lon="1.72708">
        <ele>130.3</ele>
        <time>2022-03-24T09:22:25Z</time>
      </trkpt>
      <trkpt lat="48.75939" lon="1.72703">
        <ele>130.5</ele>
        <time>2022-03-24T09:22:29Z</time>
      </trkpt>
      <trkpt lat="48.75944" lon="1.727">
        <ele>130.6</ele>
        <time>2022-03-24T09:22:33Z</time>
      </trkpt>
      <trkpt lat="48.75949" lon="1.72696">
        <ele>130.5</ele>
        <time>2022-03-24T09:22:37Z</time>
      </trkpt>
      <trkpt lat="48.75954" lon="1.72693">
        <ele>130.6</ele>
        <time>2022-03-24T09:22:41Z</time>
      </trkpt>
      <trkpt lat="48.75958" lon="1.72688">
        <ele>130.3</ele>
        <time>2022-03-24T09:22:45Z</time>
      </trkpt>
      <trkpt lat="48.75962" lon="1.72683">
        <ele>129.5</ele>
        <time>2022-03-24T09:22:49Z</time>
      </trkpt>
      <trkpt lat="48.75967" lon="1.72679">
        <ele>128.3</ele>
        <time>2022-03-24T09:22:53Z</time>
      </trkpt>
      <trkpt lat="48.75972" lon="1.72674">
        <ele>127.3</ele>
        <time>2022-03-24T09:22:57Z</time>
      </trkpt>
      <trkpt lat="48.75976" lon="1.7267">
        <ele>126.7</ele>
        <time>2022-03-24T09:23:01Z</time>
      </trkpt>
      <trkpt lat="48.7598" lon="1.72666">
        <ele>127.2</ele>
        <time>2022-03-24T09:23:04Z</time>
      </trkpt>
      <trkpt lat="48.75984" lon="1.72663">
        <ele>127.7</ele>
        <time>2022-03-24T09:23:07Z</time>
      </trkpt>
      <trkpt lat="48.75989" lon="1.7266">
        <ele>128.3</ele>
        <time>2022-03-24T09:23:11Z</time>
      </trkpt>
      <trkpt lat="48.75993" lon="1.72656">
        <ele>128.7</ele>
        <time>2022-03-24T09:23:15Z</time>
      </trkpt>
      <trkpt lat="48.75997" lon="1.72652">
        <ele>128.8</ele>
        <time>2022-03-24T09:23:20Z</time>
      </trkpt>
      <trkpt lat="48.76" lon="1.72647">
        <ele>129.5</ele>
        <time>2022-03-24T09:23:30Z</time>
      </trkpt>
      <trkpt lat="48.76004" lon="1.72642">
        <ele>129.3</ele>
        <time>2022-03-24T09:23:34Z</time>
      </trkpt>
      <trkpt lat="48.76007" lon="1.72636">
        <ele>128.2</ele>
        <time>2022-03-24T09:23:37Z</time>
      </trkpt>
      <trkpt lat="48.76011" lon="1.72631">
        <ele>126.8</ele>
        <time>2022-03-24T09:23:41Z</time>
      </trkpt>
      <trkpt lat="48.76015" lon="1.72626">
        <ele>126.1</ele>
        <time>2022-03-24T09:23:45Z</time>
      </trkpt>
      <trkpt lat="48.7602" lon="1.72621">
        <ele>126.6</ele>
        <time>2022-03-24T09:23:49Z</time>
      </trkpt>
      <trkpt lat="48.76024" lon="1.72617">
        <ele>127.1</ele>
        <time>2022-03-24T09:23:52Z</time>
      </trkpt>
      <trkpt lat="48.76029" lon="1.72613">
        <ele>128</ele>
        <time>2022-03-24T09:23:56Z</time>
      </trkpt>
      <trkpt lat="48.76034" lon="1.72609">
        <ele>128.6</ele>
        <time>2022-03-24T09:24:01Z</time>
      </trkpt>
      <trkpt lat="48.76039" lon="1.72605">
        <ele>128.7</ele>
        <time>2022-03-24T09:24:05Z</time>
      </trkpt>
      <trkpt lat="48.76043" lon="1.72598">
        <ele>127.6</ele>
        <time>2022-03-24T09:24:09Z</time>
      </trkpt>
      <trkpt lat="48.76047" lon="1.72596">
        <ele>126.6</ele>
        <time>2022-03-24T09:24:13Z</time>
      </trkpt>
      <trkpt lat="48.76053" lon="1.72595">
        <ele>126</ele>
        <time>2022-03-24T09:24:17Z</time>
      </trkpt>
      <trkpt lat="48.76057" lon="1.7259">
        <ele>125.9</ele>
        <time>2022-03-24T09:24:21Z</time>
      </trkpt>
      <trkpt lat="48.7606" lon="1.72584">
        <ele>125.1</ele>
        <time>2022-03-24T09:24:25Z</time>
      </trkpt>
      <trkpt lat="48.76064" lon="1.72579">
        <ele>125.1</ele>
        <time>2022-03-24T09:24:29Z</time>
      </trkpt>
      <trkpt lat="48.76067" lon="1.72574">
        <ele>125.5</ele>
        <time>2022-03-24T09:24:34Z</time>
      </trkpt>
      <trkpt lat="48.76072" lon="1.72568">
        <ele>126.1</ele>
        <time>2022-03-24T09:24:38Z</time>
      </trkpt>
      <trkpt lat="48.76077" lon="1.72566">
        <ele>127.4</ele>
        <time>2022-03-24T09:24:42Z</time>
      </trkpt>
      <trkpt lat="48.76082" lon="1.72562">
        <ele>129.7</ele>
        <time>2022-03-24T09:24:46Z</time>
      </trkpt>
      <trkpt lat="48.76086" lon="1.72557">
        <ele>130.8</ele>
        <time>2022-03-24T09:24:50Z</time>
      </trkpt>
      <trkpt lat="48.7609" lon="1.72551">
        <ele>130.8</ele>
        <time>2022-03-24T09:24:54Z</time>
      </trkpt>
      <trkpt lat="48.76094" lon="1.72545">
        <ele>129.6</ele>
        <time>2022-03-24T09:24:58Z</time>
      </trkpt>
      <trkpt lat="48.76098" lon="1.7254">
        <ele>128.2</ele>
        <time>2022-03-24T09:25:02Z</time>
      </trkpt>
      <trkpt lat="48.76102" lon="1.72535">
        <ele>127.6</ele>
        <time>2022-03-24T09:25:06Z</time>
      </trkpt>
      <trkpt lat="48.76106" lon="1.72529">
        <ele>127.5</ele>
        <time>2022-03-24T09:25:10Z</time>
      </trkpt>
      <trkpt lat="48.7611" lon="1.72524">
        <ele>127.8</ele>
        <time>2022-03-24T09:25:14Z</time>
      </trkpt>
      <trkpt lat="48.76114" lon="1.72516">
        <ele>128.9</ele>
        <time>2022-03-24T09:25:19Z</time>
      </trkpt>
      <trkpt lat="48.76117" lon="1.7251">
        <ele>129.3</ele>
        <time>2022-03-24T09:25:22Z</time>
      </trkpt>
      <trkpt lat="48.76121" lon="1.72505">
        <ele>128.5</ele>
        <time>2022-03-24T09:25:27Z</time>
      </trkpt>
      <trkpt lat="48.76125" lon="1.72498">
        <ele>127</ele>
        <time>2022-03-24T09:25:31Z</time>
      </trkpt>
      <trkpt lat="48.76128" lon="1.7249">
        <ele>125.2</ele>
        <time>2022-03-24T09:25:36Z</time>
      </trkpt>
      <trkpt lat="48.7613" lon="1.72485">
        <ele>123.5</ele>
        <time>2022-03-24T09:25:39Z</time>
      </trkpt>
      <trkpt lat="48.76135" lon="1.72478">
        <ele>122.3</ele>
        <time>2022-03-24T09:25:44Z</time>
      </trkpt>
      <trkpt lat="48.76139" lon="1.72474">
        <ele>123.2</ele>
        <time>2022-03-24T09:25:47Z</time>
      </trkpt>
      <trkpt lat="48.76143" lon="1.7247">
        <ele>124.8</ele>
        <time>2022-03-24T09:25:50Z</time>
      </trkpt>
      <trkpt lat="48.76147" lon="1.72464">
        <ele>125.8</ele>
        <time>2022-03-24T09:25:54Z</time>
      </trkpt>
      <trkpt lat="48.7615" lon="1.72459">
        <ele>127.4</ele>
        <time>2022-03-24T09:25:58Z</time>
      </trkpt>
      <trkpt lat="48.76154" lon="1.72453">
        <ele>129.1</ele>
        <time>2022-03-24T09:26:02Z</time>
      </trkpt>
      <trkpt lat="48.76157" lon="1.72447">
        <ele>129.4</ele>
        <time>2022-03-24T09:26:05Z</time>
      </trkpt>
      <trkpt lat="48.7616" lon="1.7244">
        <ele>128</ele>
        <time>2022-03-24T09:26:10Z</time>
      </trkpt>
      <trkpt lat="48.76163" lon="1.72434">
        <ele>126.9</ele>
        <time>2022-03-24T09:26:13Z</time>
      </trkpt>
      <trkpt lat="48.76167" lon="1.7243">
        <ele>126.1</ele>
        <time>2022-03-24T09:26:17Z</time>
      </trkpt>
      <trkpt lat="48.76171" lon="1.72425">
        <ele>126.7</ele>
        <time>2022-03-24T09:26:22Z</time>
      </trkpt>
      <trkpt lat="48.76175" lon="1.7242">
        <ele>127.4</ele>
        <time>2022-03-24T09:26:26Z</time>
      </trkpt>
      <trkpt lat="48.76179" lon="1.72415">
        <ele>127</ele>
        <time>2022-03-24T09:26:30Z</time>
      </trkpt>
      <trkpt lat="48.76182" lon="1.7241">
        <ele>126.3</ele>
        <time>2022-03-24T09:26:34Z</time>
      </trkpt>
      <trkpt lat="48.76185" lon="1.72404">
        <ele>126</ele>
        <time>2022-03-24T09:26:38Z</time>
      </trkpt>
      <trkpt lat="48.76188" lon="1.72398">
        <ele>125.7</ele>
        <time>2022-03-24T09:26:42Z</time>
      </trkpt>
      <trkpt lat="48.76192" lon="1.7239">
        <ele>124.4</ele>
        <time>2022-03-24T09:26:47Z</time>
      </trkpt>
      <trkpt lat="48.76194" lon="1.72383">
        <ele>123.6</ele>
        <time>2022-03-24T09:26:51Z</time>
      </trkpt>
      <trkpt lat="48.76198" lon="1.72377">
        <ele>122.9</ele>
        <time>2022-03-24T09:26:55Z</time>
      </trkpt>
      <trkpt lat="48.76201" lon="1.72372">
        <ele>122.4</ele>
        <time>2022-03-24T09:26:59Z</time>
      </trkpt>
      <trkpt lat="48.76205" lon="1.72366">
        <ele>122.2</ele>
        <time>2022-03-24T09:27:03Z</time>
      </trkpt>
      <trkpt lat="48.76209" lon="1.72362">
        <ele>122.8</ele>
        <time>2022-03-24T09:27:06Z</time>
      </trkpt>
      <trkpt lat="48.76212" lon="1.72358">
        <ele>123.4</ele>
        <time>2022-03-24T09:27:09Z</time>
      </trkpt>
      <trkpt lat="48.76217" lon="1.72353">
        <ele>124.1</ele>
        <time>2022-03-24T09:27:14Z</time>
      </trkpt>
      <trkpt lat="48.76219" lon="1.72347">
        <ele>123.5</ele>
        <time>2022-03-24T09:27:18Z</time>
      </trkpt>
      <trkpt lat="48.76222" lon="1.7234">
        <ele>122.3</ele>
        <time>2022-03-24T09:27:22Z</time>
      </trkpt>
      <trkpt lat="48.76225" lon="1.72333">
        <ele>122.4</ele>
        <time>2022-03-24T09:27:26Z</time>
      </trkpt>
      <trkpt lat="48.76227" lon="1.72326">
        <ele>123.4</ele>
        <time>2022-03-24T09:27:31Z</time>
      </trkpt>
      <trkpt lat="48.76232" lon="1.72321">
        <ele>123.2</ele>
        <time>2022-03-24T09:27:35Z</time>
      </trkpt>
      <trkpt lat="48.76236" lon="1.72324">
        <ele>123.5</ele>
        <time>2022-03-24T09:27:38Z</time>
      </trkpt>
      <trkpt lat="48.76241" lon="1.72324">
        <ele>125.1</ele>
        <time>2022-03-24T09:27:44Z</time>
      </trkpt>
      <trkpt lat="48.76241" lon="1.72316">
        <ele>125.4</ele>
        <time>2022-03-24T09:27:49Z</time>
      </trkpt>
      <trkpt lat="48.76242" lon="1.72309">
        <ele>125.1</ele>
        <time>2022-03-24T09:27:53Z</time>
      </trkpt>
      <trkpt lat="48.76246" lon="1.72305">
        <ele>125.2</ele>
        <time>2022-03-24T09:27:58Z</time>
      </trkpt>
      <trkpt lat="48.7625" lon="1.72299">
        <ele>125.2</ele>
        <time>2022-03-24T09:28:02Z</time>
      </trkpt>
      <trkpt lat="48.76252" lon="1.72293">
        <ele>125.3</ele>
        <time>2022-03-24T09:28:06Z</time>
      </trkpt>
      <trkpt lat="48.76255" lon="1.72285">
        <ele>126.1</ele>
        <time>2022-03-24T09:28:10Z</time>
      </trkpt>
      <trkpt lat="48.76256" lon="1.72278">
        <ele>126.1</ele>
        <time>2022-03-24T09:28:14Z</time>
      </trkpt>
      <trkpt lat="48.76256" lon="1.7227">
        <ele>125.9</ele>
        <time>2022-03-24T09:28:19Z</time>
      </trkpt>
      <trkpt lat="48.76256" lon="1.72262">
        <ele>125.5</ele>
        <time>2022-03-24T09:28:23Z</time>
      </trkpt>
      <trkpt lat="48.76258" lon="1.72255">
        <ele>125.1</ele>
        <time>2022-03-24T09:28:27Z</time>
      </trkpt>
      <trkpt lat="48.76259" lon="1.72246">
        <ele>123.8</ele>
        <time>2022-03-24T09:28:32Z</time>
      </trkpt>
      <trkpt lat="48.76259" lon="1.72237">
        <ele>122.4</ele>
        <time>2022-03-24T09:28:37Z</time>
      </trkpt>
      <trkpt lat="48.76255" lon="1.72234">
        <ele>120.8</ele>
        <time>2022-03-24T09:28:40Z</time>
      </trkpt>
      <trkpt lat="48.76251" lon="1.72227">
        <ele>119.2</ele>
        <time>2022-03-24T09:28:45Z</time>
      </trkpt>
      <trkpt lat="48.76249" lon="1.72221">
        <ele>117.3</ele>
        <time>2022-03-24T09:28:49Z</time>
      </trkpt>
      <trkpt lat="48.7625" lon="1.72213">
        <ele>116.6</ele>
        <time>2022-03-24T09:28:53Z</time>
      </trkpt>
      <trkpt lat="48.76251" lon="1.72207">
        <ele>117</ele>
        <time>2022-03-24T09:28:58Z</time>
      </trkpt>
      <trkpt lat="48.76251" lon="1.72198">
        <ele>118.3</ele>
        <time>2022-03-24T09:29:02Z</time>
      </trkpt>
      <trkpt lat="48.7625" lon="1.72191">
        <ele>119.1</ele>
        <time>2022-03-24T09:29:06Z</time>
      </trkpt>
      <trkpt lat="48.7625" lon="1.72184">
        <ele>119.9</ele>
        <time>2022-03-24T09:29:11Z</time>
      </trkpt>
      <trkpt lat="48.76251" lon="1.72175">
        <ele>121</ele>
        <time>2022-03-24T09:29:15Z</time>
      </trkpt>
      <trkpt lat="48.76252" lon="1.72167">
        <ele>121.3</ele>
        <time>2022-03-24T09:29:19Z</time>
      </trkpt>
      <trkpt lat="48.76251" lon="1.72161">
        <ele>120.3</ele>
        <time>2022-03-24T09:29:22Z</time>
      </trkpt>
      <trkpt lat="48.7625" lon="1.72152">
        <ele>118.9</ele>
        <time>2022-03-24T09:29:27Z</time>
      </trkpt>
      <trkpt lat="48.7625" lon="1.72144">
        <ele>117.7</ele>
        <time>2022-03-24T09:29:31Z</time>
      </trkpt>
      <trkpt lat="48.76249" lon="1.72135">
        <ele>117</ele>
        <time>2022-03-24T09:29:36Z</time>
      </trkpt>
      <trkpt lat="48.76251" lon="1.72127">
        <ele>116.9</ele>
        <time>2022-03-24T09:29:40Z</time>
      </trkpt>
      <trkpt lat="48.76253" lon="1.7212">
        <ele>116.9</ele>
        <time>2022-03-24T09:29:45Z</time>
      </trkpt>
      <trkpt lat="48.76254" lon="1.72112">
        <ele>116.8</ele>
        <time>2022-03-24T09:29:49Z</time>
      </trkpt>
      <trkpt lat="48.76252" lon="1.72104">
        <ele>115.6</ele>
        <time>2022-03-24T09:29:53Z</time>
      </trkpt>
      <trkpt lat="48.76251" lon="1.72097">
        <ele>113.9</ele>
        <time>2022-03-24T09:29:58Z</time>
      </trkpt>
      <trkpt lat="48.7625" lon="1.72089">
        <ele>113.1</ele>
        <time>2022-03-24T09:30:02Z</time>
      </trkpt>
      <trkpt lat="48.76251" lon="1.72082">
        <ele>113.6</ele>
        <time>2022-03-24T09:30:08Z</time>
      </trkpt>
      <trkpt lat="48.76247" lon="1.72084">
        <ele>114.1</ele>
        <time>2022-03-24T09:30:14Z</time>
      </trkpt>
      <trkpt lat="48.76244" lon="1.72078">
        <ele>112.5</ele>
        <time>2022-03-24T09:30:33Z</time>
      </trkpt>
      <trkpt lat="48.76246" lon="1.72072">
        <ele>112.5</ele>
        <time>2022-03-24T09:30:38Z</time>
      </trkpt>
      <trkpt lat="48.76249" lon="1.72065">
        <ele>114.2</ele>
        <time>2022-03-24T09:30:41Z</time>
      </trkpt>
      <trkpt lat="48.76253" lon="1.7206">
        <ele>115.5</ele>
        <time>2022-03-24T09:30:43Z</time>
      </trkpt>
      <trkpt lat="48.76257" lon="1.72055">
        <ele>117.6</ele>
        <time>2022-03-24T09:30:48Z</time>
      </trkpt>
      <trkpt lat="48.7626" lon="1.72048">
        <ele>118.1</ele>
        <time>2022-03-24T09:30:53Z</time>
      </trkpt>
      <trkpt lat="48.7626" lon="1.72042">
        <ele>117</ele>
        <time>2022-03-24T09:30:59Z</time>
      </trkpt>
      <trkpt lat="48.76262" lon="1.72034">
        <ele>115.3</ele>
        <time>2022-03-24T09:31:04Z</time>
      </trkpt>
      <trkpt lat="48.76262" lon="1.72027">
        <ele>114.4</ele>
        <time>2022-03-24T09:31:10Z</time>
      </trkpt>
      <trkpt lat="48.76261" lon="1.72018">
        <ele>114.3</ele>
        <time>2022-03-24T09:31:15Z</time>
      </trkpt>
      <trkpt lat="48.7626" lon="1.72011">
        <ele>114</ele>
        <time>2022-03-24T09:31:20Z</time>
      </trkpt>
      <trkpt lat="48.76262" lon="1.72004">
        <ele>114.2</ele>
        <time>2022-03-24T09:31:26Z</time>
      </trkpt>
      <trkpt lat="48.76264" lon="1.71997">
        <ele>113.9</ele>
        <time>2022-03-24T09:31:30Z</time>
      </trkpt>
      <trkpt lat="48.76265" lon="1.71991">
        <ele>113.2</ele>
        <time>2022-03-24T09:31:34Z</time>
      </trkpt>
      <trkpt lat="48.76266" lon="1.71984">
        <ele>112.6</ele>
        <time>2022-03-24T09:31:37Z</time>
      </trkpt>
      <trkpt lat="48.76268" lon="1.71975">
        <ele>112.3</ele>
        <time>2022-03-24T09:31:43Z</time>
      </trkpt>
      <trkpt lat="48.7627" lon="1.71969">
        <ele>112.5</ele>
        <time>2022-03-24T09:31:46Z</time>
      </trkpt>
      <trkpt lat="48.76273" lon="1.71962">
        <ele>113.4</ele>
        <time>2022-03-24T09:31:50Z</time>
      </trkpt>
      <trkpt lat="48.76274" lon="1.71955">
        <ele>113.9</ele>
        <time>2022-03-24T09:31:53Z</time>
      </trkpt>
      <trkpt lat="48.76277" lon="1.71949">
        <ele>113.7</ele>
        <time>2022-03-24T09:31:56Z</time>
      </trkpt>
      <trkpt lat="48.76279" lon="1.71942">
        <ele>113.9</ele>
        <time>2022-03-24T09:32:01Z</time>
      </trkpt>
      <trkpt lat="48.7628" lon="1.71934">
        <ele>115.5</ele>
        <time>2022-03-24T09:32:05Z</time>
      </trkpt>
      <trkpt lat="48.76281" lon="1.71927">
        <ele>116.4</ele>
        <time>2022-03-24T09:32:09Z</time>
      </trkpt>
      <trkpt lat="48.76283" lon="1.7192">
        <ele>114.6</ele>
        <time>2022-03-24T09:32:14Z</time>
      </trkpt>
      <trkpt lat="48.76284" lon="1.71913">
        <ele>112.8</ele>
        <time>2022-03-24T09:32:19Z</time>
      </trkpt>
      <trkpt lat="48.76287" lon="1.71905">
        <ele>112.7</ele>
        <time>2022-03-24T09:32:25Z</time>
      </trkpt>
      <trkpt lat="48.76285" lon="1.71898">
        <ele>113</ele>
        <time>2022-03-24T09:32:30Z</time>
      </trkpt>
      <trkpt lat="48.76285" lon="1.7189">
        <ele>113.1</ele>
        <time>2022-03-24T09:32:35Z</time>
      </trkpt>
      <trkpt lat="48.76288" lon="1.71883">
        <ele>114.4</ele>
        <time>2022-03-24T09:32:41Z</time>
      </trkpt>
      <trkpt lat="48.76291" lon="1.71877">
        <ele>115.3</ele>
        <time>2022-03-24T09:32:45Z</time>
      </trkpt>
      <trkpt lat="48.76293" lon="1.71871">
        <ele>115.1</ele>
        <time>2022-03-24T09:32:49Z</time>
      </trkpt>
      <trkpt lat="48.76294" lon="1.71863">
        <ele>115.4</ele>
        <time>2022-03-24T09:32:53Z</time>
      </trkpt>
      <trkpt lat="48.76295" lon="1.71856">
        <ele>115.9</ele>
        <time>2022-03-24T09:32:57Z</time>
      </trkpt>
      <trkpt lat="48.763" lon="1.71851">
        <ele>118.1</ele>
        <time>2022-03-24T09:33:01Z</time>
      </trkpt>
      <trkpt lat="48.76301" lon="1.71843">
        <ele>119.9</ele>
        <time>2022-03-24T09:33:06Z</time>
      </trkpt>
      <trkpt lat="48.76301" lon="1.71834">
        <ele>118.6</ele>
        <time>2022-03-24T09:33:10Z</time>
      </trkpt>
      <trkpt lat="48.76302" lon="1.71827">
        <ele>115.9</ele>
        <time>2022-03-24T09:33:14Z</time>
      </trkpt>
      <trkpt lat="48.76303" lon="1.71819">
        <ele>114.3</ele>
        <time>2022-03-24T09:33:18Z</time>
      </trkpt>
      <trkpt lat="48.76305" lon="1.71813">
        <ele>113.4</ele>
        <time>2022-03-24T09:33:23Z</time>
      </trkpt>
      <trkpt lat="48.76306" lon="1.71805">
        <ele>112.5</ele>
        <time>2022-03-24T09:33:28Z</time>
      </trkpt>
      <trkpt lat="48.76306" lon="1.71798">
        <ele>111.1</ele>
        <time>2022-03-24T09:33:32Z</time>
      </trkpt>
      <trkpt lat="48.76307" lon="1.71789">
        <ele>109.3</ele>
        <time>2022-03-24T09:33:37Z</time>
      </trkpt>
      <trkpt lat="48.76308" lon="1.71782">
        <ele>108.5</ele>
        <time>2022-03-24T09:33:41Z</time>
      </trkpt>
      <trkpt lat="48.76309" lon="1.71775">
        <ele>109.2</ele>
        <time>2022-03-24T09:33:45Z</time>
      </trkpt>
      <trkpt lat="48.7631" lon="1.71768">
        <ele>111</ele>
        <time>2022-03-24T09:33:49Z</time>
      </trkpt>
      <trkpt lat="48.76312" lon="1.71761">
        <ele>111.7</ele>
        <time>2022-03-24T09:33:53Z</time>
      </trkpt>
      <trkpt lat="48.76314" lon="1.71755">
        <ele>111.6</ele>
        <time>2022-03-24T09:33:57Z</time>
      </trkpt>
      <trkpt lat="48.76317" lon="1.71749">
        <ele>111.4</ele>
        <time>2022-03-24T09:34:01Z</time>
      </trkpt>
      <trkpt lat="48.7632" lon="1.71742">
        <ele>111.5</ele>
        <time>2022-03-24T09:34:06Z</time>
      </trkpt>
      <trkpt lat="48.76321" lon="1.71734">
        <ele>112.7</ele>
        <time>2022-03-24T09:34:11Z</time>
      </trkpt>
      <trkpt lat="48.76324" lon="1.71725">
        <ele>113.7</ele>
        <time>2022-03-24T09:34:16Z</time>
      </trkpt>
      <trkpt lat="48.76323" lon="1.71718">
        <ele>115</ele>
        <time>2022-03-24T09:34:20Z</time>
      </trkpt>
      <trkpt lat="48.76326" lon="1.71712">
        <ele>116.4</ele>
        <time>2022-03-24T09:34:24Z</time>
      </trkpt>
      <trkpt lat="48.76328" lon="1.71705">
        <ele>117.5</ele>
        <time>2022-03-24T09:34:28Z</time>
      </trkpt>
      <trkpt lat="48.7633" lon="1.71698">
        <ele>118.3</ele>
        <time>2022-03-24T09:34:33Z</time>
      </trkpt>
      <trkpt lat="48.76336" lon="1.71693">
        <ele>119.8</ele>
        <time>2022-03-24T09:34:38Z</time>
      </trkpt>
      <trkpt lat="48.76341" lon="1.71692">
        <ele>121.4</ele>
        <time>2022-03-24T09:34:42Z</time>
      </trkpt>
      <trkpt lat="48.76344" lon="1.71686">
        <ele>121.6</ele>
        <time>2022-03-24T09:34:45Z</time>
      </trkpt>
      <trkpt lat="48.76344" lon="1.71678">
        <ele>120.8</ele>
        <time>2022-03-24T09:34:49Z</time>
      </trkpt>
      <trkpt lat="48.76341" lon="1.7167">
        <ele>120.2</ele>
        <time>2022-03-24T09:34:54Z</time>
      </trkpt>
      <trkpt lat="48.76338" lon="1.71663">
        <ele>120.7</ele>
        <time>2022-03-24T09:34:59Z</time>
      </trkpt>
      <trkpt lat="48.76338" lon="1.71655">
        <ele>121.4</ele>
        <time>2022-03-24T09:35:04Z</time>
      </trkpt>
      <trkpt lat="48.76338" lon="1.71647">
        <ele>119.6</ele>
        <time>2022-03-24T09:35:10Z</time>
      </trkpt>
      <trkpt lat="48.76339" lon="1.71639">
        <ele>118.6</ele>
        <time>2022-03-24T09:35:14Z</time>
      </trkpt>
      <trkpt lat="48.76341" lon="1.71632">
        <ele>119.5</ele>
        <time>2022-03-24T09:35:18Z</time>
      </trkpt>
      <trkpt lat="48.76343" lon="1.71624">
        <ele>120.4</ele>
        <time>2022-03-24T09:35:22Z</time>
      </trkpt>
      <trkpt lat="48.76345" lon="1.71617">
        <ele>120.5</ele>
        <time>2022-03-24T09:35:26Z</time>
      </trkpt>
      <trkpt lat="48.76345" lon="1.7161">
        <ele>119.1</ele>
        <time>2022-03-24T09:35:30Z</time>
      </trkpt>
      <trkpt lat="48.76344" lon="1.71602">
        <ele>116.4</ele>
        <time>2022-03-24T09:35:34Z</time>
      </trkpt>
      <trkpt lat="48.76346" lon="1.71594">
        <ele>114.2</ele>
        <time>2022-03-24T09:35:40Z</time>
      </trkpt>
      <trkpt lat="48.76348" lon="1.71587">
        <ele>114</ele>
        <time>2022-03-24T09:35:44Z</time>
      </trkpt>
      <trkpt lat="48.76349" lon="1.7158">
        <ele>113.5</ele>
        <time>2022-03-24T09:35:48Z</time>
      </trkpt>
      <trkpt lat="48.76351" lon="1.71573">
        <ele>112.7</ele>
        <time>2022-03-24T09:35:52Z</time>
      </trkpt>
      <trkpt lat="48.76353" lon="1.71566">
        <ele>113.1</ele>
        <time>2022-03-24T09:35:56Z</time>
      </trkpt>
      <trkpt lat="48.76355" lon="1.71557">
        <ele>113.3</ele>
        <time>2022-03-24T09:36:01Z</time>
      </trkpt>
      <trkpt lat="48.76356" lon="1.71549">
        <ele>114.4</ele>
        <time>2022-03-24T09:36:05Z</time>
      </trkpt>
      <trkpt lat="48.76356" lon="1.7154">
        <ele>113.6</ele>
        <time>2022-03-24T09:36:10Z</time>
      </trkpt>
      <trkpt lat="48.76359" lon="1.71535">
        <ele>113.4</ele>
        <time>2022-03-24T09:36:13Z</time>
      </trkpt>
      <trkpt lat="48.76361" lon="1.71527">
        <ele>112.8</ele>
        <time>2022-03-24T09:36:17Z</time>
      </trkpt>
      <trkpt lat="48.76361" lon="1.71519">
        <ele>112.2</ele>
        <time>2022-03-24T09:36:22Z</time>
      </trkpt>
      <trkpt lat="48.76362" lon="1.71512">
        <ele>110.6</ele>
        <time>2022-03-24T09:36:26Z</time>
      </trkpt>
      <trkpt lat="48.76366" lon="1.71506">
        <ele>109.7</ele>
        <time>2022-03-24T09:36:30Z</time>
      </trkpt>
      <trkpt lat="48.76371" lon="1.71503">
        <ele>111.8</ele>
        <time>2022-03-24T09:36:41Z</time>
      </trkpt>
      <trkpt lat="48.76373" lon="1.71494">
        <ele>113.5</ele>
        <time>2022-03-24T09:36:47Z</time>
      </trkpt>
      <trkpt lat="48.76373" lon="1.71487">
        <ele>115</ele>
        <time>2022-03-24T09:36:52Z</time>
      </trkpt>
      <trkpt lat="48.76372" lon="1.7148">
        <ele>114.8</ele>
        <time>2022-03-24T09:36:58Z</time>
      </trkpt>
      <trkpt lat="48.76375" lon="1.71473">
        <ele>116.3</ele>
        <time>2022-03-24T09:37:05Z</time>
      </trkpt>
      <trkpt lat="48.76379" lon="1.7147">
        <ele>117.1</ele>
        <time>2022-03-24T09:37:13Z</time>
      </trkpt>
      <trkpt lat="48.76384" lon="1.71467">
        <ele>116</ele>
        <time>2022-03-24T09:39:16Z</time>
      </trkpt>
      <trkpt lat="48.76388" lon="1.71462">
        <ele>115.8</ele>
        <time>2022-03-24T09:39:22Z</time>
      </trkpt>
      <trkpt lat="48.76391" lon="1.71455">
        <ele>115.4</ele>
        <time>2022-03-24T09:39:29Z</time>
      </trkpt>
      <trkpt lat="48.76394" lon="1.71449">
        <ele>114.8</ele>
        <time>2022-03-24T09:39:34Z</time>
      </trkpt>
      <trkpt lat="48.76397" lon="1.71444">
        <ele>114.1</ele>
        <time>2022-03-24T09:39:39Z</time>
      </trkpt>
      <trkpt lat="48.76394" lon="1.71439">
        <ele>115.8</ele>
        <time>2022-03-24T09:40:16Z</time>
      </trkpt>
      <trkpt lat="48.76389" lon="1.71441">
        <ele>113</ele>
        <time>2022-03-24T09:42:21Z</time>
      </trkpt>
      <trkpt lat="48.76392" lon="1.71435">
        <ele>112.1</ele>
        <time>2022-03-24T09:42:51Z</time>
      </trkpt>
      <trkpt lat="48.76396" lon="1.71431">
        <ele>113.3</ele>
        <time>2022-03-24T09:42:59Z</time>
      </trkpt>
      <trkpt lat="48.764" lon="1.71427">
        <ele>113.7</ele>
        <time>2022-03-24T09:43:03Z</time>
      </trkpt>
      <trkpt lat="48.76404" lon="1.71421">
        <ele>114.3</ele>
        <time>2022-03-24T09:43:07Z</time>
      </trkpt>
      <trkpt lat="48.76407" lon="1.71414">
        <ele>114.6</ele>
        <time>2022-03-24T09:43:14Z</time>
      </trkpt>
      <trkpt lat="48.7641" lon="1.71408">
        <ele>114.2</ele>
        <time>2022-03-24T09:43:19Z</time>
      </trkpt>
      <trkpt lat="48.76412" lon="1.71401">
        <ele>114.4</ele>
        <time>2022-03-24T09:43:25Z</time>
      </trkpt>
      <trkpt lat="48.76414" lon="1.71395">
        <ele>116.7</ele>
        <time>2022-03-24T09:43:30Z</time>
      </trkpt>
      <trkpt lat="48.76418" lon="1.71388">
        <ele>117.8</ele>
        <time>2022-03-24T09:43:36Z</time>
      </trkpt>
      <trkpt lat="48.76422" lon="1.71384">
        <ele>116.7</ele>
        <time>2022-03-24T09:43:43Z</time>
      </trkpt>
      <trkpt lat="48.76422" lon="1.71376">
        <ele>116</ele>
        <time>2022-03-24T09:43:48Z</time>
      </trkpt>
      <trkpt lat="48.76422" lon="1.71369">
        <ele>115.7</ele>
        <time>2022-03-24T09:43:53Z</time>
      </trkpt>
      <trkpt lat="48.76422" lon="1.71361">
        <ele>112.8</ele>
        <time>2022-03-24T09:43:58Z</time>
      </trkpt>
      <trkpt lat="48.76423" lon="1.71354">
        <ele>109.7</ele>
        <time>2022-03-24T09:44:03Z</time>
      </trkpt>
      <trkpt lat="48.76426" lon="1.71348">
        <ele>109.7</ele>
        <time>2022-03-24T09:44:09Z</time>
      </trkpt>
      <trkpt lat="48.76427" lon="1.7134">
        <ele>110.3</ele>
        <time>2022-03-24T09:44:13Z</time>
      </trkpt>
      <trkpt lat="48.7643" lon="1.71333">
        <ele>111.8</ele>
        <time>2022-03-24T09:44:18Z</time>
      </trkpt>
      <trkpt lat="48.76433" lon="1.71327">
        <ele>111.8</ele>
        <time>2022-03-24T09:44:24Z</time>
      </trkpt>
      <trkpt lat="48.76435" lon="1.71321">
        <ele>111</ele>
        <time>2022-03-24T09:44:29Z</time>
      </trkpt>
      <trkpt lat="48.76438" lon="1.71314">
        <ele>111.3</ele>
        <time>2022-03-24T09:44:34Z</time>
      </trkpt>
      <trkpt lat="48.7644" lon="1.71307">
        <ele>113.9</ele>
        <time>2022-03-24T09:44:41Z</time>
      </trkpt>
      <trkpt lat="48.76443" lon="1.71301">
        <ele>114.3</ele>
        <time>2022-03-24T09:44:44Z</time>
      </trkpt>
      <trkpt lat="48.76446" lon="1.71295">
        <ele>113.1</ele>
        <time>2022-03-24T09:44:49Z</time>
      </trkpt>
      <trkpt lat="48.76448" lon="1.71288">
        <ele>110.5</ele>
        <time>2022-03-24T09:44:54Z</time>
      </trkpt>
      <trkpt lat="48.76451" lon="1.71281">
        <ele>109.2</ele>
        <time>2022-03-24T09:44:59Z</time>
      </trkpt>
      <trkpt lat="48.76453" lon="1.71274">
        <ele>107.8</ele>
        <time>2022-03-24T09:45:20Z</time>
      </trkpt>
      <trkpt lat="48.76456" lon="1.71267">
        <ele>109.2</ele>
        <time>2022-03-24T09:45:24Z</time>
      </trkpt>
      <trkpt lat="48.76461" lon="1.71262">
        <ele>109.6</ele>
        <time>2022-03-24T09:45:29Z</time>
      </trkpt>
      <trkpt lat="48.76466" lon="1.71257">
        <ele>109.4</ele>
        <time>2022-03-24T09:45:34Z</time>
      </trkpt>
      <trkpt lat="48.76469" lon="1.71251">
        <ele>108.4</ele>
        <time>2022-03-24T09:45:39Z</time>
      </trkpt>
      <trkpt lat="48.76473" lon="1.71248">
        <ele>106.6</ele>
        <time>2022-03-24T09:45:45Z</time>
      </trkpt>
      <trkpt lat="48.76478" lon="1.71243">
        <ele>106.6</ele>
        <time>2022-03-24T09:45:50Z</time>
      </trkpt>
      <trkpt lat="48.76481" lon="1.71238">
        <ele>106.8</ele>
        <time>2022-03-24T09:45:54Z</time>
      </trkpt>
      <trkpt lat="48.76485" lon="1.71233">
        <ele>107</ele>
        <time>2022-03-24T09:45:57Z</time>
      </trkpt>
      <trkpt lat="48.76489" lon="1.71226">
        <ele>108.1</ele>
        <time>2022-03-24T09:46:03Z</time>
      </trkpt>
      <trkpt lat="48.76492" lon="1.71219">
        <ele>109.3</ele>
        <time>2022-03-24T09:46:07Z</time>
      </trkpt>
      <trkpt lat="48.76495" lon="1.71215">
        <ele>111.2</ele>
        <time>2022-03-24T09:46:14Z</time>
      </trkpt>
      <trkpt lat="48.76498" lon="1.71209">
        <ele>107.9</ele>
        <time>2022-03-24T09:46:34Z</time>
      </trkpt>
      <trkpt lat="48.76501" lon="1.71202">
        <ele>108.5</ele>
        <time>2022-03-24T09:46:38Z</time>
      </trkpt>
      <trkpt lat="48.76505" lon="1.71197">
        <ele>108</ele>
        <time>2022-03-24T09:46:43Z</time>
      </trkpt>
      <trkpt lat="48.76509" lon="1.71192">
        <ele>107.6</ele>
        <time>2022-03-24T09:46:47Z</time>
      </trkpt>
      <trkpt lat="48.76513" lon="1.71187">
        <ele>107.9</ele>
        <time>2022-03-24T09:46:52Z</time>
      </trkpt>
      <trkpt lat="48.76517" lon="1.71181">
        <ele>108.5</ele>
        <time>2022-03-24T09:46:56Z</time>
      </trkpt>
      <trkpt lat="48.76519" lon="1.71174">
        <ele>109.1</ele>
        <time>2022-03-24T09:47:00Z</time>
      </trkpt>
      <trkpt lat="48.76522" lon="1.71167">
        <ele>109.3</ele>
        <time>2022-03-24T09:47:04Z</time>
      </trkpt>
      <trkpt lat="48.76525" lon="1.71161">
        <ele>109.5</ele>
        <time>2022-03-24T09:47:08Z</time>
      </trkpt>
      <trkpt lat="48.7653" lon="1.71158">
        <ele>109.4</ele>
        <time>2022-03-24T09:47:12Z</time>
      </trkpt>
      <trkpt lat="48.76533" lon="1.71153">
        <ele>110.2</ele>
        <time>2022-03-24T09:47:15Z</time>
      </trkpt>
      <trkpt lat="48.76537" lon="1.71147">
        <ele>111.2</ele>
        <time>2022-03-24T09:47:18Z</time>
      </trkpt>
      <trkpt lat="48.7654" lon="1.71141">
        <ele>113.2</ele>
        <time>2022-03-24T09:47:22Z</time>
      </trkpt>
      <trkpt lat="48.76545" lon="1.71138">
        <ele>115.6</ele>
        <time>2022-03-24T09:47:26Z</time>
      </trkpt>
      <trkpt lat="48.7655" lon="1.71135">
        <ele>116.9</ele>
        <time>2022-03-24T09:47:30Z</time>
      </trkpt>
      <trkpt lat="48.76553" lon="1.71131">
        <ele>118.9</ele>
        <time>2022-03-24T09:47:36Z</time>
      </trkpt>
      <trkpt lat="48.76558" lon="1.71127">
        <ele>121</ele>
        <time>2022-03-24T09:47:40Z</time>
      </trkpt>
      <trkpt lat="48.76563" lon="1.71128">
        <ele>122.8</ele>
        <time>2022-03-24T09:47:45Z</time>
      </trkpt>
      <trkpt lat="48.76568" lon="1.71126">
        <ele>123.7</ele>
        <time>2022-03-24T09:47:49Z</time>
      </trkpt>
      <trkpt lat="48.76572" lon="1.71121">
        <ele>124.8</ele>
        <time>2022-03-24T09:47:55Z</time>
      </trkpt>
      <trkpt lat="48.76576" lon="1.71116">
        <ele>125.4</ele>
        <time>2022-03-24T09:47:59Z</time>
      </trkpt>
      <trkpt lat="48.76579" lon="1.7111">
        <ele>122.7</ele>
        <time>2022-03-24T09:48:09Z</time>
      </trkpt>
      <trkpt lat="48.76582" lon="1.71104">
        <ele>121.4</ele>
        <time>2022-03-24T09:48:13Z</time>
      </trkpt>
      <trkpt lat="48.76586" lon="1.71101">
        <ele>120.7</ele>
        <time>2022-03-24T09:48:18Z</time>
      </trkpt>
      <trkpt lat="48.7659" lon="1.71095">
        <ele>120.6</ele>
        <time>2022-03-24T09:48:22Z</time>
      </trkpt>
      <trkpt lat="48.76594" lon="1.71091">
        <ele>120.1</ele>
        <time>2022-03-24T09:48:27Z</time>
      </trkpt>
      <trkpt lat="48.76598" lon="1.71088">
        <ele>119.4</ele>
        <time>2022-03-24T09:48:34Z</time>
      </trkpt>
      <trkpt lat="48.76602" lon="1.71082">
        <ele>115.6</ele>
        <time>2022-03-24T09:48:44Z</time>
      </trkpt>
      <trkpt lat="48.76606" lon="1.71077">
        <ele>116.1</ele>
        <time>2022-03-24T09:48:47Z</time>
      </trkpt>
      <trkpt lat="48.7661" lon="1.71073">
        <ele>116.9</ele>
        <time>2022-03-24T09:48:51Z</time>
      </trkpt>
      <trkpt lat="48.76615" lon="1.71068">
        <ele>117.7</ele>
        <time>2022-03-24T09:48:55Z</time>
      </trkpt>
      <trkpt lat="48.76619" lon="1.71064">
        <ele>119.5</ele>
        <time>2022-03-24T09:48:59Z</time>
      </trkpt>
      <trkpt lat="48.76623" lon="1.71059">
        <ele>121.2</ele>
        <time>2022-03-24T09:49:04Z</time>
      </trkpt>
      <trkpt lat="48.76627" lon="1.71055">
        <ele>121.3</ele>
        <time>2022-03-24T09:49:09Z</time>
      </trkpt>
      <trkpt lat="48.76631" lon="1.71049">
        <ele>120.7</ele>
        <time>2022-03-24T09:49:14Z</time>
      </trkpt>
      <trkpt lat="48.76635" lon="1.71044">
        <ele>120.4</ele>
        <time>2022-03-24T09:49:19Z</time>
      </trkpt>
      <trkpt lat="48.76639" lon="1.71039">
        <ele>119.8</ele>
        <time>2022-03-24T09:49:24Z</time>
      </trkpt>
      <trkpt lat="48.76642" lon="1.71032">
        <ele>118.6</ele>
        <time>2022-03-24T09:49:29Z</time>
      </trkpt>
      <trkpt lat="48.76645" lon="1.71026">
        <ele>117.5</ele>
        <time>2022-03-24T09:49:33Z</time>
      </trkpt>
      <trkpt lat="48.76649" lon="1.71023">
        <ele>117.1</ele>
        <time>2022-03-24T09:49:37Z</time>
      </trkpt>
      <trkpt lat="48.76654" lon="1.71019">
        <ele>117.8</ele>
        <time>2022-03-24T09:49:41Z</time>
      </trkpt>
      <trkpt lat="48.76658" lon="1.71015">
        <ele>118.5</ele>
        <time>2022-03-24T09:49:44Z</time>
      </trkpt>
      <trkpt lat="48.76661" lon="1.7101">
        <ele>120.7</ele>
        <time>2022-03-24T09:49:49Z</time>
      </trkpt>
      <trkpt lat="48.76664" lon="1.71002">
        <ele>121.3</ele>
        <time>2022-03-24T09:49:53Z</time>
      </trkpt>
      <trkpt lat="48.76668" lon="1.70997">
        <ele>120.9</ele>
        <time>2022-03-24T09:49:57Z</time>
      </trkpt>
      <trkpt lat="48.76671" lon="1.70993">
        <ele>120.2</ele>
        <time>2022-03-24T09:50:02Z</time>
      </trkpt>
      <trkpt lat="48.76676" lon="1.70988">
        <ele>120.1</ele>
        <time>2022-03-24T09:50:07Z</time>
      </trkpt>
      <trkpt lat="48.7668" lon="1.70983">
        <ele>119.7</ele>
        <time>2022-03-24T09:50:12Z</time>
      </trkpt>
      <trkpt lat="48.76684" lon="1.70978">
        <ele>120.1</ele>
        <time>2022-03-24T09:50:18Z</time>
      </trkpt>
      <trkpt lat="48.76688" lon="1.70972">
        <ele>120.7</ele>
        <time>2022-03-24T09:50:23Z</time>
      </trkpt>
      <trkpt lat="48.7669" lon="1.70966">
        <ele>120.3</ele>
        <time>2022-03-24T09:50:28Z</time>
      </trkpt>
      <trkpt lat="48.76694" lon="1.70961">
        <ele>119.4</ele>
        <time>2022-03-24T09:50:33Z</time>
      </trkpt>
      <trkpt lat="48.76698" lon="1.70954">
        <ele>118.9</ele>
        <time>2022-03-24T09:50:38Z</time>
      </trkpt>
      <trkpt lat="48.76701" lon="1.70948">
        <ele>118.5</ele>
        <time>2022-03-24T09:50:42Z</time>
      </trkpt>
      <trkpt lat="48.76705" lon="1.70945">
        <ele>118.2</ele>
        <time>2022-03-24T09:50:47Z</time>
      </trkpt>
      <trkpt lat="48.76709" lon="1.7094">
        <ele>118.7</ele>
        <time>2022-03-24T09:50:51Z</time>
      </trkpt>
      <trkpt lat="48.76712" lon="1.70933">
        <ele>118.7</ele>
        <time>2022-03-24T09:50:57Z</time>
      </trkpt>
      <trkpt lat="48.76715" lon="1.70927">
        <ele>118.7</ele>
        <time>2022-03-24T09:51:02Z</time>
      </trkpt>
      <trkpt lat="48.76718" lon="1.70923">
        <ele>119.4</ele>
        <time>2022-03-24T09:51:06Z</time>
      </trkpt>
      <trkpt lat="48.76723" lon="1.70917">
        <ele>119.7</ele>
        <time>2022-03-24T09:51:10Z</time>
      </trkpt>
      <trkpt lat="48.76726" lon="1.70913">
        <ele>119.9</ele>
        <time>2022-03-24T09:51:14Z</time>
      </trkpt>
      <trkpt lat="48.76732" lon="1.70909">
        <ele>119.8</ele>
        <time>2022-03-24T09:51:19Z</time>
      </trkpt>
      <trkpt lat="48.76736" lon="1.70904">
        <ele>120.4</ele>
        <time>2022-03-24T09:51:23Z</time>
      </trkpt>
      <trkpt lat="48.7674" lon="1.70899">
        <ele>121.2</ele>
        <time>2022-03-24T09:51:27Z</time>
      </trkpt>
      <trkpt lat="48.76742" lon="1.70892">
        <ele>121.1</ele>
        <time>2022-03-24T09:51:33Z</time>
      </trkpt>
      <trkpt lat="48.76746" lon="1.70887">
        <ele>119.7</ele>
        <time>2022-03-24T09:51:38Z</time>
      </trkpt>
      <trkpt lat="48.76749" lon="1.70891">
        <ele>119.9</ele>
        <time>2022-03-24T09:51:51Z</time>
      </trkpt>
      <trkpt lat="48.76754" lon="1.7089">
        <ele>117</ele>
        <time>2022-03-24T09:51:58Z</time>
      </trkpt>
      <trkpt lat="48.76752" lon="1.70883">
        <ele>116.2</ele>
        <time>2022-03-24T09:52:02Z</time>
      </trkpt>
      <trkpt lat="48.7675" lon="1.70876">
        <ele>116</ele>
        <time>2022-03-24T09:52:06Z</time>
      </trkpt>
      <trkpt lat="48.76753" lon="1.7087">
        <ele>115.6</ele>
        <time>2022-03-24T09:52:11Z</time>
      </trkpt>
      <trkpt lat="48.76757" lon="1.70866">
        <ele>115.4</ele>
        <time>2022-03-24T09:52:16Z</time>
      </trkpt>
      <trkpt lat="48.76759" lon="1.70859">
        <ele>114.8</ele>
        <time>2022-03-24T09:52:20Z</time>
      </trkpt>
      <trkpt lat="48.76764" lon="1.70856">
        <ele>114.6</ele>
        <time>2022-03-24T09:52:25Z</time>
      </trkpt>
      <trkpt lat="48.76766" lon="1.7085">
        <ele>115</ele>
        <time>2022-03-24T09:52:30Z</time>
      </trkpt>
      <trkpt lat="48.76769" lon="1.70843">
        <ele>116</ele>
        <time>2022-03-24T09:52:35Z</time>
      </trkpt>
      <trkpt lat="48.76772" lon="1.70837">
        <ele>116</ele>
        <time>2022-03-24T09:52:40Z</time>
      </trkpt>
      <trkpt lat="48.76776" lon="1.70832">
        <ele>113.9</ele>
        <time>2022-03-24T09:52:44Z</time>
      </trkpt>
      <trkpt lat="48.7678" lon="1.70828">
        <ele>112.8</ele>
        <time>2022-03-24T09:52:49Z</time>
      </trkpt>
      <trkpt lat="48.76784" lon="1.70823">
        <ele>113.3</ele>
        <time>2022-03-24T09:52:52Z</time>
      </trkpt>
      <trkpt lat="48.76788" lon="1.70818">
        <ele>114.4</ele>
        <time>2022-03-24T09:52:56Z</time>
      </trkpt>
      <trkpt lat="48.76791" lon="1.70813">
        <ele>114.7</ele>
        <time>2022-03-24T09:53:00Z</time>
      </trkpt>
      <trkpt lat="48.76796" lon="1.70808">
        <ele>114.8</ele>
        <time>2022-03-24T09:53:05Z</time>
      </trkpt>
      <trkpt lat="48.768" lon="1.70804">
        <ele>114.4</ele>
        <time>2022-03-24T09:53:09Z</time>
      </trkpt>
      <trkpt lat="48.76804" lon="1.70799">
        <ele>113.8</ele>
        <time>2022-03-24T09:53:13Z</time>
      </trkpt>
      <trkpt lat="48.76808" lon="1.70793">
        <ele>113.7</ele>
        <time>2022-03-24T09:53:17Z</time>
      </trkpt>
      <trkpt lat="48.76812" lon="1.70787">
        <ele>114.4</ele>
        <time>2022-03-24T09:53:21Z</time>
      </trkpt>
      <trkpt lat="48.76815" lon="1.70782">
        <ele>114.7</ele>
        <time>2022-03-24T09:53:25Z</time>
      </trkpt>
      <trkpt lat="48.76819" lon="1.70776">
        <ele>114.5</ele>
        <time>2022-03-24T09:53:29Z</time>
      </trkpt>
      <trkpt lat="48.76824" lon="1.70775">
        <ele>113.1</ele>
        <time>2022-03-24T09:53:35Z</time>
      </trkpt>
      <trkpt lat="48.76828" lon="1.70771">
        <ele>114.7</ele>
        <time>2022-03-24T09:53:47Z</time>
      </trkpt>
      <trkpt lat="48.7683" lon="1.70765">
        <ele>114.6</ele>
        <time>2022-03-24T09:53:52Z</time>
      </trkpt>
      <trkpt lat="48.76833" lon="1.70758">
        <ele>114.2</ele>
        <time>2022-03-24T09:53:58Z</time>
      </trkpt>
      <trkpt lat="48.76836" lon="1.70752">
        <ele>114.2</ele>
        <time>2022-03-24T09:54:02Z</time>
      </trkpt>
      <trkpt lat="48.76838" lon="1.70745">
        <ele>114.5</ele>
        <time>2022-03-24T09:54:08Z</time>
      </trkpt>
      <trkpt lat="48.76842" lon="1.7074">
        <ele>115.3</ele>
        <time>2022-03-24T09:54:12Z</time>
      </trkpt>
      <trkpt lat="48.76846" lon="1.70734">
        <ele>116</ele>
        <time>2022-03-24T09:54:16Z</time>
      </trkpt>
      <trkpt lat="48.76849" lon="1.70729">
        <ele>116.1</ele>
        <time>2022-03-24T09:54:20Z</time>
      </trkpt>
      <trkpt lat="48.76852" lon="1.70723">
        <ele>115.6</ele>
        <time>2022-03-24T09:54:25Z</time>
      </trkpt>
      <trkpt lat="48.76856" lon="1.70718">
        <ele>114.8</ele>
        <time>2022-03-24T09:54:29Z</time>
      </trkpt>
      <trkpt lat="48.7686" lon="1.70713">
        <ele>114.2</ele>
        <time>2022-03-24T09:54:33Z</time>
      </trkpt>
      <trkpt lat="48.76864" lon="1.70709">
        <ele>114.1</ele>
        <time>2022-03-24T09:54:37Z</time>
      </trkpt>
      <trkpt lat="48.76868" lon="1.70705">
        <ele>114.5</ele>
        <time>2022-03-24T09:54:41Z</time>
      </trkpt>
      <trkpt lat="48.76873" lon="1.707">
        <ele>115.6</ele>
        <time>2022-03-24T09:54:46Z</time>
      </trkpt>
      <trkpt lat="48.76876" lon="1.70695">
        <ele>115.7</ele>
        <time>2022-03-24T09:54:50Z</time>
      </trkpt>
      <trkpt lat="48.76879" lon="1.70689">
        <ele>115.3</ele>
        <time>2022-03-24T09:54:54Z</time>
      </trkpt>
      <trkpt lat="48.76883" lon="1.70684">
        <ele>115.5</ele>
        <time>2022-03-24T09:54:58Z</time>
      </trkpt>
      <trkpt lat="48.76887" lon="1.70678">
        <ele>117.2</ele>
        <time>2022-03-24T09:55:02Z</time>
      </trkpt>
      <trkpt lat="48.7689" lon="1.70674">
        <ele>118.3</ele>
        <time>2022-03-24T09:55:06Z</time>
      </trkpt>
      <trkpt lat="48.76894" lon="1.70667">
        <ele>118.4</ele>
        <time>2022-03-24T09:55:10Z</time>
      </trkpt>
      <trkpt lat="48.76897" lon="1.70662">
        <ele>118</ele>
        <time>2022-03-24T09:55:14Z</time>
      </trkpt>
      <trkpt lat="48.76901" lon="1.70655">
        <ele>117.1</ele>
        <time>2022-03-24T09:55:19Z</time>
      </trkpt>
      <trkpt lat="48.76904" lon="1.7065">
        <ele>116</ele>
        <time>2022-03-24T09:55:23Z</time>
      </trkpt>
      <trkpt lat="48.76908" lon="1.70644">
        <ele>116.6</ele>
        <time>2022-03-24T09:55:27Z</time>
      </trkpt>
      <trkpt lat="48.76913" lon="1.7064">
        <ele>118.6</ele>
        <time>2022-03-24T09:55:31Z</time>
      </trkpt>
      <trkpt lat="48.76917" lon="1.70634">
        <ele>119.1</ele>
        <time>2022-03-24T09:55:35Z</time>
      </trkpt>
      <trkpt lat="48.76921" lon="1.70628">
        <ele>119.8</ele>
        <time>2022-03-24T09:55:40Z</time>
      </trkpt>
      <trkpt lat="48.76925" lon="1.70622">
        <ele>120.6</ele>
        <time>2022-03-24T09:55:44Z</time>
      </trkpt>
      <trkpt lat="48.76929" lon="1.70617">
        <ele>120.7</ele>
        <time>2022-03-24T09:55:48Z</time>
      </trkpt>
      <trkpt lat="48.76933" lon="1.70611">
        <ele>120</ele>
        <time>2022-03-24T09:55:52Z</time>
      </trkpt>
      <trkpt lat="48.76936" lon="1.70605">
        <ele>119.9</ele>
        <time>2022-03-24T09:55:57Z</time>
      </trkpt>
      <trkpt lat="48.7694" lon="1.70601">
        <ele>120.3</ele>
        <time>2022-03-24T09:56:01Z</time>
      </trkpt>
      <trkpt lat="48.76943" lon="1.70596">
        <ele>120.6</ele>
        <time>2022-03-24T09:56:06Z</time>
      </trkpt>
      <trkpt lat="48.76945" lon="1.70589">
        <ele>120.5</ele>
        <time>2022-03-24T09:56:10Z</time>
      </trkpt>
      <trkpt lat="48.76948" lon="1.70583">
        <ele>120.1</ele>
        <time>2022-03-24T09:56:15Z</time>
      </trkpt>
      <trkpt lat="48.76952" lon="1.70578">
        <ele>118.5</ele>
        <time>2022-03-24T09:56:19Z</time>
      </trkpt>
      <trkpt lat="48.76956" lon="1.70573">
        <ele>117.8</ele>
        <time>2022-03-24T09:56:24Z</time>
      </trkpt>
      <trkpt lat="48.76961" lon="1.70569">
        <ele>119.3</ele>
        <time>2022-03-24T09:56:28Z</time>
      </trkpt>
      <trkpt lat="48.76965" lon="1.70564">
        <ele>120.9</ele>
        <time>2022-03-24T09:56:32Z</time>
      </trkpt>
      <trkpt lat="48.76969" lon="1.70559">
        <ele>121.2</ele>
        <time>2022-03-24T09:56:37Z</time>
      </trkpt>
      <trkpt lat="48.76973" lon="1.70555">
        <ele>120.9</ele>
        <time>2022-03-24T09:56:41Z</time>
      </trkpt>
      <trkpt lat="48.76978" lon="1.70552">
        <ele>119.9</ele>
        <time>2022-03-24T09:56:45Z</time>
      </trkpt>
      <trkpt lat="48.76981" lon="1.70546">
        <ele>119.5</ele>
        <time>2022-03-24T09:56:48Z</time>
      </trkpt>
      <trkpt lat="48.76984" lon="1.70541">
        <ele>119.8</ele>
        <time>2022-03-24T09:56:52Z</time>
      </trkpt>
      <trkpt lat="48.76987" lon="1.70536">
        <ele>120.7</ele>
        <time>2022-03-24T09:56:56Z</time>
      </trkpt>
      <trkpt lat="48.7699" lon="1.70529">
        <ele>121.4</ele>
        <time>2022-03-24T09:57:00Z</time>
      </trkpt>
      <trkpt lat="48.76993" lon="1.70523">
        <ele>121.6</ele>
        <time>2022-03-24T09:57:04Z</time>
      </trkpt>
      <trkpt lat="48.76996" lon="1.70516">
        <ele>120.4</ele>
        <time>2022-03-24T09:57:09Z</time>
      </trkpt>
      <trkpt lat="48.76999" lon="1.7051">
        <ele>119.8</ele>
        <time>2022-03-24T09:57:13Z</time>
      </trkpt>
      <trkpt lat="48.77004" lon="1.70508">
        <ele>119.4</ele>
        <time>2022-03-24T09:57:17Z</time>
      </trkpt>
      <trkpt lat="48.77008" lon="1.70503">
        <ele>118.9</ele>
        <time>2022-03-24T09:57:21Z</time>
      </trkpt>
      <trkpt lat="48.77011" lon="1.70498">
        <ele>117.3</ele>
        <time>2022-03-24T09:57:26Z</time>
      </trkpt>
      <trkpt lat="48.77015" lon="1.70492">
        <ele>115.6</ele>
        <time>2022-03-24T09:57:30Z</time>
      </trkpt>
      <trkpt lat="48.77018" lon="1.70487">
        <ele>114.6</ele>
        <time>2022-03-24T09:57:34Z</time>
      </trkpt>
      <trkpt lat="48.77021" lon="1.70481">
        <ele>114.2</ele>
        <time>2022-03-24T09:57:38Z</time>
      </trkpt>
      <trkpt lat="48.77025" lon="1.70478">
        <ele>114.3</ele>
        <time>2022-03-24T09:57:42Z</time>
      </trkpt>
      <trkpt lat="48.7703" lon="1.70474">
        <ele>115.4</ele>
        <time>2022-03-24T09:57:46Z</time>
      </trkpt>
      <trkpt lat="48.77034" lon="1.70467">
        <ele>115.4</ele>
        <time>2022-03-24T09:57:51Z</time>
      </trkpt>
      <trkpt lat="48.77038" lon="1.70461">
        <ele>115</ele>
        <time>2022-03-24T09:57:55Z</time>
      </trkpt>
      <trkpt lat="48.77042" lon="1.70456">
        <ele>114.7</ele>
        <time>2022-03-24T09:58:00Z</time>
      </trkpt>
      <trkpt lat="48.77046" lon="1.70453">
        <ele>117.2</ele>
        <time>2022-03-24T09:58:04Z</time>
      </trkpt>
      <trkpt lat="48.77052" lon="1.70451">
        <ele>119.2</ele>
        <time>2022-03-24T09:58:08Z</time>
      </trkpt>
      <trkpt lat="48.77057" lon="1.70452">
        <ele>118.7</ele>
        <time>2022-03-24T09:58:14Z</time>
      </trkpt>
      <trkpt lat="48.77062" lon="1.70454">
        <ele>117.5</ele>
        <time>2022-03-24T09:58:19Z</time>
      </trkpt>
      <trkpt lat="48.77065" lon="1.70461">
        <ele>116.6</ele>
        <time>2022-03-24T09:58:25Z</time>
      </trkpt>
      <trkpt lat="48.77067" lon="1.70467">
        <ele>117.5</ele>
        <time>2022-03-24T09:58:29Z</time>
      </trkpt>
      <trkpt lat="48.77071" lon="1.70474">
        <ele>118.1</ele>
        <time>2022-03-24T09:58:34Z</time>
      </trkpt>
      <trkpt lat="48.77076" lon="1.70477">
        <ele>118.1</ele>
        <time>2022-03-24T09:58:39Z</time>
      </trkpt>
      <trkpt lat="48.77081" lon="1.70479">
        <ele>117</ele>
        <time>2022-03-24T09:58:44Z</time>
      </trkpt>
      <trkpt lat="48.77086" lon="1.70478">
        <ele>116.2</ele>
        <time>2022-03-24T09:58:47Z</time>
      </trkpt>
      <trkpt lat="48.77091" lon="1.70476">
        <ele>116.1</ele>
        <time>2022-03-24T09:58:52Z</time>
      </trkpt>
      <trkpt lat="48.77096" lon="1.70474">
        <ele>116.1</ele>
        <time>2022-03-24T09:58:57Z</time>
      </trkpt>
      <trkpt lat="48.77101" lon="1.70473">
        <ele>116.9</ele>
        <time>2022-03-24T09:59:02Z</time>
      </trkpt>
      <trkpt lat="48.77105" lon="1.70475">
        <ele>117.9</ele>
        <time>2022-03-24T09:59:06Z</time>
      </trkpt>
      <trkpt lat="48.7711" lon="1.70476">
        <ele>118</ele>
        <time>2022-03-24T09:59:10Z</time>
      </trkpt>
      <trkpt lat="48.77115" lon="1.70477">
        <ele>116.9</ele>
        <time>2022-03-24T09:59:14Z</time>
      </trkpt>
      <trkpt lat="48.7712" lon="1.70477">
        <ele>115.9</ele>
        <time>2022-03-24T09:59:19Z</time>
      </trkpt>
      <trkpt lat="48.77125" lon="1.70476">
        <ele>115.1</ele>
        <time>2022-03-24T09:59:24Z</time>
      </trkpt>
      <trkpt lat="48.7713" lon="1.70474">
        <ele>113.3</ele>
        <time>2022-03-24T09:59:30Z</time>
      </trkpt>
      <trkpt lat="48.77134" lon="1.70472">
        <ele>112.2</ele>
        <time>2022-03-24T09:59:36Z</time>
      </trkpt>
      <trkpt lat="48.77139" lon="1.70468">
        <ele>110.7</ele>
        <time>2022-03-24T09:59:58Z</time>
      </trkpt>
      <trkpt lat="48.77144" lon="1.70469">
        <ele>110.6</ele>
        <time>2022-03-24T10:00:02Z</time>
      </trkpt>
      <trkpt lat="48.77147" lon="1.70464">
        <ele>110.5</ele>
        <time>2022-03-24T10:00:08Z</time>
      </trkpt>
      <trkpt lat="48.77149" lon="1.70456">
        <ele>112.1</ele>
        <time>2022-03-24T10:00:17Z</time>
      </trkpt>
      <trkpt lat="48.77153" lon="1.70452">
        <ele>114.4</ele>
        <time>2022-03-24T10:00:21Z</time>
      </trkpt>
      <trkpt lat="48.77158" lon="1.70451">
        <ele>114.4</ele>
        <time>2022-03-24T10:00:25Z</time>
      </trkpt>
      <trkpt lat="48.77163" lon="1.70449">
        <ele>114</ele>
        <time>2022-03-24T10:00:28Z</time>
      </trkpt>
      <trkpt lat="48.77168" lon="1.7045">
        <ele>113.5</ele>
        <time>2022-03-24T10:00:31Z</time>
      </trkpt>
      <trkpt lat="48.77172" lon="1.70453">
        <ele>112</ele>
        <time>2022-03-24T10:00:35Z</time>
      </trkpt>
      <trkpt lat="48.77175" lon="1.70462">
        <ele>109.5</ele>
        <time>2022-03-24T10:00:40Z</time>
      </trkpt>
      <trkpt lat="48.77179" lon="1.70466">
        <ele>108.8</ele>
        <time>2022-03-24T10:00:45Z</time>
      </trkpt>
      <trkpt lat="48.77185" lon="1.70468">
        <ele>108.5</ele>
        <time>2022-03-24T10:00:49Z</time>
      </trkpt>
      <trkpt lat="48.77191" lon="1.70467">
        <ele>108.3</ele>
        <time>2022-03-24T10:00:53Z</time>
      </trkpt>
      <trkpt lat="48.77196" lon="1.70467">
        <ele>108.1</ele>
        <time>2022-03-24T10:00:58Z</time>
      </trkpt>
      <trkpt lat="48.77201" lon="1.70467">
        <ele>108.3</ele>
        <time>2022-03-24T10:01:02Z</time>
      </trkpt>
      <trkpt lat="48.77206" lon="1.70466">
        <ele>108.6</ele>
        <time>2022-03-24T10:01:08Z</time>
      </trkpt>
      <trkpt lat="48.77212" lon="1.70466">
        <ele>109</ele>
        <time>2022-03-24T10:01:13Z</time>
      </trkpt>
      <trkpt lat="48.77217" lon="1.70466">
        <ele>109.4</ele>
        <time>2022-03-24T10:01:18Z</time>
      </trkpt>
      <trkpt lat="48.77221" lon="1.7047">
        <ele>110.2</ele>
        <time>2022-03-24T10:01:24Z</time>
      </trkpt>
      <trkpt lat="48.77226" lon="1.70468">
        <ele>110.1</ele>
        <time>2022-03-24T10:01:29Z</time>
      </trkpt>
      <trkpt lat="48.77231" lon="1.70471">
        <ele>109.1</ele>
        <time>2022-03-24T10:01:34Z</time>
      </trkpt>
      <trkpt lat="48.77236" lon="1.70473">
        <ele>109.4</ele>
        <time>2022-03-24T10:01:40Z</time>
      </trkpt>
      <trkpt lat="48.77242" lon="1.70472">
        <ele>110</ele>
        <time>2022-03-24T10:01:45Z</time>
      </trkpt>
      <trkpt lat="48.77247" lon="1.70474">
        <ele>108.3</ele>
        <time>2022-03-24T10:01:50Z</time>
      </trkpt>
      <trkpt lat="48.77253" lon="1.70476">
        <ele>107.1</ele>
        <time>2022-03-24T10:01:54Z</time>
      </trkpt>
      <trkpt lat="48.77258" lon="1.70476">
        <ele>106.7</ele>
        <time>2022-03-24T10:01:58Z</time>
      </trkpt>
      <trkpt lat="48.77263" lon="1.70474">
        <ele>107.1</ele>
        <time>2022-03-24T10:02:02Z</time>
      </trkpt>
      <trkpt lat="48.77269" lon="1.70474">
        <ele>106.8</ele>
        <time>2022-03-24T10:02:06Z</time>
      </trkpt>
      <trkpt lat="48.77275" lon="1.70474">
        <ele>106.9</ele>
        <time>2022-03-24T10:02:09Z</time>
      </trkpt>
      <trkpt lat="48.77279" lon="1.70474">
        <ele>107.9</ele>
        <time>2022-03-24T10:02:12Z</time>
      </trkpt>
      <trkpt lat="48.77284" lon="1.70474">
        <ele>109.2</ele>
        <time>2022-03-24T10:02:16Z</time>
      </trkpt>
      <trkpt lat="48.77288" lon="1.70474">
        <ele>110.3</ele>
        <time>2022-03-24T10:02:19Z</time>
      </trkpt>
      <trkpt lat="48.77293" lon="1.70475">
        <ele>111.2</ele>
        <time>2022-03-24T10:02:22Z</time>
      </trkpt>
      <trkpt lat="48.77298" lon="1.70476">
        <ele>112.4</ele>
        <time>2022-03-24T10:02:27Z</time>
      </trkpt>
      <trkpt lat="48.77304" lon="1.70477">
        <ele>113.5</ele>
        <time>2022-03-24T10:02:31Z</time>
      </trkpt>
      <trkpt lat="48.77309" lon="1.70479">
        <ele>113.1</ele>
        <time>2022-03-24T10:02:36Z</time>
      </trkpt>
      <trkpt lat="48.77314" lon="1.70482">
        <ele>112</ele>
        <time>2022-03-24T10:02:43Z</time>
      </trkpt>
      <trkpt lat="48.77318" lon="1.7048">
        <ele>111.5</ele>
        <time>2022-03-24T10:02:47Z</time>
      </trkpt>
      <trkpt lat="48.77323" lon="1.70476">
        <ele>110.2</ele>
        <time>2022-03-24T10:02:52Z</time>
      </trkpt>
      <trkpt lat="48.77328" lon="1.70472">
        <ele>108.6</ele>
        <time>2022-03-24T10:02:56Z</time>
      </trkpt>
      <trkpt lat="48.77333" lon="1.70472">
        <ele>107.7</ele>
        <time>2022-03-24T10:03:01Z</time>
      </trkpt>
      <trkpt lat="48.77337" lon="1.70473">
        <ele>107.5</ele>
        <time>2022-03-24T10:03:05Z</time>
      </trkpt>
      <trkpt lat="48.77342" lon="1.70475">
        <ele>107.7</ele>
        <time>2022-03-24T10:03:09Z</time>
      </trkpt>
      <trkpt lat="48.77347" lon="1.70477">
        <ele>108.7</ele>
        <time>2022-03-24T10:03:14Z</time>
      </trkpt>
      <trkpt lat="48.77352" lon="1.70477">
        <ele>112.1</ele>
        <time>2022-03-24T10:03:20Z</time>
      </trkpt>
      <trkpt lat="48.77357" lon="1.70478">
        <ele>113.8</ele>
        <time>2022-03-24T10:03:24Z</time>
      </trkpt>
      <trkpt lat="48.77362" lon="1.70478">
        <ele>114.8</ele>
        <time>2022-03-24T10:03:29Z</time>
      </trkpt>
      <trkpt lat="48.77367" lon="1.70477">
        <ele>115.7</ele>
        <time>2022-03-24T10:03:33Z</time>
      </trkpt>
      <trkpt lat="48.77371" lon="1.70478">
        <ele>116.4</ele>
        <time>2022-03-24T10:03:39Z</time>
      </trkpt>
      <trkpt lat="48.77376" lon="1.70481">
        <ele>116.9</ele>
        <time>2022-03-24T10:03:44Z</time>
      </trkpt>
      <trkpt lat="48.7738" lon="1.70483">
        <ele>117.2</ele>
        <time>2022-03-24T10:03:48Z</time>
      </trkpt>
      <trkpt lat="48.77384" lon="1.70485">
        <ele>116.7</ele>
        <time>2022-03-24T10:03:52Z</time>
      </trkpt>
      <trkpt lat="48.7739" lon="1.70488">
        <ele>115.2</ele>
        <time>2022-03-24T10:03:56Z</time>
      </trkpt>
      <trkpt lat="48.77395" lon="1.70489">
        <ele>113.9</ele>
        <time>2022-03-24T10:04:01Z</time>
      </trkpt>
      <trkpt lat="48.77399" lon="1.70492">
        <ele>113.5</ele>
        <time>2022-03-24T10:04:05Z</time>
      </trkpt>
      <trkpt lat="48.77403" lon="1.70496">
        <ele>114</ele>
        <time>2022-03-24T10:04:09Z</time>
      </trkpt>
      <trkpt lat="48.77407" lon="1.70501">
        <ele>114.7</ele>
        <time>2022-03-24T10:04:13Z</time>
      </trkpt>
      <trkpt lat="48.77409" lon="1.70508">
        <ele>116</ele>
        <time>2022-03-24T10:04:20Z</time>
      </trkpt>
      <trkpt lat="48.77413" lon="1.70512">
        <ele>117.8</ele>
        <time>2022-03-24T10:04:26Z</time>
      </trkpt>
      <trkpt lat="48.77418" lon="1.70515">
        <ele>118.6</ele>
        <time>2022-03-24T10:04:32Z</time>
      </trkpt>
      <trkpt lat="48.77422" lon="1.70518">
        <ele>119.6</ele>
        <time>2022-03-24T10:04:38Z</time>
      </trkpt>
      <trkpt lat="48.77427" lon="1.70523">
        <ele>120.5</ele>
        <time>2022-03-24T10:04:43Z</time>
      </trkpt>
      <trkpt lat="48.77431" lon="1.70527">
        <ele>120.2</ele>
        <time>2022-03-24T10:04:47Z</time>
      </trkpt>
      <trkpt lat="48.77436" lon="1.7053">
        <ele>118.5</ele>
        <time>2022-03-24T10:04:54Z</time>
      </trkpt>
      <trkpt lat="48.77441" lon="1.70533">
        <ele>117.6</ele>
        <time>2022-03-24T10:05:00Z</time>
      </trkpt>
      <trkpt lat="48.77445" lon="1.70536">
        <ele>118.1</ele>
        <time>2022-03-24T10:05:04Z</time>
      </trkpt>
      <trkpt lat="48.77449" lon="1.70538">
        <ele>118.9</ele>
        <time>2022-03-24T10:05:08Z</time>
      </trkpt>
      <trkpt lat="48.77454" lon="1.70542">
        <ele>119.2</ele>
        <time>2022-03-24T10:05:13Z</time>
      </trkpt>
      <trkpt lat="48.77459" lon="1.70541">
        <ele>118</ele>
        <time>2022-03-24T10:05:18Z</time>
      </trkpt>
      <trkpt lat="48.77464" lon="1.70541">
        <ele>117</ele>
        <time>2022-03-24T10:05:27Z</time>
      </trkpt>
      <trkpt lat="48.77468" lon="1.70544">
        <ele>118.4</ele>
        <time>2022-03-24T10:05:36Z</time>
      </trkpt>
      <trkpt lat="48.77473" lon="1.70547">
        <ele>119.2</ele>
        <time>2022-03-24T10:05:44Z</time>
      </trkpt>
      <trkpt lat="48.77477" lon="1.70547">
        <ele>116.8</ele>
        <time>2022-03-24T10:06:01Z</time>
      </trkpt>
      <trkpt lat="48.77481" lon="1.70541">
        <ele>117</ele>
        <time>2022-03-24T10:06:13Z</time>
      </trkpt>
      <trkpt lat="48.77483" lon="1.70534">
        <ele>116.2</ele>
        <time>2022-03-24T10:06:18Z</time>
      </trkpt>
      <trkpt lat="48.77485" lon="1.70528">
        <ele>115.1</ele>
        <time>2022-03-24T10:06:22Z</time>
      </trkpt>
      <trkpt lat="48.77488" lon="1.70521">
        <ele>113.7</ele>
        <time>2022-03-24T10:06:27Z</time>
      </trkpt>
      <trkpt lat="48.7749" lon="1.70514">
        <ele>112</ele>
        <time>2022-03-24T10:06:33Z</time>
      </trkpt>
      <trkpt lat="48.77487" lon="1.7052">
        <ele>112.3</ele>
        <time>2022-03-24T10:07:36Z</time>
      </trkpt>
      <trkpt lat="48.77485" lon="1.70525">
        <ele>116.3</ele>
        <time>2022-03-24T10:07:43Z</time>
      </trkpt>
      <trkpt lat="48.77481" lon="1.7053">
        <ele>118.3</ele>
        <time>2022-03-24T10:07:48Z</time>
      </trkpt>
      <trkpt lat="48.77479" lon="1.70537">
        <ele>120.1</ele>
        <time>2022-03-24T10:07:56Z</time>
      </trkpt>
      <trkpt lat="48.77476" lon="1.70542">
        <ele>120.7</ele>
        <time>2022-03-24T10:08:03Z</time>
      </trkpt>
      <trkpt lat="48.77472" lon="1.70536">
        <ele>114.6</ele>
        <time>2022-03-24T10:08:49Z</time>
      </trkpt>
      <trkpt lat="48.77474" lon="1.70543">
        <ele>112.8</ele>
        <time>2022-03-24T10:10:42Z</time>
      </trkpt>
      <trkpt lat="48.77476" lon="1.70549">
        <ele>118.6</ele>
        <time>2022-03-24T10:16:10Z</time>
      </trkpt>
      <trkpt lat="48.77472" lon="1.7055">
        <ele>118.7</ele>
        <time>2022-03-24T10:19:13Z</time>
      </trkpt>
      <trkpt lat="48.77474" lon="1.70544">
        <ele>117.9</ele>
        <time>2022-03-24T10:19:26Z</time>
      </trkpt>
      <trkpt lat="48.77475" lon="1.7055">
        <ele>116.1</ele>
        <time>2022-03-24T10:19:46Z</time>
      </trkpt>
      <trkpt lat="48.77475" lon="1.70557">
        <ele>116.5</ele>
        <time>2022-03-24T10:19:51Z</time>
      </trkpt>
      <trkpt lat="48.77477" lon="1.70564">
        <ele>117.8</ele>
        <time>2022-03-24T10:19:57Z</time>
      </trkpt>
      <trkpt lat="48.77482" lon="1.70567">
        <ele>117.8</ele>
        <time>2022-03-24T10:20:04Z</time>
      </trkpt>
      <trkpt lat="48.77487" lon="1.70569">
        <ele>115.7</ele>
        <time>2022-03-24T10:20:09Z</time>
      </trkpt>
      <trkpt lat="48.77492" lon="1.70571">
        <ele>115</ele>
        <time>2022-03-24T10:20:13Z</time>
      </trkpt>
      <trkpt lat="48.77497" lon="1.70574">
        <ele>116.5</ele>
        <time>2022-03-24T10:20:17Z</time>
      </trkpt>
      <trkpt lat="48.77501" lon="1.70578">
        <ele>118.7</ele>
        <time>2022-03-24T10:20:23Z</time>
      </trkpt>
      <trkpt lat="48.77505" lon="1.70581">
        <ele>118</ele>
        <time>2022-03-24T10:20:32Z</time>
      </trkpt>
      <trkpt lat="48.7751" lon="1.70585">
        <ele>118.9</ele>
        <time>2022-03-24T10:20:39Z</time>
      </trkpt>
      <trkpt lat="48.77514" lon="1.70588">
        <ele>120.4</ele>
        <time>2022-03-24T10:20:45Z</time>
      </trkpt>
      <trkpt lat="48.77518" lon="1.70591">
        <ele>120.3</ele>
        <time>2022-03-24T10:20:50Z</time>
      </trkpt>
      <trkpt lat="48.77523" lon="1.70594">
        <ele>119.9</ele>
        <time>2022-03-24T10:20:56Z</time>
      </trkpt>
      <trkpt lat="48.77527" lon="1.70598">
        <ele>120.5</ele>
        <time>2022-03-24T10:21:01Z</time>
      </trkpt>
      <trkpt lat="48.77531" lon="1.70602">
        <ele>121.7</ele>
        <time>2022-03-24T10:21:07Z</time>
      </trkpt>
      <trkpt lat="48.77535" lon="1.70605">
        <ele>122.4</ele>
        <time>2022-03-24T10:21:12Z</time>
      </trkpt>
      <trkpt lat="48.77539" lon="1.7061">
        <ele>123.7</ele>
        <time>2022-03-24T10:21:17Z</time>
      </trkpt>
      <trkpt lat="48.77544" lon="1.70614">
        <ele>125.2</ele>
        <time>2022-03-24T10:21:23Z</time>
      </trkpt>
      <trkpt lat="48.77548" lon="1.70616">
        <ele>124.9</ele>
        <time>2022-03-24T10:21:27Z</time>
      </trkpt>
      <trkpt lat="48.77553" lon="1.70621">
        <ele>123.7</ele>
        <time>2022-03-24T10:21:32Z</time>
      </trkpt>
      <trkpt lat="48.77557" lon="1.70625">
        <ele>122.4</ele>
        <time>2022-03-24T10:21:36Z</time>
      </trkpt>
      <trkpt lat="48.7756" lon="1.70629">
        <ele>121.7</ele>
        <time>2022-03-24T10:21:41Z</time>
      </trkpt>
      <trkpt lat="48.77564" lon="1.70634">
        <ele>122.8</ele>
        <time>2022-03-24T10:21:47Z</time>
      </trkpt>
      <trkpt lat="48.77568" lon="1.70639">
        <ele>125</ele>
        <time>2022-03-24T10:21:51Z</time>
      </trkpt>
      <trkpt lat="48.77572" lon="1.70643">
        <ele>127.2</ele>
        <time>2022-03-24T10:21:57Z</time>
      </trkpt>
      <trkpt lat="48.77577" lon="1.70647">
        <ele>128.3</ele>
        <time>2022-03-24T10:22:02Z</time>
      </trkpt>
      <trkpt lat="48.77581" lon="1.7065">
        <ele>128.1</ele>
        <time>2022-03-24T10:22:06Z</time>
      </trkpt>
      <trkpt lat="48.77586" lon="1.70653">
        <ele>127</ele>
        <time>2022-03-24T10:22:10Z</time>
      </trkpt>
      <trkpt lat="48.7759" lon="1.70657">
        <ele>126</ele>
        <time>2022-03-24T10:22:13Z</time>
      </trkpt>
      <trkpt lat="48.77594" lon="1.70661">
        <ele>125.6</ele>
        <time>2022-03-24T10:22:18Z</time>
      </trkpt>
      <trkpt lat="48.77598" lon="1.70665">
        <ele>125.8</ele>
        <time>2022-03-24T10:22:23Z</time>
      </trkpt>
      <trkpt lat="48.77602" lon="1.70669">
        <ele>125.5</ele>
        <time>2022-03-24T10:22:27Z</time>
      </trkpt>
      <trkpt lat="48.77607" lon="1.70672">
        <ele>124.8</ele>
        <time>2022-03-24T10:22:32Z</time>
      </trkpt>
      <trkpt lat="48.77612" lon="1.70675">
        <ele>123.6</ele>
        <time>2022-03-24T10:22:37Z</time>
      </trkpt>
      <trkpt lat="48.77618" lon="1.70678">
        <ele>123.1</ele>
        <time>2022-03-24T10:22:42Z</time>
      </trkpt>
      <trkpt lat="48.77622" lon="1.70681">
        <ele>123.6</ele>
        <time>2022-03-24T10:22:47Z</time>
      </trkpt>
      <trkpt lat="48.77627" lon="1.70686">
        <ele>124</ele>
        <time>2022-03-24T10:22:52Z</time>
      </trkpt>
      <trkpt lat="48.77632" lon="1.70691">
        <ele>123.6</ele>
        <time>2022-03-24T10:22:57Z</time>
      </trkpt>
      <trkpt lat="48.77636" lon="1.70695">
        <ele>123.5</ele>
        <time>2022-03-24T10:23:01Z</time>
      </trkpt>
      <trkpt lat="48.7764" lon="1.707">
        <ele>124.3</ele>
        <time>2022-03-24T10:23:07Z</time>
      </trkpt>
      <trkpt lat="48.77643" lon="1.70706">
        <ele>124.3</ele>
        <time>2022-03-24T10:23:11Z</time>
      </trkpt>
      <trkpt lat="48.77648" lon="1.7071">
        <ele>124.4</ele>
        <time>2022-03-24T10:23:16Z</time>
      </trkpt>
      <trkpt lat="48.77653" lon="1.70715">
        <ele>124.9</ele>
        <time>2022-03-24T10:23:21Z</time>
      </trkpt>
      <trkpt lat="48.77658" lon="1.70718">
        <ele>125.7</ele>
        <time>2022-03-24T10:23:25Z</time>
      </trkpt>
      <trkpt lat="48.77662" lon="1.70721">
        <ele>125.9</ele>
        <time>2022-03-24T10:23:30Z</time>
      </trkpt>
      <trkpt lat="48.77667" lon="1.70724">
        <ele>125.5</ele>
        <time>2022-03-24T10:23:34Z</time>
      </trkpt>
      <trkpt lat="48.77671" lon="1.70728">
        <ele>125</ele>
        <time>2022-03-24T10:23:39Z</time>
      </trkpt>
      <trkpt lat="48.77676" lon="1.70731">
        <ele>125.2</ele>
        <time>2022-03-24T10:23:43Z</time>
      </trkpt>
      <trkpt lat="48.7768" lon="1.70735">
        <ele>125.7</ele>
        <time>2022-03-24T10:23:49Z</time>
      </trkpt>
      <trkpt lat="48.77684" lon="1.70741">
        <ele>126.5</ele>
        <time>2022-03-24T10:23:54Z</time>
      </trkpt>
      <trkpt lat="48.77689" lon="1.70746">
        <ele>127.3</ele>
        <time>2022-03-24T10:23:58Z</time>
      </trkpt>
      <trkpt lat="48.77693" lon="1.7075">
        <ele>128.1</ele>
        <time>2022-03-24T10:24:03Z</time>
      </trkpt>
      <trkpt lat="48.77697" lon="1.70754">
        <ele>128.6</ele>
        <time>2022-03-24T10:24:08Z</time>
      </trkpt>
      <trkpt lat="48.77701" lon="1.70758">
        <ele>128.7</ele>
        <time>2022-03-24T10:24:12Z</time>
      </trkpt>
      <trkpt lat="48.77705" lon="1.70762">
        <ele>128.9</ele>
        <time>2022-03-24T10:24:16Z</time>
      </trkpt>
      <trkpt lat="48.77709" lon="1.70766">
        <ele>129.2</ele>
        <time>2022-03-24T10:24:21Z</time>
      </trkpt>
      <trkpt lat="48.77713" lon="1.7077">
        <ele>129.2</ele>
        <time>2022-03-24T10:24:25Z</time>
      </trkpt>
      <trkpt lat="48.77718" lon="1.70774">
        <ele>128.1</ele>
        <time>2022-03-24T10:24:31Z</time>
      </trkpt>
      <trkpt lat="48.77722" lon="1.70777">
        <ele>127.8</ele>
        <time>2022-03-24T10:24:36Z</time>
      </trkpt>
      <trkpt lat="48.77726" lon="1.70782">
        <ele>128.4</ele>
        <time>2022-03-24T10:24:40Z</time>
      </trkpt>
      <trkpt lat="48.7773" lon="1.70786">
        <ele>129</ele>
        <time>2022-03-24T10:24:46Z</time>
      </trkpt>
      <trkpt lat="48.77734" lon="1.7079">
        <ele>129.1</ele>
        <time>2022-03-24T10:24:51Z</time>
      </trkpt>
      <trkpt lat="48.77738" lon="1.70794">
        <ele>128.9</ele>
        <time>2022-03-24T10:24:56Z</time>
      </trkpt>
      <trkpt lat="48.77743" lon="1.70797">
        <ele>128.5</ele>
        <time>2022-03-24T10:25:00Z</time>
      </trkpt>
      <trkpt lat="48.77747" lon="1.70801">
        <ele>128.7</ele>
        <time>2022-03-24T10:25:05Z</time>
      </trkpt>
      <trkpt lat="48.77751" lon="1.70804">
        <ele>129.3</ele>
        <time>2022-03-24T10:25:09Z</time>
      </trkpt>
      <trkpt lat="48.77756" lon="1.70809">
        <ele>130.6</ele>
        <time>2022-03-24T10:25:14Z</time>
      </trkpt>
      <trkpt lat="48.77758" lon="1.70816">
        <ele>131</ele>
        <time>2022-03-24T10:25:19Z</time>
      </trkpt>
      <trkpt lat="48.77763" lon="1.7082">
        <ele>131.4</ele>
        <time>2022-03-24T10:25:25Z</time>
      </trkpt>
      <trkpt lat="48.77768" lon="1.70823">
        <ele>131.7</ele>
        <time>2022-03-24T10:25:31Z</time>
      </trkpt>
      <trkpt lat="48.77772" lon="1.70825">
        <ele>132</ele>
        <time>2022-03-24T10:25:36Z</time>
      </trkpt>
      <trkpt lat="48.77777" lon="1.70828">
        <ele>132.2</ele>
        <time>2022-03-24T10:25:40Z</time>
      </trkpt>
      <trkpt lat="48.77781" lon="1.70832">
        <ele>131.9</ele>
        <time>2022-03-24T10:25:45Z</time>
      </trkpt>
      <trkpt lat="48.77785" lon="1.70835">
        <ele>131</ele>
        <time>2022-03-24T10:25:50Z</time>
      </trkpt>
      <trkpt lat="48.7779" lon="1.70839">
        <ele>130.1</ele>
        <time>2022-03-24T10:25:55Z</time>
      </trkpt>
      <trkpt lat="48.77795" lon="1.70843">
        <ele>130.3</ele>
        <time>2022-03-24T10:26:00Z</time>
      </trkpt>
      <trkpt lat="48.77799" lon="1.70848">
        <ele>130.5</ele>
        <time>2022-03-24T10:26:06Z</time>
      </trkpt>
      <trkpt lat="48.77803" lon="1.70853">
        <ele>130.3</ele>
        <time>2022-03-24T10:26:11Z</time>
      </trkpt>
      <trkpt lat="48.77807" lon="1.70857">
        <ele>129.9</ele>
        <time>2022-03-24T10:26:15Z</time>
      </trkpt>
      <trkpt lat="48.77809" lon="1.70863">
        <ele>129.6</ele>
        <time>2022-03-24T10:26:20Z</time>
      </trkpt>
      <trkpt lat="48.77812" lon="1.7087">
        <ele>129.9</ele>
        <time>2022-03-24T10:26:24Z</time>
      </trkpt>
      <trkpt lat="48.77815" lon="1.70876">
        <ele>130.3</ele>
        <time>2022-03-24T10:26:29Z</time>
      </trkpt>
      <trkpt lat="48.77818" lon="1.70882">
        <ele>130.2</ele>
        <time>2022-03-24T10:26:34Z</time>
      </trkpt>
      <trkpt lat="48.77822" lon="1.70887">
        <ele>130</ele>
        <time>2022-03-24T10:26:39Z</time>
      </trkpt>
      <trkpt lat="48.77825" lon="1.70893">
        <ele>130</ele>
        <time>2022-03-24T10:26:44Z</time>
      </trkpt>
      <trkpt lat="48.77828" lon="1.70899">
        <ele>130.4</ele>
        <time>2022-03-24T10:26:48Z</time>
      </trkpt>
      <trkpt lat="48.7783" lon="1.70906">
        <ele>131.5</ele>
        <time>2022-03-24T10:26:52Z</time>
      </trkpt>
      <trkpt lat="48.77833" lon="1.70913">
        <ele>132.5</ele>
        <time>2022-03-24T10:26:56Z</time>
      </trkpt>
      <trkpt lat="48.77835" lon="1.7092">
        <ele>134.1</ele>
        <time>2022-03-24T10:27:01Z</time>
      </trkpt>
      <trkpt lat="48.77838" lon="1.70926">
        <ele>135.1</ele>
        <time>2022-03-24T10:27:05Z</time>
      </trkpt>
      <trkpt lat="48.77842" lon="1.70932">
        <ele>135.9</ele>
        <time>2022-03-24T10:27:09Z</time>
      </trkpt>
      <trkpt lat="48.77844" lon="1.70938">
        <ele>136.2</ele>
        <time>2022-03-24T10:27:13Z</time>
      </trkpt>
      <trkpt lat="48.77845" lon="1.70946">
        <ele>136.3</ele>
        <time>2022-03-24T10:27:17Z</time>
      </trkpt>
      <trkpt lat="48.77844" lon="1.70947">
        <ele>135.7</ele>
        <time>2022-03-24T10:27:59Z</time>
      </trkpt>
      <trkpt lat="48.77844" lon="1.70951">
        <ele>139.4</ele>
        <time>2022-03-24T10:50:46Z</time>
      </trkpt>
      <trkpt lat="48.77838" lon="1.70954">
        <ele>139.5</ele>
        <time>2022-03-24T10:50:54Z</time>
      </trkpt>
      <trkpt lat="48.77834" lon="1.7096">
        <ele>139.1</ele>
        <time>2022-03-24T10:50:58Z</time>
      </trkpt>
      <trkpt lat="48.7783" lon="1.70965">
        <ele>138.4</ele>
        <time>2022-03-24T10:51:01Z</time>
      </trkpt>
      <trkpt lat="48.77827" lon="1.70971">
        <ele>137.7</ele>
        <time>2022-03-24T10:51:06Z</time>
      </trkpt>
      <trkpt lat="48.77823" lon="1.70976">
        <ele>138</ele>
        <time>2022-03-24T10:51:10Z</time>
      </trkpt>
      <trkpt lat="48.77819" lon="1.70981">
        <ele>138.8</ele>
        <time>2022-03-24T10:51:14Z</time>
      </trkpt>
      <trkpt lat="48.77815" lon="1.70988">
        <ele>139.2</ele>
        <time>2022-03-24T10:51:18Z</time>
      </trkpt>
      <trkpt lat="48.77812" lon="1.70994">
        <ele>138.7</ele>
        <time>2022-03-24T10:51:23Z</time>
      </trkpt>
      <trkpt lat="48.77808" lon="1.71001">
        <ele>138.2</ele>
        <time>2022-03-24T10:51:27Z</time>
      </trkpt>
      <trkpt lat="48.77805" lon="1.71007">
        <ele>138.1</ele>
        <time>2022-03-24T10:51:31Z</time>
      </trkpt>
      <trkpt lat="48.77802" lon="1.71012">
        <ele>137.9</ele>
        <time>2022-03-24T10:51:35Z</time>
      </trkpt>
      <trkpt lat="48.77798" lon="1.71018">
        <ele>136.3</ele>
        <time>2022-03-24T10:51:39Z</time>
      </trkpt>
      <trkpt lat="48.77795" lon="1.71024">
        <ele>134.2</ele>
        <time>2022-03-24T10:51:43Z</time>
      </trkpt>
      <trkpt lat="48.77791" lon="1.71031">
        <ele>133.4</ele>
        <time>2022-03-24T10:51:47Z</time>
      </trkpt>
      <trkpt lat="48.77787" lon="1.71037">
        <ele>132.7</ele>
        <time>2022-03-24T10:51:51Z</time>
      </trkpt>
      <trkpt lat="48.77784" lon="1.71043">
        <ele>131.8</ele>
        <time>2022-03-24T10:51:56Z</time>
      </trkpt>
      <trkpt lat="48.77782" lon="1.71049">
        <ele>130.8</ele>
        <time>2022-03-24T10:52:00Z</time>
      </trkpt>
      <trkpt lat="48.77779" lon="1.71056">
        <ele>130.2</ele>
        <time>2022-03-24T10:52:04Z</time>
      </trkpt>
      <trkpt lat="48.77775" lon="1.71062">
        <ele>130.6</ele>
        <time>2022-03-24T10:52:08Z</time>
      </trkpt>
      <trkpt lat="48.77771" lon="1.71068">
        <ele>130.7</ele>
        <time>2022-03-24T10:52:12Z</time>
      </trkpt>
      <trkpt lat="48.77766" lon="1.71071">
        <ele>130.1</ele>
        <time>2022-03-24T10:52:16Z</time>
      </trkpt>
      <trkpt lat="48.77763" lon="1.71076">
        <ele>129.3</ele>
        <time>2022-03-24T10:52:19Z</time>
      </trkpt>
      <trkpt lat="48.77759" lon="1.71082">
        <ele>129.4</ele>
        <time>2022-03-24T10:52:24Z</time>
      </trkpt>
      <trkpt lat="48.77754" lon="1.71088">
        <ele>129.7</ele>
        <time>2022-03-24T10:52:29Z</time>
      </trkpt>
      <trkpt lat="48.7775" lon="1.71094">
        <ele>130.6</ele>
        <time>2022-03-24T10:52:33Z</time>
      </trkpt>
      <trkpt lat="48.77746" lon="1.71101">
        <ele>131.8</ele>
        <time>2022-03-24T10:52:38Z</time>
      </trkpt>
      <trkpt lat="48.77743" lon="1.71106">
        <ele>133.4</ele>
        <time>2022-03-24T10:52:41Z</time>
      </trkpt>
      <trkpt lat="48.77739" lon="1.71111">
        <ele>135.6</ele>
        <time>2022-03-24T10:52:45Z</time>
      </trkpt>
      <trkpt lat="48.77735" lon="1.71116">
        <ele>137</ele>
        <time>2022-03-24T10:52:48Z</time>
      </trkpt>
      <trkpt lat="48.77731" lon="1.71122">
        <ele>137.4</ele>
        <time>2022-03-24T10:52:52Z</time>
      </trkpt>
      <trkpt lat="48.77728" lon="1.71129">
        <ele>137.8</ele>
        <time>2022-03-24T10:52:57Z</time>
      </trkpt>
      <trkpt lat="48.77723" lon="1.71134">
        <ele>139.3</ele>
        <time>2022-03-24T10:53:01Z</time>
      </trkpt>
      <trkpt lat="48.77718" lon="1.71139">
        <ele>141.1</ele>
        <time>2022-03-24T10:53:06Z</time>
      </trkpt>
      <trkpt lat="48.77715" lon="1.71144">
        <ele>141.7</ele>
        <time>2022-03-24T10:53:10Z</time>
      </trkpt>
      <trkpt lat="48.77711" lon="1.71149">
        <ele>140.9</ele>
        <time>2022-03-24T10:53:14Z</time>
      </trkpt>
      <trkpt lat="48.77708" lon="1.71155">
        <ele>139.2</ele>
        <time>2022-03-24T10:53:19Z</time>
      </trkpt>
      <trkpt lat="48.77706" lon="1.71161">
        <ele>137.6</ele>
        <time>2022-03-24T10:53:23Z</time>
      </trkpt>
      <trkpt lat="48.77702" lon="1.71167">
        <ele>136.8</ele>
        <time>2022-03-24T10:53:28Z</time>
      </trkpt>
      <trkpt lat="48.777" lon="1.71173">
        <ele>136.5</ele>
        <time>2022-03-24T10:53:33Z</time>
      </trkpt>
      <trkpt lat="48.77697" lon="1.71178">
        <ele>136.2</ele>
        <time>2022-03-24T10:53:37Z</time>
      </trkpt>
      <trkpt lat="48.77694" lon="1.71184">
        <ele>136.6</ele>
        <time>2022-03-24T10:53:42Z</time>
      </trkpt>
      <trkpt lat="48.7769" lon="1.71189">
        <ele>136.4</ele>
        <time>2022-03-24T10:53:47Z</time>
      </trkpt>
      <trkpt lat="48.77686" lon="1.71195">
        <ele>135.1</ele>
        <time>2022-03-24T10:53:52Z</time>
      </trkpt>
      <trkpt lat="48.77684" lon="1.71201">
        <ele>133.8</ele>
        <time>2022-03-24T10:53:58Z</time>
      </trkpt>
      <trkpt lat="48.77681" lon="1.71207">
        <ele>133.7</ele>
        <time>2022-03-24T10:54:01Z</time>
      </trkpt>
      <trkpt lat="48.77678" lon="1.71215">
        <ele>133.2</ele>
        <time>2022-03-24T10:54:05Z</time>
      </trkpt>
      <trkpt lat="48.77679" lon="1.71222">
        <ele>132.6</ele>
        <time>2022-03-24T10:54:10Z</time>
      </trkpt>
      <trkpt lat="48.7768" lon="1.71229">
        <ele>132.9</ele>
        <time>2022-03-24T10:54:14Z</time>
      </trkpt>
      <trkpt lat="48.77683" lon="1.71235">
        <ele>133.8</ele>
        <time>2022-03-24T10:54:18Z</time>
      </trkpt>
      <trkpt lat="48.77686" lon="1.7124">
        <ele>134.7</ele>
        <time>2022-03-24T10:54:23Z</time>
      </trkpt>
      <trkpt lat="48.77687" lon="1.71247">
        <ele>135.9</ele>
        <time>2022-03-24T10:54:28Z</time>
      </trkpt>
      <trkpt lat="48.7769" lon="1.71254">
        <ele>136.4</ele>
        <time>2022-03-24T10:54:33Z</time>
      </trkpt>
      <trkpt lat="48.77692" lon="1.71262">
        <ele>136.8</ele>
        <time>2022-03-24T10:54:39Z</time>
      </trkpt>
      <trkpt lat="48.77693" lon="1.7127">
        <ele>138.1</ele>
        <time>2022-03-24T10:54:43Z</time>
      </trkpt>
      <trkpt lat="48.77694" lon="1.71277">
        <ele>140.1</ele>
        <time>2022-03-24T10:54:48Z</time>
      </trkpt>
      <trkpt lat="48.77696" lon="1.71284">
        <ele>141.9</ele>
        <time>2022-03-24T10:54:52Z</time>
      </trkpt>
      <trkpt lat="48.77699" lon="1.7129">
        <ele>142.3</ele>
        <time>2022-03-24T10:54:57Z</time>
      </trkpt>
      <trkpt lat="48.77701" lon="1.71298">
        <ele>142.2</ele>
        <time>2022-03-24T10:55:01Z</time>
      </trkpt>
      <trkpt lat="48.77702" lon="1.71307">
        <ele>142.7</ele>
        <time>2022-03-24T10:55:05Z</time>
      </trkpt>
      <trkpt lat="48.77705" lon="1.71314">
        <ele>145.2</ele>
        <time>2022-03-24T10:55:10Z</time>
      </trkpt>
      <trkpt lat="48.77708" lon="1.71322">
        <ele>147.6</ele>
        <time>2022-03-24T10:55:15Z</time>
      </trkpt>
      <trkpt lat="48.77707" lon="1.71329">
        <ele>147.2</ele>
        <time>2022-03-24T10:55:22Z</time>
      </trkpt>
      <trkpt lat="48.77708" lon="1.71337">
        <ele>146.9</ele>
        <time>2022-03-24T10:55:29Z</time>
      </trkpt>
      <trkpt lat="48.77708" lon="1.71345">
        <ele>146.8</ele>
        <time>2022-03-24T10:55:33Z</time>
      </trkpt>
      <trkpt lat="48.7771" lon="1.71351">
        <ele>146.2</ele>
        <time>2022-03-24T10:55:37Z</time>
      </trkpt>
      <trkpt lat="48.77714" lon="1.71357">
        <ele>145.4</ele>
        <time>2022-03-24T10:55:41Z</time>
      </trkpt>
      <trkpt lat="48.77716" lon="1.71363">
        <ele>145.5</ele>
        <time>2022-03-24T10:55:44Z</time>
      </trkpt>
      <trkpt lat="48.77718" lon="1.7137">
        <ele>146.8</ele>
        <time>2022-03-24T10:55:49Z</time>
      </trkpt>
      <trkpt lat="48.77719" lon="1.71377">
        <ele>147.2</ele>
        <time>2022-03-24T10:55:53Z</time>
      </trkpt>
      <trkpt lat="48.77719" lon="1.71386">
        <ele>147.3</ele>
        <time>2022-03-24T10:55:57Z</time>
      </trkpt>
      <trkpt lat="48.7772" lon="1.71395">
        <ele>147.9</ele>
        <time>2022-03-24T10:56:01Z</time>
      </trkpt>
      <trkpt lat="48.77722" lon="1.71402">
        <ele>149.5</ele>
        <time>2022-03-24T10:56:06Z</time>
      </trkpt>
      <trkpt lat="48.77724" lon="1.71409">
        <ele>151.4</ele>
        <time>2022-03-24T10:56:10Z</time>
      </trkpt>
      <trkpt lat="48.77726" lon="1.71417">
        <ele>152.5</ele>
        <time>2022-03-24T10:56:14Z</time>
      </trkpt>
      <trkpt lat="48.77727" lon="1.71425">
        <ele>152.8</ele>
        <time>2022-03-24T10:56:19Z</time>
      </trkpt>
      <trkpt lat="48.77727" lon="1.71434">
        <ele>152.3</ele>
        <time>2022-03-24T10:56:23Z</time>
      </trkpt>
      <trkpt lat="48.77728" lon="1.71442">
        <ele>150.8</ele>
        <time>2022-03-24T10:56:27Z</time>
      </trkpt>
      <trkpt lat="48.7773" lon="1.71449">
        <ele>149.5</ele>
        <time>2022-03-24T10:56:31Z</time>
      </trkpt>
      <trkpt lat="48.77733" lon="1.71456">
        <ele>148.7</ele>
        <time>2022-03-24T10:56:36Z</time>
      </trkpt>
      <trkpt lat="48.77735" lon="1.71464">
        <ele>148.9</ele>
        <time>2022-03-24T10:56:41Z</time>
      </trkpt>
      <trkpt lat="48.77736" lon="1.71471">
        <ele>149.7</ele>
        <time>2022-03-24T10:56:45Z</time>
      </trkpt>
      <trkpt lat="48.77735" lon="1.71479">
        <ele>151.4</ele>
        <time>2022-03-24T10:56:50Z</time>
      </trkpt>
      <trkpt lat="48.77737" lon="1.71486">
        <ele>152.3</ele>
        <time>2022-03-24T10:56:55Z</time>
      </trkpt>
      <trkpt lat="48.77739" lon="1.71493">
        <ele>152.4</ele>
        <time>2022-03-24T10:57:00Z</time>
      </trkpt>
      <trkpt lat="48.77742" lon="1.71501">
        <ele>152.9</ele>
        <time>2022-03-24T10:57:04Z</time>
      </trkpt>
      <trkpt lat="48.77744" lon="1.71508">
        <ele>153.6</ele>
        <time>2022-03-24T10:57:10Z</time>
      </trkpt>
      <trkpt lat="48.77747" lon="1.71515">
        <ele>154.9</ele>
        <time>2022-03-24T10:57:15Z</time>
      </trkpt>
      <trkpt lat="48.7775" lon="1.71521">
        <ele>156</ele>
        <time>2022-03-24T10:57:20Z</time>
      </trkpt>
      <trkpt lat="48.77752" lon="1.71528">
        <ele>157.3</ele>
        <time>2022-03-24T10:57:25Z</time>
      </trkpt>
      <trkpt lat="48.77752" lon="1.71537">
        <ele>158.2</ele>
        <time>2022-03-24T10:57:31Z</time>
      </trkpt>
      <trkpt lat="48.77754" lon="1.71545">
        <ele>157.5</ele>
        <time>2022-03-24T10:57:35Z</time>
      </trkpt>
      <trkpt lat="48.77756" lon="1.71551">
        <ele>156.5</ele>
        <time>2022-03-24T10:57:39Z</time>
      </trkpt>
      <trkpt lat="48.77758" lon="1.71558">
        <ele>155.8</ele>
        <time>2022-03-24T10:57:45Z</time>
      </trkpt>
      <trkpt lat="48.7776" lon="1.71565">
        <ele>155.5</ele>
        <time>2022-03-24T10:57:49Z</time>
      </trkpt>
      <trkpt lat="48.77761" lon="1.71572">
        <ele>155.3</ele>
        <time>2022-03-24T10:57:54Z</time>
      </trkpt>
      <trkpt lat="48.77762" lon="1.71579">
        <ele>155.4</ele>
        <time>2022-03-24T10:57:58Z</time>
      </trkpt>
      <trkpt lat="48.77763" lon="1.71586">
        <ele>154.7</ele>
        <time>2022-03-24T10:58:02Z</time>
      </trkpt>
      <trkpt lat="48.77764" lon="1.71594">
        <ele>154.3</ele>
        <time>2022-03-24T10:58:07Z</time>
      </trkpt>
      <trkpt lat="48.77765" lon="1.71602">
        <ele>153.6</ele>
        <time>2022-03-24T10:58:11Z</time>
      </trkpt>
      <trkpt lat="48.77767" lon="1.7161">
        <ele>153</ele>
        <time>2022-03-24T10:58:16Z</time>
      </trkpt>
      <trkpt lat="48.77768" lon="1.71618">
        <ele>153.1</ele>
        <time>2022-03-24T10:58:21Z</time>
      </trkpt>
      <trkpt lat="48.7777" lon="1.71625">
        <ele>152.4</ele>
        <time>2022-03-24T10:58:26Z</time>
      </trkpt>
      <trkpt lat="48.77773" lon="1.71633">
        <ele>152</ele>
        <time>2022-03-24T10:58:31Z</time>
      </trkpt>
      <trkpt lat="48.77775" lon="1.71638">
        <ele>153</ele>
        <time>2022-03-24T10:58:35Z</time>
      </trkpt>
      <trkpt lat="48.77778" lon="1.71646">
        <ele>154.9</ele>
        <time>2022-03-24T10:58:39Z</time>
      </trkpt>
      <trkpt lat="48.77778" lon="1.71653">
        <ele>157.1</ele>
        <time>2022-03-24T10:58:44Z</time>
      </trkpt>
      <trkpt lat="48.77778" lon="1.71661">
        <ele>158.7</ele>
        <time>2022-03-24T10:58:48Z</time>
      </trkpt>
      <trkpt lat="48.7778" lon="1.71668">
        <ele>159.8</ele>
        <time>2022-03-24T10:58:53Z</time>
      </trkpt>
      <trkpt lat="48.77781" lon="1.71675">
        <ele>160.3</ele>
        <time>2022-03-24T10:58:57Z</time>
      </trkpt>
      <trkpt lat="48.77782" lon="1.71683">
        <ele>160.8</ele>
        <time>2022-03-24T10:59:02Z</time>
      </trkpt>
      <trkpt lat="48.77783" lon="1.71691">
        <ele>161.7</ele>
        <time>2022-03-24T10:59:07Z</time>
      </trkpt>
      <trkpt lat="48.77785" lon="1.71697">
        <ele>162.5</ele>
        <time>2022-03-24T10:59:11Z</time>
      </trkpt>
      <trkpt lat="48.77788" lon="1.71704">
        <ele>163.9</ele>
        <time>2022-03-24T10:59:17Z</time>
      </trkpt>
      <trkpt lat="48.7779" lon="1.71712">
        <ele>165.1</ele>
        <time>2022-03-24T10:59:23Z</time>
      </trkpt>
      <trkpt lat="48.77791" lon="1.71719">
        <ele>165.9</ele>
        <time>2022-03-24T10:59:27Z</time>
      </trkpt>
      <trkpt lat="48.77792" lon="1.71726">
        <ele>167.1</ele>
        <time>2022-03-24T10:59:33Z</time>
      </trkpt>
      <trkpt lat="48.77793" lon="1.71734">
        <ele>168.7</ele>
        <time>2022-03-24T10:59:39Z</time>
      </trkpt>
      <trkpt lat="48.77795" lon="1.71741">
        <ele>170.1</ele>
        <time>2022-03-24T10:59:44Z</time>
      </trkpt>
      <trkpt lat="48.77797" lon="1.71749">
        <ele>171.4</ele>
        <time>2022-03-24T10:59:51Z</time>
      </trkpt>
      <trkpt lat="48.778" lon="1.71756">
        <ele>173</ele>
        <time>2022-03-24T10:59:57Z</time>
      </trkpt>
      <trkpt lat="48.778" lon="1.71763">
        <ele>174.6</ele>
        <time>2022-03-24T11:00:03Z</time>
      </trkpt>
      <trkpt lat="48.778" lon="1.71771">
        <ele>175.8</ele>
        <time>2022-03-24T11:00:10Z</time>
      </trkpt>
      <trkpt lat="48.77802" lon="1.71779">
        <ele>175.7</ele>
        <time>2022-03-24T11:00:15Z</time>
      </trkpt>
      <trkpt lat="48.77804" lon="1.71785">
        <ele>174.1</ele>
        <time>2022-03-24T11:00:21Z</time>
      </trkpt>
      <trkpt lat="48.77808" lon="1.71792">
        <ele>174.8</ele>
        <time>2022-03-24T11:00:28Z</time>
      </trkpt>
      <trkpt lat="48.7781" lon="1.71798">
        <ele>176.2</ele>
        <time>2022-03-24T11:00:38Z</time>
      </trkpt>
      <trkpt lat="48.77811" lon="1.71806">
        <ele>176.6</ele>
        <time>2022-03-24T11:00:57Z</time>
      </trkpt>
      <trkpt lat="48.77813" lon="1.71813">
        <ele>176.9</ele>
        <time>2022-03-24T11:01:04Z</time>
      </trkpt>
      <trkpt lat="48.77813" lon="1.71821">
        <ele>177.8</ele>
        <time>2022-03-24T11:01:34Z</time>
      </trkpt>
      <trkpt lat="48.77814" lon="1.71828">
        <ele>177.5</ele>
        <time>2022-03-24T11:01:40Z</time>
      </trkpt>
      <trkpt lat="48.77816" lon="1.71836">
        <ele>177.2</ele>
        <time>2022-03-24T11:01:46Z</time>
      </trkpt>
      <trkpt lat="48.77816" lon="1.71843">
        <ele>176.9</ele>
        <time>2022-03-24T11:01:53Z</time>
      </trkpt>
      <trkpt lat="48.77816" lon="1.7185">
        <ele>178.3</ele>
        <time>2022-03-24T11:01:59Z</time>
      </trkpt>
      <trkpt lat="48.77818" lon="1.71857">
        <ele>179.8</ele>
        <time>2022-03-24T11:02:06Z</time>
      </trkpt>
      <trkpt lat="48.77819" lon="1.71864">
        <ele>180</ele>
        <time>2022-03-24T11:02:13Z</time>
      </trkpt>
      <trkpt lat="48.77821" lon="1.71871">
        <ele>178.7</ele>
        <time>2022-03-24T11:02:23Z</time>
      </trkpt>
      <trkpt lat="48.77822" lon="1.71878">
        <ele>180</ele>
        <time>2022-03-24T11:02:28Z</time>
      </trkpt>
      <trkpt lat="48.77821" lon="1.71886">
        <ele>182.2</ele>
        <time>2022-03-24T11:02:33Z</time>
      </trkpt>
      <trkpt lat="48.7782" lon="1.71893">
        <ele>183</ele>
        <time>2022-03-24T11:02:39Z</time>
      </trkpt>
      <trkpt lat="48.7782" lon="1.719">
        <ele>183.9</ele>
        <time>2022-03-24T11:02:47Z</time>
      </trkpt>
      <trkpt lat="48.77819" lon="1.71907">
        <ele>185.9</ele>
        <time>2022-03-24T11:02:54Z</time>
      </trkpt>
      <trkpt lat="48.7782" lon="1.71914">
        <ele>184.9</ele>
        <time>2022-03-24T11:03:01Z</time>
      </trkpt>
      <trkpt lat="48.7782" lon="1.71921">
        <ele>182.3</ele>
        <time>2022-03-24T11:03:08Z</time>
      </trkpt>
      <trkpt lat="48.77819" lon="1.71929">
        <ele>177.9</ele>
        <time>2022-03-24T11:04:40Z</time>
      </trkpt>
      <trkpt lat="48.77817" lon="1.71938">
        <ele>178</ele>
        <time>2022-03-24T11:04:45Z</time>
      </trkpt>
      <trkpt lat="48.77815" lon="1.71946">
        <ele>178.3</ele>
        <time>2022-03-24T11:04:48Z</time>
      </trkpt>
      <trkpt lat="48.77813" lon="1.71953">
        <ele>179.2</ele>
        <time>2022-03-24T11:04:51Z</time>
      </trkpt>
      <trkpt lat="48.77811" lon="1.71962">
        <ele>179.6</ele>
        <time>2022-03-24T11:04:56Z</time>
      </trkpt>
      <trkpt lat="48.7781" lon="1.71969">
        <ele>179.5</ele>
        <time>2022-03-24T11:05:01Z</time>
      </trkpt>
      <trkpt lat="48.77809" lon="1.71977">
        <ele>179.5</ele>
        <time>2022-03-24T11:05:05Z</time>
      </trkpt>
      <trkpt lat="48.77809" lon="1.71985">
        <ele>179.9</ele>
        <time>2022-03-24T11:05:09Z</time>
      </trkpt>
      <trkpt lat="48.77808" lon="1.71993">
        <ele>180.1</ele>
        <time>2022-03-24T11:05:14Z</time>
      </trkpt>
      <trkpt lat="48.77809" lon="1.72">
        <ele>180</ele>
        <time>2022-03-24T11:05:17Z</time>
      </trkpt>
      <trkpt lat="48.77807" lon="1.72009">
        <ele>179.3</ele>
        <time>2022-03-24T11:05:21Z</time>
      </trkpt>
      <trkpt lat="48.77806" lon="1.72016">
        <ele>180.1</ele>
        <time>2022-03-24T11:05:26Z</time>
      </trkpt>
      <trkpt lat="48.77804" lon="1.72023">
        <ele>180.9</ele>
        <time>2022-03-24T11:05:30Z</time>
      </trkpt>
      <trkpt lat="48.77803" lon="1.7203">
        <ele>180.8</ele>
        <time>2022-03-24T11:05:34Z</time>
      </trkpt>
      <trkpt lat="48.77803" lon="1.72037">
        <ele>180.8</ele>
        <time>2022-03-24T11:05:37Z</time>
      </trkpt>
      <trkpt lat="48.77802" lon="1.72045">
        <ele>180.6</ele>
        <time>2022-03-24T11:05:41Z</time>
      </trkpt>
      <trkpt lat="48.778" lon="1.72052">
        <ele>180</ele>
        <time>2022-03-24T11:05:45Z</time>
      </trkpt>
      <trkpt lat="48.77799" lon="1.7206">
        <ele>179.9</ele>
        <time>2022-03-24T11:05:48Z</time>
      </trkpt>
      <trkpt lat="48.77798" lon="1.72067">
        <ele>180.2</ele>
        <time>2022-03-24T11:05:52Z</time>
      </trkpt>
      <trkpt lat="48.77798" lon="1.72075">
        <ele>180.9</ele>
        <time>2022-03-24T11:05:56Z</time>
      </trkpt>
      <trkpt lat="48.77797" lon="1.72082">
        <ele>181.6</ele>
        <time>2022-03-24T11:06:00Z</time>
      </trkpt>
      <trkpt lat="48.77796" lon="1.7209">
        <ele>182.3</ele>
        <time>2022-03-24T11:06:05Z</time>
      </trkpt>
      <trkpt lat="48.77794" lon="1.72096">
        <ele>182.3</ele>
        <time>2022-03-24T11:06:09Z</time>
      </trkpt>
      <trkpt lat="48.77792" lon="1.72104">
        <ele>182.1</ele>
        <time>2022-03-24T11:06:13Z</time>
      </trkpt>
      <trkpt lat="48.7779" lon="1.72111">
        <ele>181.9</ele>
        <time>2022-03-24T11:06:17Z</time>
      </trkpt>
      <trkpt lat="48.77789" lon="1.72119">
        <ele>181.6</ele>
        <time>2022-03-24T11:06:21Z</time>
      </trkpt>
      <trkpt lat="48.77788" lon="1.72126">
        <ele>181.6</ele>
        <time>2022-03-24T11:06:24Z</time>
      </trkpt>
      <trkpt lat="48.77788" lon="1.72134">
        <ele>181.7</ele>
        <time>2022-03-24T11:06:28Z</time>
      </trkpt>
      <trkpt lat="48.77787" lon="1.72141">
        <ele>182.2</ele>
        <time>2022-03-24T11:06:31Z</time>
      </trkpt>
      <trkpt lat="48.77786" lon="1.72148">
        <ele>182.9</ele>
        <time>2022-03-24T11:06:35Z</time>
      </trkpt>
      <trkpt lat="48.77783" lon="1.72157">
        <ele>182.9</ele>
        <time>2022-03-24T11:06:40Z</time>
      </trkpt>
      <trkpt lat="48.77782" lon="1.72164">
        <ele>182.4</ele>
        <time>2022-03-24T11:06:44Z</time>
      </trkpt>
      <trkpt lat="48.77781" lon="1.72171">
        <ele>181.2</ele>
        <time>2022-03-24T11:06:48Z</time>
      </trkpt>
      <trkpt lat="48.7778" lon="1.72178">
        <ele>181.3</ele>
        <time>2022-03-24T11:06:52Z</time>
      </trkpt>
      <trkpt lat="48.77779" lon="1.72186">
        <ele>182.3</ele>
        <time>2022-03-24T11:06:56Z</time>
      </trkpt>
      <trkpt lat="48.7778" lon="1.72194">
        <ele>182.6</ele>
        <time>2022-03-24T11:07:00Z</time>
      </trkpt>
      <trkpt lat="48.77779" lon="1.72202">
        <ele>182.4</ele>
        <time>2022-03-24T11:07:04Z</time>
      </trkpt>
      <trkpt lat="48.77778" lon="1.72209">
        <ele>182</ele>
        <time>2022-03-24T11:07:09Z</time>
      </trkpt>
      <trkpt lat="48.77778" lon="1.72216">
        <ele>181.7</ele>
        <time>2022-03-24T11:07:12Z</time>
      </trkpt>
      <trkpt lat="48.77777" lon="1.72223">
        <ele>181.6</ele>
        <time>2022-03-24T11:07:17Z</time>
      </trkpt>
      <trkpt lat="48.77776" lon="1.72231">
        <ele>181.7</ele>
        <time>2022-03-24T11:07:21Z</time>
      </trkpt>
      <trkpt lat="48.77776" lon="1.72239">
        <ele>181.4</ele>
        <time>2022-03-24T11:07:26Z</time>
      </trkpt>
      <trkpt lat="48.77775" lon="1.72246">
        <ele>181.4</ele>
        <time>2022-03-24T11:07:30Z</time>
      </trkpt>
      <trkpt lat="48.77774" lon="1.72254">
        <ele>181.3</ele>
        <time>2022-03-24T11:07:34Z</time>
      </trkpt>
      <trkpt lat="48.77773" lon="1.72262">
        <ele>179.6</ele>
        <time>2022-03-24T11:07:38Z</time>
      </trkpt>
      <trkpt lat="48.77773" lon="1.72269">
        <ele>178.1</ele>
        <time>2022-03-24T11:07:42Z</time>
      </trkpt>
      <trkpt lat="48.77771" lon="1.72276">
        <ele>178</ele>
        <time>2022-03-24T11:07:45Z</time>
      </trkpt>
      <trkpt lat="48.77769" lon="1.72284">
        <ele>178.8</ele>
        <time>2022-03-24T11:07:49Z</time>
      </trkpt>
      <trkpt lat="48.77768" lon="1.72292">
        <ele>179</ele>
        <time>2022-03-24T11:07:53Z</time>
      </trkpt>
      <trkpt lat="48.77767" lon="1.723">
        <ele>179.3</ele>
        <time>2022-03-24T11:07:57Z</time>
      </trkpt>
      <trkpt lat="48.77767" lon="1.72307">
        <ele>179.1</ele>
        <time>2022-03-24T11:08:01Z</time>
      </trkpt>
      <trkpt lat="48.77767" lon="1.72315">
        <ele>179.9</ele>
        <time>2022-03-24T11:08:05Z</time>
      </trkpt>
      <trkpt lat="48.77765" lon="1.72322">
        <ele>181.1</ele>
        <time>2022-03-24T11:08:09Z</time>
      </trkpt>
      <trkpt lat="48.77763" lon="1.7233">
        <ele>182</ele>
        <time>2022-03-24T11:08:13Z</time>
      </trkpt>
      <trkpt lat="48.77763" lon="1.72337">
        <ele>182.8</ele>
        <time>2022-03-24T11:08:17Z</time>
      </trkpt>
      <trkpt lat="48.77761" lon="1.72345">
        <ele>183</ele>
        <time>2022-03-24T11:08:21Z</time>
      </trkpt>
      <trkpt lat="48.77761" lon="1.72353">
        <ele>182.6</ele>
        <time>2022-03-24T11:08:25Z</time>
      </trkpt>
      <trkpt lat="48.77758" lon="1.7236">
        <ele>181.4</ele>
        <time>2022-03-24T11:08:29Z</time>
      </trkpt>
      <trkpt lat="48.77756" lon="1.72368">
        <ele>180.9</ele>
        <time>2022-03-24T11:08:33Z</time>
      </trkpt>
      <trkpt lat="48.77755" lon="1.72375">
        <ele>180.1</ele>
        <time>2022-03-24T11:08:37Z</time>
      </trkpt>
      <trkpt lat="48.77753" lon="1.72382">
        <ele>179.5</ele>
        <time>2022-03-24T11:08:41Z</time>
      </trkpt>
      <trkpt lat="48.77752" lon="1.7239">
        <ele>179.3</ele>
        <time>2022-03-24T11:08:45Z</time>
      </trkpt>
      <trkpt lat="48.77751" lon="1.72398">
        <ele>179.9</ele>
        <time>2022-03-24T11:08:49Z</time>
      </trkpt>
      <trkpt lat="48.77751" lon="1.72407">
        <ele>181.3</ele>
        <time>2022-03-24T11:08:53Z</time>
      </trkpt>
      <trkpt lat="48.7775" lon="1.72415">
        <ele>181.9</ele>
        <time>2022-03-24T11:08:57Z</time>
      </trkpt>
      <trkpt lat="48.77748" lon="1.72423">
        <ele>181.6</ele>
        <time>2022-03-24T11:09:01Z</time>
      </trkpt>
      <trkpt lat="48.77746" lon="1.72429">
        <ele>180.9</ele>
        <time>2022-03-24T11:09:05Z</time>
      </trkpt>
      <trkpt lat="48.77743" lon="1.72436">
        <ele>179.6</ele>
        <time>2022-03-24T11:09:09Z</time>
      </trkpt>
      <trkpt lat="48.77744" lon="1.72443">
        <ele>178.7</ele>
        <time>2022-03-24T11:09:13Z</time>
      </trkpt>
      <trkpt lat="48.77745" lon="1.7245">
        <ele>178.5</ele>
        <time>2022-03-24T11:09:18Z</time>
      </trkpt>
      <trkpt lat="48.77747" lon="1.72458">
        <ele>178.5</ele>
        <time>2022-03-24T11:09:22Z</time>
      </trkpt>
      <trkpt lat="48.77747" lon="1.72466">
        <ele>179.5</ele>
        <time>2022-03-24T11:09:26Z</time>
      </trkpt>
      <trkpt lat="48.77744" lon="1.72473">
        <ele>181.9</ele>
        <time>2022-03-24T11:09:31Z</time>
      </trkpt>
      <trkpt lat="48.7774" lon="1.7248">
        <ele>183.6</ele>
        <time>2022-03-24T11:09:35Z</time>
      </trkpt>
      <trkpt lat="48.77738" lon="1.72487">
        <ele>183.3</ele>
        <time>2022-03-24T11:09:40Z</time>
      </trkpt>
      <trkpt lat="48.77739" lon="1.72495">
        <ele>183.2</ele>
        <time>2022-03-24T11:09:45Z</time>
      </trkpt>
      <trkpt lat="48.7774" lon="1.72502">
        <ele>182.7</ele>
        <time>2022-03-24T11:09:50Z</time>
      </trkpt>
      <trkpt lat="48.77741" lon="1.72509">
        <ele>182.3</ele>
        <time>2022-03-24T11:09:54Z</time>
      </trkpt>
      <trkpt lat="48.77741" lon="1.72517">
        <ele>181.5</ele>
        <time>2022-03-24T11:09:58Z</time>
      </trkpt>
      <trkpt lat="48.77738" lon="1.72524">
        <ele>181.2</ele>
        <time>2022-03-24T11:10:03Z</time>
      </trkpt>
      <trkpt lat="48.77736" lon="1.72531">
        <ele>181.1</ele>
        <time>2022-03-24T11:10:07Z</time>
      </trkpt>
      <trkpt lat="48.77735" lon="1.72538">
        <ele>181.2</ele>
        <time>2022-03-24T11:10:11Z</time>
      </trkpt>
      <trkpt lat="48.77735" lon="1.72546">
        <ele>181.5</ele>
        <time>2022-03-24T11:10:16Z</time>
      </trkpt>
      <trkpt lat="48.77734" lon="1.72552">
        <ele>181.5</ele>
        <time>2022-03-24T11:10:19Z</time>
      </trkpt>
      <trkpt lat="48.77733" lon="1.72559">
        <ele>181.2</ele>
        <time>2022-03-24T11:10:23Z</time>
      </trkpt>
      <trkpt lat="48.77732" lon="1.72567">
        <ele>180.9</ele>
        <time>2022-03-24T11:10:27Z</time>
      </trkpt>
      <trkpt lat="48.7773" lon="1.72574">
        <ele>180.8</ele>
        <time>2022-03-24T11:10:31Z</time>
      </trkpt>
      <trkpt lat="48.77729" lon="1.72581">
        <ele>180.5</ele>
        <time>2022-03-24T11:10:35Z</time>
      </trkpt>
      <trkpt lat="48.77728" lon="1.72589">
        <ele>180.8</ele>
        <time>2022-03-24T11:10:39Z</time>
      </trkpt>
      <trkpt lat="48.77727" lon="1.72596">
        <ele>180.9</ele>
        <time>2022-03-24T11:10:43Z</time>
      </trkpt>
      <trkpt lat="48.77725" lon="1.72602">
        <ele>180.8</ele>
        <time>2022-03-24T11:10:47Z</time>
      </trkpt>
      <trkpt lat="48.77724" lon="1.7261">
        <ele>180.2</ele>
        <time>2022-03-24T11:10:51Z</time>
      </trkpt>
      <trkpt lat="48.77723" lon="1.72617">
        <ele>180.2</ele>
        <time>2022-03-24T11:10:55Z</time>
      </trkpt>
      <trkpt lat="48.77722" lon="1.72626">
        <ele>181.2</ele>
        <time>2022-03-24T11:10:59Z</time>
      </trkpt>
      <trkpt lat="48.77721" lon="1.72634">
        <ele>182.4</ele>
        <time>2022-03-24T11:11:03Z</time>
      </trkpt>
      <trkpt lat="48.7772" lon="1.72642">
        <ele>182.7</ele>
        <time>2022-03-24T11:11:07Z</time>
      </trkpt>
      <trkpt lat="48.77718" lon="1.72649">
        <ele>181.8</ele>
        <time>2022-03-24T11:11:11Z</time>
      </trkpt>
      <trkpt lat="48.77717" lon="1.72656">
        <ele>181.3</ele>
        <time>2022-03-24T11:11:15Z</time>
      </trkpt>
      <trkpt lat="48.77716" lon="1.72663">
        <ele>181.5</ele>
        <time>2022-03-24T11:11:19Z</time>
      </trkpt>
      <trkpt lat="48.77715" lon="1.72671">
        <ele>181.4</ele>
        <time>2022-03-24T11:11:23Z</time>
      </trkpt>
      <trkpt lat="48.77714" lon="1.72679">
        <ele>181.3</ele>
        <time>2022-03-24T11:11:27Z</time>
      </trkpt>
      <trkpt lat="48.77714" lon="1.72686">
        <ele>181.4</ele>
        <time>2022-03-24T11:11:30Z</time>
      </trkpt>
      <trkpt lat="48.77713" lon="1.72696">
        <ele>182</ele>
        <time>2022-03-24T11:11:35Z</time>
      </trkpt>
      <trkpt lat="48.77712" lon="1.72703">
        <ele>182.2</ele>
        <time>2022-03-24T11:11:39Z</time>
      </trkpt>
      <trkpt lat="48.77711" lon="1.72711">
        <ele>182</ele>
        <time>2022-03-24T11:11:43Z</time>
      </trkpt>
      <trkpt lat="48.7771" lon="1.72719">
        <ele>181.4</ele>
        <time>2022-03-24T11:11:47Z</time>
      </trkpt>
      <trkpt lat="48.77709" lon="1.72727">
        <ele>180.6</ele>
        <time>2022-03-24T11:11:51Z</time>
      </trkpt>
      <trkpt lat="48.77709" lon="1.72735">
        <ele>179.9</ele>
        <time>2022-03-24T11:11:55Z</time>
      </trkpt>
      <trkpt lat="48.77708" lon="1.72742">
        <ele>180.2</ele>
        <time>2022-03-24T11:11:58Z</time>
      </trkpt>
      <trkpt lat="48.77706" lon="1.7275">
        <ele>181</ele>
        <time>2022-03-24T11:12:03Z</time>
      </trkpt>
      <trkpt lat="48.77704" lon="1.72757">
        <ele>181.6</ele>
        <time>2022-03-24T11:12:07Z</time>
      </trkpt>
      <trkpt lat="48.77703" lon="1.72765">
        <ele>181.5</ele>
        <time>2022-03-24T11:12:12Z</time>
      </trkpt>
      <trkpt lat="48.77702" lon="1.72774">
        <ele>181.7</ele>
        <time>2022-03-24T11:12:16Z</time>
      </trkpt>
      <trkpt lat="48.77701" lon="1.72782">
        <ele>181.4</ele>
        <time>2022-03-24T11:12:21Z</time>
      </trkpt>
      <trkpt lat="48.77699" lon="1.7279">
        <ele>180.8</ele>
        <time>2022-03-24T11:12:25Z</time>
      </trkpt>
      <trkpt lat="48.77697" lon="1.72796">
        <ele>180.2</ele>
        <time>2022-03-24T11:12:29Z</time>
      </trkpt>
      <trkpt lat="48.77697" lon="1.72805">
        <ele>178.3</ele>
        <time>2022-03-24T11:12:35Z</time>
      </trkpt>
      <trkpt lat="48.77698" lon="1.72813">
        <ele>177.4</ele>
        <time>2022-03-24T11:12:39Z</time>
      </trkpt>
      <trkpt lat="48.77696" lon="1.72821">
        <ele>177.9</ele>
        <time>2022-03-24T11:12:43Z</time>
      </trkpt>
      <trkpt lat="48.77694" lon="1.72827">
        <ele>178</ele>
        <time>2022-03-24T11:12:47Z</time>
      </trkpt>
      <trkpt lat="48.77692" lon="1.72834">
        <ele>177.7</ele>
        <time>2022-03-24T11:12:51Z</time>
      </trkpt>
      <trkpt lat="48.77691" lon="1.72842">
        <ele>178.3</ele>
        <time>2022-03-24T11:12:56Z</time>
      </trkpt>
      <trkpt lat="48.7769" lon="1.7285">
        <ele>180</ele>
        <time>2022-03-24T11:12:59Z</time>
      </trkpt>
      <trkpt lat="48.77689" lon="1.72859">
        <ele>181.3</ele>
        <time>2022-03-24T11:13:04Z</time>
      </trkpt>
      <trkpt lat="48.77688" lon="1.72866">
        <ele>182.3</ele>
        <time>2022-03-24T11:13:07Z</time>
      </trkpt>
      <trkpt lat="48.77688" lon="1.72873">
        <ele>183</ele>
        <time>2022-03-24T11:13:11Z</time>
      </trkpt>
      <trkpt lat="48.77688" lon="1.72882">
        <ele>182.1</ele>
        <time>2022-03-24T11:13:15Z</time>
      </trkpt>
      <trkpt lat="48.77687" lon="1.72889">
        <ele>180.3</ele>
        <time>2022-03-24T11:13:19Z</time>
      </trkpt>
      <trkpt lat="48.77686" lon="1.72897">
        <ele>178.8</ele>
        <time>2022-03-24T11:13:23Z</time>
      </trkpt>
      <trkpt lat="48.77685" lon="1.72903">
        <ele>178.6</ele>
        <time>2022-03-24T11:13:26Z</time>
      </trkpt>
      <trkpt lat="48.77683" lon="1.7291">
        <ele>179</ele>
        <time>2022-03-24T11:13:30Z</time>
      </trkpt>
      <trkpt lat="48.77682" lon="1.72916">
        <ele>180.4</ele>
        <time>2022-03-24T11:13:33Z</time>
      </trkpt>
      <trkpt lat="48.7768" lon="1.72924">
        <ele>181.9</ele>
        <time>2022-03-24T11:13:37Z</time>
      </trkpt>
      <trkpt lat="48.77679" lon="1.72931">
        <ele>182.4</ele>
        <time>2022-03-24T11:13:41Z</time>
      </trkpt>
      <trkpt lat="48.77679" lon="1.72939">
        <ele>182.2</ele>
        <time>2022-03-24T11:13:45Z</time>
      </trkpt>
      <trkpt lat="48.77678" lon="1.72947">
        <ele>181.6</ele>
        <time>2022-03-24T11:13:49Z</time>
      </trkpt>
      <trkpt lat="48.77678" lon="1.72955">
        <ele>181.4</ele>
        <time>2022-03-24T11:13:54Z</time>
      </trkpt>
      <trkpt lat="48.77676" lon="1.72962">
        <ele>181.8</ele>
        <time>2022-03-24T11:13:58Z</time>
      </trkpt>
      <trkpt lat="48.77673" lon="1.72971">
        <ele>182.7</ele>
        <time>2022-03-24T11:14:03Z</time>
      </trkpt>
      <trkpt lat="48.77672" lon="1.72978">
        <ele>184.8</ele>
        <time>2022-03-24T11:14:07Z</time>
      </trkpt>
      <trkpt lat="48.77669" lon="1.72985">
        <ele>186.4</ele>
        <time>2022-03-24T11:14:13Z</time>
      </trkpt>
      <trkpt lat="48.77668" lon="1.72992">
        <ele>187.2</ele>
        <time>2022-03-24T11:14:18Z</time>
      </trkpt>
      <trkpt lat="48.77667" lon="1.73">
        <ele>187.2</ele>
        <time>2022-03-24T11:14:22Z</time>
      </trkpt>
      <trkpt lat="48.77666" lon="1.73008">
        <ele>186.8</ele>
        <time>2022-03-24T11:14:27Z</time>
      </trkpt>
      <trkpt lat="48.77665" lon="1.73015">
        <ele>186</ele>
        <time>2022-03-24T11:14:31Z</time>
      </trkpt>
      <trkpt lat="48.77663" lon="1.73023">
        <ele>185.3</ele>
        <time>2022-03-24T11:14:35Z</time>
      </trkpt>
      <trkpt lat="48.77663" lon="1.73033">
        <ele>185.1</ele>
        <time>2022-03-24T11:14:40Z</time>
      </trkpt>
      <trkpt lat="48.7766" lon="1.73041">
        <ele>185.3</ele>
        <time>2022-03-24T11:14:45Z</time>
      </trkpt>
      <trkpt lat="48.77659" lon="1.73049">
        <ele>185.8</ele>
        <time>2022-03-24T11:14:49Z</time>
      </trkpt>
      <trkpt lat="48.77659" lon="1.73057">
        <ele>187</ele>
        <time>2022-03-24T11:14:53Z</time>
      </trkpt>
      <trkpt lat="48.7766" lon="1.73066">
        <ele>188.4</ele>
        <time>2022-03-24T11:14:58Z</time>
      </trkpt>
      <trkpt lat="48.7766" lon="1.73073">
        <ele>188.2</ele>
        <time>2022-03-24T11:15:02Z</time>
      </trkpt>
      <trkpt lat="48.77659" lon="1.7308">
        <ele>187.2</ele>
        <time>2022-03-24T11:15:06Z</time>
      </trkpt>
      <trkpt lat="48.77658" lon="1.73087">
        <ele>186.7</ele>
        <time>2022-03-24T11:15:11Z</time>
      </trkpt>
      <trkpt lat="48.77657" lon="1.73093">
        <ele>186.4</ele>
        <time>2022-03-24T11:15:15Z</time>
      </trkpt>
      <trkpt lat="48.77655" lon="1.73102">
        <ele>186.7</ele>
        <time>2022-03-24T11:15:19Z</time>
      </trkpt>
      <trkpt lat="48.77654" lon="1.73109">
        <ele>187.3</ele>
        <time>2022-03-24T11:15:23Z</time>
      </trkpt>
      <trkpt lat="48.77654" lon="1.73117">
        <ele>187.1</ele>
        <time>2022-03-24T11:15:27Z</time>
      </trkpt>
      <trkpt lat="48.77654" lon="1.73125">
        <ele>186.9</ele>
        <time>2022-03-24T11:15:31Z</time>
      </trkpt>
      <trkpt lat="48.77653" lon="1.73132">
        <ele>185.7</ele>
        <time>2022-03-24T11:15:35Z</time>
      </trkpt>
      <trkpt lat="48.77653" lon="1.73141">
        <ele>184.1</ele>
        <time>2022-03-24T11:15:40Z</time>
      </trkpt>
      <trkpt lat="48.77651" lon="1.73147">
        <ele>183.4</ele>
        <time>2022-03-24T11:15:43Z</time>
      </trkpt>
      <trkpt lat="48.7765" lon="1.73154">
        <ele>183</ele>
        <time>2022-03-24T11:15:47Z</time>
      </trkpt>
      <trkpt lat="48.77648" lon="1.73163">
        <ele>182.9</ele>
        <time>2022-03-24T11:15:52Z</time>
      </trkpt>
      <trkpt lat="48.77647" lon="1.73171">
        <ele>183.1</ele>
        <time>2022-03-24T11:15:56Z</time>
      </trkpt>
      <trkpt lat="48.77647" lon="1.73179">
        <ele>182.8</ele>
        <time>2022-03-24T11:16:01Z</time>
      </trkpt>
      <trkpt lat="48.77647" lon="1.73187">
        <ele>183.7</ele>
        <time>2022-03-24T11:16:05Z</time>
      </trkpt>
      <trkpt lat="48.77645" lon="1.73193">
        <ele>185.5</ele>
        <time>2022-03-24T11:16:09Z</time>
      </trkpt>
      <trkpt lat="48.77644" lon="1.73201">
        <ele>187.9</ele>
        <time>2022-03-24T11:16:12Z</time>
      </trkpt>
      <trkpt lat="48.77644" lon="1.73209">
        <ele>188.2</ele>
        <time>2022-03-24T11:16:17Z</time>
      </trkpt>
      <trkpt lat="48.77642" lon="1.73216">
        <ele>188.3</ele>
        <time>2022-03-24T11:16:21Z</time>
      </trkpt>
      <trkpt lat="48.77641" lon="1.73223">
        <ele>187.8</ele>
        <time>2022-03-24T11:16:25Z</time>
      </trkpt>
      <trkpt lat="48.77642" lon="1.7323">
        <ele>185.9</ele>
        <time>2022-03-24T11:16:29Z</time>
      </trkpt>
      <trkpt lat="48.77642" lon="1.73237">
        <ele>183.5</ele>
        <time>2022-03-24T11:16:33Z</time>
      </trkpt>
      <trkpt lat="48.77643" lon="1.73244">
        <ele>181.9</ele>
        <time>2022-03-24T11:16:38Z</time>
      </trkpt>
      <trkpt lat="48.7764" lon="1.73251">
        <ele>181.1</ele>
        <time>2022-03-24T11:16:43Z</time>
      </trkpt>
      <trkpt lat="48.77637" lon="1.73257">
        <ele>181.8</ele>
        <time>2022-03-24T11:16:47Z</time>
      </trkpt>
      <trkpt lat="48.77634" lon="1.73261">
        <ele>183.1</ele>
        <time>2022-03-24T11:16:52Z</time>
      </trkpt>
      <trkpt lat="48.77629" lon="1.73259">
        <ele>183</ele>
        <time>2022-03-24T11:16:58Z</time>
      </trkpt>
      <trkpt lat="48.77626" lon="1.73254">
        <ele>182.9</ele>
        <time>2022-03-24T11:17:03Z</time>
      </trkpt>
      <trkpt lat="48.77625" lon="1.73246">
        <ele>180.6</ele>
        <time>2022-03-24T11:20:37Z</time>
      </trkpt>
      <trkpt lat="48.77622" lon="1.7324">
        <ele>180.1</ele>
        <time>2022-03-24T11:20:42Z</time>
      </trkpt>
      <trkpt lat="48.77619" lon="1.73233">
        <ele>180.6</ele>
        <time>2022-03-24T11:20:47Z</time>
      </trkpt>
      <trkpt lat="48.77618" lon="1.73226">
        <ele>181.9</ele>
        <time>2022-03-24T11:20:52Z</time>
      </trkpt>
      <trkpt lat="48.77616" lon="1.73218">
        <ele>183.2</ele>
        <time>2022-03-24T11:20:56Z</time>
      </trkpt>
      <trkpt lat="48.77614" lon="1.73211">
        <ele>184.7</ele>
        <time>2022-03-24T11:21:00Z</time>
      </trkpt>
      <trkpt lat="48.77612" lon="1.73204">
        <ele>185.6</ele>
        <time>2022-03-24T11:21:05Z</time>
      </trkpt>
      <trkpt lat="48.7761" lon="1.73197">
        <ele>185.4</ele>
        <time>2022-03-24T11:21:09Z</time>
      </trkpt>
      <trkpt lat="48.77608" lon="1.7319">
        <ele>184.7</ele>
        <time>2022-03-24T11:21:13Z</time>
      </trkpt>
      <trkpt lat="48.77607" lon="1.73183">
        <ele>184.6</ele>
        <time>2022-03-24T11:21:16Z</time>
      </trkpt>
      <trkpt lat="48.77602" lon="1.73169">
        <ele>185.6</ele>
        <time>2022-03-24T11:21:21Z</time>
      </trkpt>
      <trkpt lat="48.77599" lon="1.73162">
        <ele>185.5</ele>
        <time>2022-03-24T11:21:25Z</time>
      </trkpt>
      <trkpt lat="48.77599" lon="1.73154">
        <ele>185.9</ele>
        <time>2022-03-24T11:21:31Z</time>
      </trkpt>
      <trkpt lat="48.77598" lon="1.73146">
        <ele>186.5</ele>
        <time>2022-03-24T11:21:36Z</time>
      </trkpt>
      <trkpt lat="48.77596" lon="1.73139">
        <ele>186.5</ele>
        <time>2022-03-24T11:21:39Z</time>
      </trkpt>
      <trkpt lat="48.77593" lon="1.73131">
        <ele>186.8</ele>
        <time>2022-03-24T11:21:43Z</time>
      </trkpt>
      <trkpt lat="48.77591" lon="1.73124">
        <ele>186.9</ele>
        <time>2022-03-24T11:21:48Z</time>
      </trkpt>
      <trkpt lat="48.77588" lon="1.73116">
        <ele>185.9</ele>
        <time>2022-03-24T11:21:53Z</time>
      </trkpt>
      <trkpt lat="48.77587" lon="1.73108">
        <ele>184.3</ele>
        <time>2022-03-24T11:21:58Z</time>
      </trkpt>
      <trkpt lat="48.77583" lon="1.73101">
        <ele>182.3</ele>
        <time>2022-03-24T11:22:03Z</time>
      </trkpt>
      <trkpt lat="48.7758" lon="1.73096">
        <ele>182</ele>
        <time>2022-03-24T11:22:06Z</time>
      </trkpt>
      <trkpt lat="48.77576" lon="1.7309">
        <ele>182.5</ele>
        <time>2022-03-24T11:22:11Z</time>
      </trkpt>
      <trkpt lat="48.77574" lon="1.73083">
        <ele>182.8</ele>
        <time>2022-03-24T11:22:14Z</time>
      </trkpt>
      <trkpt lat="48.77571" lon="1.73077">
        <ele>183.1</ele>
        <time>2022-03-24T11:22:17Z</time>
      </trkpt>
      <trkpt lat="48.7757" lon="1.7307">
        <ele>184.4</ele>
        <time>2022-03-24T11:22:21Z</time>
      </trkpt>
      <trkpt lat="48.77568" lon="1.73063">
        <ele>186.1</ele>
        <time>2022-03-24T11:22:25Z</time>
      </trkpt>
      <trkpt lat="48.77565" lon="1.73056">
        <ele>186.3</ele>
        <time>2022-03-24T11:22:29Z</time>
      </trkpt>
      <trkpt lat="48.77563" lon="1.73051">
        <ele>185.8</ele>
        <time>2022-03-24T11:22:33Z</time>
      </trkpt>
      <trkpt lat="48.77559" lon="1.73045">
        <ele>182.9</ele>
        <time>2022-03-24T11:22:38Z</time>
      </trkpt>
      <trkpt lat="48.77556" lon="1.73039">
        <ele>180.5</ele>
        <time>2022-03-24T11:22:44Z</time>
      </trkpt>
      <trkpt lat="48.77553" lon="1.73031">
        <ele>180.2</ele>
        <time>2022-03-24T11:22:48Z</time>
      </trkpt>
      <trkpt lat="48.77551" lon="1.73025">
        <ele>180.2</ele>
        <time>2022-03-24T11:22:51Z</time>
      </trkpt>
      <trkpt lat="48.77549" lon="1.73017">
        <ele>180.2</ele>
        <time>2022-03-24T11:22:55Z</time>
      </trkpt>
      <trkpt lat="48.77547" lon="1.73008">
        <ele>181.1</ele>
        <time>2022-03-24T11:23:00Z</time>
      </trkpt>
      <trkpt lat="48.77545" lon="1.73002">
        <ele>182.1</ele>
        <time>2022-03-24T11:23:04Z</time>
      </trkpt>
      <trkpt lat="48.77542" lon="1.72995">
        <ele>183.1</ele>
        <time>2022-03-24T11:23:08Z</time>
      </trkpt>
      <trkpt lat="48.7754" lon="1.72988">
        <ele>183.6</ele>
        <time>2022-03-24T11:23:12Z</time>
      </trkpt>
      <trkpt lat="48.77537" lon="1.72981">
        <ele>183.8</ele>
        <time>2022-03-24T11:23:16Z</time>
      </trkpt>
      <trkpt lat="48.77534" lon="1.72973">
        <ele>183.3</ele>
        <time>2022-03-24T11:23:21Z</time>
      </trkpt>
      <trkpt lat="48.77531" lon="1.72967">
        <ele>182.9</ele>
        <time>2022-03-24T11:23:25Z</time>
      </trkpt>
      <trkpt lat="48.77529" lon="1.72959">
        <ele>182.9</ele>
        <time>2022-03-24T11:23:29Z</time>
      </trkpt>
      <trkpt lat="48.77526" lon="1.72952">
        <ele>183.1</ele>
        <time>2022-03-24T11:23:33Z</time>
      </trkpt>
      <trkpt lat="48.77523" lon="1.72945">
        <ele>184.4</ele>
        <time>2022-03-24T11:23:37Z</time>
      </trkpt>
      <trkpt lat="48.7752" lon="1.72939">
        <ele>184.7</ele>
        <time>2022-03-24T11:23:41Z</time>
      </trkpt>
      <trkpt lat="48.77518" lon="1.72932">
        <ele>183.5</ele>
        <time>2022-03-24T11:23:45Z</time>
      </trkpt>
      <trkpt lat="48.77515" lon="1.72926">
        <ele>181.7</ele>
        <time>2022-03-24T11:23:49Z</time>
      </trkpt>
      <trkpt lat="48.77513" lon="1.72917">
        <ele>181.5</ele>
        <time>2022-03-24T11:23:53Z</time>
      </trkpt>
      <trkpt lat="48.77511" lon="1.7291">
        <ele>182.8</ele>
        <time>2022-03-24T11:23:56Z</time>
      </trkpt>
      <trkpt lat="48.77509" lon="1.72903">
        <ele>184.1</ele>
        <time>2022-03-24T11:24:00Z</time>
      </trkpt>
      <trkpt lat="48.77506" lon="1.72896">
        <ele>184.8</ele>
        <time>2022-03-24T11:24:04Z</time>
      </trkpt>
      <trkpt lat="48.77502" lon="1.72891">
        <ele>185.1</ele>
        <time>2022-03-24T11:24:08Z</time>
      </trkpt>
      <trkpt lat="48.77502" lon="1.72883">
        <ele>185.1</ele>
        <time>2022-03-24T11:24:12Z</time>
      </trkpt>
      <trkpt lat="48.77501" lon="1.72875">
        <ele>185.3</ele>
        <time>2022-03-24T11:24:16Z</time>
      </trkpt>
      <trkpt lat="48.77498" lon="1.72868">
        <ele>185.2</ele>
        <time>2022-03-24T11:24:20Z</time>
      </trkpt>
      <trkpt lat="48.77496" lon="1.72861">
        <ele>184.1</ele>
        <time>2022-03-24T11:24:23Z</time>
      </trkpt>
      <trkpt lat="48.77493" lon="1.72855">
        <ele>182.7</ele>
        <time>2022-03-24T11:24:28Z</time>
      </trkpt>
      <trkpt lat="48.77491" lon="1.72849">
        <ele>181.7</ele>
        <time>2022-03-24T11:24:31Z</time>
      </trkpt>
      <trkpt lat="48.77487" lon="1.72843">
        <ele>180.7</ele>
        <time>2022-03-24T11:24:35Z</time>
      </trkpt>
      <trkpt lat="48.77483" lon="1.72839">
        <ele>180.2</ele>
        <time>2022-03-24T11:24:38Z</time>
      </trkpt>
      <trkpt lat="48.77479" lon="1.72833">
        <ele>179.9</ele>
        <time>2022-03-24T11:24:44Z</time>
      </trkpt>
      <trkpt lat="48.77476" lon="1.72828">
        <ele>179.7</ele>
        <time>2022-03-24T11:24:48Z</time>
      </trkpt>
      <trkpt lat="48.77477" lon="1.72819">
        <ele>179.8</ele>
        <time>2022-03-24T11:24:52Z</time>
      </trkpt>
      <trkpt lat="48.77475" lon="1.72813">
        <ele>179.5</ele>
        <time>2022-03-24T11:24:56Z</time>
      </trkpt>
      <trkpt lat="48.77475" lon="1.72805">
        <ele>178.9</ele>
        <time>2022-03-24T11:25:03Z</time>
      </trkpt>
      <trkpt lat="48.77471" lon="1.72798">
        <ele>179.6</ele>
        <time>2022-03-24T11:25:08Z</time>
      </trkpt>
      <trkpt lat="48.77468" lon="1.72792">
        <ele>180.3</ele>
        <time>2022-03-24T11:25:12Z</time>
      </trkpt>
      <trkpt lat="48.77466" lon="1.72785">
        <ele>180.8</ele>
        <time>2022-03-24T11:25:16Z</time>
      </trkpt>
      <trkpt lat="48.77464" lon="1.72777">
        <ele>182.3</ele>
        <time>2022-03-24T11:25:20Z</time>
      </trkpt>
      <trkpt lat="48.77462" lon="1.72771">
        <ele>184</ele>
        <time>2022-03-24T11:25:24Z</time>
      </trkpt>
      <trkpt lat="48.7746" lon="1.72764">
        <ele>184.6</ele>
        <time>2022-03-24T11:25:28Z</time>
      </trkpt>
      <trkpt lat="48.77458" lon="1.72757">
        <ele>185.3</ele>
        <time>2022-03-24T11:25:32Z</time>
      </trkpt>
      <trkpt lat="48.77456" lon="1.7275">
        <ele>185.7</ele>
        <time>2022-03-24T11:25:36Z</time>
      </trkpt>
      <trkpt lat="48.77456" lon="1.72742">
        <ele>186.3</ele>
        <time>2022-03-24T11:25:40Z</time>
      </trkpt>
      <trkpt lat="48.77453" lon="1.72735">
        <ele>187.3</ele>
        <time>2022-03-24T11:25:44Z</time>
      </trkpt>
      <trkpt lat="48.77451" lon="1.72729">
        <ele>187</ele>
        <time>2022-03-24T11:25:48Z</time>
      </trkpt>
      <trkpt lat="48.7745" lon="1.72721">
        <ele>186.3</ele>
        <time>2022-03-24T11:25:52Z</time>
      </trkpt>
      <trkpt lat="48.77447" lon="1.72715">
        <ele>185.9</ele>
        <time>2022-03-24T11:25:56Z</time>
      </trkpt>
      <trkpt lat="48.77445" lon="1.72709">
        <ele>185.8</ele>
        <time>2022-03-24T11:26:00Z</time>
      </trkpt>
      <trkpt lat="48.77441" lon="1.72702">
        <ele>185.5</ele>
        <time>2022-03-24T11:26:04Z</time>
      </trkpt>
      <trkpt lat="48.77438" lon="1.72696">
        <ele>184.5</ele>
        <time>2022-03-24T11:26:08Z</time>
      </trkpt>
      <trkpt lat="48.77436" lon="1.72689">
        <ele>184.1</ele>
        <time>2022-03-24T11:26:12Z</time>
      </trkpt>
      <trkpt lat="48.77433" lon="1.72682">
        <ele>184.4</ele>
        <time>2022-03-24T11:26:16Z</time>
      </trkpt>
      <trkpt lat="48.77431" lon="1.72675">
        <ele>184.2</ele>
        <time>2022-03-24T11:26:20Z</time>
      </trkpt>
      <trkpt lat="48.77428" lon="1.72669">
        <ele>183.8</ele>
        <time>2022-03-24T11:26:24Z</time>
      </trkpt>
      <trkpt lat="48.77424" lon="1.72664">
        <ele>183.4</ele>
        <time>2022-03-24T11:26:28Z</time>
      </trkpt>
      <trkpt lat="48.77422" lon="1.72657">
        <ele>184.1</ele>
        <time>2022-03-24T11:26:32Z</time>
      </trkpt>
      <trkpt lat="48.7742" lon="1.72649">
        <ele>184.5</ele>
        <time>2022-03-24T11:26:37Z</time>
      </trkpt>
      <trkpt lat="48.77417" lon="1.72643">
        <ele>184.8</ele>
        <time>2022-03-24T11:26:40Z</time>
      </trkpt>
      <trkpt lat="48.77415" lon="1.72637">
        <ele>184.8</ele>
        <time>2022-03-24T11:26:43Z</time>
      </trkpt>
      <trkpt lat="48.77412" lon="1.7263">
        <ele>185.5</ele>
        <time>2022-03-24T11:26:47Z</time>
      </trkpt>
      <trkpt lat="48.77409" lon="1.72623">
        <ele>186.1</ele>
        <time>2022-03-24T11:26:51Z</time>
      </trkpt>
      <trkpt lat="48.77406" lon="1.72616">
        <ele>186.2</ele>
        <time>2022-03-24T11:26:55Z</time>
      </trkpt>
      <trkpt lat="48.77403" lon="1.72609">
        <ele>185.7</ele>
        <time>2022-03-24T11:26:59Z</time>
      </trkpt>
      <trkpt lat="48.774" lon="1.72601">
        <ele>185</ele>
        <time>2022-03-24T11:27:04Z</time>
      </trkpt>
      <trkpt lat="48.77397" lon="1.72596">
        <ele>185</ele>
        <time>2022-03-24T11:27:08Z</time>
      </trkpt>
      <trkpt lat="48.77394" lon="1.72588">
        <ele>185.7</ele>
        <time>2022-03-24T11:27:12Z</time>
      </trkpt>
      <trkpt lat="48.77392" lon="1.72581">
        <ele>186.2</ele>
        <time>2022-03-24T11:27:15Z</time>
      </trkpt>
      <trkpt lat="48.77391" lon="1.72574">
        <ele>186.8</ele>
        <time>2022-03-24T11:27:19Z</time>
      </trkpt>
      <trkpt lat="48.77389" lon="1.72567">
        <ele>186.9</ele>
        <time>2022-03-24T11:27:22Z</time>
      </trkpt>
      <trkpt lat="48.77388" lon="1.72558">
        <ele>186.4</ele>
        <time>2022-03-24T11:27:26Z</time>
      </trkpt>
      <trkpt lat="48.77387" lon="1.72552">
        <ele>185.4</ele>
        <time>2022-03-24T11:27:30Z</time>
      </trkpt>
      <trkpt lat="48.77384" lon="1.72546">
        <ele>184.8</ele>
        <time>2022-03-24T11:27:33Z</time>
      </trkpt>
      <trkpt lat="48.77382" lon="1.72539">
        <ele>184.7</ele>
        <time>2022-03-24T11:27:37Z</time>
      </trkpt>
      <trkpt lat="48.77378" lon="1.72532">
        <ele>184.5</ele>
        <time>2022-03-24T11:27:42Z</time>
      </trkpt>
      <trkpt lat="48.77377" lon="1.72526">
        <ele>184.3</ele>
        <time>2022-03-24T11:27:46Z</time>
      </trkpt>
      <trkpt lat="48.77373" lon="1.7252">
        <ele>184.3</ele>
        <time>2022-03-24T11:27:51Z</time>
      </trkpt>
      <trkpt lat="48.7737" lon="1.72526">
        <ele>184.8</ele>
        <time>2022-03-24T11:27:56Z</time>
      </trkpt>
      <trkpt lat="48.77367" lon="1.72521">
        <ele>186.6</ele>
        <time>2022-03-24T11:28:11Z</time>
      </trkpt>
      <trkpt lat="48.77364" lon="1.72513">
        <ele>186.1</ele>
        <time>2022-03-24T11:28:16Z</time>
      </trkpt>
      <trkpt lat="48.77363" lon="1.72505">
        <ele>185.2</ele>
        <time>2022-03-24T11:28:21Z</time>
      </trkpt>
      <trkpt lat="48.77362" lon="1.72497">
        <ele>185.4</ele>
        <time>2022-03-24T11:28:26Z</time>
      </trkpt>
      <trkpt lat="48.7736" lon="1.72489">
        <ele>186.2</ele>
        <time>2022-03-24T11:28:31Z</time>
      </trkpt>
      <trkpt lat="48.77359" lon="1.72483">
        <ele>186.1</ele>
        <time>2022-03-24T11:28:35Z</time>
      </trkpt>
      <trkpt lat="48.77356" lon="1.72474">
        <ele>183.8</ele>
        <time>2022-03-24T11:28:42Z</time>
      </trkpt>
      <trkpt lat="48.77356" lon="1.72467">
        <ele>180.7</ele>
        <time>2022-03-24T11:28:46Z</time>
      </trkpt>
      <trkpt lat="48.77356" lon="1.72459">
        <ele>178.6</ele>
        <time>2022-03-24T11:28:51Z</time>
      </trkpt>
      <trkpt lat="48.77355" lon="1.72452">
        <ele>178.6</ele>
        <time>2022-03-24T11:28:54Z</time>
      </trkpt>
      <trkpt lat="48.77354" lon="1.72443">
        <ele>179.7</ele>
        <time>2022-03-24T11:28:59Z</time>
      </trkpt>
      <trkpt lat="48.77354" lon="1.72435">
        <ele>180.6</ele>
        <time>2022-03-24T11:29:02Z</time>
      </trkpt>
      <trkpt lat="48.77353" lon="1.72428">
        <ele>181.4</ele>
        <time>2022-03-24T11:29:05Z</time>
      </trkpt>
      <trkpt lat="48.77353" lon="1.72421">
        <ele>181.7</ele>
        <time>2022-03-24T11:29:09Z</time>
      </trkpt>
      <trkpt lat="48.77351" lon="1.72412">
        <ele>180.9</ele>
        <time>2022-03-24T11:29:14Z</time>
      </trkpt>
      <trkpt lat="48.7735" lon="1.72404">
        <ele>179.4</ele>
        <time>2022-03-24T11:29:18Z</time>
      </trkpt>
      <trkpt lat="48.77348" lon="1.72396">
        <ele>179.3</ele>
        <time>2022-03-24T11:29:23Z</time>
      </trkpt>
      <trkpt lat="48.77345" lon="1.72389">
        <ele>179.3</ele>
        <time>2022-03-24T11:29:27Z</time>
      </trkpt>
      <trkpt lat="48.77343" lon="1.72381">
        <ele>178.2</ele>
        <time>2022-03-24T11:29:31Z</time>
      </trkpt>
      <trkpt lat="48.77341" lon="1.72372">
        <ele>177.8</ele>
        <time>2022-03-24T11:29:36Z</time>
      </trkpt>
      <trkpt lat="48.77339" lon="1.72366">
        <ele>178.2</ele>
        <time>2022-03-24T11:29:39Z</time>
      </trkpt>
      <trkpt lat="48.77338" lon="1.72359">
        <ele>178.5</ele>
        <time>2022-03-24T11:29:41Z</time>
      </trkpt>
      <trkpt lat="48.77337" lon="1.7235">
        <ele>178.7</ele>
        <time>2022-03-24T11:29:45Z</time>
      </trkpt>
      <trkpt lat="48.77336" lon="1.72341">
        <ele>179.1</ele>
        <time>2022-03-24T11:29:49Z</time>
      </trkpt>
      <trkpt lat="48.77335" lon="1.72332">
        <ele>179.5</ele>
        <time>2022-03-24T11:29:53Z</time>
      </trkpt>
      <trkpt lat="48.77334" lon="1.72325">
        <ele>180.9</ele>
        <time>2022-03-24T11:29:57Z</time>
      </trkpt>
      <trkpt lat="48.77332" lon="1.72318">
        <ele>182.7</ele>
        <time>2022-03-24T11:30:01Z</time>
      </trkpt>
      <trkpt lat="48.77331" lon="1.7231">
        <ele>183.9</ele>
        <time>2022-03-24T11:30:05Z</time>
      </trkpt>
      <trkpt lat="48.77329" lon="1.72304">
        <ele>184.1</ele>
        <time>2022-03-24T11:30:09Z</time>
      </trkpt>
      <trkpt lat="48.77327" lon="1.72297">
        <ele>183.6</ele>
        <time>2022-03-24T11:30:12Z</time>
      </trkpt>
      <trkpt lat="48.77327" lon="1.7229">
        <ele>183.1</ele>
        <time>2022-03-24T11:30:15Z</time>
      </trkpt>
      <trkpt lat="48.77325" lon="1.72282">
        <ele>182.8</ele>
        <time>2022-03-24T11:30:20Z</time>
      </trkpt>
      <trkpt lat="48.77322" lon="1.72274">
        <ele>182.9</ele>
        <time>2022-03-24T11:30:25Z</time>
      </trkpt>
      <trkpt lat="48.7732" lon="1.72265">
        <ele>183.6</ele>
        <time>2022-03-24T11:30:30Z</time>
      </trkpt>
      <trkpt lat="48.77319" lon="1.72258">
        <ele>183.2</ele>
        <time>2022-03-24T11:30:34Z</time>
      </trkpt>
      <trkpt lat="48.77317" lon="1.72252">
        <ele>180.7</ele>
        <time>2022-03-24T11:30:38Z</time>
      </trkpt>
      <trkpt lat="48.77314" lon="1.72245">
        <ele>179.1</ele>
        <time>2022-03-24T11:30:43Z</time>
      </trkpt>
      <trkpt lat="48.77312" lon="1.72237">
        <ele>180.1</ele>
        <time>2022-03-24T11:30:47Z</time>
      </trkpt>
      <trkpt lat="48.77311" lon="1.7223">
        <ele>180.5</ele>
        <time>2022-03-24T11:30:51Z</time>
      </trkpt>
      <trkpt lat="48.7731" lon="1.72223">
        <ele>180.3</ele>
        <time>2022-03-24T11:30:55Z</time>
      </trkpt>
      <trkpt lat="48.77309" lon="1.72215">
        <ele>180.1</ele>
        <time>2022-03-24T11:30:59Z</time>
      </trkpt>
      <trkpt lat="48.77308" lon="1.72209">
        <ele>180.1</ele>
        <time>2022-03-24T11:31:03Z</time>
      </trkpt>
      <trkpt lat="48.77307" lon="1.72202">
        <ele>180.7</ele>
        <time>2022-03-24T11:31:07Z</time>
      </trkpt>
      <trkpt lat="48.77306" lon="1.72194">
        <ele>181.3</ele>
        <time>2022-03-24T11:31:11Z</time>
      </trkpt>
      <trkpt lat="48.77305" lon="1.72187">
        <ele>181.1</ele>
        <time>2022-03-24T11:31:15Z</time>
      </trkpt>
      <trkpt lat="48.77305" lon="1.72181">
        <ele>179.8</ele>
        <time>2022-03-24T11:31:18Z</time>
      </trkpt>
      <trkpt lat="48.77303" lon="1.72174">
        <ele>178.5</ele>
        <time>2022-03-24T11:31:22Z</time>
      </trkpt>
      <trkpt lat="48.77301" lon="1.72166">
        <ele>177.6</ele>
        <time>2022-03-24T11:31:25Z</time>
      </trkpt>
      <trkpt lat="48.77299" lon="1.7216">
        <ele>177.6</ele>
        <time>2022-03-24T11:31:29Z</time>
      </trkpt>
      <trkpt lat="48.77297" lon="1.72153">
        <ele>178.4</ele>
        <time>2022-03-24T11:31:32Z</time>
      </trkpt>
      <trkpt lat="48.77296" lon="1.72145">
        <ele>179.7</ele>
        <time>2022-03-24T11:31:37Z</time>
      </trkpt>
      <trkpt lat="48.77294" lon="1.72137">
        <ele>179.8</ele>
        <time>2022-03-24T11:31:41Z</time>
      </trkpt>
      <trkpt lat="48.77293" lon="1.72129">
        <ele>179.8</ele>
        <time>2022-03-24T11:31:45Z</time>
      </trkpt>
      <trkpt lat="48.77292" lon="1.72121">
        <ele>179.5</ele>
        <time>2022-03-24T11:31:49Z</time>
      </trkpt>
      <trkpt lat="48.7729" lon="1.72113">
        <ele>179.3</ele>
        <time>2022-03-24T11:31:53Z</time>
      </trkpt>
      <trkpt lat="48.77289" lon="1.72106">
        <ele>179.6</ele>
        <time>2022-03-24T11:31:57Z</time>
      </trkpt>
      <trkpt lat="48.77288" lon="1.721">
        <ele>180.5</ele>
        <time>2022-03-24T11:32:01Z</time>
      </trkpt>
      <trkpt lat="48.77286" lon="1.72092">
        <ele>181.1</ele>
        <time>2022-03-24T11:32:05Z</time>
      </trkpt>
      <trkpt lat="48.77284" lon="1.72084">
        <ele>181.4</ele>
        <time>2022-03-24T11:32:09Z</time>
      </trkpt>
      <trkpt lat="48.77283" lon="1.72077">
        <ele>182.1</ele>
        <time>2022-03-24T11:32:13Z</time>
      </trkpt>
      <trkpt lat="48.77282" lon="1.72069">
        <ele>183.2</ele>
        <time>2022-03-24T11:32:17Z</time>
      </trkpt>
      <trkpt lat="48.7728" lon="1.72062">
        <ele>183.7</ele>
        <time>2022-03-24T11:32:21Z</time>
      </trkpt>
      <trkpt lat="48.77277" lon="1.72056">
        <ele>184</ele>
        <time>2022-03-24T11:32:25Z</time>
      </trkpt>
      <trkpt lat="48.77274" lon="1.7205">
        <ele>183.3</ele>
        <time>2022-03-24T11:32:29Z</time>
      </trkpt>
      <trkpt lat="48.77271" lon="1.72044">
        <ele>181.2</ele>
        <time>2022-03-24T11:32:33Z</time>
      </trkpt>
      <trkpt lat="48.77268" lon="1.72037">
        <ele>178.9</ele>
        <time>2022-03-24T11:32:38Z</time>
      </trkpt>
      <trkpt lat="48.77266" lon="1.7203">
        <ele>179.1</ele>
        <time>2022-03-24T11:32:42Z</time>
      </trkpt>
      <trkpt lat="48.77261" lon="1.72026">
        <ele>175.9</ele>
        <time>2022-03-24T11:32:59Z</time>
      </trkpt>
      <trkpt lat="48.77259" lon="1.72019">
        <ele>175.9</ele>
        <time>2022-03-24T11:33:02Z</time>
      </trkpt>
      <trkpt lat="48.77257" lon="1.72012">
        <ele>175.7</ele>
        <time>2022-03-24T11:33:07Z</time>
      </trkpt>
      <trkpt lat="48.77257" lon="1.72005">
        <ele>176.1</ele>
        <time>2022-03-24T11:33:12Z</time>
      </trkpt>
      <trkpt lat="48.77256" lon="1.71997">
        <ele>176.4</ele>
        <time>2022-03-24T11:33:17Z</time>
      </trkpt>
      <trkpt lat="48.77259" lon="1.71987">
        <ele>176.2</ele>
        <time>2022-03-24T11:33:20Z</time>
      </trkpt>
      <trkpt lat="48.7726" lon="1.7198">
        <ele>176</ele>
        <time>2022-03-24T11:33:23Z</time>
      </trkpt>
      <trkpt lat="48.77262" lon="1.71973">
        <ele>175.8</ele>
        <time>2022-03-24T11:33:27Z</time>
      </trkpt>
      <trkpt lat="48.77264" lon="1.71966">
        <ele>175.8</ele>
        <time>2022-03-24T11:33:32Z</time>
      </trkpt>
      <trkpt lat="48.77264" lon="1.71959">
        <ele>175.4</ele>
        <time>2022-03-24T11:33:38Z</time>
      </trkpt>
      <trkpt lat="48.77263" lon="1.71952">
        <ele>175.3</ele>
        <time>2022-03-24T11:33:43Z</time>
      </trkpt>
      <trkpt lat="48.77262" lon="1.71944">
        <ele>175.6</ele>
        <time>2022-03-24T11:33:47Z</time>
      </trkpt>
      <trkpt lat="48.7726" lon="1.71938">
        <ele>174.1</ele>
        <time>2022-03-24T11:33:54Z</time>
      </trkpt>
      <trkpt lat="48.77258" lon="1.71931">
        <ele>173.1</ele>
        <time>2022-03-24T11:33:59Z</time>
      </trkpt>
      <trkpt lat="48.77256" lon="1.71924">
        <ele>173.2</ele>
        <time>2022-03-24T11:34:04Z</time>
      </trkpt>
      <trkpt lat="48.77255" lon="1.71918">
        <ele>172.9</ele>
        <time>2022-03-24T11:34:10Z</time>
      </trkpt>
      <trkpt lat="48.77253" lon="1.7191">
        <ele>171.4</ele>
        <time>2022-03-24T11:34:14Z</time>
      </trkpt>
      <trkpt lat="48.7725" lon="1.71904">
        <ele>169.1</ele>
        <time>2022-03-24T11:34:19Z</time>
      </trkpt>
      <trkpt lat="48.77247" lon="1.71898">
        <ele>168</ele>
        <time>2022-03-24T11:34:23Z</time>
      </trkpt>
      <trkpt lat="48.77245" lon="1.71892">
        <ele>168.2</ele>
        <time>2022-03-24T11:34:26Z</time>
      </trkpt>
      <trkpt lat="48.77243" lon="1.71885">
        <ele>167.9</ele>
        <time>2022-03-24T11:34:31Z</time>
      </trkpt>
      <trkpt lat="48.77242" lon="1.71878">
        <ele>166.8</ele>
        <time>2022-03-24T11:34:35Z</time>
      </trkpt>
      <trkpt lat="48.77239" lon="1.7187">
        <ele>160.6</ele>
        <time>2022-03-24T11:34:46Z</time>
      </trkpt>
      <trkpt lat="48.77235" lon="1.71864">
        <ele>159.3</ele>
        <time>2022-03-24T11:34:52Z</time>
      </trkpt>
      <trkpt lat="48.77233" lon="1.7187">
        <ele>157.7</ele>
        <time>2022-03-24T11:35:30Z</time>
      </trkpt>
      <trkpt lat="48.77236" lon="1.71877">
        <ele>157.8</ele>
        <time>2022-03-24T11:37:43Z</time>
      </trkpt>
      <trkpt lat="48.77233" lon="1.71884">
        <ele>156</ele>
        <time>2022-03-24T11:37:47Z</time>
      </trkpt>
      <trkpt lat="48.77231" lon="1.71891">
        <ele>155.7</ele>
        <time>2022-03-24T11:37:51Z</time>
      </trkpt>
      <trkpt lat="48.77228" lon="1.71896">
        <ele>156.4</ele>
        <time>2022-03-24T11:37:55Z</time>
      </trkpt>
      <trkpt lat="48.77225" lon="1.71902">
        <ele>158.1</ele>
        <time>2022-03-24T11:38:17Z</time>
      </trkpt>
      <trkpt lat="48.77223" lon="1.71908">
        <ele>158.4</ele>
        <time>2022-03-24T11:38:22Z</time>
      </trkpt>
      <trkpt lat="48.77221" lon="1.71914">
        <ele>159.5</ele>
        <time>2022-03-24T11:38:26Z</time>
      </trkpt>
      <trkpt lat="48.77217" lon="1.71919">
        <ele>160.7</ele>
        <time>2022-03-24T11:38:32Z</time>
      </trkpt>
      <trkpt lat="48.77213" lon="1.71921">
        <ele>160.7</ele>
        <time>2022-03-24T11:38:38Z</time>
      </trkpt>
      <trkpt lat="48.77208" lon="1.71925">
        <ele>161.5</ele>
        <time>2022-03-24T11:38:44Z</time>
      </trkpt>
      <trkpt lat="48.77204" lon="1.71929">
        <ele>162.2</ele>
        <time>2022-03-24T11:38:50Z</time>
      </trkpt>
      <trkpt lat="48.77199" lon="1.71931">
        <ele>158.8</ele>
        <time>2022-03-24T11:39:00Z</time>
      </trkpt>
      <trkpt lat="48.77195" lon="1.71935">
        <ele>159.6</ele>
        <time>2022-03-24T11:39:07Z</time>
      </trkpt>
      <trkpt lat="48.77194" lon="1.71942">
        <ele>161.1</ele>
        <time>2022-03-24T11:39:13Z</time>
      </trkpt>
      <trkpt lat="48.77192" lon="1.71949">
        <ele>161.9</ele>
        <time>2022-03-24T11:39:20Z</time>
      </trkpt>
      <trkpt lat="48.77188" lon="1.71952">
        <ele>162.8</ele>
        <time>2022-03-24T11:39:31Z</time>
      </trkpt>
      <trkpt lat="48.77185" lon="1.71958">
        <ele>166.4</ele>
        <time>2022-03-24T11:39:39Z</time>
      </trkpt>
      <trkpt lat="48.77183" lon="1.71965">
        <ele>168.6</ele>
        <time>2022-03-24T11:39:45Z</time>
      </trkpt>
      <trkpt lat="48.7718" lon="1.71971">
        <ele>171.1</ele>
        <time>2022-03-24T11:39:50Z</time>
      </trkpt>
      <trkpt lat="48.77177" lon="1.71977">
        <ele>173.2</ele>
        <time>2022-03-24T11:39:54Z</time>
      </trkpt>
      <trkpt lat="48.77173" lon="1.71981">
        <ele>173.5</ele>
        <time>2022-03-24T11:39:59Z</time>
      </trkpt>
      <trkpt lat="48.77169" lon="1.71986">
        <ele>172.9</ele>
        <time>2022-03-24T11:40:04Z</time>
      </trkpt>
      <trkpt lat="48.77165" lon="1.71991">
        <ele>172.5</ele>
        <time>2022-03-24T11:40:08Z</time>
      </trkpt>
      <trkpt lat="48.77162" lon="1.71996">
        <ele>173</ele>
        <time>2022-03-24T11:40:12Z</time>
      </trkpt>
      <trkpt lat="48.77158" lon="1.72001">
        <ele>172.6</ele>
        <time>2022-03-24T11:40:17Z</time>
      </trkpt>
      <trkpt lat="48.77154" lon="1.72005">
        <ele>170.4</ele>
        <time>2022-03-24T11:40:23Z</time>
      </trkpt>
      <trkpt lat="48.7715" lon="1.72011">
        <ele>167.9</ele>
        <time>2022-03-24T11:40:27Z</time>
      </trkpt>
      <trkpt lat="48.77146" lon="1.72015">
        <ele>166.5</ele>
        <time>2022-03-24T11:40:32Z</time>
      </trkpt>
      <trkpt lat="48.77143" lon="1.72021">
        <ele>165.4</ele>
        <time>2022-03-24T11:40:37Z</time>
      </trkpt>
      <trkpt lat="48.77139" lon="1.72027">
        <ele>163.2</ele>
        <time>2022-03-24T11:40:43Z</time>
      </trkpt>
      <trkpt lat="48.77136" lon="1.72033">
        <ele>162</ele>
        <time>2022-03-24T11:40:47Z</time>
      </trkpt>
      <trkpt lat="48.77133" lon="1.72037">
        <ele>160.9</ele>
        <time>2022-03-24T11:40:52Z</time>
      </trkpt>
      <trkpt lat="48.7713" lon="1.72044">
        <ele>160.5</ele>
        <time>2022-03-24T11:41:01Z</time>
      </trkpt>
      <trkpt lat="48.77128" lon="1.72051">
        <ele>160.8</ele>
        <time>2022-03-24T11:41:05Z</time>
      </trkpt>
      <trkpt lat="48.77124" lon="1.72057">
        <ele>160.7</ele>
        <time>2022-03-24T11:41:09Z</time>
      </trkpt>
      <trkpt lat="48.77121" lon="1.72063">
        <ele>160.7</ele>
        <time>2022-03-24T11:41:12Z</time>
      </trkpt>
      <trkpt lat="48.77116" lon="1.72068">
        <ele>160.7</ele>
        <time>2022-03-24T11:41:17Z</time>
      </trkpt>
      <trkpt lat="48.77113" lon="1.72073">
        <ele>160.8</ele>
        <time>2022-03-24T11:41:21Z</time>
      </trkpt>
      <trkpt lat="48.7711" lon="1.72078">
        <ele>160.9</ele>
        <time>2022-03-24T11:41:25Z</time>
      </trkpt>
      <trkpt lat="48.77106" lon="1.72083">
        <ele>161.6</ele>
        <time>2022-03-24T11:41:30Z</time>
      </trkpt>
      <trkpt lat="48.77102" lon="1.72088">
        <ele>161.9</ele>
        <time>2022-03-24T11:41:35Z</time>
      </trkpt>
      <trkpt lat="48.77098" lon="1.72094">
        <ele>160.7</ele>
        <time>2022-03-24T11:41:41Z</time>
      </trkpt>
      <trkpt lat="48.77095" lon="1.72099">
        <ele>159.5</ele>
        <time>2022-03-24T11:41:46Z</time>
      </trkpt>
      <trkpt lat="48.7709" lon="1.721">
        <ele>157.8</ele>
        <time>2022-03-24T11:41:52Z</time>
      </trkpt>
      <trkpt lat="48.77086" lon="1.72107">
        <ele>156.8</ele>
        <time>2022-03-24T11:41:57Z</time>
      </trkpt>
      <trkpt lat="48.77084" lon="1.72113">
        <ele>156.6</ele>
        <time>2022-03-24T11:42:03Z</time>
      </trkpt>
      <trkpt lat="48.77081" lon="1.7212">
        <ele>155.1</ele>
        <time>2022-03-24T11:42:08Z</time>
      </trkpt>
      <trkpt lat="48.77076" lon="1.72125">
        <ele>153.9</ele>
        <time>2022-03-24T11:42:12Z</time>
      </trkpt>
      <trkpt lat="48.77072" lon="1.72128">
        <ele>154.5</ele>
        <time>2022-03-24T11:42:16Z</time>
      </trkpt>
      <trkpt lat="48.77071" lon="1.72135">
        <ele>155.7</ele>
        <time>2022-03-24T11:42:21Z</time>
      </trkpt>
      <trkpt lat="48.77068" lon="1.72142">
        <ele>157</ele>
        <time>2022-03-24T11:42:27Z</time>
      </trkpt>
      <trkpt lat="48.77066" lon="1.72148">
        <ele>158.8</ele>
        <time>2022-03-24T11:42:34Z</time>
      </trkpt>
      <trkpt lat="48.77063" lon="1.72154">
        <ele>158.9</ele>
        <time>2022-03-24T11:42:39Z</time>
      </trkpt>
      <trkpt lat="48.77059" lon="1.7216">
        <ele>158.3</ele>
        <time>2022-03-24T11:42:43Z</time>
      </trkpt>
      <trkpt lat="48.77055" lon="1.72166">
        <ele>156.6</ele>
        <time>2022-03-24T11:42:49Z</time>
      </trkpt>
      <trkpt lat="48.77051" lon="1.7217">
        <ele>156.3</ele>
        <time>2022-03-24T11:42:52Z</time>
      </trkpt>
      <trkpt lat="48.77048" lon="1.72175">
        <ele>156.6</ele>
        <time>2022-03-24T11:42:57Z</time>
      </trkpt>
      <trkpt lat="48.77045" lon="1.7218">
        <ele>157</ele>
        <time>2022-03-24T11:43:00Z</time>
      </trkpt>
      <trkpt lat="48.77042" lon="1.72185">
        <ele>157.1</ele>
        <time>2022-03-24T11:43:05Z</time>
      </trkpt>
      <trkpt lat="48.77038" lon="1.72191">
        <ele>158.1</ele>
        <time>2022-03-24T11:43:10Z</time>
      </trkpt>
      <trkpt lat="48.77035" lon="1.72196">
        <ele>158.7</ele>
        <time>2022-03-24T11:43:13Z</time>
      </trkpt>
      <trkpt lat="48.77031" lon="1.72201">
        <ele>159.2</ele>
        <time>2022-03-24T11:43:16Z</time>
      </trkpt>
      <trkpt lat="48.77026" lon="1.72206">
        <ele>159.7</ele>
        <time>2022-03-24T11:43:21Z</time>
      </trkpt>
      <trkpt lat="48.77021" lon="1.7221">
        <ele>160</ele>
        <time>2022-03-24T11:43:25Z</time>
      </trkpt>
      <trkpt lat="48.77018" lon="1.72215">
        <ele>159.9</ele>
        <time>2022-03-24T11:43:28Z</time>
      </trkpt>
      <trkpt lat="48.77014" lon="1.72221">
        <ele>159.6</ele>
        <time>2022-03-24T11:43:32Z</time>
      </trkpt>
      <trkpt lat="48.7701" lon="1.72226">
        <ele>159.2</ele>
        <time>2022-03-24T11:43:37Z</time>
      </trkpt>
      <trkpt lat="48.77007" lon="1.72232">
        <ele>158.6</ele>
        <time>2022-03-24T11:43:41Z</time>
      </trkpt>
      <trkpt lat="48.77003" lon="1.72237">
        <ele>157.9</ele>
        <time>2022-03-24T11:43:44Z</time>
      </trkpt>
      <trkpt lat="48.76999" lon="1.72242">
        <ele>158.1</ele>
        <time>2022-03-24T11:43:49Z</time>
      </trkpt>
      <trkpt lat="48.76995" lon="1.72247">
        <ele>159</ele>
        <time>2022-03-24T11:43:53Z</time>
      </trkpt>
      <trkpt lat="48.76992" lon="1.72252">
        <ele>158.9</ele>
        <time>2022-03-24T11:43:58Z</time>
      </trkpt>
      <trkpt lat="48.76987" lon="1.72258">
        <ele>156.9</ele>
        <time>2022-03-24T11:44:04Z</time>
      </trkpt>
      <trkpt lat="48.76983" lon="1.72262">
        <ele>155.2</ele>
        <time>2022-03-24T11:44:09Z</time>
      </trkpt>
      <trkpt lat="48.7698" lon="1.72269">
        <ele>154.7</ele>
        <time>2022-03-24T11:44:15Z</time>
      </trkpt>
      <trkpt lat="48.76978" lon="1.72276">
        <ele>153.5</ele>
        <time>2022-03-24T11:44:21Z</time>
      </trkpt>
      <trkpt lat="48.76974" lon="1.72279">
        <ele>153.6</ele>
        <time>2022-03-24T11:44:26Z</time>
      </trkpt>
      <trkpt lat="48.7697" lon="1.72284">
        <ele>154.4</ele>
        <time>2022-03-24T11:44:30Z</time>
      </trkpt>
      <trkpt lat="48.76967" lon="1.7229">
        <ele>155.4</ele>
        <time>2022-03-24T11:44:35Z</time>
      </trkpt>
      <trkpt lat="48.76964" lon="1.72295">
        <ele>156.8</ele>
        <time>2022-03-24T11:44:40Z</time>
      </trkpt>
      <trkpt lat="48.7696" lon="1.723">
        <ele>158</ele>
        <time>2022-03-24T11:44:45Z</time>
      </trkpt>
      <trkpt lat="48.76957" lon="1.72305">
        <ele>157.7</ele>
        <time>2022-03-24T11:44:49Z</time>
      </trkpt>
      <trkpt lat="48.76953" lon="1.7231">
        <ele>157</ele>
        <time>2022-03-24T11:44:54Z</time>
      </trkpt>
      <trkpt lat="48.76949" lon="1.72315">
        <ele>157.3</ele>
        <time>2022-03-24T11:45:00Z</time>
      </trkpt>
      <trkpt lat="48.76945" lon="1.7232">
        <ele>157.2</ele>
        <time>2022-03-24T11:45:06Z</time>
      </trkpt>
      <trkpt lat="48.76941" lon="1.72324">
        <ele>157.4</ele>
        <time>2022-03-24T11:45:11Z</time>
      </trkpt>
      <trkpt lat="48.76938" lon="1.72331">
        <ele>157.5</ele>
        <time>2022-03-24T11:45:16Z</time>
      </trkpt>
      <trkpt lat="48.76935" lon="1.72336">
        <ele>157.5</ele>
        <time>2022-03-24T11:45:21Z</time>
      </trkpt>
      <trkpt lat="48.7693" lon="1.72339">
        <ele>157.7</ele>
        <time>2022-03-24T11:45:25Z</time>
      </trkpt>
      <trkpt lat="48.76928" lon="1.72345">
        <ele>157.9</ele>
        <time>2022-03-24T11:45:31Z</time>
      </trkpt>
      <trkpt lat="48.76927" lon="1.72353">
        <ele>158.1</ele>
        <time>2022-03-24T11:45:36Z</time>
      </trkpt>
      <trkpt lat="48.7693" lon="1.72358">
        <ele>158.1</ele>
        <time>2022-03-24T11:45:40Z</time>
      </trkpt>
      <trkpt lat="48.76933" lon="1.72366">
        <ele>158.5</ele>
        <time>2022-03-24T11:45:45Z</time>
      </trkpt>
      <trkpt lat="48.76936" lon="1.72373">
        <ele>161.8</ele>
        <time>2022-03-24T11:46:00Z</time>
      </trkpt>
      <trkpt lat="48.76939" lon="1.72377">
        <ele>162.6</ele>
        <time>2022-03-24T11:46:13Z</time>
      </trkpt>
      <trkpt lat="48.76943" lon="1.72382">
        <ele>162.8</ele>
        <time>2022-03-24T11:47:23Z</time>
      </trkpt>
      <trkpt lat="48.76945" lon="1.7239">
        <ele>162.1</ele>
        <time>2022-03-24T11:47:29Z</time>
      </trkpt>
      <trkpt lat="48.76945" lon="1.72401">
        <ele>162.4</ele>
        <time>2022-03-24T11:47:34Z</time>
      </trkpt>
      <trkpt lat="48.76946" lon="1.72408">
        <ele>166.1</ele>
        <time>2022-03-24T11:47:39Z</time>
      </trkpt>
      <trkpt lat="48.76948" lon="1.72415">
        <ele>169.6</ele>
        <time>2022-03-24T11:47:47Z</time>
      </trkpt>
      <trkpt lat="48.76953" lon="1.72419">
        <ele>170.1</ele>
        <time>2022-03-24T11:47:54Z</time>
      </trkpt>
      <trkpt lat="48.76958" lon="1.72421">
        <ele>171.1</ele>
        <time>2022-03-24T11:48:00Z</time>
      </trkpt>
      <trkpt lat="48.76961" lon="1.72426">
        <ele>171.8</ele>
        <time>2022-03-24T11:48:05Z</time>
      </trkpt>
      <trkpt lat="48.76965" lon="1.72431">
        <ele>172</ele>
        <time>2022-03-24T11:48:09Z</time>
      </trkpt>
      <trkpt lat="48.7697" lon="1.72435">
        <ele>173.3</ele>
        <time>2022-03-24T11:48:15Z</time>
      </trkpt>
      <trkpt lat="48.76975" lon="1.72439">
        <ele>174.7</ele>
        <time>2022-03-24T11:48:21Z</time>
      </trkpt>
      <trkpt lat="48.76979" lon="1.72443">
        <ele>174.9</ele>
        <time>2022-03-24T11:48:27Z</time>
      </trkpt>
      <trkpt lat="48.76983" lon="1.72446">
        <ele>174.2</ele>
        <time>2022-03-24T11:48:32Z</time>
      </trkpt>
      <trkpt lat="48.76988" lon="1.72451">
        <ele>174.1</ele>
        <time>2022-03-24T11:48:38Z</time>
      </trkpt>
      <trkpt lat="48.76992" lon="1.72455">
        <ele>175.1</ele>
        <time>2022-03-24T11:48:43Z</time>
      </trkpt>
      <trkpt lat="48.76998" lon="1.72457">
        <ele>175.8</ele>
        <time>2022-03-24T11:48:48Z</time>
      </trkpt>
      <trkpt lat="48.77003" lon="1.7246">
        <ele>175.7</ele>
        <time>2022-03-24T11:48:53Z</time>
      </trkpt>
      <trkpt lat="48.77007" lon="1.72464">
        <ele>175.4</ele>
        <time>2022-03-24T11:48:58Z</time>
      </trkpt>
      <trkpt lat="48.77011" lon="1.7247">
        <ele>175.8</ele>
        <time>2022-03-24T11:49:04Z</time>
      </trkpt>
      <trkpt lat="48.77015" lon="1.72474">
        <ele>176.3</ele>
        <time>2022-03-24T11:49:11Z</time>
      </trkpt>
      <trkpt lat="48.7702" lon="1.72477">
        <ele>177.7</ele>
        <time>2022-03-24T11:49:18Z</time>
      </trkpt>
      <trkpt lat="48.77025" lon="1.72479">
        <ele>179.7</ele>
        <time>2022-03-24T11:49:24Z</time>
      </trkpt>
      <trkpt lat="48.77029" lon="1.72481">
        <ele>179.5</ele>
        <time>2022-03-24T11:49:31Z</time>
      </trkpt>
      <trkpt lat="48.77035" lon="1.72485">
        <ele>179</ele>
        <time>2022-03-24T11:49:38Z</time>
      </trkpt>
      <trkpt lat="48.77039" lon="1.72489">
        <ele>179.8</ele>
        <time>2022-03-24T11:49:45Z</time>
      </trkpt>
      <trkpt lat="48.77043" lon="1.72493">
        <ele>179</ele>
        <time>2022-03-24T11:49:57Z</time>
      </trkpt>
      <trkpt lat="48.77045" lon="1.725">
        <ele>178.5</ele>
        <time>2022-03-24T11:50:01Z</time>
      </trkpt>
      <trkpt lat="48.77044" lon="1.72508">
        <ele>177.9</ele>
        <time>2022-03-24T11:50:07Z</time>
      </trkpt>
      <trkpt lat="48.77044" lon="1.72515">
        <ele>176.9</ele>
        <time>2022-03-24T11:50:14Z</time>
      </trkpt>
      <trkpt lat="48.77045" lon="1.72522">
        <ele>178.1</ele>
        <time>2022-03-24T11:50:20Z</time>
      </trkpt>
      <trkpt lat="48.77047" lon="1.72528">
        <ele>178.1</ele>
        <time>2022-03-24T11:50:26Z</time>
      </trkpt>
      <trkpt lat="48.77049" lon="1.72535">
        <ele>177.8</ele>
        <time>2022-03-24T11:50:33Z</time>
      </trkpt>
      <trkpt lat="48.77053" lon="1.72541">
        <ele>177.6</ele>
        <time>2022-03-24T11:50:40Z</time>
      </trkpt>
      <trkpt lat="48.77055" lon="1.72547">
        <ele>178.8</ele>
        <time>2022-03-24T11:50:47Z</time>
      </trkpt>
      <trkpt lat="48.7706" lon="1.72544">
        <ele>178.8</ele>
        <time>2022-03-24T11:50:53Z</time>
      </trkpt>
      <trkpt lat="48.77063" lon="1.72537">
        <ele>177.2</ele>
        <time>2022-03-24T11:50:58Z</time>
      </trkpt>
      <trkpt lat="48.77067" lon="1.72534">
        <ele>175.2</ele>
        <time>2022-03-24T11:52:16Z</time>
      </trkpt>
      <trkpt lat="48.77067" lon="1.72532">
        <ele>172.9</ele>
        <time>2022-03-24T12:23:18Z</time>
      </trkpt>
      <trkpt lat="48.77066" lon="1.72525">
        <ele>173.9</ele>
        <time>2022-03-24T12:24:21Z</time>
      </trkpt>
      <trkpt lat="48.77061" lon="1.72523">
        <ele>182.6</ele>
        <time>2022-03-24T12:25:24Z</time>
      </trkpt>
      <trkpt lat="48.77066" lon="1.72518">
        <ele>179.7</ele>
        <time>2022-03-24T12:26:57Z</time>
      </trkpt>
      <trkpt lat="48.7707" lon="1.7252">
        <ele>176</ele>
        <time>2022-03-24T12:27:10Z</time>
      </trkpt>
      <trkpt lat="48.77075" lon="1.72519">
        <ele>175.8</ele>
        <time>2022-03-24T12:27:16Z</time>
      </trkpt>
      <trkpt lat="48.77074" lon="1.72512">
        <ele>175.1</ele>
        <time>2022-03-24T12:27:41Z</time>
      </trkpt>
      <trkpt lat="48.77079" lon="1.72514">
        <ele>174.9</ele>
        <time>2022-03-24T12:28:57Z</time>
      </trkpt>
      <trkpt lat="48.77084" lon="1.72518">
        <ele>176.8</ele>
        <time>2022-03-24T12:29:21Z</time>
      </trkpt>
      <trkpt lat="48.77089" lon="1.72523">
        <ele>176.3</ele>
        <time>2022-03-24T12:29:26Z</time>
      </trkpt>
      <trkpt lat="48.77092" lon="1.72529">
        <ele>176.3</ele>
        <time>2022-03-24T12:29:29Z</time>
      </trkpt>
      <trkpt lat="48.77095" lon="1.72535">
        <ele>177.7</ele>
        <time>2022-03-24T12:29:33Z</time>
      </trkpt>
      <trkpt lat="48.77097" lon="1.72542">
        <ele>179.9</ele>
        <time>2022-03-24T12:29:37Z</time>
      </trkpt>
      <trkpt lat="48.77102" lon="1.72547">
        <ele>180.2</ele>
        <time>2022-03-24T12:29:42Z</time>
      </trkpt>
      <trkpt lat="48.77107" lon="1.72549">
        <ele>178.7</ele>
        <time>2022-03-24T12:29:46Z</time>
      </trkpt>
      <trkpt lat="48.77113" lon="1.72549">
        <ele>176.5</ele>
        <time>2022-03-24T12:29:51Z</time>
      </trkpt>
      <trkpt lat="48.77117" lon="1.72554">
        <ele>175.6</ele>
        <time>2022-03-24T12:29:55Z</time>
      </trkpt>
      <trkpt lat="48.77122" lon="1.72557">
        <ele>177</ele>
        <time>2022-03-24T12:29:59Z</time>
      </trkpt>
      <trkpt lat="48.77126" lon="1.72563">
        <ele>178.8</ele>
        <time>2022-03-24T12:30:03Z</time>
      </trkpt>
      <trkpt lat="48.77131" lon="1.72568">
        <ele>180.5</ele>
        <time>2022-03-24T12:30:08Z</time>
      </trkpt>
      <trkpt lat="48.77135" lon="1.72573">
        <ele>181.2</ele>
        <time>2022-03-24T12:30:12Z</time>
      </trkpt>
      <trkpt lat="48.77139" lon="1.72578">
        <ele>180.3</ele>
        <time>2022-03-24T12:30:16Z</time>
      </trkpt>
      <trkpt lat="48.77144" lon="1.72582">
        <ele>179.5</ele>
        <time>2022-03-24T12:30:20Z</time>
      </trkpt>
      <trkpt lat="48.77148" lon="1.72585">
        <ele>179.8</ele>
        <time>2022-03-24T12:30:24Z</time>
      </trkpt>
      <trkpt lat="48.77153" lon="1.7259">
        <ele>181</ele>
        <time>2022-03-24T12:30:28Z</time>
      </trkpt>
      <trkpt lat="48.77157" lon="1.72595">
        <ele>183.8</ele>
        <time>2022-03-24T12:30:33Z</time>
      </trkpt>
      <trkpt lat="48.77161" lon="1.72599">
        <ele>186.4</ele>
        <time>2022-03-24T12:30:37Z</time>
      </trkpt>
      <trkpt lat="48.77165" lon="1.72603">
        <ele>187</ele>
        <time>2022-03-24T12:30:41Z</time>
      </trkpt>
      <trkpt lat="48.7717" lon="1.72607">
        <ele>187</ele>
        <time>2022-03-24T12:30:44Z</time>
      </trkpt>
      <trkpt lat="48.77174" lon="1.72611">
        <ele>186.7</ele>
        <time>2022-03-24T12:30:49Z</time>
      </trkpt>
      <trkpt lat="48.77179" lon="1.72613">
        <ele>186.5</ele>
        <time>2022-03-24T12:30:52Z</time>
      </trkpt>
      <trkpt lat="48.77184" lon="1.72617">
        <ele>186.9</ele>
        <time>2022-03-24T12:30:56Z</time>
      </trkpt>
      <trkpt lat="48.77188" lon="1.7262">
        <ele>188.2</ele>
        <time>2022-03-24T12:31:00Z</time>
      </trkpt>
      <trkpt lat="48.77192" lon="1.72624">
        <ele>189.1</ele>
        <time>2022-03-24T12:31:04Z</time>
      </trkpt>
      <trkpt lat="48.77196" lon="1.72628">
        <ele>188.6</ele>
        <time>2022-03-24T12:31:08Z</time>
      </trkpt>
      <trkpt lat="48.77202" lon="1.72631">
        <ele>186.9</ele>
        <time>2022-03-24T12:31:12Z</time>
      </trkpt>
      <trkpt lat="48.77206" lon="1.72633">
        <ele>185.8</ele>
        <time>2022-03-24T12:31:15Z</time>
      </trkpt>
      <trkpt lat="48.77211" lon="1.72637">
        <ele>185.2</ele>
        <time>2022-03-24T12:31:19Z</time>
      </trkpt>
      <trkpt lat="48.77216" lon="1.7264">
        <ele>184.7</ele>
        <time>2022-03-24T12:31:24Z</time>
      </trkpt>
      <trkpt lat="48.77221" lon="1.72645">
        <ele>184.3</ele>
        <time>2022-03-24T12:31:28Z</time>
      </trkpt>
      <trkpt lat="48.77224" lon="1.7265">
        <ele>184.1</ele>
        <time>2022-03-24T12:31:32Z</time>
      </trkpt>
      <trkpt lat="48.77228" lon="1.72657">
        <ele>184.1</ele>
        <time>2022-03-24T12:31:37Z</time>
      </trkpt>
      <trkpt lat="48.7723" lon="1.72663">
        <ele>184.2</ele>
        <time>2022-03-24T12:31:41Z</time>
      </trkpt>
      <trkpt lat="48.77231" lon="1.72671">
        <ele>184</ele>
        <time>2022-03-24T12:31:46Z</time>
      </trkpt>
      <trkpt lat="48.77232" lon="1.72678">
        <ele>183.3</ele>
        <time>2022-03-24T12:31:50Z</time>
      </trkpt>
      <trkpt lat="48.77232" lon="1.72685">
        <ele>181.6</ele>
        <time>2022-03-24T12:31:54Z</time>
      </trkpt>
      <trkpt lat="48.77233" lon="1.72693">
        <ele>181.1</ele>
        <time>2022-03-24T12:31:58Z</time>
      </trkpt>
      <trkpt lat="48.77233" lon="1.72701">
        <ele>181.3</ele>
        <time>2022-03-24T12:32:02Z</time>
      </trkpt>
      <trkpt lat="48.77232" lon="1.72709">
        <ele>180</ele>
        <time>2022-03-24T12:32:06Z</time>
      </trkpt>
      <trkpt lat="48.77233" lon="1.72716">
        <ele>178.1</ele>
        <time>2022-03-24T12:32:10Z</time>
      </trkpt>
      <trkpt lat="48.77233" lon="1.72723">
        <ele>176.6</ele>
        <time>2022-03-24T12:32:14Z</time>
      </trkpt>
      <trkpt lat="48.77233" lon="1.72731">
        <ele>176.2</ele>
        <time>2022-03-24T12:32:20Z</time>
      </trkpt>
      <trkpt lat="48.77234" lon="1.72739">
        <ele>176.6</ele>
        <time>2022-03-24T12:32:24Z</time>
      </trkpt>
      <trkpt lat="48.77234" lon="1.72747">
        <ele>176.8</ele>
        <time>2022-03-24T12:32:28Z</time>
      </trkpt>
      <trkpt lat="48.77233" lon="1.72755">
        <ele>176.7</ele>
        <time>2022-03-24T12:32:32Z</time>
      </trkpt>
      <trkpt lat="48.77233" lon="1.72762">
        <ele>175.6</ele>
        <time>2022-03-24T12:32:36Z</time>
      </trkpt>
      <trkpt lat="48.77234" lon="1.7277">
        <ele>175.5</ele>
        <time>2022-03-24T12:32:40Z</time>
      </trkpt>
      <trkpt lat="48.77235" lon="1.72777">
        <ele>176.9</ele>
        <time>2022-03-24T12:32:44Z</time>
      </trkpt>
      <trkpt lat="48.77236" lon="1.72786">
        <ele>177.4</ele>
        <time>2022-03-24T12:32:48Z</time>
      </trkpt>
      <trkpt lat="48.77238" lon="1.72794">
        <ele>177.1</ele>
        <time>2022-03-24T12:32:52Z</time>
      </trkpt>
      <trkpt lat="48.77238" lon="1.72802">
        <ele>177.1</ele>
        <time>2022-03-24T12:32:56Z</time>
      </trkpt>
      <trkpt lat="48.77239" lon="1.72809">
        <ele>176.9</ele>
        <time>2022-03-24T12:33:01Z</time>
      </trkpt>
      <trkpt lat="48.77239" lon="1.72817">
        <ele>177</ele>
        <time>2022-03-24T12:33:05Z</time>
      </trkpt>
      <trkpt lat="48.77239" lon="1.72825">
        <ele>176.8</ele>
        <time>2022-03-24T12:33:09Z</time>
      </trkpt>
      <trkpt lat="48.7724" lon="1.72833">
        <ele>176.4</ele>
        <time>2022-03-24T12:33:13Z</time>
      </trkpt>
      <trkpt lat="48.77239" lon="1.72841">
        <ele>175.8</ele>
        <time>2022-03-24T12:33:18Z</time>
      </trkpt>
      <trkpt lat="48.77237" lon="1.72848">
        <ele>176</ele>
        <time>2022-03-24T12:33:21Z</time>
      </trkpt>
      <trkpt lat="48.77235" lon="1.72854">
        <ele>175.6</ele>
        <time>2022-03-24T12:33:25Z</time>
      </trkpt>
      <trkpt lat="48.77234" lon="1.72862">
        <ele>175.6</ele>
        <time>2022-03-24T12:33:29Z</time>
      </trkpt>
      <trkpt lat="48.77231" lon="1.72869">
        <ele>175.5</ele>
        <time>2022-03-24T12:33:33Z</time>
      </trkpt>
      <trkpt lat="48.77229" lon="1.72877">
        <ele>175.8</ele>
        <time>2022-03-24T12:33:37Z</time>
      </trkpt>
      <trkpt lat="48.77227" lon="1.72884">
        <ele>175.3</ele>
        <time>2022-03-24T12:33:42Z</time>
      </trkpt>
      <trkpt lat="48.77225" lon="1.72892">
        <ele>175</ele>
        <time>2022-03-24T12:33:46Z</time>
      </trkpt>
      <trkpt lat="48.77223" lon="1.72898">
        <ele>175.3</ele>
        <time>2022-03-24T12:33:50Z</time>
      </trkpt>
      <trkpt lat="48.77221" lon="1.72906">
        <ele>176.2</ele>
        <time>2022-03-24T12:33:54Z</time>
      </trkpt>
      <trkpt lat="48.77219" lon="1.72912">
        <ele>176.2</ele>
        <time>2022-03-24T12:33:58Z</time>
      </trkpt>
      <trkpt lat="48.77217" lon="1.72919">
        <ele>176.4</ele>
        <time>2022-03-24T12:34:02Z</time>
      </trkpt>
      <trkpt lat="48.77214" lon="1.72926">
        <ele>177.6</ele>
        <time>2022-03-24T12:34:06Z</time>
      </trkpt>
      <trkpt lat="48.77212" lon="1.72932">
        <ele>178</ele>
        <time>2022-03-24T12:34:10Z</time>
      </trkpt>
      <trkpt lat="48.77209" lon="1.7294">
        <ele>178.3</ele>
        <time>2022-03-24T12:34:14Z</time>
      </trkpt>
      <trkpt lat="48.77208" lon="1.72947">
        <ele>178.8</ele>
        <time>2022-03-24T12:34:18Z</time>
      </trkpt>
      <trkpt lat="48.77204" lon="1.72953">
        <ele>179.1</ele>
        <time>2022-03-24T12:34:22Z</time>
      </trkpt>
      <trkpt lat="48.77201" lon="1.72959">
        <ele>179.5</ele>
        <time>2022-03-24T12:34:26Z</time>
      </trkpt>
      <trkpt lat="48.77199" lon="1.72966">
        <ele>180</ele>
        <time>2022-03-24T12:34:29Z</time>
      </trkpt>
      <trkpt lat="48.77197" lon="1.72973">
        <ele>180.3</ele>
        <time>2022-03-24T12:34:34Z</time>
      </trkpt>
      <trkpt lat="48.77195" lon="1.72979">
        <ele>179.9</ele>
        <time>2022-03-24T12:34:38Z</time>
      </trkpt>
      <trkpt lat="48.77192" lon="1.72986">
        <ele>179.8</ele>
        <time>2022-03-24T12:34:42Z</time>
      </trkpt>
      <trkpt lat="48.7719" lon="1.72994">
        <ele>180</ele>
        <time>2022-03-24T12:34:46Z</time>
      </trkpt>
      <trkpt lat="48.77188" lon="1.73">
        <ele>179.3</ele>
        <time>2022-03-24T12:34:51Z</time>
      </trkpt>
      <trkpt lat="48.77185" lon="1.73006">
        <ele>177.9</ele>
        <time>2022-03-24T12:34:56Z</time>
      </trkpt>
      <trkpt lat="48.77181" lon="1.73011">
        <ele>176.4</ele>
        <time>2022-03-24T12:35:00Z</time>
      </trkpt>
      <trkpt lat="48.77177" lon="1.73014">
        <ele>175.4</ele>
        <time>2022-03-24T12:35:04Z</time>
      </trkpt>
      <trkpt lat="48.77171" lon="1.73016">
        <ele>175</ele>
        <time>2022-03-24T12:35:08Z</time>
      </trkpt>
      <trkpt lat="48.77167" lon="1.73014">
        <ele>174.3</ele>
        <time>2022-03-24T12:35:14Z</time>
      </trkpt>
      <trkpt lat="48.77162" lon="1.73011">
        <ele>175.1</ele>
        <time>2022-03-24T12:35:19Z</time>
      </trkpt>
      <trkpt lat="48.77156" lon="1.73009">
        <ele>176.4</ele>
        <time>2022-03-24T12:35:24Z</time>
      </trkpt>
      <trkpt lat="48.77151" lon="1.73008">
        <ele>177</ele>
        <time>2022-03-24T12:35:29Z</time>
      </trkpt>
      <trkpt lat="48.77145" lon="1.73005">
        <ele>178.6</ele>
        <time>2022-03-24T12:35:34Z</time>
      </trkpt>
      <trkpt lat="48.7714" lon="1.73003">
        <ele>180.1</ele>
        <time>2022-03-24T12:35:38Z</time>
      </trkpt>
      <trkpt lat="48.77135" lon="1.73004">
        <ele>179.9</ele>
        <time>2022-03-24T12:35:42Z</time>
      </trkpt>
      <trkpt lat="48.7713" lon="1.73003">
        <ele>179.1</ele>
        <time>2022-03-24T12:35:47Z</time>
      </trkpt>
      <trkpt lat="48.77125" lon="1.73003">
        <ele>179.1</ele>
        <time>2022-03-24T12:35:52Z</time>
      </trkpt>
      <trkpt lat="48.7712" lon="1.73002">
        <ele>180.2</ele>
        <time>2022-03-24T12:35:56Z</time>
      </trkpt>
      <trkpt lat="48.77114" lon="1.73004">
        <ele>181.3</ele>
        <time>2022-03-24T12:36:00Z</time>
      </trkpt>
      <trkpt lat="48.7711" lon="1.73008">
        <ele>181.9</ele>
        <time>2022-03-24T12:36:04Z</time>
      </trkpt>
      <trkpt lat="48.77106" lon="1.73013">
        <ele>183</ele>
        <time>2022-03-24T12:36:08Z</time>
      </trkpt>
      <trkpt lat="48.77101" lon="1.73018">
        <ele>185</ele>
        <time>2022-03-24T12:36:12Z</time>
      </trkpt>
      <trkpt lat="48.77098" lon="1.73024">
        <ele>184.8</ele>
        <time>2022-03-24T12:36:16Z</time>
      </trkpt>
      <trkpt lat="48.77094" lon="1.7303">
        <ele>183.8</ele>
        <time>2022-03-24T12:36:19Z</time>
      </trkpt>
      <trkpt lat="48.77091" lon="1.73035">
        <ele>182.4</ele>
        <time>2022-03-24T12:36:23Z</time>
      </trkpt>
      <trkpt lat="48.77088" lon="1.73042">
        <ele>181.6</ele>
        <time>2022-03-24T12:36:27Z</time>
      </trkpt>
      <trkpt lat="48.77085" lon="1.73049">
        <ele>180.2</ele>
        <time>2022-03-24T12:36:31Z</time>
      </trkpt>
      <trkpt lat="48.7708" lon="1.73055">
        <ele>180.1</ele>
        <time>2022-03-24T12:36:35Z</time>
      </trkpt>
      <trkpt lat="48.77078" lon="1.73062">
        <ele>180.4</ele>
        <time>2022-03-24T12:36:39Z</time>
      </trkpt>
      <trkpt lat="48.77075" lon="1.73069">
        <ele>179.5</ele>
        <time>2022-03-24T12:36:44Z</time>
      </trkpt>
      <trkpt lat="48.77072" lon="1.73074">
        <ele>178.5</ele>
        <time>2022-03-24T12:36:47Z</time>
      </trkpt>
      <trkpt lat="48.77068" lon="1.73078">
        <ele>177.8</ele>
        <time>2022-03-24T12:36:51Z</time>
      </trkpt>
      <trkpt lat="48.77064" lon="1.73084">
        <ele>177.1</ele>
        <time>2022-03-24T12:36:55Z</time>
      </trkpt>
      <trkpt lat="48.77061" lon="1.7309">
        <ele>176.5</ele>
        <time>2022-03-24T12:36:59Z</time>
      </trkpt>
      <trkpt lat="48.77057" lon="1.73095">
        <ele>176.2</ele>
        <time>2022-03-24T12:37:03Z</time>
      </trkpt>
      <trkpt lat="48.77052" lon="1.731">
        <ele>177.3</ele>
        <time>2022-03-24T12:37:07Z</time>
      </trkpt>
      <trkpt lat="48.77048" lon="1.73104">
        <ele>179</ele>
        <time>2022-03-24T12:37:11Z</time>
      </trkpt>
      <trkpt lat="48.77044" lon="1.7311">
        <ele>179.8</ele>
        <time>2022-03-24T12:37:16Z</time>
      </trkpt>
      <trkpt lat="48.77041" lon="1.73115">
        <ele>179.5</ele>
        <time>2022-03-24T12:37:19Z</time>
      </trkpt>
      <trkpt lat="48.77038" lon="1.73122">
        <ele>179.5</ele>
        <time>2022-03-24T12:37:24Z</time>
      </trkpt>
      <trkpt lat="48.77039" lon="1.7313">
        <ele>179.6</ele>
        <time>2022-03-24T12:37:28Z</time>
      </trkpt>
      <trkpt lat="48.77037" lon="1.73137">
        <ele>179.3</ele>
        <time>2022-03-24T12:37:32Z</time>
      </trkpt>
      <trkpt lat="48.77031" lon="1.73142">
        <ele>179</ele>
        <time>2022-03-24T12:37:37Z</time>
      </trkpt>
      <trkpt lat="48.77027" lon="1.73145">
        <ele>178.9</ele>
        <time>2022-03-24T12:37:40Z</time>
      </trkpt>
      <trkpt lat="48.77023" lon="1.7315">
        <ele>178.3</ele>
        <time>2022-03-24T12:37:44Z</time>
      </trkpt>
      <trkpt lat="48.77021" lon="1.73157">
        <ele>176.5</ele>
        <time>2022-03-24T12:37:48Z</time>
      </trkpt>
      <trkpt lat="48.77021" lon="1.73166">
        <ele>174.3</ele>
        <time>2022-03-24T12:37:52Z</time>
      </trkpt>
      <trkpt lat="48.7702" lon="1.73173">
        <ele>173.5</ele>
        <time>2022-03-24T12:37:56Z</time>
      </trkpt>
      <trkpt lat="48.7702" lon="1.73182">
        <ele>174.1</ele>
        <time>2022-03-24T12:38:00Z</time>
      </trkpt>
      <trkpt lat="48.77018" lon="1.7319">
        <ele>175.4</ele>
        <time>2022-03-24T12:38:04Z</time>
      </trkpt>
      <trkpt lat="48.77017" lon="1.73197">
        <ele>175.5</ele>
        <time>2022-03-24T12:38:08Z</time>
      </trkpt>
      <trkpt lat="48.77016" lon="1.73204">
        <ele>175.4</ele>
        <time>2022-03-24T12:38:11Z</time>
      </trkpt>
      <trkpt lat="48.77014" lon="1.73211">
        <ele>176.1</ele>
        <time>2022-03-24T12:38:15Z</time>
      </trkpt>
      <trkpt lat="48.77014" lon="1.73214">
        <ele>180.5</ele>
        <time>2022-03-24T12:41:47Z</time>
      </trkpt>
      <trkpt lat="48.77009" lon="1.73215">
        <ele>179.7</ele>
        <time>2022-03-24T12:41:50Z</time>
      </trkpt>
      <trkpt lat="48.77004" lon="1.73214">
        <ele>178.4</ele>
        <time>2022-03-24T12:41:54Z</time>
      </trkpt>
      <trkpt lat="48.76999" lon="1.73212">
        <ele>177.9</ele>
        <time>2022-03-24T12:41:58Z</time>
      </trkpt>
      <trkpt lat="48.76994" lon="1.73209">
        <ele>177.6</ele>
        <time>2022-03-24T12:42:02Z</time>
      </trkpt>
      <trkpt lat="48.7699" lon="1.73205">
        <ele>177.4</ele>
        <time>2022-03-24T12:42:06Z</time>
      </trkpt>
      <trkpt lat="48.76984" lon="1.73201">
        <ele>177.7</ele>
        <time>2022-03-24T12:42:10Z</time>
      </trkpt>
      <trkpt lat="48.7698" lon="1.73199">
        <ele>177.3</ele>
        <time>2022-03-24T12:42:13Z</time>
      </trkpt>
      <trkpt lat="48.76975" lon="1.73195">
        <ele>177.2</ele>
        <time>2022-03-24T12:42:17Z</time>
      </trkpt>
      <trkpt lat="48.7697" lon="1.73191">
        <ele>176.9</ele>
        <time>2022-03-24T12:42:22Z</time>
      </trkpt>
      <trkpt lat="48.76965" lon="1.7319">
        <ele>176.3</ele>
        <time>2022-03-24T12:42:35Z</time>
      </trkpt>
      <trkpt lat="48.76961" lon="1.73186">
        <ele>176.4</ele>
        <time>2022-03-24T12:42:40Z</time>
      </trkpt>
      <trkpt lat="48.76958" lon="1.73179">
        <ele>176.9</ele>
        <time>2022-03-24T12:42:44Z</time>
      </trkpt>
      <trkpt lat="48.76954" lon="1.73174">
        <ele>177.3</ele>
        <time>2022-03-24T12:42:48Z</time>
      </trkpt>
      <trkpt lat="48.7695" lon="1.73168">
        <ele>178</ele>
        <time>2022-03-24T12:42:52Z</time>
      </trkpt>
      <trkpt lat="48.76947" lon="1.73162">
        <ele>178.1</ele>
        <time>2022-03-24T12:42:57Z</time>
      </trkpt>
      <trkpt lat="48.76943" lon="1.73158">
        <ele>177.7</ele>
        <time>2022-03-24T12:43:00Z</time>
      </trkpt>
      <trkpt lat="48.7694" lon="1.73152">
        <ele>177.2</ele>
        <time>2022-03-24T12:43:04Z</time>
      </trkpt>
      <trkpt lat="48.76936" lon="1.73147">
        <ele>176.9</ele>
        <time>2022-03-24T12:43:07Z</time>
      </trkpt>
      <trkpt lat="48.76931" lon="1.73143">
        <ele>176.4</ele>
        <time>2022-03-24T12:43:11Z</time>
      </trkpt>
      <trkpt lat="48.76927" lon="1.73138">
        <ele>176.1</ele>
        <time>2022-03-24T12:43:15Z</time>
      </trkpt>
      <trkpt lat="48.76924" lon="1.73134">
        <ele>176.5</ele>
        <time>2022-03-24T12:43:19Z</time>
      </trkpt>
      <trkpt lat="48.7692" lon="1.73128">
        <ele>176.4</ele>
        <time>2022-03-24T12:43:24Z</time>
      </trkpt>
      <trkpt lat="48.76916" lon="1.73124">
        <ele>175.6</ele>
        <time>2022-03-24T12:43:29Z</time>
      </trkpt>
      <trkpt lat="48.7691" lon="1.73123">
        <ele>174.9</ele>
        <time>2022-03-24T12:43:33Z</time>
      </trkpt>
      <trkpt lat="48.76905" lon="1.73121">
        <ele>173.5</ele>
        <time>2022-03-24T12:43:37Z</time>
      </trkpt>
      <trkpt lat="48.769" lon="1.73117">
        <ele>171.6</ele>
        <time>2022-03-24T12:43:42Z</time>
      </trkpt>
      <trkpt lat="48.76895" lon="1.73115">
        <ele>170</ele>
        <time>2022-03-24T12:43:46Z</time>
      </trkpt>
      <trkpt lat="48.76891" lon="1.73113">
        <ele>169</ele>
        <time>2022-03-24T12:43:50Z</time>
      </trkpt>
      <trkpt lat="48.76886" lon="1.73111">
        <ele>168.1</ele>
        <time>2022-03-24T12:43:55Z</time>
      </trkpt>
      <trkpt lat="48.7688" lon="1.7311">
        <ele>168.3</ele>
        <time>2022-03-24T12:44:00Z</time>
      </trkpt>
      <trkpt lat="48.76875" lon="1.73108">
        <ele>168.6</ele>
        <time>2022-03-24T12:44:04Z</time>
      </trkpt>
      <trkpt lat="48.7687" lon="1.73108">
        <ele>168.6</ele>
        <time>2022-03-24T12:44:08Z</time>
      </trkpt>
      <trkpt lat="48.76865" lon="1.73108">
        <ele>168.1</ele>
        <time>2022-03-24T12:44:12Z</time>
      </trkpt>
      <trkpt lat="48.7686" lon="1.73109">
        <ele>166.3</ele>
        <time>2022-03-24T12:44:16Z</time>
      </trkpt>
      <trkpt lat="48.76856" lon="1.73113">
        <ele>164</ele>
        <time>2022-03-24T12:44:21Z</time>
      </trkpt>
      <trkpt lat="48.76851" lon="1.73115">
        <ele>161.8</ele>
        <time>2022-03-24T12:44:25Z</time>
      </trkpt>
      <trkpt lat="48.76847" lon="1.73119">
        <ele>160.4</ele>
        <time>2022-03-24T12:44:30Z</time>
      </trkpt>
      <trkpt lat="48.76842" lon="1.73124">
        <ele>159.9</ele>
        <time>2022-03-24T12:44:34Z</time>
      </trkpt>
      <trkpt lat="48.76837" lon="1.73125">
        <ele>160.4</ele>
        <time>2022-03-24T12:44:37Z</time>
      </trkpt>
      <trkpt lat="48.76833" lon="1.7313">
        <ele>160</ele>
        <time>2022-03-24T12:44:41Z</time>
      </trkpt>
      <trkpt lat="48.76829" lon="1.73135">
        <ele>159.9</ele>
        <time>2022-03-24T12:44:45Z</time>
      </trkpt>
      <trkpt lat="48.76825" lon="1.73141">
        <ele>159.1</ele>
        <time>2022-03-24T12:44:50Z</time>
      </trkpt>
      <trkpt lat="48.76821" lon="1.73146">
        <ele>158.7</ele>
        <time>2022-03-24T12:44:55Z</time>
      </trkpt>
      <trkpt lat="48.76816" lon="1.7315">
        <ele>158.9</ele>
        <time>2022-03-24T12:44:59Z</time>
      </trkpt>
      <trkpt lat="48.76811" lon="1.73151">
        <ele>158.9</ele>
        <time>2022-03-24T12:45:04Z</time>
      </trkpt>
      <trkpt lat="48.76806" lon="1.73155">
        <ele>158.4</ele>
        <time>2022-03-24T12:45:08Z</time>
      </trkpt>
      <trkpt lat="48.76801" lon="1.7316">
        <ele>157</ele>
        <time>2022-03-24T12:45:12Z</time>
      </trkpt>
      <trkpt lat="48.76797" lon="1.73162">
        <ele>156.3</ele>
        <time>2022-03-24T12:45:16Z</time>
      </trkpt>
      <trkpt lat="48.76793" lon="1.73167">
        <ele>155.9</ele>
        <time>2022-03-24T12:45:20Z</time>
      </trkpt>
      <trkpt lat="48.76789" lon="1.73173">
        <ele>156.1</ele>
        <time>2022-03-24T12:45:25Z</time>
      </trkpt>
      <trkpt lat="48.76784" lon="1.73178">
        <ele>155.9</ele>
        <time>2022-03-24T12:45:30Z</time>
      </trkpt>
      <trkpt lat="48.76779" lon="1.73178">
        <ele>156.2</ele>
        <time>2022-03-24T12:45:33Z</time>
      </trkpt>
      <trkpt lat="48.76774" lon="1.73179">
        <ele>156.7</ele>
        <time>2022-03-24T12:45:38Z</time>
      </trkpt>
      <trkpt lat="48.76769" lon="1.73182">
        <ele>157.4</ele>
        <time>2022-03-24T12:45:43Z</time>
      </trkpt>
      <trkpt lat="48.76765" lon="1.73186">
        <ele>157.3</ele>
        <time>2022-03-24T12:45:47Z</time>
      </trkpt>
      <trkpt lat="48.76761" lon="1.73192">
        <ele>157.5</ele>
        <time>2022-03-24T12:45:52Z</time>
      </trkpt>
      <trkpt lat="48.76757" lon="1.73195">
        <ele>157.4</ele>
        <time>2022-03-24T12:45:56Z</time>
      </trkpt>
      <trkpt lat="48.76752" lon="1.73199">
        <ele>156.3</ele>
        <time>2022-03-24T12:46:00Z</time>
      </trkpt>
      <trkpt lat="48.76747" lon="1.73203">
        <ele>155.5</ele>
        <time>2022-03-24T12:46:04Z</time>
      </trkpt>
      <trkpt lat="48.76743" lon="1.73207">
        <ele>156</ele>
        <time>2022-03-24T12:46:09Z</time>
      </trkpt>
      <trkpt lat="48.76738" lon="1.73211">
        <ele>155.8</ele>
        <time>2022-03-24T12:46:13Z</time>
      </trkpt>
      <trkpt lat="48.76733" lon="1.73213">
        <ele>154.4</ele>
        <time>2022-03-24T12:46:18Z</time>
      </trkpt>
      <trkpt lat="48.76728" lon="1.73217">
        <ele>152.9</ele>
        <time>2022-03-24T12:46:22Z</time>
      </trkpt>
      <trkpt lat="48.76724" lon="1.73223">
        <ele>151.5</ele>
        <time>2022-03-24T12:46:27Z</time>
      </trkpt>
      <trkpt lat="48.7672" lon="1.73228">
        <ele>149.4</ele>
        <time>2022-03-24T12:46:31Z</time>
      </trkpt>
      <trkpt lat="48.76717" lon="1.73234">
        <ele>147.1</ele>
        <time>2022-03-24T12:46:36Z</time>
      </trkpt>
      <trkpt lat="48.76712" lon="1.73238">
        <ele>145.7</ele>
        <time>2022-03-24T12:46:41Z</time>
      </trkpt>
      <trkpt lat="48.76708" lon="1.73242">
        <ele>145.6</ele>
        <time>2022-03-24T12:46:45Z</time>
      </trkpt>
      <trkpt lat="48.76703" lon="1.73246">
        <ele>146</ele>
        <time>2022-03-24T12:46:49Z</time>
      </trkpt>
      <trkpt lat="48.76699" lon="1.73249">
        <ele>146.1</ele>
        <time>2022-03-24T12:46:54Z</time>
      </trkpt>
      <trkpt lat="48.76694" lon="1.73253">
        <ele>145</ele>
        <time>2022-03-24T12:46:59Z</time>
      </trkpt>
      <trkpt lat="48.76689" lon="1.73256">
        <ele>144.3</ele>
        <time>2022-03-24T12:47:05Z</time>
      </trkpt>
      <trkpt lat="48.76685" lon="1.73259">
        <ele>143.7</ele>
        <time>2022-03-24T12:47:09Z</time>
      </trkpt>
      <trkpt lat="48.76682" lon="1.73264">
        <ele>143.2</ele>
        <time>2022-03-24T12:47:14Z</time>
      </trkpt>
      <trkpt lat="48.76678" lon="1.73269">
        <ele>143</ele>
        <time>2022-03-24T12:47:19Z</time>
      </trkpt>
      <trkpt lat="48.76673" lon="1.73272">
        <ele>142.2</ele>
        <time>2022-03-24T12:47:23Z</time>
      </trkpt>
      <trkpt lat="48.76669" lon="1.73276">
        <ele>141</ele>
        <time>2022-03-24T12:47:29Z</time>
      </trkpt>
      <trkpt lat="48.76664" lon="1.73279">
        <ele>139.7</ele>
        <time>2022-03-24T12:47:33Z</time>
      </trkpt>
      <trkpt lat="48.7666" lon="1.73284">
        <ele>138.6</ele>
        <time>2022-03-24T12:47:39Z</time>
      </trkpt>
      <trkpt lat="48.76655" lon="1.73288">
        <ele>138.7</ele>
        <time>2022-03-24T12:47:44Z</time>
      </trkpt>
      <trkpt lat="48.76651" lon="1.73293">
        <ele>138.6</ele>
        <time>2022-03-24T12:47:49Z</time>
      </trkpt>
      <trkpt lat="48.76648" lon="1.73297">
        <ele>138.1</ele>
        <time>2022-03-24T12:47:55Z</time>
      </trkpt>
      <trkpt lat="48.76643" lon="1.73301">
        <ele>137.6</ele>
        <time>2022-03-24T12:48:00Z</time>
      </trkpt>
      <trkpt lat="48.76638" lon="1.73304">
        <ele>137.4</ele>
        <time>2022-03-24T12:48:06Z</time>
      </trkpt>
      <trkpt lat="48.76634" lon="1.73306">
        <ele>137.3</ele>
        <time>2022-03-24T12:48:10Z</time>
      </trkpt>
      <trkpt lat="48.76629" lon="1.7331">
        <ele>137.9</ele>
        <time>2022-03-24T12:48:14Z</time>
      </trkpt>
      <trkpt lat="48.76625" lon="1.73313">
        <ele>138.3</ele>
        <time>2022-03-24T12:48:18Z</time>
      </trkpt>
      <trkpt lat="48.7662" lon="1.73315">
        <ele>138.4</ele>
        <time>2022-03-24T12:48:23Z</time>
      </trkpt>
      <trkpt lat="48.76616" lon="1.73318">
        <ele>138.6</ele>
        <time>2022-03-24T12:48:27Z</time>
      </trkpt>
      <trkpt lat="48.76611" lon="1.73321">
        <ele>138.2</ele>
        <time>2022-03-24T12:48:32Z</time>
      </trkpt>
      <trkpt lat="48.76606" lon="1.73325">
        <ele>137</ele>
        <time>2022-03-24T12:48:36Z</time>
      </trkpt>
      <trkpt lat="48.76602" lon="1.73328">
        <ele>135.5</ele>
        <time>2022-03-24T12:48:40Z</time>
      </trkpt>
      <trkpt lat="48.76598" lon="1.73332">
        <ele>134.5</ele>
        <time>2022-03-24T12:48:45Z</time>
      </trkpt>
      <trkpt lat="48.76595" lon="1.73337">
        <ele>133.8</ele>
        <time>2022-03-24T12:48:49Z</time>
      </trkpt>
      <trkpt lat="48.76591" lon="1.73342">
        <ele>133.4</ele>
        <time>2022-03-24T12:48:53Z</time>
      </trkpt>
      <trkpt lat="48.76587" lon="1.73346">
        <ele>132.8</ele>
        <time>2022-03-24T12:48:57Z</time>
      </trkpt>
      <trkpt lat="48.76583" lon="1.73351">
        <ele>132.1</ele>
        <time>2022-03-24T12:49:02Z</time>
      </trkpt>
      <trkpt lat="48.76579" lon="1.73355">
        <ele>132.2</ele>
        <time>2022-03-24T12:49:06Z</time>
      </trkpt>
      <trkpt lat="48.76573" lon="1.73356">
        <ele>133.3</ele>
        <time>2022-03-24T12:49:11Z</time>
      </trkpt>
      <trkpt lat="48.76568" lon="1.73357">
        <ele>134.4</ele>
        <time>2022-03-24T12:49:17Z</time>
      </trkpt>
      <trkpt lat="48.76564" lon="1.73362">
        <ele>133.9</ele>
        <time>2022-03-24T12:49:22Z</time>
      </trkpt>
      <trkpt lat="48.76561" lon="1.73368">
        <ele>132.6</ele>
        <time>2022-03-24T12:49:27Z</time>
      </trkpt>
      <trkpt lat="48.76558" lon="1.73373">
        <ele>132.1</ele>
        <time>2022-03-24T12:49:32Z</time>
      </trkpt>
      <trkpt lat="48.76554" lon="1.73379">
        <ele>132.7</ele>
        <time>2022-03-24T12:49:37Z</time>
      </trkpt>
      <trkpt lat="48.7655" lon="1.73383">
        <ele>133.7</ele>
        <time>2022-03-24T12:49:42Z</time>
      </trkpt>
      <trkpt lat="48.76546" lon="1.73386">
        <ele>134.6</ele>
        <time>2022-03-24T12:49:46Z</time>
      </trkpt>
      <trkpt lat="48.76541" lon="1.73388">
        <ele>135</ele>
        <time>2022-03-24T12:49:52Z</time>
      </trkpt>
      <trkpt lat="48.76536" lon="1.73391">
        <ele>135.6</ele>
        <time>2022-03-24T12:49:59Z</time>
      </trkpt>
      <trkpt lat="48.76532" lon="1.73396">
        <ele>137.5</ele>
        <time>2022-03-24T12:50:07Z</time>
      </trkpt>
      <trkpt lat="48.76528" lon="1.734">
        <ele>138.3</ele>
        <time>2022-03-24T12:50:13Z</time>
      </trkpt>
      <trkpt lat="48.76525" lon="1.73405">
        <ele>138.7</ele>
        <time>2022-03-24T12:50:18Z</time>
      </trkpt>
      <trkpt lat="48.7652" lon="1.73412">
        <ele>138.9</ele>
        <time>2022-03-24T12:50:25Z</time>
      </trkpt>
      <trkpt lat="48.76516" lon="1.73416">
        <ele>139</ele>
        <time>2022-03-24T12:50:30Z</time>
      </trkpt>
      <trkpt lat="48.76512" lon="1.73422">
        <ele>138.2</ele>
        <time>2022-03-24T12:50:35Z</time>
      </trkpt>
      <trkpt lat="48.76509" lon="1.73427">
        <ele>137.1</ele>
        <time>2022-03-24T12:50:40Z</time>
      </trkpt>
      <trkpt lat="48.76505" lon="1.73431">
        <ele>136.1</ele>
        <time>2022-03-24T12:50:44Z</time>
      </trkpt>
      <trkpt lat="48.76501" lon="1.73434">
        <ele>135.4</ele>
        <time>2022-03-24T12:50:48Z</time>
      </trkpt>
      <trkpt lat="48.76496" lon="1.73438">
        <ele>135.3</ele>
        <time>2022-03-24T12:50:53Z</time>
      </trkpt>
      <trkpt lat="48.76492" lon="1.73441">
        <ele>135.6</ele>
        <time>2022-03-24T12:50:58Z</time>
      </trkpt>
      <trkpt lat="48.76488" lon="1.73445">
        <ele>136</ele>
        <time>2022-03-24T12:51:02Z</time>
      </trkpt>
      <trkpt lat="48.76484" lon="1.73449">
        <ele>136.4</ele>
        <time>2022-03-24T12:51:07Z</time>
      </trkpt>
      <trkpt lat="48.76479" lon="1.73454">
        <ele>136.3</ele>
        <time>2022-03-24T12:51:12Z</time>
      </trkpt>
      <trkpt lat="48.76475" lon="1.73459">
        <ele>135.4</ele>
        <time>2022-03-24T12:51:16Z</time>
      </trkpt>
      <trkpt lat="48.76471" lon="1.73463">
        <ele>134.4</ele>
        <time>2022-03-24T12:51:22Z</time>
      </trkpt>
      <trkpt lat="48.76466" lon="1.73466">
        <ele>134.8</ele>
        <time>2022-03-24T12:51:27Z</time>
      </trkpt>
      <trkpt lat="48.76462" lon="1.73469">
        <ele>136.1</ele>
        <time>2022-03-24T12:51:31Z</time>
      </trkpt>
      <trkpt lat="48.76457" lon="1.73473">
        <ele>137.3</ele>
        <time>2022-03-24T12:51:37Z</time>
      </trkpt>
      <trkpt lat="48.76453" lon="1.73476">
        <ele>138.1</ele>
        <time>2022-03-24T12:51:42Z</time>
      </trkpt>
      <trkpt lat="48.76448" lon="1.7348">
        <ele>138.4</ele>
        <time>2022-03-24T12:51:46Z</time>
      </trkpt>
      <trkpt lat="48.76444" lon="1.73485">
        <ele>139.4</ele>
        <time>2022-03-24T12:51:52Z</time>
      </trkpt>
      <trkpt lat="48.7644" lon="1.73489">
        <ele>141.1</ele>
        <time>2022-03-24T12:51:58Z</time>
      </trkpt>
      <trkpt lat="48.76435" lon="1.73493">
        <ele>141.6</ele>
        <time>2022-03-24T12:52:03Z</time>
      </trkpt>
      <trkpt lat="48.76431" lon="1.73496">
        <ele>141.8</ele>
        <time>2022-03-24T12:52:07Z</time>
      </trkpt>
      <trkpt lat="48.76426" lon="1.73501">
        <ele>142.3</ele>
        <time>2022-03-24T12:52:13Z</time>
      </trkpt>
      <trkpt lat="48.76422" lon="1.73504">
        <ele>142.3</ele>
        <time>2022-03-24T12:52:18Z</time>
      </trkpt>
      <trkpt lat="48.76418" lon="1.73508">
        <ele>142.1</ele>
        <time>2022-03-24T12:52:22Z</time>
      </trkpt>
      <trkpt lat="48.76414" lon="1.7351">
        <ele>142</ele>
        <time>2022-03-24T12:52:27Z</time>
      </trkpt>
      <trkpt lat="48.76409" lon="1.73514">
        <ele>142.9</ele>
        <time>2022-03-24T12:52:33Z</time>
      </trkpt>
      <trkpt lat="48.76405" lon="1.73516">
        <ele>145</ele>
        <time>2022-03-24T12:52:38Z</time>
      </trkpt>
      <trkpt lat="48.764" lon="1.7352">
        <ele>147</ele>
        <time>2022-03-24T12:52:44Z</time>
      </trkpt>
      <trkpt lat="48.76395" lon="1.73525">
        <ele>147.9</ele>
        <time>2022-03-24T12:52:50Z</time>
      </trkpt>
      <trkpt lat="48.76391" lon="1.73528">
        <ele>149.3</ele>
        <time>2022-03-24T12:52:57Z</time>
      </trkpt>
      <trkpt lat="48.76386" lon="1.73533">
        <ele>149.4</ele>
        <time>2022-03-24T12:53:04Z</time>
      </trkpt>
      <trkpt lat="48.76382" lon="1.73538">
        <ele>148.8</ele>
        <time>2022-03-24T12:53:08Z</time>
      </trkpt>
      <trkpt lat="48.76379" lon="1.73543">
        <ele>147.9</ele>
        <time>2022-03-24T12:53:14Z</time>
      </trkpt>
      <trkpt lat="48.76375" lon="1.73548">
        <ele>146.8</ele>
        <time>2022-03-24T12:53:19Z</time>
      </trkpt>
      <trkpt lat="48.76371" lon="1.73552">
        <ele>146.1</ele>
        <time>2022-03-24T12:53:24Z</time>
      </trkpt>
      <trkpt lat="48.76366" lon="1.73557">
        <ele>145.9</ele>
        <time>2022-03-24T12:53:28Z</time>
      </trkpt>
      <trkpt lat="48.76363" lon="1.7356">
        <ele>146.3</ele>
        <time>2022-03-24T12:53:33Z</time>
      </trkpt>
      <trkpt lat="48.76357" lon="1.73562">
        <ele>147.2</ele>
        <time>2022-03-24T12:53:38Z</time>
      </trkpt>
      <trkpt lat="48.76353" lon="1.73564">
        <ele>148.4</ele>
        <time>2022-03-24T12:53:42Z</time>
      </trkpt>
      <trkpt lat="48.76348" lon="1.73566">
        <ele>149.4</ele>
        <time>2022-03-24T12:53:47Z</time>
      </trkpt>
      <trkpt lat="48.76344" lon="1.73569">
        <ele>150.7</ele>
        <time>2022-03-24T12:53:51Z</time>
      </trkpt>
      <trkpt lat="48.76341" lon="1.73574">
        <ele>151.4</ele>
        <time>2022-03-24T12:53:56Z</time>
      </trkpt>
      <trkpt lat="48.76336" lon="1.73578">
        <ele>151.6</ele>
        <time>2022-03-24T12:54:01Z</time>
      </trkpt>
      <trkpt lat="48.76332" lon="1.73582">
        <ele>152.2</ele>
        <time>2022-03-24T12:54:07Z</time>
      </trkpt>
      <trkpt lat="48.76328" lon="1.73585">
        <ele>152.5</ele>
        <time>2022-03-24T12:54:12Z</time>
      </trkpt>
      <trkpt lat="48.76323" lon="1.73589">
        <ele>153</ele>
        <time>2022-03-24T12:54:17Z</time>
      </trkpt>
      <trkpt lat="48.76319" lon="1.73593">
        <ele>154.4</ele>
        <time>2022-03-24T12:54:23Z</time>
      </trkpt>
      <trkpt lat="48.76315" lon="1.73597">
        <ele>155.6</ele>
        <time>2022-03-24T12:54:28Z</time>
      </trkpt>
      <trkpt lat="48.7631" lon="1.736">
        <ele>156.2</ele>
        <time>2022-03-24T12:54:33Z</time>
      </trkpt>
      <trkpt lat="48.76305" lon="1.73604">
        <ele>156.4</ele>
        <time>2022-03-24T12:54:39Z</time>
      </trkpt>
      <trkpt lat="48.76301" lon="1.73609">
        <ele>155.8</ele>
        <time>2022-03-24T12:54:45Z</time>
      </trkpt>
      <trkpt lat="48.76298" lon="1.73615">
        <ele>154.8</ele>
        <time>2022-03-24T12:54:50Z</time>
      </trkpt>
      <trkpt lat="48.76294" lon="1.7362">
        <ele>154</ele>
        <time>2022-03-24T12:54:55Z</time>
      </trkpt>
      <trkpt lat="48.7629" lon="1.73626">
        <ele>153.2</ele>
        <time>2022-03-24T12:55:01Z</time>
      </trkpt>
      <trkpt lat="48.76285" lon="1.73628">
        <ele>152.7</ele>
        <time>2022-03-24T12:55:05Z</time>
      </trkpt>
      <trkpt lat="48.7628" lon="1.73629">
        <ele>152.7</ele>
        <time>2022-03-24T12:55:10Z</time>
      </trkpt>
      <trkpt lat="48.76276" lon="1.73633">
        <ele>152.3</ele>
        <time>2022-03-24T12:55:15Z</time>
      </trkpt>
      <trkpt lat="48.76274" lon="1.7364">
        <ele>151.4</ele>
        <time>2022-03-24T12:55:20Z</time>
      </trkpt>
      <trkpt lat="48.76271" lon="1.73647">
        <ele>149.9</ele>
        <time>2022-03-24T12:55:24Z</time>
      </trkpt>
      <trkpt lat="48.76267" lon="1.73652">
        <ele>148.7</ele>
        <time>2022-03-24T12:55:30Z</time>
      </trkpt>
      <trkpt lat="48.76263" lon="1.73656">
        <ele>148.4</ele>
        <time>2022-03-24T12:55:34Z</time>
      </trkpt>
      <trkpt lat="48.76258" lon="1.73657">
        <ele>148.3</ele>
        <time>2022-03-24T12:55:38Z</time>
      </trkpt>
      <trkpt lat="48.76254" lon="1.73662">
        <ele>147.9</ele>
        <time>2022-03-24T12:55:44Z</time>
      </trkpt>
      <trkpt lat="48.7625" lon="1.73667">
        <ele>147.2</ele>
        <time>2022-03-24T12:55:48Z</time>
      </trkpt>
      <trkpt lat="48.76245" lon="1.73671">
        <ele>146</ele>
        <time>2022-03-24T12:55:53Z</time>
      </trkpt>
      <trkpt lat="48.7624" lon="1.73673">
        <ele>146</ele>
        <time>2022-03-24T12:55:59Z</time>
      </trkpt>
      <trkpt lat="48.76235" lon="1.73675">
        <ele>147.4</ele>
        <time>2022-03-24T12:56:03Z</time>
      </trkpt>
      <trkpt lat="48.76231" lon="1.73676">
        <ele>149.2</ele>
        <time>2022-03-24T12:56:07Z</time>
      </trkpt>
      <trkpt lat="48.76226" lon="1.73681">
        <ele>149.6</ele>
        <time>2022-03-24T12:56:13Z</time>
      </trkpt>
      <trkpt lat="48.76221" lon="1.73686">
        <ele>148.9</ele>
        <time>2022-03-24T12:56:18Z</time>
      </trkpt>
      <trkpt lat="48.76217" lon="1.73691">
        <ele>148.7</ele>
        <time>2022-03-24T12:56:23Z</time>
      </trkpt>
      <trkpt lat="48.76213" lon="1.73694">
        <ele>148.5</ele>
        <time>2022-03-24T12:56:27Z</time>
      </trkpt>
      <trkpt lat="48.76209" lon="1.73699">
        <ele>147.6</ele>
        <time>2022-03-24T12:56:31Z</time>
      </trkpt>
      <trkpt lat="48.76206" lon="1.73703">
        <ele>146.7</ele>
        <time>2022-03-24T12:56:35Z</time>
      </trkpt>
      <trkpt lat="48.76201" lon="1.73708">
        <ele>146.4</ele>
        <time>2022-03-24T12:56:41Z</time>
      </trkpt>
      <trkpt lat="48.76196" lon="1.73711">
        <ele>146.3</ele>
        <time>2022-03-24T12:56:45Z</time>
      </trkpt>
      <trkpt lat="48.76192" lon="1.73715">
        <ele>145.5</ele>
        <time>2022-03-24T12:56:49Z</time>
      </trkpt>
      <trkpt lat="48.76189" lon="1.73719">
        <ele>143.4</ele>
        <time>2022-03-24T12:56:54Z</time>
      </trkpt>
      <trkpt lat="48.76185" lon="1.73725">
        <ele>141.5</ele>
        <time>2022-03-24T12:56:58Z</time>
      </trkpt>
      <trkpt lat="48.76184" lon="1.73732">
        <ele>140.5</ele>
        <time>2022-03-24T12:57:03Z</time>
      </trkpt>
      <trkpt lat="48.76182" lon="1.7374">
        <ele>140.1</ele>
        <time>2022-03-24T12:57:07Z</time>
      </trkpt>
      <trkpt lat="48.76179" lon="1.73747">
        <ele>140.1</ele>
        <time>2022-03-24T12:57:12Z</time>
      </trkpt>
      <trkpt lat="48.76177" lon="1.73754">
        <ele>139.9</ele>
        <time>2022-03-24T12:57:16Z</time>
      </trkpt>
      <trkpt lat="48.76175" lon="1.73761">
        <ele>139.1</ele>
        <time>2022-03-24T12:57:21Z</time>
      </trkpt>
      <trkpt lat="48.76174" lon="1.73768">
        <ele>138.5</ele>
        <time>2022-03-24T12:57:25Z</time>
      </trkpt>
      <trkpt lat="48.76172" lon="1.73775">
        <ele>138.2</ele>
        <time>2022-03-24T12:57:30Z</time>
      </trkpt>
      <trkpt lat="48.76169" lon="1.73781">
        <ele>138.1</ele>
        <time>2022-03-24T12:57:34Z</time>
      </trkpt>
      <trkpt lat="48.76165" lon="1.73785">
        <ele>138.1</ele>
        <time>2022-03-24T12:57:38Z</time>
      </trkpt>
      <trkpt lat="48.76161" lon="1.73791">
        <ele>138.2</ele>
        <time>2022-03-24T12:57:44Z</time>
      </trkpt>
      <trkpt lat="48.76158" lon="1.73798">
        <ele>138.3</ele>
        <time>2022-03-24T12:57:48Z</time>
      </trkpt>
      <trkpt lat="48.76156" lon="1.73805">
        <ele>138.5</ele>
        <time>2022-03-24T12:57:53Z</time>
      </trkpt>
      <trkpt lat="48.76154" lon="1.73813">
        <ele>138.3</ele>
        <time>2022-03-24T12:57:59Z</time>
      </trkpt>
      <trkpt lat="48.76152" lon="1.7382">
        <ele>138.3</ele>
        <time>2022-03-24T12:58:04Z</time>
      </trkpt>
      <trkpt lat="48.76151" lon="1.73827">
        <ele>139.8</ele>
        <time>2022-03-24T12:58:08Z</time>
      </trkpt>
      <trkpt lat="48.76149" lon="1.73835">
        <ele>141.6</ele>
        <time>2022-03-24T12:58:13Z</time>
      </trkpt>
      <trkpt lat="48.76146" lon="1.73842">
        <ele>141.4</ele>
        <time>2022-03-24T12:58:18Z</time>
      </trkpt>
      <trkpt lat="48.76144" lon="1.73848">
        <ele>141.1</ele>
        <time>2022-03-24T12:58:23Z</time>
      </trkpt>
      <trkpt lat="48.76141" lon="1.73855">
        <ele>142.5</ele>
        <time>2022-03-24T12:58:28Z</time>
      </trkpt>
      <trkpt lat="48.76139" lon="1.73862">
        <ele>143.9</ele>
        <time>2022-03-24T12:58:33Z</time>
      </trkpt>
      <trkpt lat="48.76136" lon="1.73867">
        <ele>144.3</ele>
        <time>2022-03-24T12:58:37Z</time>
      </trkpt>
      <trkpt lat="48.76133" lon="1.73872">
        <ele>144.2</ele>
        <time>2022-03-24T12:58:43Z</time>
      </trkpt>
      <trkpt lat="48.76131" lon="1.73879">
        <ele>144.9</ele>
        <time>2022-03-24T12:58:48Z</time>
      </trkpt>
      <trkpt lat="48.76128" lon="1.73885">
        <ele>146.6</ele>
        <time>2022-03-24T12:58:53Z</time>
      </trkpt>
      <trkpt lat="48.76126" lon="1.73891">
        <ele>148.1</ele>
        <time>2022-03-24T12:58:59Z</time>
      </trkpt>
      <trkpt lat="48.76123" lon="1.73899">
        <ele>148.7</ele>
        <time>2022-03-24T12:59:04Z</time>
      </trkpt>
      <trkpt lat="48.7612" lon="1.73905">
        <ele>148.5</ele>
        <time>2022-03-24T12:59:09Z</time>
      </trkpt>
      <trkpt lat="48.76117" lon="1.73912">
        <ele>149.2</ele>
        <time>2022-03-24T12:59:16Z</time>
      </trkpt>
      <trkpt lat="48.76113" lon="1.73915">
        <ele>149.7</ele>
        <time>2022-03-24T13:00:50Z</time>
      </trkpt>
      <trkpt lat="48.76111" lon="1.73923">
        <ele>150.6</ele>
        <time>2022-03-24T13:00:54Z</time>
      </trkpt>
      <trkpt lat="48.76112" lon="1.7393">
        <ele>151.3</ele>
        <time>2022-03-24T13:00:58Z</time>
      </trkpt>
      <trkpt lat="48.76112" lon="1.73937">
        <ele>152.1</ele>
        <time>2022-03-24T13:01:01Z</time>
      </trkpt>
      <trkpt lat="48.76112" lon="1.73944">
        <ele>152.9</ele>
        <time>2022-03-24T13:01:07Z</time>
      </trkpt>
      <trkpt lat="48.76108" lon="1.73949">
        <ele>154.3</ele>
        <time>2022-03-24T13:01:19Z</time>
      </trkpt>
      <trkpt lat="48.76106" lon="1.73956">
        <ele>154.7</ele>
        <time>2022-03-24T13:01:27Z</time>
      </trkpt>
      <trkpt lat="48.76105" lon="1.73963">
        <ele>156.1</ele>
        <time>2022-03-24T13:01:34Z</time>
      </trkpt>
      <trkpt lat="48.76103" lon="1.7397">
        <ele>157.4</ele>
        <time>2022-03-24T13:01:40Z</time>
      </trkpt>
      <trkpt lat="48.76102" lon="1.73977">
        <ele>157</ele>
        <time>2022-03-24T13:01:47Z</time>
      </trkpt>
      <trkpt lat="48.76099" lon="1.73984">
        <ele>156.9</ele>
        <time>2022-03-24T13:01:53Z</time>
      </trkpt>
      <trkpt lat="48.76096" lon="1.73989">
        <ele>156.2</ele>
        <time>2022-03-24T13:01:58Z</time>
      </trkpt>
      <trkpt lat="48.76094" lon="1.73995">
        <ele>156.4</ele>
        <time>2022-03-24T13:02:04Z</time>
      </trkpt>
      <trkpt lat="48.7609" lon="1.74002">
        <ele>158</ele>
        <time>2022-03-24T13:02:11Z</time>
      </trkpt>
      <trkpt lat="48.76089" lon="1.74009">
        <ele>159.8</ele>
        <time>2022-03-24T13:02:16Z</time>
      </trkpt>
      <trkpt lat="48.76088" lon="1.74015">
        <ele>161.9</ele>
        <time>2022-03-24T13:02:21Z</time>
      </trkpt>
      <trkpt lat="48.76087" lon="1.74022">
        <ele>163.4</ele>
        <time>2022-03-24T13:02:27Z</time>
      </trkpt>
      <trkpt lat="48.76084" lon="1.74029">
        <ele>165.9</ele>
        <time>2022-03-24T13:02:33Z</time>
      </trkpt>
      <trkpt lat="48.7608" lon="1.74034">
        <ele>168.1</ele>
        <time>2022-03-24T13:02:37Z</time>
      </trkpt>
      <trkpt lat="48.76077" lon="1.74039">
        <ele>168.7</ele>
        <time>2022-03-24T13:02:41Z</time>
      </trkpt>
      <trkpt lat="48.76076" lon="1.74046">
        <ele>169.3</ele>
        <time>2022-03-24T13:02:46Z</time>
      </trkpt>
      <trkpt lat="48.76075" lon="1.74053">
        <ele>169.9</ele>
        <time>2022-03-24T13:02:51Z</time>
      </trkpt>
      <trkpt lat="48.76072" lon="1.7406">
        <ele>170</ele>
        <time>2022-03-24T13:02:56Z</time>
      </trkpt>
      <trkpt lat="48.76071" lon="1.74066">
        <ele>170.1</ele>
        <time>2022-03-24T13:03:01Z</time>
      </trkpt>
      <trkpt lat="48.76069" lon="1.74073">
        <ele>171</ele>
        <time>2022-03-24T13:03:05Z</time>
      </trkpt>
      <trkpt lat="48.76065" lon="1.74079">
        <ele>171.3</ele>
        <time>2022-03-24T13:03:10Z</time>
      </trkpt>
      <trkpt lat="48.76062" lon="1.74085">
        <ele>170.6</ele>
        <time>2022-03-24T13:03:16Z</time>
      </trkpt>
      <trkpt lat="48.7606" lon="1.74092">
        <ele>170.2</ele>
        <time>2022-03-24T13:03:21Z</time>
      </trkpt>
      <trkpt lat="48.76058" lon="1.74099">
        <ele>170.7</ele>
        <time>2022-03-24T13:03:25Z</time>
      </trkpt>
      <trkpt lat="48.76056" lon="1.74105">
        <ele>171.9</ele>
        <time>2022-03-24T13:03:28Z</time>
      </trkpt>
      <trkpt lat="48.76053" lon="1.74112">
        <ele>173.9</ele>
        <time>2022-03-24T13:03:33Z</time>
      </trkpt>
      <trkpt lat="48.76051" lon="1.7412">
        <ele>175.1</ele>
        <time>2022-03-24T13:03:38Z</time>
      </trkpt>
      <trkpt lat="48.76049" lon="1.74126">
        <ele>176.6</ele>
        <time>2022-03-24T13:03:42Z</time>
      </trkpt>
      <trkpt lat="48.76046" lon="1.74132">
        <ele>177.8</ele>
        <time>2022-03-24T13:03:48Z</time>
      </trkpt>
      <trkpt lat="48.76044" lon="1.74139">
        <ele>178.9</ele>
        <time>2022-03-24T13:03:53Z</time>
      </trkpt>
      <trkpt lat="48.76041" lon="1.74146">
        <ele>179.3</ele>
        <time>2022-03-24T13:03:59Z</time>
      </trkpt>
      <trkpt lat="48.7604" lon="1.74154">
        <ele>179.4</ele>
        <time>2022-03-24T13:04:03Z</time>
      </trkpt>
      <trkpt lat="48.76039" lon="1.74161">
        <ele>179</ele>
        <time>2022-03-24T13:04:08Z</time>
      </trkpt>
      <trkpt lat="48.76036" lon="1.74168">
        <ele>179.2</ele>
        <time>2022-03-24T13:04:13Z</time>
      </trkpt>
      <trkpt lat="48.76033" lon="1.74175">
        <ele>179.8</ele>
        <time>2022-03-24T13:04:19Z</time>
      </trkpt>
      <trkpt lat="48.7603" lon="1.74181">
        <ele>180.2</ele>
        <time>2022-03-24T13:04:23Z</time>
      </trkpt>
      <trkpt lat="48.76028" lon="1.74188">
        <ele>180.6</ele>
        <time>2022-03-24T13:04:28Z</time>
      </trkpt>
      <trkpt lat="48.76026" lon="1.74193">
        <ele>180.7</ele>
        <time>2022-03-24T13:04:32Z</time>
      </trkpt>
      <trkpt lat="48.76022" lon="1.742">
        <ele>181</ele>
        <time>2022-03-24T13:04:37Z</time>
      </trkpt>
      <trkpt lat="48.7602" lon="1.74207">
        <ele>181.5</ele>
        <time>2022-03-24T13:04:42Z</time>
      </trkpt>
      <trkpt lat="48.7602" lon="1.74214">
        <ele>181.8</ele>
        <time>2022-03-24T13:04:46Z</time>
      </trkpt>
      <trkpt lat="48.76019" lon="1.74222">
        <ele>181.3</ele>
        <time>2022-03-24T13:04:51Z</time>
      </trkpt>
      <trkpt lat="48.76017" lon="1.74229">
        <ele>180.3</ele>
        <time>2022-03-24T13:04:55Z</time>
      </trkpt>
      <trkpt lat="48.76015" lon="1.74237">
        <ele>179.8</ele>
        <time>2022-03-24T13:05:00Z</time>
      </trkpt>
      <trkpt lat="48.76013" lon="1.74244">
        <ele>180.9</ele>
        <time>2022-03-24T13:05:04Z</time>
      </trkpt>
      <trkpt lat="48.76012" lon="1.74251">
        <ele>182</ele>
        <time>2022-03-24T13:05:07Z</time>
      </trkpt>
      <trkpt lat="48.76012" lon="1.74259">
        <ele>182</ele>
        <time>2022-03-24T13:05:11Z</time>
      </trkpt>
      <trkpt lat="48.76011" lon="1.74266">
        <ele>181.3</ele>
        <time>2022-03-24T13:05:16Z</time>
      </trkpt>
      <trkpt lat="48.76011" lon="1.74273">
        <ele>181.4</ele>
        <time>2022-03-24T13:05:20Z</time>
      </trkpt>
      <trkpt lat="48.76011" lon="1.74282">
        <ele>182.2</ele>
        <time>2022-03-24T13:05:25Z</time>
      </trkpt>
      <trkpt lat="48.76013" lon="1.74291">
        <ele>182.8</ele>
        <time>2022-03-24T13:05:29Z</time>
      </trkpt>
      <trkpt lat="48.76013" lon="1.74298">
        <ele>182.7</ele>
        <time>2022-03-24T13:05:34Z</time>
      </trkpt>
      <trkpt lat="48.76014" lon="1.74306">
        <ele>181.7</ele>
        <time>2022-03-24T13:05:39Z</time>
      </trkpt>
      <trkpt lat="48.76014" lon="1.74314">
        <ele>180.9</ele>
        <time>2022-03-24T13:05:43Z</time>
      </trkpt>
      <trkpt lat="48.76016" lon="1.74321">
        <ele>180</ele>
        <time>2022-03-24T13:05:48Z</time>
      </trkpt>
      <trkpt lat="48.76016" lon="1.74329">
        <ele>179.5</ele>
        <time>2022-03-24T13:05:52Z</time>
      </trkpt>
      <trkpt lat="48.76016" lon="1.74336">
        <ele>179.3</ele>
        <time>2022-03-24T13:05:56Z</time>
      </trkpt>
      <trkpt lat="48.76019" lon="1.74341">
        <ele>178.7</ele>
        <time>2022-03-24T13:06:01Z</time>
      </trkpt>
      <trkpt lat="48.76019" lon="1.74348">
        <ele>178.1</ele>
        <time>2022-03-24T13:06:06Z</time>
      </trkpt>
      <trkpt lat="48.76024" lon="1.74353">
        <ele>177.7</ele>
        <time>2022-03-24T13:06:31Z</time>
      </trkpt>
      <trkpt lat="48.76029" lon="1.7435">
        <ele>177.1</ele>
        <time>2022-03-24T13:06:37Z</time>
      </trkpt>
      <trkpt lat="48.76033" lon="1.74355">
        <ele>177.1</ele>
        <time>2022-03-24T13:06:41Z</time>
      </trkpt>
      <trkpt lat="48.76036" lon="1.74362">
        <ele>176.9</ele>
        <time>2022-03-24T13:07:01Z</time>
      </trkpt>
      <trkpt lat="48.76039" lon="1.74369">
        <ele>177.1</ele>
        <time>2022-03-24T13:07:06Z</time>
      </trkpt>
      <trkpt lat="48.76042" lon="1.74375">
        <ele>176.6</ele>
        <time>2022-03-24T13:07:09Z</time>
      </trkpt>
      <trkpt lat="48.76044" lon="1.74382">
        <ele>176</ele>
        <time>2022-03-24T13:07:13Z</time>
      </trkpt>
      <trkpt lat="48.76046" lon="1.74389">
        <ele>175.4</ele>
        <time>2022-03-24T13:07:17Z</time>
      </trkpt>
      <trkpt lat="48.76047" lon="1.74395">
        <ele>174.6</ele>
        <time>2022-03-24T13:07:22Z</time>
      </trkpt>
      <trkpt lat="48.76049" lon="1.74402">
        <ele>173.7</ele>
        <time>2022-03-24T13:07:27Z</time>
      </trkpt>
      <trkpt lat="48.76052" lon="1.74408">
        <ele>173.4</ele>
        <time>2022-03-24T13:07:32Z</time>
      </trkpt>
      <trkpt lat="48.76055" lon="1.74415">
        <ele>173.3</ele>
        <time>2022-03-24T13:07:37Z</time>
      </trkpt>
      <trkpt lat="48.76057" lon="1.74421">
        <ele>173.8</ele>
        <time>2022-03-24T13:07:41Z</time>
      </trkpt>
      <trkpt lat="48.76059" lon="1.74428">
        <ele>174.7</ele>
        <time>2022-03-24T13:07:46Z</time>
      </trkpt>
      <trkpt lat="48.76059" lon="1.74436">
        <ele>175.6</ele>
        <time>2022-03-24T13:07:50Z</time>
      </trkpt>
      <trkpt lat="48.76062" lon="1.74443">
        <ele>176.2</ele>
        <time>2022-03-24T13:07:54Z</time>
      </trkpt>
      <trkpt lat="48.76064" lon="1.7445">
        <ele>176.8</ele>
        <time>2022-03-24T13:07:58Z</time>
      </trkpt>
      <trkpt lat="48.76066" lon="1.74458">
        <ele>177.1</ele>
        <time>2022-03-24T13:08:02Z</time>
      </trkpt>
      <trkpt lat="48.7607" lon="1.74463">
        <ele>176.8</ele>
        <time>2022-03-24T13:08:08Z</time>
      </trkpt>
      <trkpt lat="48.76074" lon="1.74467">
        <ele>174.3</ele>
        <time>2022-03-24T13:08:22Z</time>
      </trkpt>
      <trkpt lat="48.76075" lon="1.74474">
        <ele>174.2</ele>
        <time>2022-03-24T13:08:25Z</time>
      </trkpt>
      <trkpt lat="48.76076" lon="1.74481">
        <ele>175</ele>
        <time>2022-03-24T13:08:29Z</time>
      </trkpt>
      <trkpt lat="48.76079" lon="1.74488">
        <ele>175.1</ele>
        <time>2022-03-24T13:08:34Z</time>
      </trkpt>
      <trkpt lat="48.76081" lon="1.74495">
        <ele>175</ele>
        <time>2022-03-24T13:08:39Z</time>
      </trkpt>
      <trkpt lat="48.76082" lon="1.74502">
        <ele>174.4</ele>
        <time>2022-03-24T13:08:43Z</time>
      </trkpt>
      <trkpt lat="48.76084" lon="1.74509">
        <ele>174.3</ele>
        <time>2022-03-24T13:08:47Z</time>
      </trkpt>
      <trkpt lat="48.76088" lon="1.74515">
        <ele>174.3</ele>
        <time>2022-03-24T13:08:51Z</time>
      </trkpt>
      <trkpt lat="48.76092" lon="1.74518">
        <ele>174.7</ele>
        <time>2022-03-24T13:08:56Z</time>
      </trkpt>
      <trkpt lat="48.76095" lon="1.74525">
        <ele>173.5</ele>
        <time>2022-03-24T13:09:01Z</time>
      </trkpt>
      <trkpt lat="48.76096" lon="1.74532">
        <ele>172.1</ele>
        <time>2022-03-24T13:09:06Z</time>
      </trkpt>
      <trkpt lat="48.76097" lon="1.74539">
        <ele>171.9</ele>
        <time>2022-03-24T13:09:10Z</time>
      </trkpt>
      <trkpt lat="48.76101" lon="1.74542">
        <ele>172.5</ele>
        <time>2022-03-24T13:09:17Z</time>
      </trkpt>
      <trkpt lat="48.76104" lon="1.74548">
        <ele>172.8</ele>
        <time>2022-03-24T13:09:22Z</time>
      </trkpt>
      <trkpt lat="48.76105" lon="1.74555">
        <ele>172.8</ele>
        <time>2022-03-24T13:09:25Z</time>
      </trkpt>
      <trkpt lat="48.76106" lon="1.74562">
        <ele>172.4</ele>
        <time>2022-03-24T13:09:28Z</time>
      </trkpt>
      <trkpt lat="48.76108" lon="1.74569">
        <ele>171.8</ele>
        <time>2022-03-24T13:09:33Z</time>
      </trkpt>
      <trkpt lat="48.76113" lon="1.74571">
        <ele>170.7</ele>
        <time>2022-03-24T13:09:37Z</time>
      </trkpt>
      <trkpt lat="48.76115" lon="1.74578">
        <ele>169.2</ele>
        <time>2022-03-24T13:09:41Z</time>
      </trkpt>
      <trkpt lat="48.76116" lon="1.74585">
        <ele>167.7</ele>
        <time>2022-03-24T13:09:46Z</time>
      </trkpt>
      <trkpt lat="48.76116" lon="1.74593">
        <ele>167.3</ele>
        <time>2022-03-24T13:09:51Z</time>
      </trkpt>
      <trkpt lat="48.76117" lon="1.74602">
        <ele>168.6</ele>
        <time>2022-03-24T13:09:56Z</time>
      </trkpt>
      <trkpt lat="48.76118" lon="1.7461">
        <ele>170.1</ele>
        <time>2022-03-24T13:10:01Z</time>
      </trkpt>
      <trkpt lat="48.76119" lon="1.74617">
        <ele>170.8</ele>
        <time>2022-03-24T13:10:05Z</time>
      </trkpt>
      <trkpt lat="48.7612" lon="1.74624">
        <ele>171.1</ele>
        <time>2022-03-24T13:10:08Z</time>
      </trkpt>
      <trkpt lat="48.76121" lon="1.74632">
        <ele>170.8</ele>
        <time>2022-03-24T13:10:13Z</time>
      </trkpt>
      <trkpt lat="48.76122" lon="1.74639">
        <ele>171.2</ele>
        <time>2022-03-24T13:10:17Z</time>
      </trkpt>
      <trkpt lat="48.76123" lon="1.74647">
        <ele>172.5</ele>
        <time>2022-03-24T13:10:21Z</time>
      </trkpt>
      <trkpt lat="48.76125" lon="1.74655">
        <ele>173.8</ele>
        <time>2022-03-24T13:10:27Z</time>
      </trkpt>
      <trkpt lat="48.76126" lon="1.74663">
        <ele>174.5</ele>
        <time>2022-03-24T13:10:31Z</time>
      </trkpt>
      <trkpt lat="48.76126" lon="1.74671">
        <ele>175.7</ele>
        <time>2022-03-24T13:10:35Z</time>
      </trkpt>
      <trkpt lat="48.76127" lon="1.74678">
        <ele>176.8</ele>
        <time>2022-03-24T13:10:40Z</time>
      </trkpt>
      <trkpt lat="48.76128" lon="1.74685">
        <ele>177.4</ele>
        <time>2022-03-24T13:10:44Z</time>
      </trkpt>
      <trkpt lat="48.76132" lon="1.7469">
        <ele>178.4</ele>
        <time>2022-03-24T13:10:49Z</time>
      </trkpt>
      <trkpt lat="48.76136" lon="1.74686">
        <ele>180</ele>
        <time>2022-03-24T13:10:53Z</time>
      </trkpt>
      <trkpt lat="48.76141" lon="1.74683">
        <ele>181.2</ele>
        <time>2022-03-24T13:10:57Z</time>
      </trkpt>
      <trkpt lat="48.76141" lon="1.74676">
        <ele>181.9</ele>
        <time>2022-03-24T13:11:01Z</time>
      </trkpt>
      <trkpt lat="48.76136" lon="1.74676">
        <ele>180.3</ele>
        <time>2022-03-24T13:11:14Z</time>
      </trkpt>
      <trkpt lat="48.76131" lon="1.74677">
        <ele>178.5</ele>
        <time>2022-03-24T13:11:18Z</time>
      </trkpt>
      <trkpt lat="48.76131" lon="1.74685">
        <ele>181.2</ele>
        <time>2022-03-24T13:11:39Z</time>
      </trkpt>
      <trkpt lat="48.76135" lon="1.74689">
        <ele>180.4</ele>
        <time>2022-03-24T13:11:43Z</time>
      </trkpt>
      <trkpt lat="48.76134" lon="1.74698">
        <ele>180.1</ele>
        <time>2022-03-24T13:11:48Z</time>
      </trkpt>
      <trkpt lat="48.76133" lon="1.74705">
        <ele>179.3</ele>
        <time>2022-03-24T13:11:53Z</time>
      </trkpt>
      <trkpt lat="48.76133" lon="1.74713">
        <ele>177.6</ele>
        <time>2022-03-24T13:11:58Z</time>
      </trkpt>
      <trkpt lat="48.76132" lon="1.74721">
        <ele>176.9</ele>
        <time>2022-03-24T13:12:03Z</time>
      </trkpt>
      <trkpt lat="48.76133" lon="1.74729">
        <ele>176.8</ele>
        <time>2022-03-24T13:12:08Z</time>
      </trkpt>
      <trkpt lat="48.76134" lon="1.74736">
        <ele>176.4</ele>
        <time>2022-03-24T13:12:13Z</time>
      </trkpt>
      <trkpt lat="48.76135" lon="1.74743">
        <ele>176</ele>
        <time>2022-03-24T13:12:18Z</time>
      </trkpt>
      <trkpt lat="48.76138" lon="1.74748">
        <ele>180.9</ele>
        <time>2022-03-24T13:12:38Z</time>
      </trkpt>
      <trkpt lat="48.76143" lon="1.74747">
        <ele>178.8</ele>
        <time>2022-03-24T13:12:45Z</time>
      </trkpt>
      <trkpt lat="48.76146" lon="1.74752">
        <ele>172.5</ele>
        <time>2022-03-24T13:12:56Z</time>
      </trkpt>
      <trkpt lat="48.76147" lon="1.74759">
        <ele>173.7</ele>
        <time>2022-03-24T13:13:05Z</time>
      </trkpt>
      <trkpt lat="48.7615" lon="1.74765">
        <ele>174.8</ele>
        <time>2022-03-24T13:13:10Z</time>
      </trkpt>
      <trkpt lat="48.76152" lon="1.74772">
        <ele>175.5</ele>
        <time>2022-03-24T13:13:18Z</time>
      </trkpt>
      <trkpt lat="48.76153" lon="1.74779">
        <ele>177</ele>
        <time>2022-03-24T13:13:28Z</time>
      </trkpt>
      <trkpt lat="48.76153" lon="1.74786">
        <ele>178</ele>
        <time>2022-03-24T13:13:35Z</time>
      </trkpt>
      <trkpt lat="48.7615" lon="1.74793">
        <ele>181.1</ele>
        <time>2022-03-24T13:13:41Z</time>
      </trkpt>
      <trkpt lat="48.76152" lon="1.74799">
        <ele>182.1</ele>
        <time>2022-03-24T13:13:46Z</time>
      </trkpt>
      <trkpt lat="48.76151" lon="1.74807">
        <ele>183.1</ele>
        <time>2022-03-24T13:13:56Z</time>
      </trkpt>
      <trkpt lat="48.76155" lon="1.74811">
        <ele>179.2</ele>
        <time>2022-03-24T13:14:18Z</time>
      </trkpt>
      <trkpt lat="48.76159" lon="1.74804">
        <ele>179.8</ele>
        <time>2022-03-24T13:14:32Z</time>
      </trkpt>
      <trkpt lat="48.76163" lon="1.74807">
        <ele>179.3</ele>
        <time>2022-03-24T13:14:46Z</time>
      </trkpt>
      <trkpt lat="48.76166" lon="1.74813">
        <ele>179.4</ele>
        <time>2022-03-24T13:14:50Z</time>
      </trkpt>
      <trkpt lat="48.76168" lon="1.74821">
        <ele>180.9</ele>
        <time>2022-03-24T13:14:54Z</time>
      </trkpt>
      <trkpt lat="48.76168" lon="1.74829">
        <ele>181.5</ele>
        <time>2022-03-24T13:14:57Z</time>
      </trkpt>
      <trkpt lat="48.76168" lon="1.74838">
        <ele>181.5</ele>
        <time>2022-03-24T13:15:01Z</time>
      </trkpt>
      <trkpt lat="48.7617" lon="1.74846">
        <ele>180.3</ele>
        <time>2022-03-24T13:15:04Z</time>
      </trkpt>
      <trkpt lat="48.76172" lon="1.74853">
        <ele>178.9</ele>
        <time>2022-03-24T13:15:08Z</time>
      </trkpt>
      <trkpt lat="48.76175" lon="1.74859">
        <ele>178.4</ele>
        <time>2022-03-24T13:15:10Z</time>
      </trkpt>
      <trkpt lat="48.76177" lon="1.74866">
        <ele>178.5</ele>
        <time>2022-03-24T13:15:14Z</time>
      </trkpt>
      <trkpt lat="48.76179" lon="1.74873">
        <ele>179.1</ele>
        <time>2022-03-24T13:15:18Z</time>
      </trkpt>
      <trkpt lat="48.7618" lon="1.74882">
        <ele>180.3</ele>
        <time>2022-03-24T13:15:22Z</time>
      </trkpt>
      <trkpt lat="48.7618" lon="1.7489">
        <ele>180.3</ele>
        <time>2022-03-24T13:15:26Z</time>
      </trkpt>
      <trkpt lat="48.76176" lon="1.74896">
        <ele>179.2</ele>
        <time>2022-03-24T13:15:30Z</time>
      </trkpt>
      <trkpt lat="48.76176" lon="1.74905">
        <ele>178.6</ele>
        <time>2022-03-24T13:15:36Z</time>
      </trkpt>
      <trkpt lat="48.76177" lon="1.74914">
        <ele>180</ele>
        <time>2022-03-24T13:15:40Z</time>
      </trkpt>
      <trkpt lat="48.76178" lon="1.74921">
        <ele>181.8</ele>
        <time>2022-03-24T13:15:44Z</time>
      </trkpt>
      <trkpt lat="48.76178" lon="1.74928">
        <ele>182.6</ele>
        <time>2022-03-24T13:15:48Z</time>
      </trkpt>
      <trkpt lat="48.76178" lon="1.74936">
        <ele>183.7</ele>
        <time>2022-03-24T13:15:52Z</time>
      </trkpt>
      <trkpt lat="48.76179" lon="1.74944">
        <ele>183.3</ele>
        <time>2022-03-24T13:15:56Z</time>
      </trkpt>
      <trkpt lat="48.76179" lon="1.74952">
        <ele>181.2</ele>
        <time>2022-03-24T13:16:00Z</time>
      </trkpt>
      <trkpt lat="48.76179" lon="1.74959">
        <ele>179.8</ele>
        <time>2022-03-24T13:16:04Z</time>
      </trkpt>
      <trkpt lat="48.7618" lon="1.74966">
        <ele>179.5</ele>
        <time>2022-03-24T13:16:09Z</time>
      </trkpt>
      <trkpt lat="48.76182" lon="1.74974">
        <ele>179.4</ele>
        <time>2022-03-24T13:16:13Z</time>
      </trkpt>
      <trkpt lat="48.76184" lon="1.74981">
        <ele>179.5</ele>
        <time>2022-03-24T13:16:17Z</time>
      </trkpt>
      <trkpt lat="48.76185" lon="1.74989">
        <ele>179.7</ele>
        <time>2022-03-24T13:16:21Z</time>
      </trkpt>
      <trkpt lat="48.76185" lon="1.74998">
        <ele>179.9</ele>
        <time>2022-03-24T13:16:25Z</time>
      </trkpt>
      <trkpt lat="48.76185" lon="1.75005">
        <ele>179.5</ele>
        <time>2022-03-24T13:16:29Z</time>
      </trkpt>
      <trkpt lat="48.76184" lon="1.75012">
        <ele>178.5</ele>
        <time>2022-03-24T13:16:33Z</time>
      </trkpt>
      <trkpt lat="48.76184" lon="1.75019">
        <ele>179</ele>
        <time>2022-03-24T13:16:37Z</time>
      </trkpt>
      <trkpt lat="48.76183" lon="1.75027">
        <ele>183.3</ele>
        <time>2022-03-24T13:16:42Z</time>
      </trkpt>
      <trkpt lat="48.76183" lon="1.75035">
        <ele>186.9</ele>
        <time>2022-03-24T13:16:48Z</time>
      </trkpt>
      <trkpt lat="48.76184" lon="1.75043">
        <ele>186.9</ele>
        <time>2022-03-24T13:16:52Z</time>
      </trkpt>
      <trkpt lat="48.76184" lon="1.75051">
        <ele>185.8</ele>
        <time>2022-03-24T13:16:57Z</time>
      </trkpt>
      <trkpt lat="48.76184" lon="1.75059">
        <ele>185</ele>
        <time>2022-03-24T13:17:01Z</time>
      </trkpt>
      <trkpt lat="48.76185" lon="1.75066">
        <ele>186</ele>
        <time>2022-03-24T13:17:06Z</time>
      </trkpt>
      <trkpt lat="48.76187" lon="1.75072">
        <ele>186.3</ele>
        <time>2022-03-24T13:17:09Z</time>
      </trkpt>
      <trkpt lat="48.76189" lon="1.7508">
        <ele>185.8</ele>
        <time>2022-03-24T13:17:14Z</time>
      </trkpt>
      <trkpt lat="48.76191" lon="1.75088">
        <ele>184.5</ele>
        <time>2022-03-24T13:17:19Z</time>
      </trkpt>
      <trkpt lat="48.76193" lon="1.75097">
        <ele>183.5</ele>
        <time>2022-03-24T13:17:23Z</time>
      </trkpt>
      <trkpt lat="48.76193" lon="1.75105">
        <ele>183.1</ele>
        <time>2022-03-24T13:17:27Z</time>
      </trkpt>
      <trkpt lat="48.76192" lon="1.75112">
        <ele>183.7</ele>
        <time>2022-03-24T13:17:30Z</time>
      </trkpt>
      <trkpt lat="48.7619" lon="1.75119">
        <ele>185.4</ele>
        <time>2022-03-24T13:17:34Z</time>
      </trkpt>
      <trkpt lat="48.76187" lon="1.75123">
        <ele>187.5</ele>
        <time>2022-03-24T13:17:41Z</time>
      </trkpt>
      <trkpt lat="48.76185" lon="1.7513">
        <ele>187.4</ele>
        <time>2022-03-24T13:17:46Z</time>
      </trkpt>
      <trkpt lat="48.76185" lon="1.75137">
        <ele>187.1</ele>
        <time>2022-03-24T13:17:51Z</time>
      </trkpt>
      <trkpt lat="48.76186" lon="1.75146">
        <ele>187.4</ele>
        <time>2022-03-24T13:17:55Z</time>
      </trkpt>
      <trkpt lat="48.76188" lon="1.75153">
        <ele>187.9</ele>
        <time>2022-03-24T13:18:00Z</time>
      </trkpt>
      <trkpt lat="48.7619" lon="1.75161">
        <ele>188.1</ele>
        <time>2022-03-24T13:18:04Z</time>
      </trkpt>
      <trkpt lat="48.7619" lon="1.75167">
        <ele>187.5</ele>
        <time>2022-03-24T13:18:09Z</time>
      </trkpt>
      <trkpt lat="48.76193" lon="1.75175">
        <ele>185.7</ele>
        <time>2022-03-24T13:18:13Z</time>
      </trkpt>
      <trkpt lat="48.76194" lon="1.75182">
        <ele>185</ele>
        <time>2022-03-24T13:18:17Z</time>
      </trkpt>
      <trkpt lat="48.76195" lon="1.7519">
        <ele>185.2</ele>
        <time>2022-03-24T13:18:22Z</time>
      </trkpt>
      <trkpt lat="48.76194" lon="1.75198">
        <ele>185.3</ele>
        <time>2022-03-24T13:18:27Z</time>
      </trkpt>
      <trkpt lat="48.76194" lon="1.75206">
        <ele>184.5</ele>
        <time>2022-03-24T13:18:31Z</time>
      </trkpt>
      <trkpt lat="48.76195" lon="1.75212">
        <ele>184.1</ele>
        <time>2022-03-24T13:18:35Z</time>
      </trkpt>
      <trkpt lat="48.76197" lon="1.75219">
        <ele>183.7</ele>
        <time>2022-03-24T13:18:40Z</time>
      </trkpt>
      <trkpt lat="48.76199" lon="1.75226">
        <ele>183.5</ele>
        <time>2022-03-24T13:18:44Z</time>
      </trkpt>
      <trkpt lat="48.76202" lon="1.75233">
        <ele>182.9</ele>
        <time>2022-03-24T13:18:48Z</time>
      </trkpt>
      <trkpt lat="48.76203" lon="1.75241">
        <ele>181.3</ele>
        <time>2022-03-24T13:18:52Z</time>
      </trkpt>
      <trkpt lat="48.76204" lon="1.75248">
        <ele>180.4</ele>
        <time>2022-03-24T13:18:57Z</time>
      </trkpt>
      <trkpt lat="48.76205" lon="1.75256">
        <ele>180.4</ele>
        <time>2022-03-24T13:19:01Z</time>
      </trkpt>
      <trkpt lat="48.76203" lon="1.75263">
        <ele>180.3</ele>
        <time>2022-03-24T13:19:06Z</time>
      </trkpt>
      <trkpt lat="48.76201" lon="1.7527">
        <ele>179.8</ele>
        <time>2022-03-24T13:19:11Z</time>
      </trkpt>
      <trkpt lat="48.762" lon="1.75277">
        <ele>179.2</ele>
        <time>2022-03-24T13:19:15Z</time>
      </trkpt>
      <trkpt lat="48.762" lon="1.75285">
        <ele>177.9</ele>
        <time>2022-03-24T13:19:20Z</time>
      </trkpt>
      <trkpt lat="48.762" lon="1.75292">
        <ele>177</ele>
        <time>2022-03-24T13:19:25Z</time>
      </trkpt>
      <trkpt lat="48.762" lon="1.753">
        <ele>178.1</ele>
        <time>2022-03-24T13:19:29Z</time>
      </trkpt>
      <trkpt lat="48.762" lon="1.75308">
        <ele>180.5</ele>
        <time>2022-03-24T13:19:33Z</time>
      </trkpt>
      <trkpt lat="48.762" lon="1.75316">
        <ele>183.4</ele>
        <time>2022-03-24T13:19:38Z</time>
      </trkpt>
      <trkpt lat="48.76199" lon="1.75324">
        <ele>186.7</ele>
        <time>2022-03-24T13:19:42Z</time>
      </trkpt>
      <trkpt lat="48.76199" lon="1.75331">
        <ele>188.9</ele>
        <time>2022-03-24T13:19:47Z</time>
      </trkpt>
      <trkpt lat="48.762" lon="1.7534">
        <ele>190.3</ele>
        <time>2022-03-24T13:19:52Z</time>
      </trkpt>
      <trkpt lat="48.76202" lon="1.75348">
        <ele>191</ele>
        <time>2022-03-24T13:19:57Z</time>
      </trkpt>
      <trkpt lat="48.76203" lon="1.75356">
        <ele>190.1</ele>
        <time>2022-03-24T13:20:01Z</time>
      </trkpt>
      <trkpt lat="48.76203" lon="1.75364">
        <ele>186.8</ele>
        <time>2022-03-24T13:20:07Z</time>
      </trkpt>
      <trkpt lat="48.76205" lon="1.75371">
        <ele>184.2</ele>
        <time>2022-03-24T13:20:11Z</time>
      </trkpt>
      <trkpt lat="48.76207" lon="1.7538">
        <ele>182.7</ele>
        <time>2022-03-24T13:20:15Z</time>
      </trkpt>
      <trkpt lat="48.76207" lon="1.75388">
        <ele>182.6</ele>
        <time>2022-03-24T13:20:19Z</time>
      </trkpt>
      <trkpt lat="48.76206" lon="1.75397">
        <ele>183.1</ele>
        <time>2022-03-24T13:20:24Z</time>
      </trkpt>
      <trkpt lat="48.76206" lon="1.75405">
        <ele>184.1</ele>
        <time>2022-03-24T13:20:30Z</time>
      </trkpt>
      <trkpt lat="48.76207" lon="1.75413">
        <ele>184.6</ele>
        <time>2022-03-24T13:20:34Z</time>
      </trkpt>
      <trkpt lat="48.76208" lon="1.75421">
        <ele>185.1</ele>
        <time>2022-03-24T13:20:39Z</time>
      </trkpt>
      <trkpt lat="48.76208" lon="1.75428">
        <ele>185.5</ele>
        <time>2022-03-24T13:20:42Z</time>
      </trkpt>
      <trkpt lat="48.76209" lon="1.75434">
        <ele>185.7</ele>
        <time>2022-03-24T13:20:47Z</time>
      </trkpt>
      <trkpt lat="48.76209" lon="1.75442">
        <ele>186.2</ele>
        <time>2022-03-24T13:20:51Z</time>
      </trkpt>
      <trkpt lat="48.7621" lon="1.75449">
        <ele>186.9</ele>
        <time>2022-03-24T13:20:55Z</time>
      </trkpt>
      <trkpt lat="48.76212" lon="1.75456">
        <ele>186.7</ele>
        <time>2022-03-24T13:20:59Z</time>
      </trkpt>
      <trkpt lat="48.76213" lon="1.75463">
        <ele>186.8</ele>
        <time>2022-03-24T13:21:04Z</time>
      </trkpt>
      <trkpt lat="48.76212" lon="1.7547">
        <ele>186.1</ele>
        <time>2022-03-24T13:21:08Z</time>
      </trkpt>
      <trkpt lat="48.76212" lon="1.75479">
        <ele>183.9</ele>
        <time>2022-03-24T13:21:13Z</time>
      </trkpt>
      <trkpt lat="48.76213" lon="1.75487">
        <ele>182.4</ele>
        <time>2022-03-24T13:21:18Z</time>
      </trkpt>
      <trkpt lat="48.76212" lon="1.75494">
        <ele>182.8</ele>
        <time>2022-03-24T13:21:22Z</time>
      </trkpt>
      <trkpt lat="48.76215" lon="1.75501">
        <ele>183.4</ele>
        <time>2022-03-24T13:21:26Z</time>
      </trkpt>
      <trkpt lat="48.76216" lon="1.75508">
        <ele>183</ele>
        <time>2022-03-24T13:21:30Z</time>
      </trkpt>
      <trkpt lat="48.76217" lon="1.75515">
        <ele>181.3</ele>
        <time>2022-03-24T13:21:34Z</time>
      </trkpt>
      <trkpt lat="48.76217" lon="1.75522">
        <ele>180.7</ele>
        <time>2022-03-24T13:21:39Z</time>
      </trkpt>
      <trkpt lat="48.76218" lon="1.75531">
        <ele>181.2</ele>
        <time>2022-03-24T13:21:44Z</time>
      </trkpt>
      <trkpt lat="48.76219" lon="1.75539">
        <ele>182.1</ele>
        <time>2022-03-24T13:21:48Z</time>
      </trkpt>
      <trkpt lat="48.76221" lon="1.75546">
        <ele>182.6</ele>
        <time>2022-03-24T13:21:52Z</time>
      </trkpt>
      <trkpt lat="48.76221" lon="1.75553">
        <ele>181.7</ele>
        <time>2022-03-24T13:21:57Z</time>
      </trkpt>
      <trkpt lat="48.76222" lon="1.75561">
        <ele>180</ele>
        <time>2022-03-24T13:22:02Z</time>
      </trkpt>
      <trkpt lat="48.76224" lon="1.75569">
        <ele>179.8</ele>
        <time>2022-03-24T13:22:06Z</time>
      </trkpt>
      <trkpt lat="48.76225" lon="1.75576">
        <ele>179.2</ele>
        <time>2022-03-24T13:22:10Z</time>
      </trkpt>
      <trkpt lat="48.76227" lon="1.75583">
        <ele>178.6</ele>
        <time>2022-03-24T13:22:15Z</time>
      </trkpt>
      <trkpt lat="48.76229" lon="1.75591">
        <ele>178.5</ele>
        <time>2022-03-24T13:22:20Z</time>
      </trkpt>
      <trkpt lat="48.76229" lon="1.75598">
        <ele>179.4</ele>
        <time>2022-03-24T13:22:24Z</time>
      </trkpt>
      <trkpt lat="48.76228" lon="1.75606">
        <ele>179.8</ele>
        <time>2022-03-24T13:22:29Z</time>
      </trkpt>
      <trkpt lat="48.76228" lon="1.75614">
        <ele>179.5</ele>
        <time>2022-03-24T13:22:33Z</time>
      </trkpt>
      <trkpt lat="48.76227" lon="1.75622">
        <ele>179.3</ele>
        <time>2022-03-24T13:22:38Z</time>
      </trkpt>
      <trkpt lat="48.76228" lon="1.75629">
        <ele>178.7</ele>
        <time>2022-03-24T13:22:42Z</time>
      </trkpt>
      <trkpt lat="48.76228" lon="1.75637">
        <ele>178.6</ele>
        <time>2022-03-24T13:22:47Z</time>
      </trkpt>
      <trkpt lat="48.7623" lon="1.75644">
        <ele>178.5</ele>
        <time>2022-03-24T13:22:51Z</time>
      </trkpt>
      <trkpt lat="48.76234" lon="1.75649">
        <ele>175.6</ele>
        <time>2022-03-24T13:23:22Z</time>
      </trkpt>
      <trkpt lat="48.76235" lon="1.75656">
        <ele>174.3</ele>
        <time>2022-03-24T13:23:27Z</time>
      </trkpt>
      <trkpt lat="48.76238" lon="1.75664">
        <ele>173.5</ele>
        <time>2022-03-24T13:23:31Z</time>
      </trkpt>
      <trkpt lat="48.76241" lon="1.7567">
        <ele>174.6</ele>
        <time>2022-03-24T13:23:36Z</time>
      </trkpt>
      <trkpt lat="48.76245" lon="1.75675">
        <ele>176.5</ele>
        <time>2022-03-24T13:23:40Z</time>
      </trkpt>
      <trkpt lat="48.76243" lon="1.75685">
        <ele>177.3</ele>
        <time>2022-03-24T13:23:45Z</time>
      </trkpt>
      <trkpt lat="48.76241" lon="1.75692">
        <ele>178.1</ele>
        <time>2022-03-24T13:23:50Z</time>
      </trkpt>
      <trkpt lat="48.76243" lon="1.75699">
        <ele>177.8</ele>
        <time>2022-03-24T13:23:55Z</time>
      </trkpt>
      <trkpt lat="48.76248" lon="1.75703">
        <ele>176</ele>
        <time>2022-03-24T13:24:00Z</time>
      </trkpt>
      <trkpt lat="48.76252" lon="1.75708">
        <ele>177.1</ele>
        <time>2022-03-24T13:24:06Z</time>
      </trkpt>
      <trkpt lat="48.76254" lon="1.75714">
        <ele>179.3</ele>
        <time>2022-03-24T13:24:11Z</time>
      </trkpt>
      <trkpt lat="48.76254" lon="1.75722">
        <ele>180.6</ele>
        <time>2022-03-24T13:24:15Z</time>
      </trkpt>
      <trkpt lat="48.76254" lon="1.7573">
        <ele>181.2</ele>
        <time>2022-03-24T13:24:19Z</time>
      </trkpt>
      <trkpt lat="48.76255" lon="1.75737">
        <ele>179.2</ele>
        <time>2022-03-24T13:24:26Z</time>
      </trkpt>
      <trkpt lat="48.76256" lon="1.75743">
        <ele>177.2</ele>
        <time>2022-03-24T13:24:31Z</time>
      </trkpt>
      <trkpt lat="48.76259" lon="1.75749">
        <ele>175.8</ele>
        <time>2022-03-24T13:24:35Z</time>
      </trkpt>
      <trkpt lat="48.76262" lon="1.75756">
        <ele>174.4</ele>
        <time>2022-03-24T13:24:40Z</time>
      </trkpt>
      <trkpt lat="48.76264" lon="1.75764">
        <ele>173.1</ele>
        <time>2022-03-24T13:24:44Z</time>
      </trkpt>
      <trkpt lat="48.76267" lon="1.75769">
        <ele>171.2</ele>
        <time>2022-03-24T13:24:50Z</time>
      </trkpt>
      <trkpt lat="48.76273" lon="1.75769">
        <ele>170.1</ele>
        <time>2022-03-24T13:24:54Z</time>
      </trkpt>
      <trkpt lat="48.76278" lon="1.75766">
        <ele>169.4</ele>
        <time>2022-03-24T13:24:59Z</time>
      </trkpt>
      <trkpt lat="48.76282" lon="1.75763">
        <ele>170.6</ele>
        <time>2022-03-24T13:25:03Z</time>
      </trkpt>
      <trkpt lat="48.76287" lon="1.75765">
        <ele>173.4</ele>
        <time>2022-03-24T13:25:07Z</time>
      </trkpt>
      <trkpt lat="48.76292" lon="1.75768">
        <ele>176</ele>
        <time>2022-03-24T13:25:12Z</time>
      </trkpt>
      <trkpt lat="48.76297" lon="1.7577">
        <ele>177.9</ele>
        <time>2022-03-24T13:25:16Z</time>
      </trkpt>
      <trkpt lat="48.76302" lon="1.7577">
        <ele>179.3</ele>
        <time>2022-03-24T13:25:21Z</time>
      </trkpt>
      <trkpt lat="48.76307" lon="1.75773">
        <ele>179.9</ele>
        <time>2022-03-24T13:25:26Z</time>
      </trkpt>
      <trkpt lat="48.76311" lon="1.75774">
        <ele>181.1</ele>
        <time>2022-03-24T13:25:31Z</time>
      </trkpt>
      <trkpt lat="48.76316" lon="1.75773">
        <ele>182.1</ele>
        <time>2022-03-24T13:25:36Z</time>
      </trkpt>
      <trkpt lat="48.76321" lon="1.75772">
        <ele>182.2</ele>
        <time>2022-03-24T13:25:40Z</time>
      </trkpt>
      <trkpt lat="48.76327" lon="1.75769">
        <ele>182.3</ele>
        <time>2022-03-24T13:25:45Z</time>
      </trkpt>
      <trkpt lat="48.76331" lon="1.75769">
        <ele>182.1</ele>
        <time>2022-03-24T13:25:50Z</time>
      </trkpt>
      <trkpt lat="48.76336" lon="1.75765">
        <ele>179.6</ele>
        <time>2022-03-24T13:26:25Z</time>
      </trkpt>
      <trkpt lat="48.76341" lon="1.75761">
        <ele>179</ele>
        <time>2022-03-24T13:26:30Z</time>
      </trkpt>
      <trkpt lat="48.76345" lon="1.75758">
        <ele>178.1</ele>
        <time>2022-03-24T13:26:35Z</time>
      </trkpt>
      <trkpt lat="48.76348" lon="1.75753">
        <ele>177.8</ele>
        <time>2022-03-24T13:26:39Z</time>
      </trkpt>
      <trkpt lat="48.76344" lon="1.75747">
        <ele>178.5</ele>
        <time>2022-03-24T13:26:46Z</time>
      </trkpt>
      <trkpt lat="48.7634" lon="1.75744">
        <ele>180.3</ele>
        <time>2022-03-24T13:27:07Z</time>
      </trkpt>
      <trkpt lat="48.76337" lon="1.75754">
        <ele>180.8</ele>
        <time>2022-03-24T13:28:03Z</time>
      </trkpt>
      <trkpt lat="48.76343" lon="1.75754">
        <ele>178.2</ele>
        <time>2022-03-24T13:28:08Z</time>
      </trkpt>
      <trkpt lat="48.76348" lon="1.75753">
        <ele>174.6</ele>
        <time>2022-03-24T13:28:12Z</time>
      </trkpt>
      <trkpt lat="48.76353" lon="1.75749">
        <ele>172</ele>
        <time>2022-03-24T13:28:32Z</time>
      </trkpt>
      <trkpt lat="48.76358" lon="1.75749">
        <ele>172.4</ele>
        <time>2022-03-24T13:28:37Z</time>
      </trkpt>
      <trkpt lat="48.76363" lon="1.7575">
        <ele>172.8</ele>
        <time>2022-03-24T13:28:40Z</time>
      </trkpt>
      <trkpt lat="48.76368" lon="1.75751">
        <ele>172.8</ele>
        <time>2022-03-24T13:28:44Z</time>
      </trkpt>
      <trkpt lat="48.76373" lon="1.75751">
        <ele>173.1</ele>
        <time>2022-03-24T13:28:47Z</time>
      </trkpt>
      <trkpt lat="48.76378" lon="1.75751">
        <ele>173.8</ele>
        <time>2022-03-24T13:28:51Z</time>
      </trkpt>
      <trkpt lat="48.76383" lon="1.7575">
        <ele>174.3</ele>
        <time>2022-03-24T13:28:56Z</time>
      </trkpt>
      <trkpt lat="48.76389" lon="1.75747">
        <ele>174.1</ele>
        <time>2022-03-24T13:29:00Z</time>
      </trkpt>
      <trkpt lat="48.76393" lon="1.75744">
        <ele>173.9</ele>
        <time>2022-03-24T13:29:05Z</time>
      </trkpt>
      <trkpt lat="48.76399" lon="1.75742">
        <ele>174.8</ele>
        <time>2022-03-24T13:29:16Z</time>
      </trkpt>
      <trkpt lat="48.76404" lon="1.75743">
        <ele>175.9</ele>
        <time>2022-03-24T13:29:18Z</time>
      </trkpt>
      <trkpt lat="48.76408" lon="1.75743">
        <ele>177.4</ele>
        <time>2022-03-24T13:29:22Z</time>
      </trkpt>
      <trkpt lat="48.76414" lon="1.75741">
        <ele>178.1</ele>
        <time>2022-03-24T13:29:26Z</time>
      </trkpt>
      <trkpt lat="48.76419" lon="1.75738">
        <ele>178</ele>
        <time>2022-03-24T13:29:30Z</time>
      </trkpt>
      <trkpt lat="48.76424" lon="1.75736">
        <ele>177.9</ele>
        <time>2022-03-24T13:29:36Z</time>
      </trkpt>
      <trkpt lat="48.76429" lon="1.75736">
        <ele>177.6</ele>
        <time>2022-03-24T13:29:41Z</time>
      </trkpt>
      <trkpt lat="48.76434" lon="1.75735">
        <ele>177.6</ele>
        <time>2022-03-24T13:29:45Z</time>
      </trkpt>
      <trkpt lat="48.7644" lon="1.75734">
        <ele>178.9</ele>
        <time>2022-03-24T13:29:49Z</time>
      </trkpt>
      <trkpt lat="48.76445" lon="1.75735">
        <ele>179.5</ele>
        <time>2022-03-24T13:29:54Z</time>
      </trkpt>
      <trkpt lat="48.76449" lon="1.75734">
        <ele>179.7</ele>
        <time>2022-03-24T13:29:58Z</time>
      </trkpt>
      <trkpt lat="48.76454" lon="1.75733">
        <ele>180.1</ele>
        <time>2022-03-24T13:30:03Z</time>
      </trkpt>
      <trkpt lat="48.76459" lon="1.75733">
        <ele>180.9</ele>
        <time>2022-03-24T13:30:08Z</time>
      </trkpt>
      <trkpt lat="48.76464" lon="1.7573">
        <ele>181.4</ele>
        <time>2022-03-24T13:30:12Z</time>
      </trkpt>
      <trkpt lat="48.76469" lon="1.7573">
        <ele>182</ele>
        <time>2022-03-24T13:30:18Z</time>
      </trkpt>
      <trkpt lat="48.76474" lon="1.75729">
        <ele>181.8</ele>
        <time>2022-03-24T13:30:22Z</time>
      </trkpt>
      <trkpt lat="48.76478" lon="1.75727">
        <ele>181.3</ele>
        <time>2022-03-24T13:30:27Z</time>
      </trkpt>
      <trkpt lat="48.76483" lon="1.75726">
        <ele>180.5</ele>
        <time>2022-03-24T13:30:32Z</time>
      </trkpt>
      <trkpt lat="48.76487" lon="1.75724">
        <ele>179.3</ele>
        <time>2022-03-24T13:30:36Z</time>
      </trkpt>
      <trkpt lat="48.76492" lon="1.75721">
        <ele>177.9</ele>
        <time>2022-03-24T13:30:42Z</time>
      </trkpt>
      <trkpt lat="48.76497" lon="1.75722">
        <ele>177.1</ele>
        <time>2022-03-24T13:30:47Z</time>
      </trkpt>
      <trkpt lat="48.76498" lon="1.75728">
        <ele>174.5</ele>
        <time>2022-03-24T13:30:53Z</time>
      </trkpt>
      <trkpt lat="48.76503" lon="1.75727">
        <ele>171.1</ele>
        <time>2022-03-24T13:31:07Z</time>
      </trkpt>
      <trkpt lat="48.76508" lon="1.75723">
        <ele>171.5</ele>
        <time>2022-03-24T13:31:12Z</time>
      </trkpt>
      <trkpt lat="48.76513" lon="1.7572">
        <ele>172.2</ele>
        <time>2022-03-24T13:31:18Z</time>
      </trkpt>
      <trkpt lat="48.76515" lon="1.75726">
        <ele>173.3</ele>
        <time>2022-03-24T13:31:27Z</time>
      </trkpt>
      <trkpt lat="48.76519" lon="1.75731">
        <ele>173.6</ele>
        <time>2022-03-24T13:31:36Z</time>
      </trkpt>
      <trkpt lat="48.76524" lon="1.75729">
        <ele>172.6</ele>
        <time>2022-03-24T13:31:45Z</time>
      </trkpt>
      <trkpt lat="48.76527" lon="1.75724">
        <ele>171.7</ele>
        <time>2022-03-24T13:31:51Z</time>
      </trkpt>
      <trkpt lat="48.76529" lon="1.75718">
        <ele>170.6</ele>
        <time>2022-03-24T13:31:56Z</time>
      </trkpt>
      <trkpt lat="48.76532" lon="1.75713">
        <ele>169.8</ele>
        <time>2022-03-24T13:32:01Z</time>
      </trkpt>
      <trkpt lat="48.76532" lon="1.75706">
        <ele>168.1</ele>
        <time>2022-03-24T13:32:09Z</time>
      </trkpt>
      <trkpt lat="48.76528" lon="1.75702">
        <ele>164.3</ele>
        <time>2022-03-24T13:32:19Z</time>
      </trkpt>
      <trkpt lat="48.76532" lon="1.75708">
        <ele>164.8</ele>
        <time>2022-03-24T13:32:42Z</time>
      </trkpt>
      <trkpt lat="48.76528" lon="1.75706">
        <ele>164.5</ele>
        <time>2022-03-24T13:34:10Z</time>
      </trkpt>
      <trkpt lat="48.76523" lon="1.75708">
        <ele>163.5</ele>
        <time>2022-03-24T13:34:32Z</time>
      </trkpt>
      <trkpt lat="48.76518" lon="1.75709">
        <ele>162.9</ele>
        <time>2022-03-24T13:35:13Z</time>
      </trkpt>
      <trkpt lat="48.76513" lon="1.75711">
        <ele>163.3</ele>
        <time>2022-03-24T13:35:19Z</time>
      </trkpt>
      <trkpt lat="48.76508" lon="1.75709">
        <ele>165.6</ele>
        <time>2022-03-24T13:35:23Z</time>
      </trkpt>
      <trkpt lat="48.76503" lon="1.75711">
        <ele>167.2</ele>
        <time>2022-03-24T13:35:26Z</time>
      </trkpt>
      <trkpt lat="48.76498" lon="1.75715">
        <ele>168.7</ele>
        <time>2022-03-24T13:35:31Z</time>
      </trkpt>
      <trkpt lat="48.76494" lon="1.75719">
        <ele>170</ele>
        <time>2022-03-24T13:35:36Z</time>
      </trkpt>
      <trkpt lat="48.76489" lon="1.75722">
        <ele>171.5</ele>
        <time>2022-03-24T13:35:41Z</time>
      </trkpt>
      <trkpt lat="48.76484" lon="1.75724">
        <ele>172.8</ele>
        <time>2022-03-24T13:35:46Z</time>
      </trkpt>
      <trkpt lat="48.76479" lon="1.75726">
        <ele>173.6</ele>
        <time>2022-03-24T13:35:51Z</time>
      </trkpt>
      <trkpt lat="48.76474" lon="1.75728">
        <ele>174.6</ele>
        <time>2022-03-24T13:35:55Z</time>
      </trkpt>
      <trkpt lat="48.76469" lon="1.75729">
        <ele>175.9</ele>
        <time>2022-03-24T13:36:00Z</time>
      </trkpt>
      <trkpt lat="48.76464" lon="1.7573">
        <ele>176.9</ele>
        <time>2022-03-24T13:36:04Z</time>
      </trkpt>
      <trkpt lat="48.76459" lon="1.7573">
        <ele>177.4</ele>
        <time>2022-03-24T13:36:08Z</time>
      </trkpt>
      <trkpt lat="48.76454" lon="1.7573">
        <ele>177.8</ele>
        <time>2022-03-24T13:36:13Z</time>
      </trkpt>
      <trkpt lat="48.76449" lon="1.75729">
        <ele>177.9</ele>
        <time>2022-03-24T13:36:17Z</time>
      </trkpt>
      <trkpt lat="48.76444" lon="1.75728">
        <ele>178.1</ele>
        <time>2022-03-24T13:36:22Z</time>
      </trkpt>
      <trkpt lat="48.76438" lon="1.75729">
        <ele>177.6</ele>
        <time>2022-03-24T13:36:26Z</time>
      </trkpt>
      <trkpt lat="48.76433" lon="1.75731">
        <ele>177.6</ele>
        <time>2022-03-24T13:36:31Z</time>
      </trkpt>
      <trkpt lat="48.76427" lon="1.75734">
        <ele>178.6</ele>
        <time>2022-03-24T13:36:36Z</time>
      </trkpt>
      <trkpt lat="48.76422" lon="1.75735">
        <ele>179.4</ele>
        <time>2022-03-24T13:36:40Z</time>
      </trkpt>
      <trkpt lat="48.76418" lon="1.75735">
        <ele>180.4</ele>
        <time>2022-03-24T13:36:44Z</time>
      </trkpt>
      <trkpt lat="48.76412" lon="1.75735">
        <ele>181</ele>
        <time>2022-03-24T13:36:48Z</time>
      </trkpt>
      <trkpt lat="48.76407" lon="1.75735">
        <ele>180.9</ele>
        <time>2022-03-24T13:36:53Z</time>
      </trkpt>
      <trkpt lat="48.76401" lon="1.75735">
        <ele>181</ele>
        <time>2022-03-24T13:36:57Z</time>
      </trkpt>
      <trkpt lat="48.76396" lon="1.75735">
        <ele>181.6</ele>
        <time>2022-03-24T13:37:01Z</time>
      </trkpt>
      <trkpt lat="48.7639" lon="1.75735">
        <ele>182.4</ele>
        <time>2022-03-24T13:37:04Z</time>
      </trkpt>
      <trkpt lat="48.76385" lon="1.75737">
        <ele>182.7</ele>
        <time>2022-03-24T13:37:09Z</time>
      </trkpt>
      <trkpt lat="48.7638" lon="1.75738">
        <ele>182.4</ele>
        <time>2022-03-24T13:37:13Z</time>
      </trkpt>
      <trkpt lat="48.76375" lon="1.75737">
        <ele>182.4</ele>
        <time>2022-03-24T13:37:17Z</time>
      </trkpt>
      <trkpt lat="48.76369" lon="1.75738">
        <ele>182.1</ele>
        <time>2022-03-24T13:37:21Z</time>
      </trkpt>
      <trkpt lat="48.76364" lon="1.7574">
        <ele>180.7</ele>
        <time>2022-03-24T13:37:25Z</time>
      </trkpt>
      <trkpt lat="48.76359" lon="1.75742">
        <ele>179.9</ele>
        <time>2022-03-24T13:37:29Z</time>
      </trkpt>
      <trkpt lat="48.76354" lon="1.75744">
        <ele>180.1</ele>
        <time>2022-03-24T13:37:34Z</time>
      </trkpt>
      <trkpt lat="48.76348" lon="1.75749">
        <ele>180.2</ele>
        <time>2022-03-24T13:37:38Z</time>
      </trkpt>
      <trkpt lat="48.76343" lon="1.75751">
        <ele>180.4</ele>
        <time>2022-03-24T13:37:43Z</time>
      </trkpt>
      <trkpt lat="48.76339" lon="1.7575">
        <ele>183.9</ele>
        <time>2022-03-24T13:38:10Z</time>
      </trkpt>
      <trkpt lat="48.76335" lon="1.75753">
        <ele>183.8</ele>
        <time>2022-03-24T13:38:13Z</time>
      </trkpt>
      <trkpt lat="48.7633" lon="1.75752">
        <ele>184.6</ele>
        <time>2022-03-24T13:38:18Z</time>
      </trkpt>
      <trkpt lat="48.76324" lon="1.75752">
        <ele>186</ele>
        <time>2022-03-24T13:38:23Z</time>
      </trkpt>
      <trkpt lat="48.7632" lon="1.75752">
        <ele>186.1</ele>
        <time>2022-03-24T13:38:27Z</time>
      </trkpt>
      <trkpt lat="48.76315" lon="1.75752">
        <ele>185.1</ele>
        <time>2022-03-24T13:38:30Z</time>
      </trkpt>
      <trkpt lat="48.7631" lon="1.75751">
        <ele>184.4</ele>
        <time>2022-03-24T13:38:34Z</time>
      </trkpt>
      <trkpt lat="48.76305" lon="1.7575">
        <ele>184.9</ele>
        <time>2022-03-24T13:38:39Z</time>
      </trkpt>
      <trkpt lat="48.76299" lon="1.75749">
        <ele>185.6</ele>
        <time>2022-03-24T13:38:43Z</time>
      </trkpt>
      <trkpt lat="48.76295" lon="1.75749">
        <ele>184.9</ele>
        <time>2022-03-24T13:38:46Z</time>
      </trkpt>
      <trkpt lat="48.7629" lon="1.75749">
        <ele>184.5</ele>
        <time>2022-03-24T13:38:49Z</time>
      </trkpt>
      <trkpt lat="48.76285" lon="1.75751">
        <ele>184</ele>
        <time>2022-03-24T13:38:53Z</time>
      </trkpt>
      <trkpt lat="48.7628" lon="1.75752">
        <ele>184.1</ele>
        <time>2022-03-24T13:38:58Z</time>
      </trkpt>
      <trkpt lat="48.76275" lon="1.75754">
        <ele>184.2</ele>
        <time>2022-03-24T13:39:02Z</time>
      </trkpt>
      <trkpt lat="48.7627" lon="1.75757">
        <ele>184.8</ele>
        <time>2022-03-24T13:39:06Z</time>
      </trkpt>
      <trkpt lat="48.76266" lon="1.7576">
        <ele>184.6</ele>
        <time>2022-03-24T13:39:10Z</time>
      </trkpt>
      <trkpt lat="48.7626" lon="1.75763">
        <ele>184.1</ele>
        <time>2022-03-24T13:39:15Z</time>
      </trkpt>
      <trkpt lat="48.76255" lon="1.75765">
        <ele>183.4</ele>
        <time>2022-03-24T13:39:21Z</time>
      </trkpt>
      <trkpt lat="48.76254" lon="1.75772">
        <ele>183.4</ele>
        <time>2022-03-24T13:39:25Z</time>
      </trkpt>
      <trkpt lat="48.76256" lon="1.75779">
        <ele>182.9</ele>
        <time>2022-03-24T13:39:29Z</time>
      </trkpt>
      <trkpt lat="48.76259" lon="1.75785">
        <ele>182</ele>
        <time>2022-03-24T13:39:33Z</time>
      </trkpt>
      <trkpt lat="48.76262" lon="1.75792">
        <ele>179.7</ele>
        <time>2022-03-24T13:39:37Z</time>
      </trkpt>
      <trkpt lat="48.76264" lon="1.75799">
        <ele>178.2</ele>
        <time>2022-03-24T13:39:40Z</time>
      </trkpt>
      <trkpt lat="48.76265" lon="1.75807">
        <ele>177.2</ele>
        <time>2022-03-24T13:39:44Z</time>
      </trkpt>
      <trkpt lat="48.76266" lon="1.75816">
        <ele>177.5</ele>
        <time>2022-03-24T13:39:49Z</time>
      </trkpt>
      <trkpt lat="48.76268" lon="1.75824">
        <ele>178.2</ele>
        <time>2022-03-24T13:39:53Z</time>
      </trkpt>
      <trkpt lat="48.76271" lon="1.75831">
        <ele>178.4</ele>
        <time>2022-03-24T13:39:58Z</time>
      </trkpt>
      <trkpt lat="48.76273" lon="1.75838">
        <ele>178.2</ele>
        <time>2022-03-24T13:40:02Z</time>
      </trkpt>
      <trkpt lat="48.76275" lon="1.75846">
        <ele>177.3</ele>
        <time>2022-03-24T13:40:06Z</time>
      </trkpt>
      <trkpt lat="48.76277" lon="1.75854">
        <ele>177.3</ele>
        <time>2022-03-24T13:40:11Z</time>
      </trkpt>
      <trkpt lat="48.76279" lon="1.75862">
        <ele>178.5</ele>
        <time>2022-03-24T13:40:15Z</time>
      </trkpt>
      <trkpt lat="48.7628" lon="1.7587">
        <ele>179.3</ele>
        <time>2022-03-24T13:40:18Z</time>
      </trkpt>
      <trkpt lat="48.76281" lon="1.75878">
        <ele>178.9</ele>
        <time>2022-03-24T13:40:23Z</time>
      </trkpt>
      <trkpt lat="48.76283" lon="1.75885">
        <ele>177.9</ele>
        <time>2022-03-24T13:40:27Z</time>
      </trkpt>
      <trkpt lat="48.76285" lon="1.75893">
        <ele>177.5</ele>
        <time>2022-03-24T13:40:31Z</time>
      </trkpt>
      <trkpt lat="48.76287" lon="1.759">
        <ele>177.1</ele>
        <time>2022-03-24T13:40:35Z</time>
      </trkpt>
      <trkpt lat="48.7629" lon="1.75907">
        <ele>176.7</ele>
        <time>2022-03-24T13:40:40Z</time>
      </trkpt>
      <trkpt lat="48.76292" lon="1.75913">
        <ele>175.9</ele>
        <time>2022-03-24T13:40:44Z</time>
      </trkpt>
      <trkpt lat="48.76294" lon="1.75921">
        <ele>175.1</ele>
        <time>2022-03-24T13:40:48Z</time>
      </trkpt>
      <trkpt lat="48.76297" lon="1.75928">
        <ele>174.8</ele>
        <time>2022-03-24T13:40:53Z</time>
      </trkpt>
      <trkpt lat="48.76298" lon="1.75935">
        <ele>175</ele>
        <time>2022-03-24T13:40:56Z</time>
      </trkpt>
      <trkpt lat="48.763" lon="1.75942">
        <ele>175.6</ele>
        <time>2022-03-24T13:41:01Z</time>
      </trkpt>
      <trkpt lat="48.76303" lon="1.7595">
        <ele>175.2</ele>
        <time>2022-03-24T13:41:06Z</time>
      </trkpt>
      <trkpt lat="48.76305" lon="1.75957">
        <ele>174.6</ele>
        <time>2022-03-24T13:41:09Z</time>
      </trkpt>
      <trkpt lat="48.76307" lon="1.75965">
        <ele>175.5</ele>
        <time>2022-03-24T13:41:14Z</time>
      </trkpt>
      <trkpt lat="48.76307" lon="1.75972">
        <ele>177.4</ele>
        <time>2022-03-24T13:41:19Z</time>
      </trkpt>
      <trkpt lat="48.76307" lon="1.75981">
        <ele>178.5</ele>
        <time>2022-03-24T13:41:24Z</time>
      </trkpt>
      <trkpt lat="48.76307" lon="1.7599">
        <ele>178.2</ele>
        <time>2022-03-24T13:41:28Z</time>
      </trkpt>
      <trkpt lat="48.76307" lon="1.75998">
        <ele>178</ele>
        <time>2022-03-24T13:41:33Z</time>
      </trkpt>
      <trkpt lat="48.76308" lon="1.76005">
        <ele>177.4</ele>
        <time>2022-03-24T13:41:36Z</time>
      </trkpt>
      <trkpt lat="48.7631" lon="1.76012">
        <ele>176.8</ele>
        <time>2022-03-24T13:41:41Z</time>
      </trkpt>
      <trkpt lat="48.76311" lon="1.7602">
        <ele>176.1</ele>
        <time>2022-03-24T13:41:46Z</time>
      </trkpt>
      <trkpt lat="48.76313" lon="1.76029">
        <ele>176</ele>
        <time>2022-03-24T13:41:50Z</time>
      </trkpt>
      <trkpt lat="48.76315" lon="1.76036">
        <ele>176.3</ele>
        <time>2022-03-24T13:41:55Z</time>
      </trkpt>
      <trkpt lat="48.76316" lon="1.76044">
        <ele>177.3</ele>
        <time>2022-03-24T13:41:59Z</time>
      </trkpt>
      <trkpt lat="48.76317" lon="1.76051">
        <ele>177.4</ele>
        <time>2022-03-24T13:42:03Z</time>
      </trkpt>
      <trkpt lat="48.76318" lon="1.76059">
        <ele>177.3</ele>
        <time>2022-03-24T13:42:07Z</time>
      </trkpt>
      <trkpt lat="48.76318" lon="1.76067">
        <ele>177.8</ele>
        <time>2022-03-24T13:42:12Z</time>
      </trkpt>
      <trkpt lat="48.76318" lon="1.76075">
        <ele>178.9</ele>
        <time>2022-03-24T13:42:16Z</time>
      </trkpt>
      <trkpt lat="48.76319" lon="1.76082">
        <ele>179.6</ele>
        <time>2022-03-24T13:42:19Z</time>
      </trkpt>
      <trkpt lat="48.76321" lon="1.76089">
        <ele>180.1</ele>
        <time>2022-03-24T13:42:23Z</time>
      </trkpt>
      <trkpt lat="48.76322" lon="1.76095">
        <ele>180.6</ele>
        <time>2022-03-24T13:42:28Z</time>
      </trkpt>
      <trkpt lat="48.76323" lon="1.76102">
        <ele>180.6</ele>
        <time>2022-03-24T13:42:32Z</time>
      </trkpt>
      <trkpt lat="48.76324" lon="1.7611">
        <ele>180.2</ele>
        <time>2022-03-24T13:42:37Z</time>
      </trkpt>
      <trkpt lat="48.76326" lon="1.76116">
        <ele>179.6</ele>
        <time>2022-03-24T13:42:41Z</time>
      </trkpt>
      <trkpt lat="48.76329" lon="1.76123">
        <ele>180</ele>
        <time>2022-03-24T13:42:46Z</time>
      </trkpt>
      <trkpt lat="48.76331" lon="1.76131">
        <ele>182.2</ele>
        <time>2022-03-24T13:42:51Z</time>
      </trkpt>
      <trkpt lat="48.76334" lon="1.76138">
        <ele>182.8</ele>
        <time>2022-03-24T13:42:55Z</time>
      </trkpt>
      <trkpt lat="48.76337" lon="1.76144">
        <ele>181.9</ele>
        <time>2022-03-24T13:42:59Z</time>
      </trkpt>
      <trkpt lat="48.76339" lon="1.7615">
        <ele>183.3</ele>
        <time>2022-03-24T13:43:14Z</time>
      </trkpt>
      <trkpt lat="48.76341" lon="1.76158">
        <ele>182.8</ele>
        <time>2022-03-24T13:43:18Z</time>
      </trkpt>
      <trkpt lat="48.76343" lon="1.76164">
        <ele>183.3</ele>
        <time>2022-03-24T13:43:22Z</time>
      </trkpt>
      <trkpt lat="48.76346" lon="1.76171">
        <ele>183.4</ele>
        <time>2022-03-24T13:43:26Z</time>
      </trkpt>
      <trkpt lat="48.76348" lon="1.76178">
        <ele>182.8</ele>
        <time>2022-03-24T13:43:30Z</time>
      </trkpt>
      <trkpt lat="48.76351" lon="1.76186">
        <ele>182.8</ele>
        <time>2022-03-24T13:43:34Z</time>
      </trkpt>
      <trkpt lat="48.76353" lon="1.76193">
        <ele>182.7</ele>
        <time>2022-03-24T13:43:38Z</time>
      </trkpt>
      <trkpt lat="48.76354" lon="1.762">
        <ele>182.5</ele>
        <time>2022-03-24T13:43:43Z</time>
      </trkpt>
      <trkpt lat="48.76356" lon="1.76207">
        <ele>182</ele>
        <time>2022-03-24T13:43:47Z</time>
      </trkpt>
      <trkpt lat="48.76354" lon="1.76215">
        <ele>180.6</ele>
        <time>2022-03-24T13:43:53Z</time>
      </trkpt>
      <trkpt lat="48.76355" lon="1.76223">
        <ele>179.2</ele>
        <time>2022-03-24T13:43:58Z</time>
      </trkpt>
      <trkpt lat="48.76357" lon="1.76231">
        <ele>179.2</ele>
        <time>2022-03-24T13:44:02Z</time>
      </trkpt>
      <trkpt lat="48.76359" lon="1.76237">
        <ele>179.5</ele>
        <time>2022-03-24T13:44:07Z</time>
      </trkpt>
      <trkpt lat="48.76361" lon="1.76244">
        <ele>180</ele>
        <time>2022-03-24T13:44:11Z</time>
      </trkpt>
      <trkpt lat="48.76362" lon="1.76252">
        <ele>183.4</ele>
        <time>2022-03-24T13:44:15Z</time>
      </trkpt>
      <trkpt lat="48.76363" lon="1.76259">
        <ele>186.8</ele>
        <time>2022-03-24T13:44:20Z</time>
      </trkpt>
      <trkpt lat="48.76365" lon="1.76266">
        <ele>186.9</ele>
        <time>2022-03-24T13:44:24Z</time>
      </trkpt>
      <trkpt lat="48.76368" lon="1.76272">
        <ele>186.7</ele>
        <time>2022-03-24T13:44:27Z</time>
      </trkpt>
      <trkpt lat="48.76371" lon="1.76278">
        <ele>186.6</ele>
        <time>2022-03-24T13:44:31Z</time>
      </trkpt>
      <trkpt lat="48.76374" lon="1.76284">
        <ele>187.4</ele>
        <time>2022-03-24T13:44:35Z</time>
      </trkpt>
      <trkpt lat="48.76378" lon="1.7629">
        <ele>188</ele>
        <time>2022-03-24T13:44:40Z</time>
      </trkpt>
      <trkpt lat="48.76381" lon="1.76297">
        <ele>187.9</ele>
        <time>2022-03-24T13:44:45Z</time>
      </trkpt>
      <trkpt lat="48.76383" lon="1.76305">
        <ele>186.6</ele>
        <time>2022-03-24T13:44:49Z</time>
      </trkpt>
      <trkpt lat="48.76385" lon="1.76311">
        <ele>184.6</ele>
        <time>2022-03-24T13:44:54Z</time>
      </trkpt>
      <trkpt lat="48.76387" lon="1.76317">
        <ele>183.5</ele>
        <time>2022-03-24T13:44:57Z</time>
      </trkpt>
      <trkpt lat="48.7639" lon="1.76324">
        <ele>182.1</ele>
        <time>2022-03-24T13:45:02Z</time>
      </trkpt>
      <trkpt lat="48.76394" lon="1.7633">
        <ele>181.7</ele>
        <time>2022-03-24T13:45:06Z</time>
      </trkpt>
      <trkpt lat="48.76397" lon="1.76336">
        <ele>182.2</ele>
        <time>2022-03-24T13:45:11Z</time>
      </trkpt>
      <trkpt lat="48.764" lon="1.76343">
        <ele>183.3</ele>
        <time>2022-03-24T13:45:16Z</time>
      </trkpt>
      <trkpt lat="48.76404" lon="1.76348">
        <ele>182.9</ele>
        <time>2022-03-24T13:45:21Z</time>
      </trkpt>
      <trkpt lat="48.76407" lon="1.76353">
        <ele>182.6</ele>
        <time>2022-03-24T13:45:25Z</time>
      </trkpt>
      <trkpt lat="48.76412" lon="1.76357">
        <ele>183.5</ele>
        <time>2022-03-24T13:45:31Z</time>
      </trkpt>
      <trkpt lat="48.76415" lon="1.76351">
        <ele>187.4</ele>
        <time>2022-03-24T13:45:43Z</time>
      </trkpt>
      <trkpt lat="48.7641" lon="1.76345">
        <ele>180.2</ele>
        <time>2022-03-24T13:46:55Z</time>
      </trkpt>
      <trkpt lat="48.76405" lon="1.76344">
        <ele>175.7</ele>
        <time>2022-03-24T13:47:07Z</time>
      </trkpt>
      <trkpt lat="48.76404" lon="1.76351">
        <ele>175.6</ele>
        <time>2022-03-24T13:47:14Z</time>
      </trkpt>
      <trkpt lat="48.76408" lon="1.76353">
        <ele>173.3</ele>
        <time>2022-03-24T13:47:32Z</time>
      </trkpt>
      <trkpt lat="48.76404" lon="1.76359">
        <ele>171.5</ele>
        <time>2022-03-24T13:48:00Z</time>
      </trkpt>
      <trkpt lat="48.764" lon="1.76363">
        <ele>171.9</ele>
        <time>2022-03-24T13:48:10Z</time>
      </trkpt>
      <trkpt lat="48.764" lon="1.76372">
        <ele>172</ele>
        <time>2022-03-24T13:48:15Z</time>
      </trkpt>
      <trkpt lat="48.76396" lon="1.76379">
        <ele>173.7</ele>
        <time>2022-03-24T13:48:20Z</time>
      </trkpt>
      <trkpt lat="48.76392" lon="1.76386">
        <ele>174</ele>
        <time>2022-03-24T13:48:25Z</time>
      </trkpt>
      <trkpt lat="48.76389" lon="1.76391">
        <ele>173.7</ele>
        <time>2022-03-24T13:48:29Z</time>
      </trkpt>
      <trkpt lat="48.76386" lon="1.76396">
        <ele>173.1</ele>
        <time>2022-03-24T13:48:34Z</time>
      </trkpt>
      <trkpt lat="48.76383" lon="1.76403">
        <ele>173</ele>
        <time>2022-03-24T13:48:39Z</time>
      </trkpt>
      <trkpt lat="48.76379" lon="1.76408">
        <ele>174.4</ele>
        <time>2022-03-24T13:48:44Z</time>
      </trkpt>
      <trkpt lat="48.76376" lon="1.76415">
        <ele>176.5</ele>
        <time>2022-03-24T13:48:49Z</time>
      </trkpt>
      <trkpt lat="48.76374" lon="1.76423">
        <ele>177.7</ele>
        <time>2022-03-24T13:48:55Z</time>
      </trkpt>
      <trkpt lat="48.76372" lon="1.7643">
        <ele>176.7</ele>
        <time>2022-03-24T13:49:01Z</time>
      </trkpt>
      <trkpt lat="48.76368" lon="1.76436">
        <ele>177</ele>
        <time>2022-03-24T13:49:05Z</time>
      </trkpt>
      <trkpt lat="48.76365" lon="1.76443">
        <ele>180.4</ele>
        <time>2022-03-24T13:49:09Z</time>
      </trkpt>
      <trkpt lat="48.76363" lon="1.76449">
        <ele>184.6</ele>
        <time>2022-03-24T13:49:14Z</time>
      </trkpt>
      <trkpt lat="48.7636" lon="1.76456">
        <ele>185.5</ele>
        <time>2022-03-24T13:49:18Z</time>
      </trkpt>
      <trkpt lat="48.76357" lon="1.76462">
        <ele>184.4</ele>
        <time>2022-03-24T13:49:21Z</time>
      </trkpt>
      <trkpt lat="48.76354" lon="1.76469">
        <ele>183.4</ele>
        <time>2022-03-24T13:49:26Z</time>
      </trkpt>
      <trkpt lat="48.76351" lon="1.76475">
        <ele>183</ele>
        <time>2022-03-24T13:49:30Z</time>
      </trkpt>
      <trkpt lat="48.76347" lon="1.76482">
        <ele>182.8</ele>
        <time>2022-03-24T13:49:35Z</time>
      </trkpt>
      <trkpt lat="48.76345" lon="1.76488">
        <ele>182.5</ele>
        <time>2022-03-24T13:49:38Z</time>
      </trkpt>
      <trkpt lat="48.76342" lon="1.76495">
        <ele>182.2</ele>
        <time>2022-03-24T13:49:42Z</time>
      </trkpt>
      <trkpt lat="48.76339" lon="1.76501">
        <ele>182.1</ele>
        <time>2022-03-24T13:49:47Z</time>
      </trkpt>
      <trkpt lat="48.76337" lon="1.76508">
        <ele>182.1</ele>
        <time>2022-03-24T13:49:51Z</time>
      </trkpt>
      <trkpt lat="48.76334" lon="1.76514">
        <ele>181.8</ele>
        <time>2022-03-24T13:49:55Z</time>
      </trkpt>
      <trkpt lat="48.76331" lon="1.76522">
        <ele>180.8</ele>
        <time>2022-03-24T13:49:59Z</time>
      </trkpt>
      <trkpt lat="48.76329" lon="1.7653">
        <ele>180.6</ele>
        <time>2022-03-24T13:50:03Z</time>
      </trkpt>
      <trkpt lat="48.76326" lon="1.76536">
        <ele>181.1</ele>
        <time>2022-03-24T13:50:09Z</time>
      </trkpt>
      <trkpt lat="48.76324" lon="1.76542">
        <ele>181.4</ele>
        <time>2022-03-24T13:50:13Z</time>
      </trkpt>
      <trkpt lat="48.7632" lon="1.76548">
        <ele>181.9</ele>
        <time>2022-03-24T13:50:18Z</time>
      </trkpt>
      <trkpt lat="48.76319" lon="1.76554">
        <ele>180.6</ele>
        <time>2022-03-24T13:50:22Z</time>
      </trkpt>
      <trkpt lat="48.76316" lon="1.7656">
        <ele>179</ele>
        <time>2022-03-24T13:50:26Z</time>
      </trkpt>
      <trkpt lat="48.76312" lon="1.76567">
        <ele>178.7</ele>
        <time>2022-03-24T13:50:30Z</time>
      </trkpt>
      <trkpt lat="48.76309" lon="1.76572">
        <ele>179.8</ele>
        <time>2022-03-24T13:50:35Z</time>
      </trkpt>
      <trkpt lat="48.76306" lon="1.76578">
        <ele>180.9</ele>
        <time>2022-03-24T13:50:39Z</time>
      </trkpt>
      <trkpt lat="48.76303" lon="1.76584">
        <ele>181.6</ele>
        <time>2022-03-24T13:50:43Z</time>
      </trkpt>
      <trkpt lat="48.76301" lon="1.76593">
        <ele>181.7</ele>
        <time>2022-03-24T13:50:48Z</time>
      </trkpt>
      <trkpt lat="48.76297" lon="1.76598">
        <ele>183</ele>
        <time>2022-03-24T13:50:53Z</time>
      </trkpt>
      <trkpt lat="48.76294" lon="1.76605">
        <ele>184.1</ele>
        <time>2022-03-24T13:50:57Z</time>
      </trkpt>
      <trkpt lat="48.76292" lon="1.76611">
        <ele>183.5</ele>
        <time>2022-03-24T13:51:02Z</time>
      </trkpt>
      <trkpt lat="48.76289" lon="1.76618">
        <ele>182</ele>
        <time>2022-03-24T13:51:07Z</time>
      </trkpt>
      <trkpt lat="48.76286" lon="1.76624">
        <ele>181.9</ele>
        <time>2022-03-24T13:51:12Z</time>
      </trkpt>
      <trkpt lat="48.76282" lon="1.7663">
        <ele>183.5</ele>
        <time>2022-03-24T13:51:17Z</time>
      </trkpt>
      <trkpt lat="48.76279" lon="1.76636">
        <ele>185.2</ele>
        <time>2022-03-24T13:51:21Z</time>
      </trkpt>
      <trkpt lat="48.76276" lon="1.76643">
        <ele>186.7</ele>
        <time>2022-03-24T13:51:25Z</time>
      </trkpt>
      <trkpt lat="48.76273" lon="1.76649">
        <ele>187.4</ele>
        <time>2022-03-24T13:51:31Z</time>
      </trkpt>
      <trkpt lat="48.7627" lon="1.76655">
        <ele>187.4</ele>
        <time>2022-03-24T13:51:35Z</time>
      </trkpt>
      <trkpt lat="48.76267" lon="1.76662">
        <ele>188.1</ele>
        <time>2022-03-24T13:51:40Z</time>
      </trkpt>
      <trkpt lat="48.76264" lon="1.7667">
        <ele>188.5</ele>
        <time>2022-03-24T13:51:45Z</time>
      </trkpt>
      <trkpt lat="48.76262" lon="1.76678">
        <ele>188.3</ele>
        <time>2022-03-24T13:51:49Z</time>
      </trkpt>
      <trkpt lat="48.7626" lon="1.76685">
        <ele>187.1</ele>
        <time>2022-03-24T13:51:53Z</time>
      </trkpt>
      <trkpt lat="48.76255" lon="1.76691">
        <ele>185.9</ele>
        <time>2022-03-24T13:51:59Z</time>
      </trkpt>
      <trkpt lat="48.76252" lon="1.76698">
        <ele>185.3</ele>
        <time>2022-03-24T13:52:03Z</time>
      </trkpt>
      <trkpt lat="48.7625" lon="1.76705">
        <ele>184.2</ele>
        <time>2022-03-24T13:52:07Z</time>
      </trkpt>
      <trkpt lat="48.76247" lon="1.76713">
        <ele>181.5</ele>
        <time>2022-03-24T13:52:13Z</time>
      </trkpt>
      <trkpt lat="48.76245" lon="1.76719">
        <ele>180</ele>
        <time>2022-03-24T13:52:17Z</time>
      </trkpt>
      <trkpt lat="48.76242" lon="1.76726">
        <ele>179.7</ele>
        <time>2022-03-24T13:52:22Z</time>
      </trkpt>
      <trkpt lat="48.7624" lon="1.76733">
        <ele>178.7</ele>
        <time>2022-03-24T13:52:27Z</time>
      </trkpt>
      <trkpt lat="48.76238" lon="1.7674">
        <ele>178</ele>
        <time>2022-03-24T13:52:31Z</time>
      </trkpt>
      <trkpt lat="48.76235" lon="1.76746">
        <ele>178</ele>
        <time>2022-03-24T13:52:35Z</time>
      </trkpt>
      <trkpt lat="48.76232" lon="1.76752">
        <ele>178.1</ele>
        <time>2022-03-24T13:52:38Z</time>
      </trkpt>
      <trkpt lat="48.76229" lon="1.76759">
        <ele>178.5</ele>
        <time>2022-03-24T13:52:44Z</time>
      </trkpt>
      <trkpt lat="48.76227" lon="1.76766">
        <ele>178.8</ele>
        <time>2022-03-24T13:52:48Z</time>
      </trkpt>
      <trkpt lat="48.76224" lon="1.76773">
        <ele>178.3</ele>
        <time>2022-03-24T13:52:53Z</time>
      </trkpt>
      <trkpt lat="48.76221" lon="1.7678">
        <ele>177.6</ele>
        <time>2022-03-24T13:52:58Z</time>
      </trkpt>
      <trkpt lat="48.76219" lon="1.76786">
        <ele>178.2</ele>
        <time>2022-03-24T13:53:02Z</time>
      </trkpt>
      <trkpt lat="48.76216" lon="1.76792">
        <ele>179.2</ele>
        <time>2022-03-24T13:53:05Z</time>
      </trkpt>
      <trkpt lat="48.76212" lon="1.76798">
        <ele>179.7</ele>
        <time>2022-03-24T13:53:10Z</time>
      </trkpt>
      <trkpt lat="48.76209" lon="1.76804">
        <ele>178.6</ele>
        <time>2022-03-24T13:53:14Z</time>
      </trkpt>
      <trkpt lat="48.76206" lon="1.76811">
        <ele>178.2</ele>
        <time>2022-03-24T13:53:18Z</time>
      </trkpt>
      <trkpt lat="48.76203" lon="1.76816">
        <ele>178.3</ele>
        <time>2022-03-24T13:53:21Z</time>
      </trkpt>
      <trkpt lat="48.762" lon="1.76823">
        <ele>178.9</ele>
        <time>2022-03-24T13:53:26Z</time>
      </trkpt>
      <trkpt lat="48.76197" lon="1.76829">
        <ele>179.6</ele>
        <time>2022-03-24T13:53:30Z</time>
      </trkpt>
      <trkpt lat="48.76195" lon="1.76836">
        <ele>180.6</ele>
        <time>2022-03-24T13:53:34Z</time>
      </trkpt>
      <trkpt lat="48.76192" lon="1.76841">
        <ele>181.6</ele>
        <time>2022-03-24T13:53:39Z</time>
      </trkpt>
      <trkpt lat="48.76189" lon="1.76847">
        <ele>182.5</ele>
        <time>2022-03-24T13:53:44Z</time>
      </trkpt>
      <trkpt lat="48.76187" lon="1.76853">
        <ele>182.8</ele>
        <time>2022-03-24T13:53:49Z</time>
      </trkpt>
      <trkpt lat="48.76188" lon="1.76861">
        <ele>177.4</ele>
        <time>2022-03-24T13:53:56Z</time>
      </trkpt>
      <trkpt lat="48.76184" lon="1.76857">
        <ele>177.5</ele>
        <time>2022-03-24T13:55:07Z</time>
      </trkpt>
      <trkpt lat="48.76179" lon="1.76858">
        <ele>176</ele>
        <time>2022-03-24T13:55:15Z</time>
      </trkpt>
      <trkpt lat="48.76174" lon="1.76855">
        <ele>175.1</ele>
        <time>2022-03-24T13:55:21Z</time>
      </trkpt>
      <trkpt lat="48.76169" lon="1.76855">
        <ele>173.8</ele>
        <time>2022-03-24T13:55:27Z</time>
      </trkpt>
      <trkpt lat="48.76164" lon="1.76855">
        <ele>172.7</ele>
        <time>2022-03-24T13:55:31Z</time>
      </trkpt>
      <trkpt lat="48.76159" lon="1.76857">
        <ele>172.4</ele>
        <time>2022-03-24T13:55:36Z</time>
      </trkpt>
      <trkpt lat="48.76154" lon="1.76861">
        <ele>172.3</ele>
        <time>2022-03-24T13:55:40Z</time>
      </trkpt>
      <trkpt lat="48.7615" lon="1.76864">
        <ele>172.3</ele>
        <time>2022-03-24T13:55:44Z</time>
      </trkpt>
      <trkpt lat="48.76145" lon="1.76866">
        <ele>171.9</ele>
        <time>2022-03-24T13:55:48Z</time>
      </trkpt>
      <trkpt lat="48.7614" lon="1.76867">
        <ele>172.1</ele>
        <time>2022-03-24T13:55:52Z</time>
      </trkpt>
      <trkpt lat="48.76135" lon="1.76863">
        <ele>173.9</ele>
        <time>2022-03-24T13:55:57Z</time>
      </trkpt>
      <trkpt lat="48.7613" lon="1.76863">
        <ele>175.2</ele>
        <time>2022-03-24T13:56:01Z</time>
      </trkpt>
      <trkpt lat="48.76125" lon="1.76865">
        <ele>175.7</ele>
        <time>2022-03-24T13:56:05Z</time>
      </trkpt>
      <trkpt lat="48.7612" lon="1.76868">
        <ele>176.3</ele>
        <time>2022-03-24T13:56:09Z</time>
      </trkpt>
      <trkpt lat="48.76114" lon="1.76869">
        <ele>178</ele>
        <time>2022-03-24T13:56:13Z</time>
      </trkpt>
      <trkpt lat="48.76109" lon="1.76867">
        <ele>179.6</ele>
        <time>2022-03-24T13:56:16Z</time>
      </trkpt>
      <trkpt lat="48.76104" lon="1.76865">
        <ele>181.7</ele>
        <time>2022-03-24T13:56:21Z</time>
      </trkpt>
      <trkpt lat="48.76098" lon="1.76869">
        <ele>183</ele>
        <time>2022-03-24T13:56:25Z</time>
      </trkpt>
      <trkpt lat="48.76095" lon="1.76875">
        <ele>183.1</ele>
        <time>2022-03-24T13:56:29Z</time>
      </trkpt>
      <trkpt lat="48.76091" lon="1.76879">
        <ele>182.7</ele>
        <time>2022-03-24T13:56:33Z</time>
      </trkpt>
      <trkpt lat="48.76086" lon="1.76882">
        <ele>182.7</ele>
        <time>2022-03-24T13:56:37Z</time>
      </trkpt>
      <trkpt lat="48.76081" lon="1.76883">
        <ele>182.8</ele>
        <time>2022-03-24T13:56:40Z</time>
      </trkpt>
      <trkpt lat="48.76075" lon="1.76884">
        <ele>182.9</ele>
        <time>2022-03-24T13:56:45Z</time>
      </trkpt>
      <trkpt lat="48.76069" lon="1.76884">
        <ele>182.7</ele>
        <time>2022-03-24T13:56:49Z</time>
      </trkpt>
      <trkpt lat="48.76063" lon="1.76884">
        <ele>183.3</ele>
        <time>2022-03-24T13:56:54Z</time>
      </trkpt>
      <trkpt lat="48.76057" lon="1.76886">
        <ele>183.8</ele>
        <time>2022-03-24T13:56:58Z</time>
      </trkpt>
      <trkpt lat="48.76052" lon="1.76888">
        <ele>185.6</ele>
        <time>2022-03-24T13:57:02Z</time>
      </trkpt>
      <trkpt lat="48.76047" lon="1.76888">
        <ele>187.6</ele>
        <time>2022-03-24T13:57:06Z</time>
      </trkpt>
      <trkpt lat="48.76042" lon="1.7689">
        <ele>188</ele>
        <time>2022-03-24T13:57:10Z</time>
      </trkpt>
      <trkpt lat="48.76037" lon="1.76892">
        <ele>188.4</ele>
        <time>2022-03-24T13:57:15Z</time>
      </trkpt>
      <trkpt lat="48.76032" lon="1.76893">
        <ele>189.4</ele>
        <time>2022-03-24T13:57:19Z</time>
      </trkpt>
      <trkpt lat="48.76026" lon="1.76896">
        <ele>189.4</ele>
        <time>2022-03-24T13:57:23Z</time>
      </trkpt>
      <trkpt lat="48.76022" lon="1.76897">
        <ele>189.2</ele>
        <time>2022-03-24T13:57:27Z</time>
      </trkpt>
      <trkpt lat="48.76017" lon="1.76898">
        <ele>188.6</ele>
        <time>2022-03-24T13:57:30Z</time>
      </trkpt>
      <trkpt lat="48.76012" lon="1.769">
        <ele>187.7</ele>
        <time>2022-03-24T13:57:34Z</time>
      </trkpt>
      <trkpt lat="48.76007" lon="1.76902">
        <ele>186.1</ele>
        <time>2022-03-24T13:57:39Z</time>
      </trkpt>
      <trkpt lat="48.76002" lon="1.76904">
        <ele>185.2</ele>
        <time>2022-03-24T13:57:43Z</time>
      </trkpt>
      <trkpt lat="48.75998" lon="1.76905">
        <ele>185.6</ele>
        <time>2022-03-24T13:57:47Z</time>
      </trkpt>
      <trkpt lat="48.75993" lon="1.76906">
        <ele>187.4</ele>
        <time>2022-03-24T13:57:51Z</time>
      </trkpt>
      <trkpt lat="48.75988" lon="1.76909">
        <ele>189.8</ele>
        <time>2022-03-24T13:57:56Z</time>
      </trkpt>
      <trkpt lat="48.75983" lon="1.7691">
        <ele>190.5</ele>
        <time>2022-03-24T13:58:00Z</time>
      </trkpt>
      <trkpt lat="48.75978" lon="1.7691">
        <ele>190.8</ele>
        <time>2022-03-24T13:58:04Z</time>
      </trkpt>
      <trkpt lat="48.75973" lon="1.7691">
        <ele>193.2</ele>
        <time>2022-03-24T13:58:07Z</time>
      </trkpt>
      <trkpt lat="48.75967" lon="1.76909">
        <ele>196.7</ele>
        <time>2022-03-24T13:58:11Z</time>
      </trkpt>
      <trkpt lat="48.75962" lon="1.76907">
        <ele>197</ele>
        <time>2022-03-24T13:58:16Z</time>
      </trkpt>
      <trkpt lat="48.75957" lon="1.76906">
        <ele>197.1</ele>
        <time>2022-03-24T13:58:20Z</time>
      </trkpt>
      <trkpt lat="48.75951" lon="1.76904">
        <ele>197</ele>
        <time>2022-03-24T13:58:24Z</time>
      </trkpt>
      <trkpt lat="48.75946" lon="1.76902">
        <ele>195</ele>
        <time>2022-03-24T13:58:28Z</time>
      </trkpt>
      <trkpt lat="48.7594" lon="1.76901">
        <ele>194.4</ele>
        <time>2022-03-24T13:58:32Z</time>
      </trkpt>
      <trkpt lat="48.75935" lon="1.76901">
        <ele>195.2</ele>
        <time>2022-03-24T13:58:37Z</time>
      </trkpt>
      <trkpt lat="48.7593" lon="1.769">
        <ele>195.8</ele>
        <time>2022-03-24T13:58:41Z</time>
      </trkpt>
      <trkpt lat="48.75925" lon="1.76896">
        <ele>196.6</ele>
        <time>2022-03-24T13:58:45Z</time>
      </trkpt>
      <trkpt lat="48.75921" lon="1.76892">
        <ele>196.8</ele>
        <time>2022-03-24T13:58:50Z</time>
      </trkpt>
      <trkpt lat="48.75917" lon="1.7689">
        <ele>196.4</ele>
        <time>2022-03-24T13:58:54Z</time>
      </trkpt>
      <trkpt lat="48.75912" lon="1.76889">
        <ele>196.2</ele>
        <time>2022-03-24T13:58:58Z</time>
      </trkpt>
      <trkpt lat="48.75907" lon="1.76886">
        <ele>196.2</ele>
        <time>2022-03-24T13:59:02Z</time>
      </trkpt>
      <trkpt lat="48.75901" lon="1.76884">
        <ele>196.5</ele>
        <time>2022-03-24T13:59:07Z</time>
      </trkpt>
      <trkpt lat="48.75896" lon="1.76882">
        <ele>197.2</ele>
        <time>2022-03-24T13:59:11Z</time>
      </trkpt>
      <trkpt lat="48.75891" lon="1.76881">
        <ele>197.7</ele>
        <time>2022-03-24T13:59:15Z</time>
      </trkpt>
      <trkpt lat="48.75887" lon="1.76878">
        <ele>198.3</ele>
        <time>2022-03-24T13:59:19Z</time>
      </trkpt>
      <trkpt lat="48.75881" lon="1.76876">
        <ele>198.4</ele>
        <time>2022-03-24T13:59:24Z</time>
      </trkpt>
      <trkpt lat="48.75876" lon="1.76874">
        <ele>196.9</ele>
        <time>2022-03-24T13:59:28Z</time>
      </trkpt>
      <trkpt lat="48.75872" lon="1.76871">
        <ele>193.6</ele>
        <time>2022-03-24T13:59:32Z</time>
      </trkpt>
      <trkpt lat="48.75867" lon="1.7687">
        <ele>192.5</ele>
        <time>2022-03-24T13:59:36Z</time>
      </trkpt>
      <trkpt lat="48.75861" lon="1.7687">
        <ele>192.1</ele>
        <time>2022-03-24T13:59:41Z</time>
      </trkpt>
      <trkpt lat="48.75856" lon="1.7687">
        <ele>191.5</ele>
        <time>2022-03-24T13:59:45Z</time>
      </trkpt>
      <trkpt lat="48.75851" lon="1.76869">
        <ele>190.4</ele>
        <time>2022-03-24T13:59:49Z</time>
      </trkpt>
      <trkpt lat="48.75846" lon="1.76869">
        <ele>191</ele>
        <time>2022-03-24T13:59:53Z</time>
      </trkpt>
      <trkpt lat="48.75841" lon="1.76867">
        <ele>193.9</ele>
        <time>2022-03-24T13:59:57Z</time>
      </trkpt>
      <trkpt lat="48.75836" lon="1.76866">
        <ele>194.9</ele>
        <time>2022-03-24T14:00:02Z</time>
      </trkpt>
      <trkpt lat="48.75831" lon="1.76865">
        <ele>194</ele>
        <time>2022-03-24T14:00:06Z</time>
      </trkpt>
      <trkpt lat="48.75826" lon="1.76863">
        <ele>193.5</ele>
        <time>2022-03-24T14:00:11Z</time>
      </trkpt>
      <trkpt lat="48.75821" lon="1.7686">
        <ele>193.1</ele>
        <time>2022-03-24T14:00:15Z</time>
      </trkpt>
      <trkpt lat="48.75816" lon="1.76857">
        <ele>193.3</ele>
        <time>2022-03-24T14:00:19Z</time>
      </trkpt>
      <trkpt lat="48.75811" lon="1.76854">
        <ele>194.5</ele>
        <time>2022-03-24T14:00:25Z</time>
      </trkpt>
      <trkpt lat="48.75807" lon="1.76851">
        <ele>194.8</ele>
        <time>2022-03-24T14:00:29Z</time>
      </trkpt>
      <trkpt lat="48.75802" lon="1.76849">
        <ele>194.8</ele>
        <time>2022-03-24T14:00:33Z</time>
      </trkpt>
      <trkpt lat="48.75797" lon="1.76849">
        <ele>194.7</ele>
        <time>2022-03-24T14:00:37Z</time>
      </trkpt>
      <trkpt lat="48.75792" lon="1.76849">
        <ele>194.5</ele>
        <time>2022-03-24T14:00:42Z</time>
      </trkpt>
      <trkpt lat="48.75788" lon="1.7685">
        <ele>194.3</ele>
        <time>2022-03-24T14:00:46Z</time>
      </trkpt>
      <trkpt lat="48.75783" lon="1.76852">
        <ele>193.7</ele>
        <time>2022-03-24T14:00:52Z</time>
      </trkpt>
      <trkpt lat="48.75782" lon="1.76859">
        <ele>189.8</ele>
        <time>2022-03-24T14:01:04Z</time>
      </trkpt>
      <trkpt lat="48.75777" lon="1.76862">
        <ele>192.1</ele>
        <time>2022-03-24T14:01:25Z</time>
      </trkpt>
      <trkpt lat="48.75776" lon="1.76869">
        <ele>192</ele>
        <time>2022-03-24T14:01:33Z</time>
      </trkpt>
      <trkpt lat="48.75777" lon="1.76877">
        <ele>188.3</ele>
        <time>2022-03-24T14:01:39Z</time>
      </trkpt>
      <trkpt lat="48.75777" lon="1.76884">
        <ele>186.3</ele>
        <time>2022-03-24T14:01:45Z</time>
      </trkpt>
      <trkpt lat="48.75776" lon="1.76891">
        <ele>186</ele>
        <time>2022-03-24T14:01:50Z</time>
      </trkpt>
      <trkpt lat="48.75777" lon="1.76898">
        <ele>182.8</ele>
        <time>2022-03-24T14:02:02Z</time>
      </trkpt>
      <trkpt lat="48.75779" lon="1.76905">
        <ele>182.3</ele>
        <time>2022-03-24T14:02:07Z</time>
      </trkpt>
      <trkpt lat="48.75782" lon="1.76911">
        <ele>182</ele>
        <time>2022-03-24T14:02:12Z</time>
      </trkpt>
      <trkpt lat="48.75783" lon="1.76919">
        <ele>181.6</ele>
        <time>2022-03-24T14:02:16Z</time>
      </trkpt>
      <trkpt lat="48.75785" lon="1.76926">
        <ele>181.4</ele>
        <time>2022-03-24T14:02:20Z</time>
      </trkpt>
      <trkpt lat="48.75784" lon="1.76933">
        <ele>181.2</ele>
        <time>2022-03-24T14:02:23Z</time>
      </trkpt>
      <trkpt lat="48.75783" lon="1.7694">
        <ele>181.5</ele>
        <time>2022-03-24T14:02:26Z</time>
      </trkpt>
      <trkpt lat="48.75782" lon="1.76948">
        <ele>182.8</ele>
        <time>2022-03-24T14:02:31Z</time>
      </trkpt>
      <trkpt lat="48.75783" lon="1.76955">
        <ele>184</ele>
        <time>2022-03-24T14:02:36Z</time>
      </trkpt>
      <trkpt lat="48.75784" lon="1.76963">
        <ele>182.6</ele>
        <time>2022-03-24T14:02:41Z</time>
      </trkpt>
      <trkpt lat="48.75786" lon="1.76971">
        <ele>182</ele>
        <time>2022-03-24T14:02:45Z</time>
      </trkpt>
      <trkpt lat="48.75787" lon="1.76977">
        <ele>182.8</ele>
        <time>2022-03-24T14:02:49Z</time>
      </trkpt>
      <trkpt lat="48.75787" lon="1.76984">
        <ele>182.8</ele>
        <time>2022-03-24T14:02:53Z</time>
      </trkpt>
      <trkpt lat="48.75788" lon="1.76992">
        <ele>182.1</ele>
        <time>2022-03-24T14:02:58Z</time>
      </trkpt>
      <trkpt lat="48.75788" lon="1.77">
        <ele>181</ele>
        <time>2022-03-24T14:03:02Z</time>
      </trkpt>
      <trkpt lat="48.7579" lon="1.77008">
        <ele>180.8</ele>
        <time>2022-03-24T14:03:06Z</time>
      </trkpt>
      <trkpt lat="48.75791" lon="1.77016">
        <ele>180.5</ele>
        <time>2022-03-24T14:03:09Z</time>
      </trkpt>
      <trkpt lat="48.75792" lon="1.77024">
        <ele>180.9</ele>
        <time>2022-03-24T14:03:13Z</time>
      </trkpt>
      <trkpt lat="48.75794" lon="1.77032">
        <ele>181.8</ele>
        <time>2022-03-24T14:03:17Z</time>
      </trkpt>
      <trkpt lat="48.75794" lon="1.7704">
        <ele>182.9</ele>
        <time>2022-03-24T14:03:22Z</time>
      </trkpt>
      <trkpt lat="48.75795" lon="1.77047">
        <ele>183.2</ele>
        <time>2022-03-24T14:03:26Z</time>
      </trkpt>
      <trkpt lat="48.75795" lon="1.77055">
        <ele>183.2</ele>
        <time>2022-03-24T14:03:30Z</time>
      </trkpt>
      <trkpt lat="48.75796" lon="1.77064">
        <ele>183.1</ele>
        <time>2022-03-24T14:03:34Z</time>
      </trkpt>
      <trkpt lat="48.75798" lon="1.77072">
        <ele>183.3</ele>
        <time>2022-03-24T14:03:39Z</time>
      </trkpt>
      <trkpt lat="48.75799" lon="1.7708">
        <ele>183.2</ele>
        <time>2022-03-24T14:03:43Z</time>
      </trkpt>
      <trkpt lat="48.75801" lon="1.77087">
        <ele>183.5</ele>
        <time>2022-03-24T14:03:47Z</time>
      </trkpt>
      <trkpt lat="48.75802" lon="1.77094">
        <ele>183.4</ele>
        <time>2022-03-24T14:03:52Z</time>
      </trkpt>
      <trkpt lat="48.75803" lon="1.77102">
        <ele>183.5</ele>
        <time>2022-03-24T14:03:56Z</time>
      </trkpt>
      <trkpt lat="48.75803" lon="1.7711">
        <ele>183.1</ele>
        <time>2022-03-24T14:04:01Z</time>
      </trkpt>
      <trkpt lat="48.75802" lon="1.77117">
        <ele>183.2</ele>
        <time>2022-03-24T14:04:04Z</time>
      </trkpt>
      <trkpt lat="48.75802" lon="1.77125">
        <ele>184</ele>
        <time>2022-03-24T14:04:08Z</time>
      </trkpt>
      <trkpt lat="48.75802" lon="1.77132">
        <ele>185</ele>
        <time>2022-03-24T14:04:13Z</time>
      </trkpt>
      <trkpt lat="48.75804" lon="1.77139">
        <ele>184.4</ele>
        <time>2022-03-24T14:04:19Z</time>
      </trkpt>
      <trkpt lat="48.75805" lon="1.77148">
        <ele>181.7</ele>
        <time>2022-03-24T14:04:24Z</time>
      </trkpt>
      <trkpt lat="48.75807" lon="1.77155">
        <ele>179.9</ele>
        <time>2022-03-24T14:04:28Z</time>
      </trkpt>
      <trkpt lat="48.75809" lon="1.77163">
        <ele>179.6</ele>
        <time>2022-03-24T14:04:33Z</time>
      </trkpt>
      <trkpt lat="48.7581" lon="1.77169">
        <ele>179.4</ele>
        <time>2022-03-24T14:04:36Z</time>
      </trkpt>
      <trkpt lat="48.7581" lon="1.77177">
        <ele>179.4</ele>
        <time>2022-03-24T14:04:41Z</time>
      </trkpt>
      <trkpt lat="48.75811" lon="1.77185">
        <ele>179.3</ele>
        <time>2022-03-24T14:04:45Z</time>
      </trkpt>
      <trkpt lat="48.75811" lon="1.77193">
        <ele>179.4</ele>
        <time>2022-03-24T14:04:50Z</time>
      </trkpt>
      <trkpt lat="48.75811" lon="1.77201">
        <ele>180.1</ele>
        <time>2022-03-24T14:04:54Z</time>
      </trkpt>
      <trkpt lat="48.75811" lon="1.77209">
        <ele>181.2</ele>
        <time>2022-03-24T14:04:57Z</time>
      </trkpt>
      <trkpt lat="48.75812" lon="1.77216">
        <ele>182</ele>
        <time>2022-03-24T14:05:00Z</time>
      </trkpt>
      <trkpt lat="48.75812" lon="1.77223">
        <ele>181.9</ele>
        <time>2022-03-24T14:05:04Z</time>
      </trkpt>
      <trkpt lat="48.75813" lon="1.77232">
        <ele>182</ele>
        <time>2022-03-24T14:05:09Z</time>
      </trkpt>
      <trkpt lat="48.75812" lon="1.77239">
        <ele>182.7</ele>
        <time>2022-03-24T14:05:12Z</time>
      </trkpt>
      <trkpt lat="48.75813" lon="1.77246">
        <ele>184.6</ele>
        <time>2022-03-24T14:05:16Z</time>
      </trkpt>
      <trkpt lat="48.75813" lon="1.77255">
        <ele>185</ele>
        <time>2022-03-24T14:05:20Z</time>
      </trkpt>
      <trkpt lat="48.75814" lon="1.77263">
        <ele>184.2</ele>
        <time>2022-03-24T14:05:24Z</time>
      </trkpt>
      <trkpt lat="48.75816" lon="1.7727">
        <ele>183.2</ele>
        <time>2022-03-24T14:05:28Z</time>
      </trkpt>
      <trkpt lat="48.75817" lon="1.77279">
        <ele>182.9</ele>
        <time>2022-03-24T14:05:32Z</time>
      </trkpt>
      <trkpt lat="48.75818" lon="1.77286">
        <ele>182.7</ele>
        <time>2022-03-24T14:05:36Z</time>
      </trkpt>
      <trkpt lat="48.75818" lon="1.77293">
        <ele>181.4</ele>
        <time>2022-03-24T14:05:41Z</time>
      </trkpt>
      <trkpt lat="48.75819" lon="1.77302">
        <ele>181.5</ele>
        <time>2022-03-24T14:05:46Z</time>
      </trkpt>
      <trkpt lat="48.7582" lon="1.7731">
        <ele>183.2</ele>
        <time>2022-03-24T14:05:50Z</time>
      </trkpt>
      <trkpt lat="48.75821" lon="1.77318">
        <ele>184.1</ele>
        <time>2022-03-24T14:05:54Z</time>
      </trkpt>
      <trkpt lat="48.75822" lon="1.77326">
        <ele>183.9</ele>
        <time>2022-03-24T14:05:58Z</time>
      </trkpt>
      <trkpt lat="48.75823" lon="1.77333">
        <ele>183.8</ele>
        <time>2022-03-24T14:06:02Z</time>
      </trkpt>
      <trkpt lat="48.75824" lon="1.77343">
        <ele>183.6</ele>
        <time>2022-03-24T14:06:07Z</time>
      </trkpt>
      <trkpt lat="48.75825" lon="1.7735">
        <ele>184</ele>
        <time>2022-03-24T14:06:12Z</time>
      </trkpt>
      <trkpt lat="48.75826" lon="1.77357">
        <ele>185.5</ele>
        <time>2022-03-24T14:06:15Z</time>
      </trkpt>
      <trkpt lat="48.75827" lon="1.77364">
        <ele>186.5</ele>
        <time>2022-03-24T14:06:18Z</time>
      </trkpt>
      <trkpt lat="48.75827" lon="1.77372">
        <ele>186.3</ele>
        <time>2022-03-24T14:06:23Z</time>
      </trkpt>
      <trkpt lat="48.75827" lon="1.77379">
        <ele>185.8</ele>
        <time>2022-03-24T14:06:26Z</time>
      </trkpt>
      <trkpt lat="48.75828" lon="1.77387">
        <ele>185.2</ele>
        <time>2022-03-24T14:06:30Z</time>
      </trkpt>
      <trkpt lat="48.75829" lon="1.77394">
        <ele>184</ele>
        <time>2022-03-24T14:06:35Z</time>
      </trkpt>
      <trkpt lat="48.7583" lon="1.77402">
        <ele>183</ele>
        <time>2022-03-24T14:06:39Z</time>
      </trkpt>
      <trkpt lat="48.7583" lon="1.77409">
        <ele>183.4</ele>
        <time>2022-03-24T14:06:42Z</time>
      </trkpt>
      <trkpt lat="48.75831" lon="1.77416">
        <ele>184</ele>
        <time>2022-03-24T14:06:47Z</time>
      </trkpt>
      <trkpt lat="48.75833" lon="1.77424">
        <ele>184</ele>
        <time>2022-03-24T14:06:52Z</time>
      </trkpt>
      <trkpt lat="48.75833" lon="1.77431">
        <ele>184.1</ele>
        <time>2022-03-24T14:06:56Z</time>
      </trkpt>
      <trkpt lat="48.75832" lon="1.77439">
        <ele>184.9</ele>
        <time>2022-03-24T14:07:01Z</time>
      </trkpt>
      <trkpt lat="48.75832" lon="1.77446">
        <ele>186.9</ele>
        <time>2022-03-24T14:07:06Z</time>
      </trkpt>
      <trkpt lat="48.75828" lon="1.7745">
        <ele>190.4</ele>
        <time>2022-03-24T14:07:17Z</time>
      </trkpt>
      <trkpt lat="48.75829" lon="1.77443">
        <ele>189.2</ele>
        <time>2022-03-24T14:07:41Z</time>
      </trkpt>
      <trkpt lat="48.75833" lon="1.77445">
        <ele>181</ele>
        <time>2022-03-24T14:09:10Z</time>
      </trkpt>
      <trkpt lat="48.75838" lon="1.7745">
        <ele>180.7</ele>
        <time>2022-03-24T14:09:14Z</time>
      </trkpt>
      <trkpt lat="48.75842" lon="1.77456">
        <ele>179.9</ele>
        <time>2022-03-24T14:09:18Z</time>
      </trkpt>
      <trkpt lat="48.75843" lon="1.77464">
        <ele>178.8</ele>
        <time>2022-03-24T14:09:24Z</time>
      </trkpt>
      <trkpt lat="48.75842" lon="1.77471">
        <ele>178.3</ele>
        <time>2022-03-24T14:09:28Z</time>
      </trkpt>
      <trkpt lat="48.75842" lon="1.77478">
        <ele>177.6</ele>
        <time>2022-03-24T14:09:33Z</time>
      </trkpt>
      <trkpt lat="48.75842" lon="1.77487">
        <ele>175.8</ele>
        <time>2022-03-24T14:09:37Z</time>
      </trkpt>
      <trkpt lat="48.75843" lon="1.77494">
        <ele>174.7</ele>
        <time>2022-03-24T14:09:41Z</time>
      </trkpt>
      <trkpt lat="48.75843" lon="1.77502">
        <ele>174.8</ele>
        <time>2022-03-24T14:09:46Z</time>
      </trkpt>
      <trkpt lat="48.75842" lon="1.7751">
        <ele>175</ele>
        <time>2022-03-24T14:09:51Z</time>
      </trkpt>
      <trkpt lat="48.75843" lon="1.77517">
        <ele>176.3</ele>
        <time>2022-03-24T14:09:55Z</time>
      </trkpt>
      <trkpt lat="48.75843" lon="1.77524">
        <ele>177.7</ele>
        <time>2022-03-24T14:09:59Z</time>
      </trkpt>
      <trkpt lat="48.75844" lon="1.77533">
        <ele>179.1</ele>
        <time>2022-03-24T14:10:03Z</time>
      </trkpt>
      <trkpt lat="48.75844" lon="1.77539">
        <ele>181.5</ele>
        <time>2022-03-24T14:10:08Z</time>
      </trkpt>
      <trkpt lat="48.75844" lon="1.77547">
        <ele>183.3</ele>
        <time>2022-03-24T14:10:12Z</time>
      </trkpt>
      <trkpt lat="48.75845" lon="1.77555">
        <ele>183.9</ele>
        <time>2022-03-24T14:10:17Z</time>
      </trkpt>
      <trkpt lat="48.75845" lon="1.77562">
        <ele>183.9</ele>
        <time>2022-03-24T14:10:21Z</time>
      </trkpt>
      <trkpt lat="48.75845" lon="1.77569">
        <ele>183</ele>
        <time>2022-03-24T14:10:25Z</time>
      </trkpt>
      <trkpt lat="48.75843" lon="1.77575">
        <ele>181.4</ele>
        <time>2022-03-24T14:10:30Z</time>
      </trkpt>
      <trkpt lat="48.75841" lon="1.77581">
        <ele>180.3</ele>
        <time>2022-03-24T14:10:34Z</time>
      </trkpt>
      <trkpt lat="48.75837" lon="1.77588">
        <ele>179.3</ele>
        <time>2022-03-24T14:10:40Z</time>
      </trkpt>
      <trkpt lat="48.75835" lon="1.77595">
        <ele>177</ele>
        <time>2022-03-24T14:10:45Z</time>
      </trkpt>
      <trkpt lat="48.75831" lon="1.77602">
        <ele>174.6</ele>
        <time>2022-03-24T14:10:50Z</time>
      </trkpt>
      <trkpt lat="48.75829" lon="1.77609">
        <ele>174.2</ele>
        <time>2022-03-24T14:10:55Z</time>
      </trkpt>
      <trkpt lat="48.75826" lon="1.77614">
        <ele>175.3</ele>
        <time>2022-03-24T14:10:59Z</time>
      </trkpt>
      <trkpt lat="48.75823" lon="1.77621">
        <ele>177.9</ele>
        <time>2022-03-24T14:11:03Z</time>
      </trkpt>
      <trkpt lat="48.7582" lon="1.77626">
        <ele>180.4</ele>
        <time>2022-03-24T14:11:07Z</time>
      </trkpt>
      <trkpt lat="48.75817" lon="1.77634">
        <ele>180.6</ele>
        <time>2022-03-24T14:11:12Z</time>
      </trkpt>
      <trkpt lat="48.75815" lon="1.7764">
        <ele>180.7</ele>
        <time>2022-03-24T14:11:16Z</time>
      </trkpt>
      <trkpt lat="48.75812" lon="1.77647">
        <ele>180.7</ele>
        <time>2022-03-24T14:11:20Z</time>
      </trkpt>
      <trkpt lat="48.75809" lon="1.77652">
        <ele>181.4</ele>
        <time>2022-03-24T14:11:25Z</time>
      </trkpt>
      <trkpt lat="48.7581" lon="1.77645">
        <ele>184</ele>
        <time>2022-03-24T14:11:32Z</time>
      </trkpt>
      <trkpt lat="48.75814" lon="1.77642">
        <ele>183.9</ele>
        <time>2022-03-24T14:11:34Z</time>
      </trkpt>
      <trkpt lat="48.75819" lon="1.77639">
        <ele>182.8</ele>
        <time>2022-03-24T14:11:36Z</time>
      </trkpt>
      <trkpt lat="48.75826" lon="1.77634">
        <ele>182.7</ele>
        <time>2022-03-24T14:11:39Z</time>
      </trkpt>
      <trkpt lat="48.75829" lon="1.77628">
        <ele>183.4</ele>
        <time>2022-03-24T14:11:41Z</time>
      </trkpt>
      <trkpt lat="48.75828" lon="1.7762">
        <ele>184.2</ele>
        <time>2022-03-24T14:11:43Z</time>
      </trkpt>
      <trkpt lat="48.75823" lon="1.77615">
        <ele>184.9</ele>
        <time>2022-03-24T14:11:46Z</time>
      </trkpt>
      <trkpt lat="48.75819" lon="1.77613">
        <ele>185.1</ele>
        <time>2022-03-24T14:11:48Z</time>
      </trkpt>
      <trkpt lat="48.75813" lon="1.7761">
        <ele>184.8</ele>
        <time>2022-03-24T14:11:52Z</time>
      </trkpt>
      <trkpt lat="48.75809" lon="1.77608">
        <ele>184.4</ele>
        <time>2022-03-24T14:11:56Z</time>
      </trkpt>
      <trkpt lat="48.75804" lon="1.77605">
        <ele>184.2</ele>
        <time>2022-03-24T14:11:59Z</time>
      </trkpt>
      <trkpt lat="48.75798" lon="1.77603">
        <ele>184.9</ele>
        <time>2022-03-24T14:12:04Z</time>
      </trkpt>
      <trkpt lat="48.75793" lon="1.776">
        <ele>186.5</ele>
        <time>2022-03-24T14:12:08Z</time>
      </trkpt>
      <trkpt lat="48.75788" lon="1.77597">
        <ele>186.9</ele>
        <time>2022-03-24T14:12:12Z</time>
      </trkpt>
      <trkpt lat="48.75783" lon="1.77594">
        <ele>186.1</ele>
        <time>2022-03-24T14:12:16Z</time>
      </trkpt>
      <trkpt lat="48.75778" lon="1.7759">
        <ele>185</ele>
        <time>2022-03-24T14:12:20Z</time>
      </trkpt>
      <trkpt lat="48.75774" lon="1.77586">
        <ele>184.3</ele>
        <time>2022-03-24T14:12:23Z</time>
      </trkpt>
      <trkpt lat="48.7577" lon="1.77582">
        <ele>183.6</ele>
        <time>2022-03-24T14:12:27Z</time>
      </trkpt>
      <trkpt lat="48.75765" lon="1.7758">
        <ele>182.8</ele>
        <time>2022-03-24T14:12:32Z</time>
      </trkpt>
      <trkpt lat="48.75761" lon="1.77577">
        <ele>183</ele>
        <time>2022-03-24T14:12:36Z</time>
      </trkpt>
      <trkpt lat="48.75757" lon="1.77574">
        <ele>183.3</ele>
        <time>2022-03-24T14:12:40Z</time>
      </trkpt>
      <trkpt lat="48.75751" lon="1.7757">
        <ele>186.3</ele>
        <time>2022-03-24T14:12:46Z</time>
      </trkpt>
      <trkpt lat="48.75746" lon="1.77568">
        <ele>189.8</ele>
        <time>2022-03-24T14:12:51Z</time>
      </trkpt>
      <trkpt lat="48.75742" lon="1.77565">
        <ele>190.8</ele>
        <time>2022-03-24T14:12:55Z</time>
      </trkpt>
      <trkpt lat="48.75737" lon="1.77562">
        <ele>191.4</ele>
        <time>2022-03-24T14:13:00Z</time>
      </trkpt>
      <trkpt lat="48.75733" lon="1.77558">
        <ele>190.9</ele>
        <time>2022-03-24T14:13:04Z</time>
      </trkpt>
      <trkpt lat="48.75729" lon="1.77553">
        <ele>190.8</ele>
        <time>2022-03-24T14:13:08Z</time>
      </trkpt>
      <trkpt lat="48.75725" lon="1.7755">
        <ele>191.1</ele>
        <time>2022-03-24T14:13:13Z</time>
      </trkpt>
      <trkpt lat="48.7572" lon="1.77549">
        <ele>191.8</ele>
        <time>2022-03-24T14:13:17Z</time>
      </trkpt>
      <trkpt lat="48.75716" lon="1.77547">
        <ele>192.5</ele>
        <time>2022-03-24T14:13:21Z</time>
      </trkpt>
      <trkpt lat="48.75711" lon="1.77543">
        <ele>194</ele>
        <time>2022-03-24T14:13:25Z</time>
      </trkpt>
      <trkpt lat="48.75705" lon="1.7754">
        <ele>193.5</ele>
        <time>2022-03-24T14:13:30Z</time>
      </trkpt>
      <trkpt lat="48.75701" lon="1.77536">
        <ele>190.7</ele>
        <time>2022-03-24T14:13:34Z</time>
      </trkpt>
      <trkpt lat="48.75696" lon="1.77532">
        <ele>188.9</ele>
        <time>2022-03-24T14:13:38Z</time>
      </trkpt>
      <trkpt lat="48.75691" lon="1.7753">
        <ele>188.7</ele>
        <time>2022-03-24T14:13:43Z</time>
      </trkpt>
      <trkpt lat="48.75687" lon="1.77525">
        <ele>187.5</ele>
        <time>2022-03-24T14:13:47Z</time>
      </trkpt>
      <trkpt lat="48.75682" lon="1.7752">
        <ele>186.8</ele>
        <time>2022-03-24T14:13:52Z</time>
      </trkpt>
      <trkpt lat="48.75678" lon="1.77517">
        <ele>187.6</ele>
        <time>2022-03-24T14:13:56Z</time>
      </trkpt>
      <trkpt lat="48.75673" lon="1.77515">
        <ele>188</ele>
        <time>2022-03-24T14:14:01Z</time>
      </trkpt>
      <trkpt lat="48.75668" lon="1.77511">
        <ele>187.9</ele>
        <time>2022-03-24T14:14:05Z</time>
      </trkpt>
      <trkpt lat="48.75664" lon="1.77506">
        <ele>188.1</ele>
        <time>2022-03-24T14:14:10Z</time>
      </trkpt>
      <trkpt lat="48.7566" lon="1.77503">
        <ele>189.2</ele>
        <time>2022-03-24T14:14:14Z</time>
      </trkpt>
      <trkpt lat="48.75655" lon="1.77502">
        <ele>189.3</ele>
        <time>2022-03-24T14:14:17Z</time>
      </trkpt>
      <trkpt lat="48.75651" lon="1.77499">
        <ele>188.3</ele>
        <time>2022-03-24T14:14:22Z</time>
      </trkpt>
      <trkpt lat="48.75646" lon="1.77496">
        <ele>186.5</ele>
        <time>2022-03-24T14:14:26Z</time>
      </trkpt>
      <trkpt lat="48.75642" lon="1.77491">
        <ele>184.6</ele>
        <time>2022-03-24T14:14:30Z</time>
      </trkpt>
      <trkpt lat="48.75638" lon="1.77487">
        <ele>184.8</ele>
        <time>2022-03-24T14:14:35Z</time>
      </trkpt>
      <trkpt lat="48.75633" lon="1.77484">
        <ele>185.3</ele>
        <time>2022-03-24T14:14:38Z</time>
      </trkpt>
      <trkpt lat="48.75628" lon="1.77481">
        <ele>187.7</ele>
        <time>2022-03-24T14:14:43Z</time>
      </trkpt>
      <trkpt lat="48.75623" lon="1.77483">
        <ele>189</ele>
        <time>2022-03-24T14:14:50Z</time>
      </trkpt>
      <trkpt lat="48.75618" lon="1.77483">
        <ele>188.2</ele>
        <time>2022-03-24T14:14:53Z</time>
      </trkpt>
      <trkpt lat="48.75614" lon="1.77479">
        <ele>187.8</ele>
        <time>2022-03-24T14:14:58Z</time>
      </trkpt>
      <trkpt lat="48.75609" lon="1.77474">
        <ele>187.3</ele>
        <time>2022-03-24T14:15:03Z</time>
      </trkpt>
      <trkpt lat="48.75604" lon="1.77469">
        <ele>186.7</ele>
        <time>2022-03-24T14:15:08Z</time>
      </trkpt>
      <trkpt lat="48.756" lon="1.77464">
        <ele>186.8</ele>
        <time>2022-03-24T14:15:12Z</time>
      </trkpt>
      <trkpt lat="48.75597" lon="1.7746">
        <ele>187.5</ele>
        <time>2022-03-24T14:15:17Z</time>
      </trkpt>
      <trkpt lat="48.75592" lon="1.77458">
        <ele>188.6</ele>
        <time>2022-03-24T14:15:21Z</time>
      </trkpt>
      <trkpt lat="48.75587" lon="1.77454">
        <ele>189.9</ele>
        <time>2022-03-24T14:15:26Z</time>
      </trkpt>
      <trkpt lat="48.75582" lon="1.77451">
        <ele>191.2</ele>
        <time>2022-03-24T14:15:29Z</time>
      </trkpt>
      <trkpt lat="48.75578" lon="1.77446">
        <ele>192.4</ele>
        <time>2022-03-24T14:15:33Z</time>
      </trkpt>
      <trkpt lat="48.75573" lon="1.77445">
        <ele>194.3</ele>
        <time>2022-03-24T14:15:38Z</time>
      </trkpt>
      <trkpt lat="48.75568" lon="1.77441">
        <ele>195.5</ele>
        <time>2022-03-24T14:15:43Z</time>
      </trkpt>
      <trkpt lat="48.75564" lon="1.77437">
        <ele>194.5</ele>
        <time>2022-03-24T14:15:48Z</time>
      </trkpt>
      <trkpt lat="48.75559" lon="1.77436">
        <ele>193.9</ele>
        <time>2022-03-24T14:15:54Z</time>
      </trkpt>
      <trkpt lat="48.75557" lon="1.7743">
        <ele>194.5</ele>
        <time>2022-03-24T14:16:00Z</time>
      </trkpt>
      <trkpt lat="48.75552" lon="1.77427">
        <ele>192.7</ele>
        <time>2022-03-24T14:16:06Z</time>
      </trkpt>
      <trkpt lat="48.75547" lon="1.77424">
        <ele>191.6</ele>
        <time>2022-03-24T14:16:11Z</time>
      </trkpt>
      <trkpt lat="48.75543" lon="1.77421">
        <ele>190.5</ele>
        <time>2022-03-24T14:16:15Z</time>
      </trkpt>
      <trkpt lat="48.75541" lon="1.77414">
        <ele>189.6</ele>
        <time>2022-03-24T14:16:21Z</time>
      </trkpt>
      <trkpt lat="48.75536" lon="1.77411">
        <ele>188.2</ele>
        <time>2022-03-24T14:16:27Z</time>
      </trkpt>
      <trkpt lat="48.75532" lon="1.77412">
        <ele>187.3</ele>
        <time>2022-03-24T14:16:31Z</time>
      </trkpt>
      <trkpt lat="48.75526" lon="1.77412">
        <ele>186.8</ele>
        <time>2022-03-24T14:16:35Z</time>
      </trkpt>
      <trkpt lat="48.75522" lon="1.7741">
        <ele>186.9</ele>
        <time>2022-03-24T14:16:40Z</time>
      </trkpt>
      <trkpt lat="48.75518" lon="1.77404">
        <ele>188.4</ele>
        <time>2022-03-24T14:16:45Z</time>
      </trkpt>
      <trkpt lat="48.75513" lon="1.77401">
        <ele>188.3</ele>
        <time>2022-03-24T14:16:49Z</time>
      </trkpt>
      <trkpt lat="48.75509" lon="1.77396">
        <ele>187.3</ele>
        <time>2022-03-24T14:16:54Z</time>
      </trkpt>
      <trkpt lat="48.75504" lon="1.77393">
        <ele>186.7</ele>
        <time>2022-03-24T14:16:59Z</time>
      </trkpt>
      <trkpt lat="48.75499" lon="1.77396">
        <ele>187.4</ele>
        <time>2022-03-24T14:17:07Z</time>
      </trkpt>
      <trkpt lat="48.75493" lon="1.77393">
        <ele>187.8</ele>
        <time>2022-03-24T14:17:10Z</time>
      </trkpt>
      <trkpt lat="48.75488" lon="1.77388">
        <ele>187.1</ele>
        <time>2022-03-24T14:17:14Z</time>
      </trkpt>
      <trkpt lat="48.75483" lon="1.77384">
        <ele>187</ele>
        <time>2022-03-24T14:17:17Z</time>
      </trkpt>
      <trkpt lat="48.75479" lon="1.77379">
        <ele>186.3</ele>
        <time>2022-03-24T14:17:22Z</time>
      </trkpt>
      <trkpt lat="48.75474" lon="1.77375">
        <ele>186.8</ele>
        <time>2022-03-24T14:17:26Z</time>
      </trkpt>
      <trkpt lat="48.7547" lon="1.7737">
        <ele>187.7</ele>
        <time>2022-03-24T14:17:31Z</time>
      </trkpt>
      <trkpt lat="48.75466" lon="1.77366">
        <ele>188.7</ele>
        <time>2022-03-24T14:17:35Z</time>
      </trkpt>
      <trkpt lat="48.75463" lon="1.77363">
        <ele>189.2</ele>
        <time>2022-03-24T14:17:40Z</time>
      </trkpt>
      <trkpt lat="48.75458" lon="1.7736">
        <ele>189.6</ele>
        <time>2022-03-24T14:17:45Z</time>
      </trkpt>
      <trkpt lat="48.75453" lon="1.77357">
        <ele>190</ele>
        <time>2022-03-24T14:17:50Z</time>
      </trkpt>
      <trkpt lat="48.75449" lon="1.77353">
        <ele>189.2</ele>
        <time>2022-03-24T14:17:54Z</time>
      </trkpt>
      <trkpt lat="48.75444" lon="1.77351">
        <ele>186.7</ele>
        <time>2022-03-24T14:18:00Z</time>
      </trkpt>
      <trkpt lat="48.75439" lon="1.77351">
        <ele>186</ele>
        <time>2022-03-24T14:18:05Z</time>
      </trkpt>
      <trkpt lat="48.75434" lon="1.77349">
        <ele>186.5</ele>
        <time>2022-03-24T14:18:09Z</time>
      </trkpt>
      <trkpt lat="48.7543" lon="1.77341">
        <ele>186.9</ele>
        <time>2022-03-24T14:18:12Z</time>
      </trkpt>
      <trkpt lat="48.75426" lon="1.7734">
        <ele>186.4</ele>
        <time>2022-03-24T14:18:18Z</time>
      </trkpt>
      <trkpt lat="48.75425" lon="1.77349">
        <ele>184.5</ele>
        <time>2022-03-24T14:18:21Z</time>
      </trkpt>
      <trkpt lat="48.75422" lon="1.77357">
        <ele>182.2</ele>
        <time>2022-03-24T14:18:26Z</time>
      </trkpt>
      <trkpt lat="48.75418" lon="1.77362">
        <ele>181.4</ele>
        <time>2022-03-24T14:18:30Z</time>
      </trkpt>
      <trkpt lat="48.75414" lon="1.77368">
        <ele>180.5</ele>
        <time>2022-03-24T14:18:34Z</time>
      </trkpt>
      <trkpt lat="48.75411" lon="1.77374">
        <ele>179.8</ele>
        <time>2022-03-24T14:18:37Z</time>
      </trkpt>
      <trkpt lat="48.75408" lon="1.77379">
        <ele>179.5</ele>
        <time>2022-03-24T14:18:42Z</time>
      </trkpt>
      <trkpt lat="48.75405" lon="1.77384">
        <ele>179.7</ele>
        <time>2022-03-24T14:18:45Z</time>
      </trkpt>
      <trkpt lat="48.75401" lon="1.77389">
        <ele>180.4</ele>
        <time>2022-03-24T14:18:48Z</time>
      </trkpt>
      <trkpt lat="48.75397" lon="1.77394">
        <ele>181.4</ele>
        <time>2022-03-24T14:18:52Z</time>
      </trkpt>
      <trkpt lat="48.75393" lon="1.77399">
        <ele>182</ele>
        <time>2022-03-24T14:18:57Z</time>
      </trkpt>
      <trkpt lat="48.75389" lon="1.77405">
        <ele>182.6</ele>
        <time>2022-03-24T14:19:02Z</time>
      </trkpt>
      <trkpt lat="48.75385" lon="1.77409">
        <ele>183.1</ele>
        <time>2022-03-24T14:19:05Z</time>
      </trkpt>
      <trkpt lat="48.75381" lon="1.77414">
        <ele>183</ele>
        <time>2022-03-24T14:19:10Z</time>
      </trkpt>
      <trkpt lat="48.75377" lon="1.7742">
        <ele>181.8</ele>
        <time>2022-03-24T14:19:14Z</time>
      </trkpt>
      <trkpt lat="48.75374" lon="1.77426">
        <ele>182</ele>
        <time>2022-03-24T14:19:19Z</time>
      </trkpt>
      <trkpt lat="48.7537" lon="1.77432">
        <ele>183.8</ele>
        <time>2022-03-24T14:19:23Z</time>
      </trkpt>
      <trkpt lat="48.75366" lon="1.77437">
        <ele>185.6</ele>
        <time>2022-03-24T14:19:28Z</time>
      </trkpt>
      <trkpt lat="48.75362" lon="1.77445">
        <ele>186.7</ele>
        <time>2022-03-24T14:19:33Z</time>
      </trkpt>
      <trkpt lat="48.75359" lon="1.77451">
        <ele>186.6</ele>
        <time>2022-03-24T14:19:37Z</time>
      </trkpt>
      <trkpt lat="48.75355" lon="1.77456">
        <ele>185.9</ele>
        <time>2022-03-24T14:19:41Z</time>
      </trkpt>
      <trkpt lat="48.75351" lon="1.77463">
        <ele>185.5</ele>
        <time>2022-03-24T14:19:46Z</time>
      </trkpt>
      <trkpt lat="48.75347" lon="1.77468">
        <ele>186.2</ele>
        <time>2022-03-24T14:19:50Z</time>
      </trkpt>
      <trkpt lat="48.75342" lon="1.77474">
        <ele>186.8</ele>
        <time>2022-03-24T14:19:55Z</time>
      </trkpt>
      <trkpt lat="48.75338" lon="1.77479">
        <ele>186.7</ele>
        <time>2022-03-24T14:20:00Z</time>
      </trkpt>
      <trkpt lat="48.75334" lon="1.77484">
        <ele>186.7</ele>
        <time>2022-03-24T14:20:04Z</time>
      </trkpt>
      <trkpt lat="48.7533" lon="1.77489">
        <ele>185.4</ele>
        <time>2022-03-24T14:20:08Z</time>
      </trkpt>
      <trkpt lat="48.75326" lon="1.77495">
        <ele>184</ele>
        <time>2022-03-24T14:20:13Z</time>
      </trkpt>
      <trkpt lat="48.75324" lon="1.77501">
        <ele>183.6</ele>
        <time>2022-03-24T14:20:17Z</time>
      </trkpt>
      <trkpt lat="48.7532" lon="1.77506">
        <ele>184.6</ele>
        <time>2022-03-24T14:20:22Z</time>
      </trkpt>
      <trkpt lat="48.75316" lon="1.77511">
        <ele>187</ele>
        <time>2022-03-24T14:20:26Z</time>
      </trkpt>
      <trkpt lat="48.75314" lon="1.77517">
        <ele>188.4</ele>
        <time>2022-03-24T14:20:29Z</time>
      </trkpt>
      <trkpt lat="48.75312" lon="1.77525">
        <ele>188.8</ele>
        <time>2022-03-24T14:20:33Z</time>
      </trkpt>
      <trkpt lat="48.75308" lon="1.7753">
        <ele>188.3</ele>
        <time>2022-03-24T14:20:38Z</time>
      </trkpt>
      <trkpt lat="48.75304" lon="1.77535">
        <ele>187.8</ele>
        <time>2022-03-24T14:20:42Z</time>
      </trkpt>
      <trkpt lat="48.753" lon="1.77539">
        <ele>186.9</ele>
        <time>2022-03-24T14:20:46Z</time>
      </trkpt>
      <trkpt lat="48.75295" lon="1.77544">
        <ele>187.3</ele>
        <time>2022-03-24T14:20:51Z</time>
      </trkpt>
      <trkpt lat="48.75292" lon="1.7755">
        <ele>187.1</ele>
        <time>2022-03-24T14:20:56Z</time>
      </trkpt>
      <trkpt lat="48.75288" lon="1.77555">
        <ele>185.2</ele>
        <time>2022-03-24T14:21:00Z</time>
      </trkpt>
      <trkpt lat="48.75284" lon="1.77561">
        <ele>184.6</ele>
        <time>2022-03-24T14:21:04Z</time>
      </trkpt>
      <trkpt lat="48.7528" lon="1.77565">
        <ele>185.5</ele>
        <time>2022-03-24T14:21:08Z</time>
      </trkpt>
      <trkpt lat="48.75276" lon="1.7757">
        <ele>186.2</ele>
        <time>2022-03-24T14:21:12Z</time>
      </trkpt>
      <trkpt lat="48.75273" lon="1.77575">
        <ele>187</ele>
        <time>2022-03-24T14:21:17Z</time>
      </trkpt>
      <trkpt lat="48.75269" lon="1.77582">
        <ele>187.4</ele>
        <time>2022-03-24T14:21:22Z</time>
      </trkpt>
      <trkpt lat="48.75265" lon="1.77587">
        <ele>187.1</ele>
        <time>2022-03-24T14:21:26Z</time>
      </trkpt>
      <trkpt lat="48.75261" lon="1.77591">
        <ele>187.6</ele>
        <time>2022-03-24T14:21:30Z</time>
      </trkpt>
      <trkpt lat="48.75256" lon="1.77593">
        <ele>188.1</ele>
        <time>2022-03-24T14:21:35Z</time>
      </trkpt>
      <trkpt lat="48.75252" lon="1.77599">
        <ele>188.5</ele>
        <time>2022-03-24T14:21:40Z</time>
      </trkpt>
      <trkpt lat="48.75249" lon="1.77605">
        <ele>190.1</ele>
        <time>2022-03-24T14:21:44Z</time>
      </trkpt>
      <trkpt lat="48.75246" lon="1.77611">
        <ele>191.1</ele>
        <time>2022-03-24T14:21:48Z</time>
      </trkpt>
      <trkpt lat="48.75243" lon="1.77617">
        <ele>189.9</ele>
        <time>2022-03-24T14:21:53Z</time>
      </trkpt>
      <trkpt lat="48.7524" lon="1.77622">
        <ele>187.6</ele>
        <time>2022-03-24T14:21:57Z</time>
      </trkpt>
      <trkpt lat="48.75236" lon="1.77628">
        <ele>186.3</ele>
        <time>2022-03-24T14:22:01Z</time>
      </trkpt>
      <trkpt lat="48.75233" lon="1.77634">
        <ele>185.4</ele>
        <time>2022-03-24T14:22:05Z</time>
      </trkpt>
      <trkpt lat="48.75229" lon="1.77639">
        <ele>185.4</ele>
        <time>2022-03-24T14:22:09Z</time>
      </trkpt>
      <trkpt lat="48.75225" lon="1.77643">
        <ele>186.4</ele>
        <time>2022-03-24T14:22:13Z</time>
      </trkpt>
      <trkpt lat="48.7522" lon="1.77648">
        <ele>188.3</ele>
        <time>2022-03-24T14:22:18Z</time>
      </trkpt>
      <trkpt lat="48.75217" lon="1.77652">
        <ele>189.6</ele>
        <time>2022-03-24T14:22:22Z</time>
      </trkpt>
      <trkpt lat="48.75213" lon="1.77658">
        <ele>190.3</ele>
        <time>2022-03-24T14:22:26Z</time>
      </trkpt>
      <trkpt lat="48.7521" lon="1.77664">
        <ele>191.3</ele>
        <time>2022-03-24T14:22:30Z</time>
      </trkpt>
      <trkpt lat="48.75206" lon="1.77669">
        <ele>192.6</ele>
        <time>2022-03-24T14:22:35Z</time>
      </trkpt>
      <trkpt lat="48.75201" lon="1.77676">
        <ele>193.1</ele>
        <time>2022-03-24T14:22:40Z</time>
      </trkpt>
      <trkpt lat="48.75197" lon="1.77681">
        <ele>192.3</ele>
        <time>2022-03-24T14:22:44Z</time>
      </trkpt>
      <trkpt lat="48.75194" lon="1.77687">
        <ele>190.5</ele>
        <time>2022-03-24T14:22:48Z</time>
      </trkpt>
      <trkpt lat="48.7519" lon="1.77692">
        <ele>189.9</ele>
        <time>2022-03-24T14:22:52Z</time>
      </trkpt>
      <trkpt lat="48.75187" lon="1.77697">
        <ele>189.6</ele>
        <time>2022-03-24T14:22:56Z</time>
      </trkpt>
      <trkpt lat="48.75182" lon="1.77702">
        <ele>188.7</ele>
        <time>2022-03-24T14:23:01Z</time>
      </trkpt>
      <trkpt lat="48.75179" lon="1.77709">
        <ele>188.3</ele>
        <time>2022-03-24T14:23:06Z</time>
      </trkpt>
      <trkpt lat="48.75176" lon="1.77714">
        <ele>188.1</ele>
        <time>2022-03-24T14:23:10Z</time>
      </trkpt>
      <trkpt lat="48.75172" lon="1.77719">
        <ele>187.4</ele>
        <time>2022-03-24T14:23:14Z</time>
      </trkpt>
      <trkpt lat="48.75168" lon="1.77724">
        <ele>185.5</ele>
        <time>2022-03-24T14:23:18Z</time>
      </trkpt>
      <trkpt lat="48.75163" lon="1.77729">
        <ele>184.5</ele>
        <time>2022-03-24T14:23:23Z</time>
      </trkpt>
      <trkpt lat="48.7516" lon="1.77734">
        <ele>184.1</ele>
        <time>2022-03-24T14:23:27Z</time>
      </trkpt>
      <trkpt lat="48.75156" lon="1.7774">
        <ele>184.1</ele>
        <time>2022-03-24T14:23:31Z</time>
      </trkpt>
      <trkpt lat="48.75153" lon="1.77747">
        <ele>183.1</ele>
        <time>2022-03-24T14:23:35Z</time>
      </trkpt>
      <trkpt lat="48.7515" lon="1.77752">
        <ele>182</ele>
        <time>2022-03-24T14:23:40Z</time>
      </trkpt>
      <trkpt lat="48.75146" lon="1.77757">
        <ele>180.6</ele>
        <time>2022-03-24T14:23:44Z</time>
      </trkpt>
      <trkpt lat="48.75142" lon="1.77761">
        <ele>180.3</ele>
        <time>2022-03-24T14:23:47Z</time>
      </trkpt>
      <trkpt lat="48.75138" lon="1.77765">
        <ele>181.5</ele>
        <time>2022-03-24T14:23:53Z</time>
      </trkpt>
      <trkpt lat="48.75134" lon="1.7777">
        <ele>182.4</ele>
        <time>2022-03-24T14:23:57Z</time>
      </trkpt>
      <trkpt lat="48.75132" lon="1.77779">
        <ele>183.1</ele>
        <time>2022-03-24T14:24:02Z</time>
      </trkpt>
      <trkpt lat="48.7513" lon="1.77786">
        <ele>185.2</ele>
        <time>2022-03-24T14:24:08Z</time>
      </trkpt>
      <trkpt lat="48.75125" lon="1.77788">
        <ele>187.2</ele>
        <time>2022-03-24T14:24:13Z</time>
      </trkpt>
      <trkpt lat="48.7512" lon="1.77788">
        <ele>187.9</ele>
        <time>2022-03-24T14:24:18Z</time>
      </trkpt>
      <trkpt lat="48.75116" lon="1.77789">
        <ele>187.1</ele>
        <time>2022-03-24T14:24:22Z</time>
      </trkpt>
      <trkpt lat="48.7511" lon="1.77788">
        <ele>186.8</ele>
        <time>2022-03-24T14:24:29Z</time>
      </trkpt>
      <trkpt lat="48.75106" lon="1.77783">
        <ele>187.5</ele>
        <time>2022-03-24T14:24:36Z</time>
      </trkpt>
      <trkpt lat="48.751" lon="1.77783">
        <ele>186.8</ele>
        <time>2022-03-24T14:24:43Z</time>
      </trkpt>
      <trkpt lat="48.75095" lon="1.77784">
        <ele>184.9</ele>
        <time>2022-03-24T14:24:49Z</time>
      </trkpt>
      <trkpt lat="48.7509" lon="1.77786">
        <ele>185</ele>
        <time>2022-03-24T14:24:56Z</time>
      </trkpt>
      <trkpt lat="48.75085" lon="1.77786">
        <ele>185.3</ele>
        <time>2022-03-24T14:25:02Z</time>
      </trkpt>
    </trkseg>
  </trk>
</gpx>